<?xml version="1.0" encoding="UTF-8" standalone="no" ?>
<gpx xmlns="http://www.topografix.com/GPX/1/1" xmlns:xsi="http://www.w3.org/2001/XMLSchema-instance" xsi:schemaLocation="http://www.topografix.com/GPX/1/1 http://www.topografix.com/GPX/1/1/gpx.xsd" version="1.1" creator="VisuGPX - https://www.visugpx.com">
  <metadata>
    <name>Saint Remeze 15.03.2017 VTT</name>
  </metadata>
  <trk>
    <name><![CDATA[Saint Remeze 15.03.2017 VTT]]></name>
    <trkseg>
      <trkpt lat="44.39684" lon="4.58856">
        <ele>380</ele>
        <time>2017-03-15T08:44:43.000Z</time>
      </trkpt>
      <trkpt lat="44.39685" lon="4.58857">
        <ele>380</ele>
        <time>2017-03-15T08:44:44.000Z</time>
      </trkpt>
      <trkpt lat="44.39687" lon="4.58865">
        <ele>379.79998779297</ele>
        <time>2017-03-15T08:44:48.000Z</time>
      </trkpt>
      <trkpt lat="44.39689" lon="4.58881">
        <ele>380.39999389648</ele>
        <time>2017-03-15T08:44:53.000Z</time>
      </trkpt>
      <trkpt lat="44.39691" lon="4.58896">
        <ele>381</ele>
        <time>2017-03-15T08:44:57.000Z</time>
      </trkpt>
      <trkpt lat="44.39692" lon="4.58899">
        <ele>381.20001220703</ele>
        <time>2017-03-15T08:44:58.000Z</time>
      </trkpt>
      <trkpt lat="44.39698" lon="4.58906">
        <ele>381.20001220703</ele>
        <time>2017-03-15T08:45:01.000Z</time>
      </trkpt>
      <trkpt lat="44.39701" lon="4.58908">
        <ele>381</ele>
        <time>2017-03-15T08:45:02.000Z</time>
      </trkpt>
      <trkpt lat="44.39708" lon="4.58916">
        <ele>380.20001220703</ele>
        <time>2017-03-15T08:45:05.000Z</time>
      </trkpt>
      <trkpt lat="44.3971" lon="4.58917">
        <ele>380.20001220703</ele>
        <time>2017-03-15T08:45:06.000Z</time>
      </trkpt>
      <trkpt lat="44.39713" lon="4.58916">
        <ele>380.20001220703</ele>
        <time>2017-03-15T08:45:07.000Z</time>
      </trkpt>
      <trkpt lat="44.39715" lon="4.58914">
        <ele>380</ele>
        <time>2017-03-15T08:45:09.000Z</time>
      </trkpt>
      <trkpt lat="44.39716" lon="4.58914">
        <ele>379.79998779297</ele>
        <time>2017-03-15T08:45:14.000Z</time>
      </trkpt>
      <trkpt lat="44.39716" lon="4.58914">
        <ele>380.39999389648</ele>
        <time>2017-03-15T08:45:28.000Z</time>
      </trkpt>
      <trkpt lat="44.39716" lon="4.58914">
        <ele>379.60000610352</ele>
        <time>2017-03-15T08:45:44.000Z</time>
      </trkpt>
      <trkpt lat="44.39716" lon="4.58914">
        <ele>379.79998779297</ele>
        <time>2017-03-15T08:45:55.000Z</time>
      </trkpt>
      <trkpt lat="44.39716" lon="4.58914">
        <ele>379.79998779297</ele>
        <time>2017-03-15T08:46:08.000Z</time>
      </trkpt>
      <trkpt lat="44.39716" lon="4.58914">
        <ele>379.60000610352</ele>
        <time>2017-03-15T08:46:21.000Z</time>
      </trkpt>
      <trkpt lat="44.39716" lon="4.58913">
        <ele>380.20001220703</ele>
        <time>2017-03-15T08:46:35.000Z</time>
      </trkpt>
      <trkpt lat="44.39716" lon="4.58913">
        <ele>380</ele>
        <time>2017-03-15T08:46:46.000Z</time>
      </trkpt>
      <trkpt lat="44.39716" lon="4.58913">
        <ele>380</ele>
        <time>2017-03-15T08:46:58.000Z</time>
      </trkpt>
      <trkpt lat="44.39716" lon="4.58913">
        <ele>380.20001220703</ele>
        <time>2017-03-15T08:47:12.000Z</time>
      </trkpt>
      <trkpt lat="44.39717" lon="4.58914">
        <ele>380.20001220703</ele>
        <time>2017-03-15T08:47:19.000Z</time>
      </trkpt>
      <trkpt lat="44.39721" lon="4.5892">
        <ele>380.20001220703</ele>
        <time>2017-03-15T08:47:23.000Z</time>
      </trkpt>
      <trkpt lat="44.39717" lon="4.58925">
        <ele>380.20001220703</ele>
        <time>2017-03-15T08:47:27.000Z</time>
      </trkpt>
      <trkpt lat="44.39715" lon="4.58926">
        <ele>380</ele>
        <time>2017-03-15T08:47:28.000Z</time>
      </trkpt>
      <trkpt lat="44.39705" lon="4.58936">
        <ele>380.20001220703</ele>
        <time>2017-03-15T08:47:34.000Z</time>
      </trkpt>
      <trkpt lat="44.39692" lon="4.58942">
        <ele>380.79998779297</ele>
        <time>2017-03-15T08:47:40.000Z</time>
      </trkpt>
      <trkpt lat="44.39677" lon="4.58952">
        <ele>380.79998779297</ele>
        <time>2017-03-15T08:47:48.000Z</time>
      </trkpt>
      <trkpt lat="44.39665" lon="4.5896">
        <ele>381</ele>
        <time>2017-03-15T08:47:55.000Z</time>
      </trkpt>
      <trkpt lat="44.39657" lon="4.58964">
        <ele>381.20001220703</ele>
        <time>2017-03-15T08:47:58.000Z</time>
      </trkpt>
      <trkpt lat="44.39651" lon="4.58967">
        <ele>381.20001220703</ele>
        <time>2017-03-15T08:48:00.000Z</time>
      </trkpt>
      <trkpt lat="44.39631" lon="4.58977">
        <ele>382.39999389648</ele>
        <time>2017-03-15T08:48:07.000Z</time>
      </trkpt>
      <trkpt lat="44.39628" lon="4.58978">
        <ele>382.39999389648</ele>
        <time>2017-03-15T08:48:08.000Z</time>
      </trkpt>
      <trkpt lat="44.3961" lon="4.58985">
        <ele>382.79998779297</ele>
        <time>2017-03-15T08:48:14.000Z</time>
      </trkpt>
      <trkpt lat="44.39589" lon="4.58994">
        <ele>383.20001220703</ele>
        <time>2017-03-15T08:48:22.000Z</time>
      </trkpt>
      <trkpt lat="44.39587" lon="4.58995">
        <ele>383.60000610352</ele>
        <time>2017-03-15T08:48:23.000Z</time>
      </trkpt>
      <trkpt lat="44.39577" lon="4.58995">
        <ele>384</ele>
        <time>2017-03-15T08:48:28.000Z</time>
      </trkpt>
      <trkpt lat="44.39575" lon="4.58994">
        <ele>384</ele>
        <time>2017-03-15T08:48:29.000Z</time>
      </trkpt>
      <trkpt lat="44.39571" lon="4.5899">
        <ele>384.39999389648</ele>
        <time>2017-03-15T08:48:32.000Z</time>
      </trkpt>
      <trkpt lat="44.39571" lon="4.58984">
        <ele>384.60000610352</ele>
        <time>2017-03-15T08:48:34.000Z</time>
      </trkpt>
      <trkpt lat="44.39572" lon="4.58977">
        <ele>384.60000610352</ele>
        <time>2017-03-15T08:48:36.000Z</time>
      </trkpt>
      <trkpt lat="44.39572" lon="4.58974">
        <ele>384.60000610352</ele>
        <time>2017-03-15T08:48:37.000Z</time>
      </trkpt>
      <trkpt lat="44.39571" lon="4.58952">
        <ele>384.79998779297</ele>
        <time>2017-03-15T08:48:43.000Z</time>
      </trkpt>
      <trkpt lat="44.3957" lon="4.58929">
        <ele>384.39999389648</ele>
        <time>2017-03-15T08:48:49.000Z</time>
      </trkpt>
      <trkpt lat="44.39569" lon="4.58911">
        <ele>383.79998779297</ele>
        <time>2017-03-15T08:48:54.000Z</time>
      </trkpt>
      <trkpt lat="44.39568" lon="4.58908">
        <ele>383.60000610352</ele>
        <time>2017-03-15T08:48:55.000Z</time>
      </trkpt>
      <trkpt lat="44.39567" lon="4.58888">
        <ele>383</ele>
        <time>2017-03-15T08:49:00.000Z</time>
      </trkpt>
      <trkpt lat="44.39567" lon="4.5886">
        <ele>382.60000610352</ele>
        <time>2017-03-15T08:49:05.000Z</time>
      </trkpt>
      <trkpt lat="44.39566" lon="4.58847">
        <ele>382</ele>
        <time>2017-03-15T08:49:07.000Z</time>
      </trkpt>
      <trkpt lat="44.39567" lon="4.58833">
        <ele>381.20001220703</ele>
        <time>2017-03-15T08:49:09.000Z</time>
      </trkpt>
      <trkpt lat="44.39567" lon="4.58818">
        <ele>379.60000610352</ele>
        <time>2017-03-15T08:49:11.000Z</time>
      </trkpt>
      <trkpt lat="44.39567" lon="4.58809">
        <ele>379.39999389648</ele>
        <time>2017-03-15T08:49:12.000Z</time>
      </trkpt>
      <trkpt lat="44.39568" lon="4.58779">
        <ele>378.39999389648</ele>
        <time>2017-03-15T08:49:15.000Z</time>
      </trkpt>
      <trkpt lat="44.39567" lon="4.58757">
        <ele>377.39999389648</ele>
        <time>2017-03-15T08:49:17.000Z</time>
      </trkpt>
      <trkpt lat="44.39568" lon="4.58732">
        <ele>376.20001220703</ele>
        <time>2017-03-15T08:49:19.000Z</time>
      </trkpt>
      <trkpt lat="44.39568" lon="4.58707">
        <ele>374.79998779297</ele>
        <time>2017-03-15T08:49:21.000Z</time>
      </trkpt>
      <trkpt lat="44.39568" lon="4.58681">
        <ele>373.20001220703</ele>
        <time>2017-03-15T08:49:23.000Z</time>
      </trkpt>
      <trkpt lat="44.3957" lon="4.58654">
        <ele>371.20001220703</ele>
        <time>2017-03-15T08:49:25.000Z</time>
      </trkpt>
      <trkpt lat="44.39571" lon="4.58642">
        <ele>369.79998779297</ele>
        <time>2017-03-15T08:49:26.000Z</time>
      </trkpt>
      <trkpt lat="44.39572" lon="4.58631">
        <ele>368.79998779297</ele>
        <time>2017-03-15T08:49:27.000Z</time>
      </trkpt>
      <trkpt lat="44.39572" lon="4.5862">
        <ele>368.39999389648</ele>
        <time>2017-03-15T08:49:28.000Z</time>
      </trkpt>
      <trkpt lat="44.39572" lon="4.58585">
        <ele>368</ele>
        <time>2017-03-15T08:49:32.000Z</time>
      </trkpt>
      <trkpt lat="44.39571" lon="4.58565">
        <ele>369.79998779297</ele>
        <time>2017-03-15T08:49:35.000Z</time>
      </trkpt>
      <trkpt lat="44.3957" lon="4.58553">
        <ele>370</ele>
        <time>2017-03-15T08:49:37.000Z</time>
      </trkpt>
      <trkpt lat="44.39562" lon="4.5853">
        <ele>371</ele>
        <time>2017-03-15T08:49:42.000Z</time>
      </trkpt>
      <trkpt lat="44.39551" lon="4.58528">
        <ele>371.79998779297</ele>
        <time>2017-03-15T08:49:46.000Z</time>
      </trkpt>
      <trkpt lat="44.39544" lon="4.5853">
        <ele>372.20001220703</ele>
        <time>2017-03-15T08:49:48.000Z</time>
      </trkpt>
      <trkpt lat="44.3953" lon="4.58533">
        <ele>372.60000610352</ele>
        <time>2017-03-15T08:49:52.000Z</time>
      </trkpt>
      <trkpt lat="44.39509" lon="4.58535">
        <ele>373.20001220703</ele>
        <time>2017-03-15T08:49:58.000Z</time>
      </trkpt>
      <trkpt lat="44.39506" lon="4.58535">
        <ele>373.20001220703</ele>
        <time>2017-03-15T08:49:59.000Z</time>
      </trkpt>
      <trkpt lat="44.39488" lon="4.58531">
        <ele>374</ele>
        <time>2017-03-15T08:50:05.000Z</time>
      </trkpt>
      <trkpt lat="44.39481" lon="4.58529">
        <ele>374.20001220703</ele>
        <time>2017-03-15T08:50:07.000Z</time>
      </trkpt>
      <trkpt lat="44.39468" lon="4.5852">
        <ele>374.79998779297</ele>
        <time>2017-03-15T08:50:12.000Z</time>
      </trkpt>
      <trkpt lat="44.39451" lon="4.58514">
        <ele>375</ele>
        <time>2017-03-15T08:50:18.000Z</time>
      </trkpt>
      <trkpt lat="44.39446" lon="4.58513">
        <ele>375.39999389648</ele>
        <time>2017-03-15T08:50:20.000Z</time>
      </trkpt>
      <trkpt lat="44.39435" lon="4.58511">
        <ele>375.79998779297</ele>
        <time>2017-03-15T08:50:24.000Z</time>
      </trkpt>
      <trkpt lat="44.39416" lon="4.5851">
        <ele>376.39999389648</ele>
        <time>2017-03-15T08:50:30.000Z</time>
      </trkpt>
      <trkpt lat="44.39413" lon="4.5851">
        <ele>376.60000610352</ele>
        <time>2017-03-15T08:50:31.000Z</time>
      </trkpt>
      <trkpt lat="44.39393" lon="4.58506">
        <ele>377</ele>
        <time>2017-03-15T08:50:38.000Z</time>
      </trkpt>
      <trkpt lat="44.39381" lon="4.58502">
        <ele>377.60000610352</ele>
        <time>2017-03-15T08:50:42.000Z</time>
      </trkpt>
      <trkpt lat="44.39372" lon="4.58498">
        <ele>377.60000610352</ele>
        <time>2017-03-15T08:50:45.000Z</time>
      </trkpt>
      <trkpt lat="44.39358" lon="4.58492">
        <ele>378.60000610352</ele>
        <time>2017-03-15T08:50:50.000Z</time>
      </trkpt>
      <trkpt lat="44.39348" lon="4.58488">
        <ele>378.60000610352</ele>
        <time>2017-03-15T08:50:53.000Z</time>
      </trkpt>
      <trkpt lat="44.39332" lon="4.58478">
        <ele>379</ele>
        <time>2017-03-15T08:50:59.000Z</time>
      </trkpt>
      <trkpt lat="44.3931" lon="4.58468">
        <ele>379.20001220703</ele>
        <time>2017-03-15T08:51:06.000Z</time>
      </trkpt>
      <trkpt lat="44.39301" lon="4.58466">
        <ele>379.79998779297</ele>
        <time>2017-03-15T08:51:09.000Z</time>
      </trkpt>
      <trkpt lat="44.39294" lon="4.58464">
        <ele>379.79998779297</ele>
        <time>2017-03-15T08:51:11.000Z</time>
      </trkpt>
      <trkpt lat="44.39273" lon="4.58459">
        <ele>380.60000610352</ele>
        <time>2017-03-15T08:51:18.000Z</time>
      </trkpt>
      <trkpt lat="44.3927" lon="4.58459">
        <ele>380.79998779297</ele>
        <time>2017-03-15T08:51:19.000Z</time>
      </trkpt>
      <trkpt lat="44.39258" lon="4.58459">
        <ele>380.79998779297</ele>
        <time>2017-03-15T08:51:23.000Z</time>
      </trkpt>
      <trkpt lat="44.39232" lon="4.58454">
        <ele>381.20001220703</ele>
        <time>2017-03-15T08:51:31.000Z</time>
      </trkpt>
      <trkpt lat="44.39209" lon="4.58444">
        <ele>381.79998779297</ele>
        <time>2017-03-15T08:51:37.000Z</time>
      </trkpt>
      <trkpt lat="44.39169" lon="4.58424">
        <ele>381</ele>
        <time>2017-03-15T08:51:48.000Z</time>
      </trkpt>
      <trkpt lat="44.39162" lon="4.5842">
        <ele>380.79998779297</ele>
        <time>2017-03-15T08:51:50.000Z</time>
      </trkpt>
      <trkpt lat="44.39158" lon="4.58418">
        <ele>380.60000610352</ele>
        <time>2017-03-15T08:51:51.000Z</time>
      </trkpt>
      <trkpt lat="44.39142" lon="4.58414">
        <ele>380.39999389648</ele>
        <time>2017-03-15T08:51:55.000Z</time>
      </trkpt>
      <trkpt lat="44.3912" lon="4.58407">
        <ele>380.20001220703</ele>
        <time>2017-03-15T08:52:01.000Z</time>
      </trkpt>
      <trkpt lat="44.3909" lon="4.58402">
        <ele>380.79998779297</ele>
        <time>2017-03-15T08:52:08.000Z</time>
      </trkpt>
      <trkpt lat="44.39061" lon="4.58402">
        <ele>380.39999389648</ele>
        <time>2017-03-15T08:52:15.000Z</time>
      </trkpt>
      <trkpt lat="44.39047" lon="4.58403">
        <ele>380.39999389648</ele>
        <time>2017-03-15T08:52:18.000Z</time>
      </trkpt>
      <trkpt lat="44.39031" lon="4.58405">
        <ele>380.60000610352</ele>
        <time>2017-03-15T08:52:22.000Z</time>
      </trkpt>
      <trkpt lat="44.39005" lon="4.5841">
        <ele>381.20001220703</ele>
        <time>2017-03-15T08:52:29.000Z</time>
      </trkpt>
      <trkpt lat="44.3898" lon="4.5841">
        <ele>381.60000610352</ele>
        <time>2017-03-15T08:52:36.000Z</time>
      </trkpt>
      <trkpt lat="44.38977" lon="4.58409">
        <ele>381.60000610352</ele>
        <time>2017-03-15T08:52:37.000Z</time>
      </trkpt>
      <trkpt lat="44.38964" lon="4.58399">
        <ele>382.20001220703</ele>
        <time>2017-03-15T08:52:42.000Z</time>
      </trkpt>
      <trkpt lat="44.38961" lon="4.58393">
        <ele>382.60000610352</ele>
        <time>2017-03-15T08:52:44.000Z</time>
      </trkpt>
      <trkpt lat="44.38959" lon="4.58389">
        <ele>382.79998779297</ele>
        <time>2017-03-15T08:52:45.000Z</time>
      </trkpt>
      <trkpt lat="44.38958" lon="4.58386">
        <ele>383</ele>
        <time>2017-03-15T08:52:46.000Z</time>
      </trkpt>
      <trkpt lat="44.38956" lon="4.58379">
        <ele>384.20001220703</ele>
        <time>2017-03-15T08:52:48.000Z</time>
      </trkpt>
      <trkpt lat="44.38954" lon="4.58369">
        <ele>385.60000610352</ele>
        <time>2017-03-15T08:52:51.000Z</time>
      </trkpt>
      <trkpt lat="44.38951" lon="4.58358">
        <ele>386.20001220703</ele>
        <time>2017-03-15T08:52:54.000Z</time>
      </trkpt>
      <trkpt lat="44.3895" lon="4.58352">
        <ele>386.60000610352</ele>
        <time>2017-03-15T08:52:56.000Z</time>
      </trkpt>
      <trkpt lat="44.38942" lon="4.58334">
        <ele>387.20001220703</ele>
        <time>2017-03-15T08:53:02.000Z</time>
      </trkpt>
      <trkpt lat="44.38937" lon="4.58326">
        <ele>387.60000610352</ele>
        <time>2017-03-15T08:53:05.000Z</time>
      </trkpt>
      <trkpt lat="44.38928" lon="4.58316">
        <ele>388.79998779297</ele>
        <time>2017-03-15T08:53:10.000Z</time>
      </trkpt>
      <trkpt lat="44.3892" lon="4.58308">
        <ele>389.79998779297</ele>
        <time>2017-03-15T08:53:14.000Z</time>
      </trkpt>
      <trkpt lat="44.38915" lon="4.58301">
        <ele>390.20001220703</ele>
        <time>2017-03-15T08:53:17.000Z</time>
      </trkpt>
      <trkpt lat="44.38904" lon="4.58284">
        <ele>390.79998779297</ele>
        <time>2017-03-15T08:53:23.000Z</time>
      </trkpt>
      <trkpt lat="44.38903" lon="4.58281">
        <ele>391</ele>
        <time>2017-03-15T08:53:24.000Z</time>
      </trkpt>
      <trkpt lat="44.38896" lon="4.58264">
        <ele>392</ele>
        <time>2017-03-15T08:53:29.000Z</time>
      </trkpt>
      <trkpt lat="44.38893" lon="4.58258">
        <ele>392.20001220703</ele>
        <time>2017-03-15T08:53:31.000Z</time>
      </trkpt>
      <trkpt lat="44.38887" lon="4.58243">
        <ele>392.60000610352</ele>
        <time>2017-03-15T08:53:37.000Z</time>
      </trkpt>
      <trkpt lat="44.38882" lon="4.58227">
        <ele>392.60000610352</ele>
        <time>2017-03-15T08:53:43.000Z</time>
      </trkpt>
      <trkpt lat="44.38879" lon="4.58219">
        <ele>393</ele>
        <time>2017-03-15T08:53:45.000Z</time>
      </trkpt>
      <trkpt lat="44.38874" lon="4.58205">
        <ele>393.60000610352</ele>
        <time>2017-03-15T08:53:49.000Z</time>
      </trkpt>
      <trkpt lat="44.38865" lon="4.5819">
        <ele>394.20001220703</ele>
        <time>2017-03-15T08:53:54.000Z</time>
      </trkpt>
      <trkpt lat="44.38863" lon="4.58188">
        <ele>394.20001220703</ele>
        <time>2017-03-15T08:53:55.000Z</time>
      </trkpt>
      <trkpt lat="44.38848" lon="4.58169">
        <ele>395</ele>
        <time>2017-03-15T08:54:02.000Z</time>
      </trkpt>
      <trkpt lat="44.38846" lon="4.58166">
        <ele>395.20001220703</ele>
        <time>2017-03-15T08:54:03.000Z</time>
      </trkpt>
      <trkpt lat="44.38835" lon="4.58151">
        <ele>395.60000610352</ele>
        <time>2017-03-15T08:54:08.000Z</time>
      </trkpt>
      <trkpt lat="44.3882" lon="4.58133">
        <ele>395.60000610352</ele>
        <time>2017-03-15T08:54:14.000Z</time>
      </trkpt>
      <trkpt lat="44.38805" lon="4.58113">
        <ele>395.79998779297</ele>
        <time>2017-03-15T08:54:20.000Z</time>
      </trkpt>
      <trkpt lat="44.38789" lon="4.58086">
        <ele>395.79998779297</ele>
        <time>2017-03-15T08:54:27.000Z</time>
      </trkpt>
      <trkpt lat="44.38775" lon="4.58071">
        <ele>396.20001220703</ele>
        <time>2017-03-15T08:54:32.000Z</time>
      </trkpt>
      <trkpt lat="44.38772" lon="4.58069">
        <ele>396.39999389648</ele>
        <time>2017-03-15T08:54:33.000Z</time>
      </trkpt>
      <trkpt lat="44.3875" lon="4.58055">
        <ele>396.20001220703</ele>
        <time>2017-03-15T08:54:40.000Z</time>
      </trkpt>
      <trkpt lat="44.38728" lon="4.58048">
        <ele>396.79998779297</ele>
        <time>2017-03-15T08:54:47.000Z</time>
      </trkpt>
      <trkpt lat="44.38704" lon="4.58045">
        <ele>397.39999389648</ele>
        <time>2017-03-15T08:54:54.000Z</time>
      </trkpt>
      <trkpt lat="44.38684" lon="4.58039">
        <ele>397.79998779297</ele>
        <time>2017-03-15T08:55:00.000Z</time>
      </trkpt>
      <trkpt lat="44.38664" lon="4.58035">
        <ele>398</ele>
        <time>2017-03-15T08:55:06.000Z</time>
      </trkpt>
      <trkpt lat="44.38645" lon="4.58029">
        <ele>398.39999389648</ele>
        <time>2017-03-15T08:55:12.000Z</time>
      </trkpt>
      <trkpt lat="44.38638" lon="4.58027">
        <ele>398.39999389648</ele>
        <time>2017-03-15T08:55:14.000Z</time>
      </trkpt>
      <trkpt lat="44.38618" lon="4.58027">
        <ele>399</ele>
        <time>2017-03-15T08:55:20.000Z</time>
      </trkpt>
      <trkpt lat="44.38607" lon="4.58033">
        <ele>399.60000610352</ele>
        <time>2017-03-15T08:55:24.000Z</time>
      </trkpt>
      <trkpt lat="44.38602" lon="4.58039">
        <ele>400</ele>
        <time>2017-03-15T08:55:26.000Z</time>
      </trkpt>
      <trkpt lat="44.3859" lon="4.58047">
        <ele>400.60000610352</ele>
        <time>2017-03-15T08:55:30.000Z</time>
      </trkpt>
      <trkpt lat="44.38582" lon="4.58051">
        <ele>401.20001220703</ele>
        <time>2017-03-15T08:55:33.000Z</time>
      </trkpt>
      <trkpt lat="44.38559" lon="4.58053">
        <ele>401.60000610352</ele>
        <time>2017-03-15T08:55:40.000Z</time>
      </trkpt>
      <trkpt lat="44.38538" lon="4.58038">
        <ele>402.60000610352</ele>
        <time>2017-03-15T08:55:47.000Z</time>
      </trkpt>
      <trkpt lat="44.38517" lon="4.5802">
        <ele>402.20001220703</ele>
        <time>2017-03-15T08:55:54.000Z</time>
      </trkpt>
      <trkpt lat="44.38495" lon="4.58004">
        <ele>402.39999389648</ele>
        <time>2017-03-15T08:56:01.000Z</time>
      </trkpt>
      <trkpt lat="44.38481" lon="4.57997">
        <ele>402.79998779297</ele>
        <time>2017-03-15T08:56:05.000Z</time>
      </trkpt>
      <trkpt lat="44.3847" lon="4.57994">
        <ele>402.79998779297</ele>
        <time>2017-03-15T08:56:08.000Z</time>
      </trkpt>
      <trkpt lat="44.38449" lon="4.57996">
        <ele>402.60000610352</ele>
        <time>2017-03-15T08:56:14.000Z</time>
      </trkpt>
      <trkpt lat="44.38433" lon="4.58007">
        <ele>403.39999389648</ele>
        <time>2017-03-15T08:56:20.000Z</time>
      </trkpt>
      <trkpt lat="44.38414" lon="4.58027">
        <ele>403.60000610352</ele>
        <time>2017-03-15T08:56:27.000Z</time>
      </trkpt>
      <trkpt lat="44.38402" lon="4.58047">
        <ele>403.39999389648</ele>
        <time>2017-03-15T08:56:33.000Z</time>
      </trkpt>
      <trkpt lat="44.38389" lon="4.5808">
        <ele>403.20001220703</ele>
        <time>2017-03-15T08:56:40.000Z</time>
      </trkpt>
      <trkpt lat="44.38371" lon="4.58112">
        <ele>402.60000610352</ele>
        <time>2017-03-15T08:56:47.000Z</time>
      </trkpt>
      <trkpt lat="44.38365" lon="4.58121">
        <ele>402.20001220703</ele>
        <time>2017-03-15T08:56:49.000Z</time>
      </trkpt>
      <trkpt lat="44.38357" lon="4.58128">
        <ele>401.60000610352</ele>
        <time>2017-03-15T08:56:51.000Z</time>
      </trkpt>
      <trkpt lat="44.38353" lon="4.58131">
        <ele>401.60000610352</ele>
        <time>2017-03-15T08:56:52.000Z</time>
      </trkpt>
      <trkpt lat="44.38349" lon="4.58132">
        <ele>401.39999389648</ele>
        <time>2017-03-15T08:56:53.000Z</time>
      </trkpt>
      <trkpt lat="44.38334" lon="4.58134">
        <ele>401.20001220703</ele>
        <time>2017-03-15T08:56:56.000Z</time>
      </trkpt>
      <trkpt lat="44.38307" lon="4.58132">
        <ele>400.39999389648</ele>
        <time>2017-03-15T08:57:01.000Z</time>
      </trkpt>
      <trkpt lat="44.38301" lon="4.58131">
        <ele>400.20001220703</ele>
        <time>2017-03-15T08:57:02.000Z</time>
      </trkpt>
      <trkpt lat="44.38296" lon="4.58132">
        <ele>400</ele>
        <time>2017-03-15T08:57:03.000Z</time>
      </trkpt>
      <trkpt lat="44.38282" lon="4.58142">
        <ele>399.60000610352</ele>
        <time>2017-03-15T08:57:06.000Z</time>
      </trkpt>
      <trkpt lat="44.38279" lon="4.58145">
        <ele>399.60000610352</ele>
        <time>2017-03-15T08:57:07.000Z</time>
      </trkpt>
      <trkpt lat="44.38276" lon="4.58148">
        <ele>399.39999389648</ele>
        <time>2017-03-15T08:57:08.000Z</time>
      </trkpt>
      <trkpt lat="44.38271" lon="4.58152">
        <ele>399</ele>
        <time>2017-03-15T08:57:10.000Z</time>
      </trkpt>
      <trkpt lat="44.38255" lon="4.58164">
        <ele>398.20001220703</ele>
        <time>2017-03-15T08:57:15.000Z</time>
      </trkpt>
      <trkpt lat="44.38251" lon="4.58165">
        <ele>397.79998779297</ele>
        <time>2017-03-15T08:57:16.000Z</time>
      </trkpt>
      <trkpt lat="44.38241" lon="4.58169">
        <ele>397.79998779297</ele>
        <time>2017-03-15T08:57:18.000Z</time>
      </trkpt>
      <trkpt lat="44.38233" lon="4.58175">
        <ele>397.60000610352</ele>
        <time>2017-03-15T08:57:20.000Z</time>
      </trkpt>
      <trkpt lat="44.38221" lon="4.58187">
        <ele>397.20001220703</ele>
        <time>2017-03-15T08:57:23.000Z</time>
      </trkpt>
      <trkpt lat="44.38213" lon="4.58194">
        <ele>397</ele>
        <time>2017-03-15T08:57:25.000Z</time>
      </trkpt>
      <trkpt lat="44.38205" lon="4.58202">
        <ele>397</ele>
        <time>2017-03-15T08:57:27.000Z</time>
      </trkpt>
      <trkpt lat="44.38193" lon="4.58212">
        <ele>396.79998779297</ele>
        <time>2017-03-15T08:57:30.000Z</time>
      </trkpt>
      <trkpt lat="44.38186" lon="4.58218">
        <ele>396.20001220703</ele>
        <time>2017-03-15T08:57:32.000Z</time>
      </trkpt>
      <trkpt lat="44.38182" lon="4.5822">
        <ele>395.79998779297</ele>
        <time>2017-03-15T08:57:33.000Z</time>
      </trkpt>
      <trkpt lat="44.38168" lon="4.58221">
        <ele>396</ele>
        <time>2017-03-15T08:57:36.000Z</time>
      </trkpt>
      <trkpt lat="44.38159" lon="4.58218">
        <ele>396.60000610352</ele>
        <time>2017-03-15T08:57:38.000Z</time>
      </trkpt>
      <trkpt lat="44.38155" lon="4.58216">
        <ele>396.79998779297</ele>
        <time>2017-03-15T08:57:39.000Z</time>
      </trkpt>
      <trkpt lat="44.38151" lon="4.58213">
        <ele>396.79998779297</ele>
        <time>2017-03-15T08:57:40.000Z</time>
      </trkpt>
      <trkpt lat="44.3812" lon="4.58203">
        <ele>396</ele>
        <time>2017-03-15T08:57:48.000Z</time>
      </trkpt>
      <trkpt lat="44.38116" lon="4.58203">
        <ele>395.60000610352</ele>
        <time>2017-03-15T08:57:49.000Z</time>
      </trkpt>
      <trkpt lat="44.38112" lon="4.58203">
        <ele>395.20001220703</ele>
        <time>2017-03-15T08:57:50.000Z</time>
      </trkpt>
      <trkpt lat="44.38103" lon="4.582">
        <ele>394.39999389648</ele>
        <time>2017-03-15T08:57:52.000Z</time>
      </trkpt>
      <trkpt lat="44.38099" lon="4.58196">
        <ele>393.79998779297</ele>
        <time>2017-03-15T08:57:53.000Z</time>
      </trkpt>
      <trkpt lat="44.38096" lon="4.5819">
        <ele>393.39999389648</ele>
        <time>2017-03-15T08:57:54.000Z</time>
      </trkpt>
      <trkpt lat="44.38094" lon="4.58176">
        <ele>393</ele>
        <time>2017-03-15T08:57:56.000Z</time>
      </trkpt>
      <trkpt lat="44.38093" lon="4.58161">
        <ele>392.39999389648</ele>
        <time>2017-03-15T08:57:58.000Z</time>
      </trkpt>
      <trkpt lat="44.38092" lon="4.58154">
        <ele>391.60000610352</ele>
        <time>2017-03-15T08:57:59.000Z</time>
      </trkpt>
      <trkpt lat="44.38092" lon="4.58147">
        <ele>392</ele>
        <time>2017-03-15T08:58:00.000Z</time>
      </trkpt>
      <trkpt lat="44.38093" lon="4.5814">
        <ele>392.79998779297</ele>
        <time>2017-03-15T08:58:01.000Z</time>
      </trkpt>
      <trkpt lat="44.38099" lon="4.5812">
        <ele>392</ele>
        <time>2017-03-15T08:58:04.000Z</time>
      </trkpt>
      <trkpt lat="44.38102" lon="4.58115">
        <ele>392.39999389648</ele>
        <time>2017-03-15T08:58:05.000Z</time>
      </trkpt>
      <trkpt lat="44.38105" lon="4.58109">
        <ele>392.39999389648</ele>
        <time>2017-03-15T08:58:06.000Z</time>
      </trkpt>
      <trkpt lat="44.38118" lon="4.58086">
        <ele>392.60000610352</ele>
        <time>2017-03-15T08:58:11.000Z</time>
      </trkpt>
      <trkpt lat="44.38117" lon="4.58069">
        <ele>392.79998779297</ele>
        <time>2017-03-15T08:58:15.000Z</time>
      </trkpt>
      <trkpt lat="44.38114" lon="4.58058">
        <ele>392.79998779297</ele>
        <time>2017-03-15T08:58:17.000Z</time>
      </trkpt>
      <trkpt lat="44.38111" lon="4.58048">
        <ele>392.20001220703</ele>
        <time>2017-03-15T08:58:19.000Z</time>
      </trkpt>
      <trkpt lat="44.38104" lon="4.58028">
        <ele>391.60000610352</ele>
        <time>2017-03-15T08:58:23.000Z</time>
      </trkpt>
      <trkpt lat="44.38099" lon="4.58014">
        <ele>391.60000610352</ele>
        <time>2017-03-15T08:58:26.000Z</time>
      </trkpt>
      <trkpt lat="44.38089" lon="4.57991">
        <ele>393</ele>
        <time>2017-03-15T08:58:31.000Z</time>
      </trkpt>
      <trkpt lat="44.38086" lon="4.57987">
        <ele>393.39999389648</ele>
        <time>2017-03-15T08:58:32.000Z</time>
      </trkpt>
      <trkpt lat="44.38074" lon="4.5795">
        <ele>394</ele>
        <time>2017-03-15T08:58:40.000Z</time>
      </trkpt>
      <trkpt lat="44.38072" lon="4.57941">
        <ele>394</ele>
        <time>2017-03-15T08:58:42.000Z</time>
      </trkpt>
      <trkpt lat="44.38069" lon="4.5792">
        <ele>394.60000610352</ele>
        <time>2017-03-15T08:58:47.000Z</time>
      </trkpt>
      <trkpt lat="44.38069" lon="4.57916">
        <ele>395.39999389648</ele>
        <time>2017-03-15T08:58:48.000Z</time>
      </trkpt>
      <trkpt lat="44.38062" lon="4.57896">
        <ele>396.20001220703</ele>
        <time>2017-03-15T08:58:53.000Z</time>
      </trkpt>
      <trkpt lat="44.38044" lon="4.57864">
        <ele>396.39999389648</ele>
        <time>2017-03-15T08:59:01.000Z</time>
      </trkpt>
      <trkpt lat="44.38043" lon="4.57859">
        <ele>396.60000610352</ele>
        <time>2017-03-15T08:59:02.000Z</time>
      </trkpt>
      <trkpt lat="44.38039" lon="4.57833">
        <ele>396.79998779297</ele>
        <time>2017-03-15T08:59:07.000Z</time>
      </trkpt>
      <trkpt lat="44.38035" lon="4.57817">
        <ele>397</ele>
        <time>2017-03-15T08:59:10.000Z</time>
      </trkpt>
      <trkpt lat="44.38028" lon="4.57803">
        <ele>397.20001220703</ele>
        <time>2017-03-15T08:59:13.000Z</time>
      </trkpt>
      <trkpt lat="44.38011" lon="4.57786">
        <ele>397.20001220703</ele>
        <time>2017-03-15T08:59:18.000Z</time>
      </trkpt>
      <trkpt lat="44.37984" lon="4.57769">
        <ele>395.79998779297</ele>
        <time>2017-03-15T08:59:24.000Z</time>
      </trkpt>
      <trkpt lat="44.37975" lon="4.57762">
        <ele>395.60000610352</ele>
        <time>2017-03-15T08:59:26.000Z</time>
      </trkpt>
      <trkpt lat="44.37963" lon="4.57749">
        <ele>395</ele>
        <time>2017-03-15T08:59:29.000Z</time>
      </trkpt>
      <trkpt lat="44.3796" lon="4.57744">
        <ele>395</ele>
        <time>2017-03-15T08:59:30.000Z</time>
      </trkpt>
      <trkpt lat="44.37958" lon="4.57738">
        <ele>395</ele>
        <time>2017-03-15T08:59:31.000Z</time>
      </trkpt>
      <trkpt lat="44.37956" lon="4.57724">
        <ele>394.60000610352</ele>
        <time>2017-03-15T08:59:33.000Z</time>
      </trkpt>
      <trkpt lat="44.37956" lon="4.57705">
        <ele>394.60000610352</ele>
        <time>2017-03-15T08:59:36.000Z</time>
      </trkpt>
      <trkpt lat="44.37956" lon="4.57699">
        <ele>394.60000610352</ele>
        <time>2017-03-15T08:59:37.000Z</time>
      </trkpt>
      <trkpt lat="44.37956" lon="4.57693">
        <ele>395</ele>
        <time>2017-03-15T08:59:38.000Z</time>
      </trkpt>
      <trkpt lat="44.37952" lon="4.57676">
        <ele>396</ele>
        <time>2017-03-15T08:59:41.000Z</time>
      </trkpt>
      <trkpt lat="44.37946" lon="4.57667">
        <ele>395.39999389648</ele>
        <time>2017-03-15T08:59:43.000Z</time>
      </trkpt>
      <trkpt lat="44.37929" lon="4.57654">
        <ele>394.60000610352</ele>
        <time>2017-03-15T08:59:47.000Z</time>
      </trkpt>
      <trkpt lat="44.37915" lon="4.57649">
        <ele>394.79998779297</ele>
        <time>2017-03-15T08:59:50.000Z</time>
      </trkpt>
      <trkpt lat="44.37907" lon="4.57645">
        <ele>395</ele>
        <time>2017-03-15T08:59:52.000Z</time>
      </trkpt>
      <trkpt lat="44.37904" lon="4.57642">
        <ele>395</ele>
        <time>2017-03-15T08:59:53.000Z</time>
      </trkpt>
      <trkpt lat="44.37895" lon="4.57629">
        <ele>394.60000610352</ele>
        <time>2017-03-15T08:59:56.000Z</time>
      </trkpt>
      <trkpt lat="44.37889" lon="4.5762">
        <ele>394.79998779297</ele>
        <time>2017-03-15T08:59:58.000Z</time>
      </trkpt>
      <trkpt lat="44.37873" lon="4.57598">
        <ele>394.39999389648</ele>
        <time>2017-03-15T09:00:03.000Z</time>
      </trkpt>
      <trkpt lat="44.3787" lon="4.57593">
        <ele>394.39999389648</ele>
        <time>2017-03-15T09:00:04.000Z</time>
      </trkpt>
      <trkpt lat="44.37853" lon="4.57572">
        <ele>394.39999389648</ele>
        <time>2017-03-15T09:00:09.000Z</time>
      </trkpt>
      <trkpt lat="44.37846" lon="4.57562">
        <ele>393.79998779297</ele>
        <time>2017-03-15T09:00:11.000Z</time>
      </trkpt>
      <trkpt lat="44.3784" lon="4.57551">
        <ele>393.39999389648</ele>
        <time>2017-03-15T09:00:13.000Z</time>
      </trkpt>
      <trkpt lat="44.37831" lon="4.57536">
        <ele>393.39999389648</ele>
        <time>2017-03-15T09:00:16.000Z</time>
      </trkpt>
      <trkpt lat="44.37822" lon="4.57518">
        <ele>393.20001220703</ele>
        <time>2017-03-15T09:00:19.000Z</time>
      </trkpt>
      <trkpt lat="44.37813" lon="4.57509">
        <ele>393</ele>
        <time>2017-03-15T09:00:21.000Z</time>
      </trkpt>
      <trkpt lat="44.37803" lon="4.57504">
        <ele>392.39999389648</ele>
        <time>2017-03-15T09:00:23.000Z</time>
      </trkpt>
      <trkpt lat="44.37798" lon="4.57501">
        <ele>391.60000610352</ele>
        <time>2017-03-15T09:00:24.000Z</time>
      </trkpt>
      <trkpt lat="44.37794" lon="4.57498">
        <ele>391.39999389648</ele>
        <time>2017-03-15T09:00:25.000Z</time>
      </trkpt>
      <trkpt lat="44.37785" lon="4.57491">
        <ele>390.79998779297</ele>
        <time>2017-03-15T09:00:27.000Z</time>
      </trkpt>
      <trkpt lat="44.3777" lon="4.57484">
        <ele>390.60000610352</ele>
        <time>2017-03-15T09:00:30.000Z</time>
      </trkpt>
      <trkpt lat="44.37765" lon="4.57482">
        <ele>390.20001220703</ele>
        <time>2017-03-15T09:00:31.000Z</time>
      </trkpt>
      <trkpt lat="44.3776" lon="4.57479">
        <ele>390</ele>
        <time>2017-03-15T09:00:32.000Z</time>
      </trkpt>
      <trkpt lat="44.37748" lon="4.57463">
        <ele>389</ele>
        <time>2017-03-15T09:00:35.000Z</time>
      </trkpt>
      <trkpt lat="44.37739" lon="4.57453">
        <ele>388.39999389648</ele>
        <time>2017-03-15T09:00:37.000Z</time>
      </trkpt>
      <trkpt lat="44.3773" lon="4.57442">
        <ele>388</ele>
        <time>2017-03-15T09:00:39.000Z</time>
      </trkpt>
      <trkpt lat="44.37722" lon="4.5743">
        <ele>387.20001220703</ele>
        <time>2017-03-15T09:00:41.000Z</time>
      </trkpt>
      <trkpt lat="44.37714" lon="4.57417">
        <ele>386.79998779297</ele>
        <time>2017-03-15T09:00:43.000Z</time>
      </trkpt>
      <trkpt lat="44.37701" lon="4.57399">
        <ele>385.39999389648</ele>
        <time>2017-03-15T09:00:46.000Z</time>
      </trkpt>
      <trkpt lat="44.37693" lon="4.57388">
        <ele>383.20001220703</ele>
        <time>2017-03-15T09:00:48.000Z</time>
      </trkpt>
      <trkpt lat="44.37674" lon="4.57363">
        <ele>382.60000610352</ele>
        <time>2017-03-15T09:00:53.000Z</time>
      </trkpt>
      <trkpt lat="44.37665" lon="4.57345">
        <ele>381.79998779297</ele>
        <time>2017-03-15T09:00:57.000Z</time>
      </trkpt>
      <trkpt lat="44.37666" lon="4.5734">
        <ele>381</ele>
        <time>2017-03-15T09:00:58.000Z</time>
      </trkpt>
      <trkpt lat="44.37668" lon="4.57335">
        <ele>380</ele>
        <time>2017-03-15T09:00:59.000Z</time>
      </trkpt>
      <trkpt lat="44.37675" lon="4.57319">
        <ele>379</ele>
        <time>2017-03-15T09:01:02.000Z</time>
      </trkpt>
      <trkpt lat="44.37677" lon="4.57313">
        <ele>378.79998779297</ele>
        <time>2017-03-15T09:01:03.000Z</time>
      </trkpt>
      <trkpt lat="44.3768" lon="4.57304">
        <ele>377.79998779297</ele>
        <time>2017-03-15T09:01:06.000Z</time>
      </trkpt>
      <trkpt lat="44.3768" lon="4.57303">
        <ele>377.79998779297</ele>
        <time>2017-03-15T09:01:10.000Z</time>
      </trkpt>
      <trkpt lat="44.3768" lon="4.57302">
        <ele>377.60000610352</ele>
        <time>2017-03-15T09:01:17.000Z</time>
      </trkpt>
      <trkpt lat="44.37681" lon="4.573">
        <ele>377.60000610352</ele>
        <time>2017-03-15T09:01:18.000Z</time>
      </trkpt>
      <trkpt lat="44.37681" lon="4.57284">
        <ele>377.60000610352</ele>
        <time>2017-03-15T09:01:22.000Z</time>
      </trkpt>
      <trkpt lat="44.37678" lon="4.57267">
        <ele>376.39999389648</ele>
        <time>2017-03-15T09:01:25.000Z</time>
      </trkpt>
      <trkpt lat="44.37677" lon="4.57256">
        <ele>375.39999389648</ele>
        <time>2017-03-15T09:01:27.000Z</time>
      </trkpt>
      <trkpt lat="44.37678" lon="4.57246">
        <ele>375</ele>
        <time>2017-03-15T09:01:29.000Z</time>
      </trkpt>
      <trkpt lat="44.37682" lon="4.57226">
        <ele>374.79998779297</ele>
        <time>2017-03-15T09:01:34.000Z</time>
      </trkpt>
      <trkpt lat="44.37682" lon="4.57226">
        <ele>374.39999389648</ele>
        <time>2017-03-15T09:01:38.000Z</time>
      </trkpt>
      <trkpt lat="44.37682" lon="4.57226">
        <ele>374.20001220703</ele>
        <time>2017-03-15T09:01:39.000Z</time>
      </trkpt>
      <trkpt lat="44.37683" lon="4.57225">
        <ele>374.20001220703</ele>
        <time>2017-03-15T09:01:49.000Z</time>
      </trkpt>
      <trkpt lat="44.37687" lon="4.57217">
        <ele>374</ele>
        <time>2017-03-15T09:01:54.000Z</time>
      </trkpt>
      <trkpt lat="44.37699" lon="4.57201">
        <ele>374</ele>
        <time>2017-03-15T09:02:01.000Z</time>
      </trkpt>
      <trkpt lat="44.37712" lon="4.57191">
        <ele>374.20001220703</ele>
        <time>2017-03-15T09:02:06.000Z</time>
      </trkpt>
      <trkpt lat="44.37731" lon="4.57177">
        <ele>374</ele>
        <time>2017-03-15T09:02:12.000Z</time>
      </trkpt>
      <trkpt lat="44.37733" lon="4.57172">
        <ele>374</ele>
        <time>2017-03-15T09:02:13.000Z</time>
      </trkpt>
      <trkpt lat="44.37748" lon="4.57158">
        <ele>373.39999389648</ele>
        <time>2017-03-15T09:02:17.000Z</time>
      </trkpt>
      <trkpt lat="44.37755" lon="4.57155">
        <ele>373.39999389648</ele>
        <time>2017-03-15T09:02:19.000Z</time>
      </trkpt>
      <trkpt lat="44.37759" lon="4.57154">
        <ele>373.20001220703</ele>
        <time>2017-03-15T09:02:20.000Z</time>
      </trkpt>
      <trkpt lat="44.37767" lon="4.57146">
        <ele>372.60000610352</ele>
        <time>2017-03-15T09:02:23.000Z</time>
      </trkpt>
      <trkpt lat="44.37769" lon="4.5714">
        <ele>372</ele>
        <time>2017-03-15T09:02:24.000Z</time>
      </trkpt>
      <trkpt lat="44.37769" lon="4.5713">
        <ele>371.20001220703</ele>
        <time>2017-03-15T09:02:26.000Z</time>
      </trkpt>
      <trkpt lat="44.37771" lon="4.57117">
        <ele>371</ele>
        <time>2017-03-15T09:02:28.000Z</time>
      </trkpt>
      <trkpt lat="44.37774" lon="4.57106">
        <ele>370.39999389648</ele>
        <time>2017-03-15T09:02:30.000Z</time>
      </trkpt>
      <trkpt lat="44.37783" lon="4.57084">
        <ele>369.20001220703</ele>
        <time>2017-03-15T09:02:34.000Z</time>
      </trkpt>
      <trkpt lat="44.37784" lon="4.57079">
        <ele>368.79998779297</ele>
        <time>2017-03-15T09:02:35.000Z</time>
      </trkpt>
      <trkpt lat="44.37784" lon="4.57069">
        <ele>369.20001220703</ele>
        <time>2017-03-15T09:02:39.000Z</time>
      </trkpt>
      <trkpt lat="44.37784" lon="4.57068">
        <ele>369</ele>
        <time>2017-03-15T09:02:44.000Z</time>
      </trkpt>
      <trkpt lat="44.37784" lon="4.57067">
        <ele>369</ele>
        <time>2017-03-15T09:02:53.000Z</time>
      </trkpt>
      <trkpt lat="44.37783" lon="4.57053">
        <ele>369.20001220703</ele>
        <time>2017-03-15T09:02:59.000Z</time>
      </trkpt>
      <trkpt lat="44.37784" lon="4.57034">
        <ele>369.79998779297</ele>
        <time>2017-03-15T09:03:04.000Z</time>
      </trkpt>
      <trkpt lat="44.37784" lon="4.5703">
        <ele>370.20001220703</ele>
        <time>2017-03-15T09:03:05.000Z</time>
      </trkpt>
      <trkpt lat="44.37783" lon="4.57007">
        <ele>369.60000610352</ele>
        <time>2017-03-15T09:03:10.000Z</time>
      </trkpt>
      <trkpt lat="44.37782" lon="4.56997">
        <ele>369</ele>
        <time>2017-03-15T09:03:12.000Z</time>
      </trkpt>
      <trkpt lat="44.37776" lon="4.56969">
        <ele>369</ele>
        <time>2017-03-15T09:03:17.000Z</time>
      </trkpt>
      <trkpt lat="44.37761" lon="4.56939">
        <ele>367.79998779297</ele>
        <time>2017-03-15T09:03:23.000Z</time>
      </trkpt>
      <trkpt lat="44.37753" lon="4.56924">
        <ele>368.39999389648</ele>
        <time>2017-03-15T09:03:26.000Z</time>
      </trkpt>
      <trkpt lat="44.37742" lon="4.56913">
        <ele>368</ele>
        <time>2017-03-15T09:03:29.000Z</time>
      </trkpt>
      <trkpt lat="44.37739" lon="4.56909">
        <ele>368</ele>
        <time>2017-03-15T09:03:30.000Z</time>
      </trkpt>
      <trkpt lat="44.37733" lon="4.569">
        <ele>367.79998779297</ele>
        <time>2017-03-15T09:03:32.000Z</time>
      </trkpt>
      <trkpt lat="44.37732" lon="4.56889">
        <ele>367</ele>
        <time>2017-03-15T09:03:34.000Z</time>
      </trkpt>
      <trkpt lat="44.37737" lon="4.56861">
        <ele>367.79998779297</ele>
        <time>2017-03-15T09:03:39.000Z</time>
      </trkpt>
      <trkpt lat="44.37743" lon="4.56853">
        <ele>367.79998779297</ele>
        <time>2017-03-15T09:03:41.000Z</time>
      </trkpt>
      <trkpt lat="44.37748" lon="4.56845">
        <ele>367.39999389648</ele>
        <time>2017-03-15T09:03:43.000Z</time>
      </trkpt>
      <trkpt lat="44.37751" lon="4.56842">
        <ele>366.39999389648</ele>
        <time>2017-03-15T09:03:44.000Z</time>
      </trkpt>
      <trkpt lat="44.37756" lon="4.5683">
        <ele>366.39999389648</ele>
        <time>2017-03-15T09:03:47.000Z</time>
      </trkpt>
      <trkpt lat="44.37756" lon="4.56825">
        <ele>366.60000610352</ele>
        <time>2017-03-15T09:03:48.000Z</time>
      </trkpt>
      <trkpt lat="44.37746" lon="4.56804">
        <ele>367.20001220703</ele>
        <time>2017-03-15T09:03:53.000Z</time>
      </trkpt>
      <trkpt lat="44.37729" lon="4.56785">
        <ele>367.39999389648</ele>
        <time>2017-03-15T09:03:59.000Z</time>
      </trkpt>
      <trkpt lat="44.37716" lon="4.56768">
        <ele>367.39999389648</ele>
        <time>2017-03-15T09:04:04.000Z</time>
      </trkpt>
      <trkpt lat="44.37706" lon="4.56759">
        <ele>368.20001220703</ele>
        <time>2017-03-15T09:04:07.000Z</time>
      </trkpt>
      <trkpt lat="44.37699" lon="4.56756">
        <ele>368.60000610352</ele>
        <time>2017-03-15T09:04:09.000Z</time>
      </trkpt>
      <trkpt lat="44.3769" lon="4.56758">
        <ele>368.20001220703</ele>
        <time>2017-03-15T09:04:11.000Z</time>
      </trkpt>
      <trkpt lat="44.37678" lon="4.56764">
        <ele>368.39999389648</ele>
        <time>2017-03-15T09:04:14.000Z</time>
      </trkpt>
      <trkpt lat="44.37674" lon="4.56766">
        <ele>368.20001220703</ele>
        <time>2017-03-15T09:04:15.000Z</time>
      </trkpt>
      <trkpt lat="44.37643" lon="4.5677">
        <ele>368</ele>
        <time>2017-03-15T09:04:22.000Z</time>
      </trkpt>
      <trkpt lat="44.37634" lon="4.56771">
        <ele>367.39999389648</ele>
        <time>2017-03-15T09:04:24.000Z</time>
      </trkpt>
      <trkpt lat="44.3762" lon="4.56769">
        <ele>367.39999389648</ele>
        <time>2017-03-15T09:04:27.000Z</time>
      </trkpt>
      <trkpt lat="44.37607" lon="4.56766">
        <ele>367.20001220703</ele>
        <time>2017-03-15T09:04:30.000Z</time>
      </trkpt>
      <trkpt lat="44.37577" lon="4.56764">
        <ele>366.79998779297</ele>
        <time>2017-03-15T09:04:37.000Z</time>
      </trkpt>
      <trkpt lat="44.37537" lon="4.56769">
        <ele>366.79998779297</ele>
        <time>2017-03-15T09:04:46.000Z</time>
      </trkpt>
      <trkpt lat="44.37528" lon="4.56771">
        <ele>366.20001220703</ele>
        <time>2017-03-15T09:04:48.000Z</time>
      </trkpt>
      <trkpt lat="44.37498" lon="4.56776">
        <ele>365</ele>
        <time>2017-03-15T09:04:54.000Z</time>
      </trkpt>
      <trkpt lat="44.37476" lon="4.56779">
        <ele>363.60000610352</ele>
        <time>2017-03-15T09:04:58.000Z</time>
      </trkpt>
      <trkpt lat="44.37453" lon="4.5678">
        <ele>363.20001220703</ele>
        <time>2017-03-15T09:05:02.000Z</time>
      </trkpt>
      <trkpt lat="44.37421" lon="4.56774">
        <ele>362.60000610352</ele>
        <time>2017-03-15T09:05:08.000Z</time>
      </trkpt>
      <trkpt lat="44.37405" lon="4.56776">
        <ele>361.60000610352</ele>
        <time>2017-03-15T09:05:11.000Z</time>
      </trkpt>
      <trkpt lat="44.37394" lon="4.56779">
        <ele>360</ele>
        <time>2017-03-15T09:05:13.000Z</time>
      </trkpt>
      <trkpt lat="44.37388" lon="4.56781">
        <ele>359.39999389648</ele>
        <time>2017-03-15T09:05:14.000Z</time>
      </trkpt>
      <trkpt lat="44.37376" lon="4.56783">
        <ele>358.60000610352</ele>
        <time>2017-03-15T09:05:16.000Z</time>
      </trkpt>
      <trkpt lat="44.37356" lon="4.56788">
        <ele>357.60000610352</ele>
        <time>2017-03-15T09:05:19.000Z</time>
      </trkpt>
      <trkpt lat="44.37348" lon="4.56789">
        <ele>357.20001220703</ele>
        <time>2017-03-15T09:05:20.000Z</time>
      </trkpt>
      <trkpt lat="44.37334" lon="4.5679">
        <ele>356.20001220703</ele>
        <time>2017-03-15T09:05:22.000Z</time>
      </trkpt>
      <trkpt lat="44.3732" lon="4.56792">
        <ele>355.20001220703</ele>
        <time>2017-03-15T09:05:24.000Z</time>
      </trkpt>
      <trkpt lat="44.37312" lon="4.56794">
        <ele>354.39999389648</ele>
        <time>2017-03-15T09:05:25.000Z</time>
      </trkpt>
      <trkpt lat="44.37274" lon="4.56797">
        <ele>353.20001220703</ele>
        <time>2017-03-15T09:05:30.000Z</time>
      </trkpt>
      <trkpt lat="44.37267" lon="4.56797">
        <ele>352.60000610352</ele>
        <time>2017-03-15T09:05:31.000Z</time>
      </trkpt>
      <trkpt lat="44.3726" lon="4.56797">
        <ele>352</ele>
        <time>2017-03-15T09:05:32.000Z</time>
      </trkpt>
      <trkpt lat="44.37246" lon="4.56799">
        <ele>352</ele>
        <time>2017-03-15T09:05:34.000Z</time>
      </trkpt>
      <trkpt lat="44.37233" lon="4.56805">
        <ele>350.79998779297</ele>
        <time>2017-03-15T09:05:36.000Z</time>
      </trkpt>
      <trkpt lat="44.37219" lon="4.56808">
        <ele>350.20001220703</ele>
        <time>2017-03-15T09:05:38.000Z</time>
      </trkpt>
      <trkpt lat="44.37206" lon="4.56806">
        <ele>350</ele>
        <time>2017-03-15T09:05:40.000Z</time>
      </trkpt>
      <trkpt lat="44.37187" lon="4.56803">
        <ele>350.20001220703</ele>
        <time>2017-03-15T09:05:43.000Z</time>
      </trkpt>
      <trkpt lat="44.3717" lon="4.56802">
        <ele>350.20001220703</ele>
        <time>2017-03-15T09:05:46.000Z</time>
      </trkpt>
      <trkpt lat="44.37148" lon="4.56801">
        <ele>349.60000610352</ele>
        <time>2017-03-15T09:05:50.000Z</time>
      </trkpt>
      <trkpt lat="44.37143" lon="4.568">
        <ele>349.60000610352</ele>
        <time>2017-03-15T09:05:51.000Z</time>
      </trkpt>
      <trkpt lat="44.37138" lon="4.56798">
        <ele>349.79998779297</ele>
        <time>2017-03-15T09:05:52.000Z</time>
      </trkpt>
      <trkpt lat="44.37112" lon="4.5679">
        <ele>349.60000610352</ele>
        <time>2017-03-15T09:05:57.000Z</time>
      </trkpt>
      <trkpt lat="44.37101" lon="4.56784">
        <ele>349</ele>
        <time>2017-03-15T09:05:59.000Z</time>
      </trkpt>
      <trkpt lat="44.37095" lon="4.56784">
        <ele>348.60000610352</ele>
        <time>2017-03-15T09:06:00.000Z</time>
      </trkpt>
      <trkpt lat="44.37082" lon="4.56786">
        <ele>348.20001220703</ele>
        <time>2017-03-15T09:06:02.000Z</time>
      </trkpt>
      <trkpt lat="44.37077" lon="4.56787">
        <ele>347.79998779297</ele>
        <time>2017-03-15T09:06:03.000Z</time>
      </trkpt>
      <trkpt lat="44.37071" lon="4.56789">
        <ele>347.60000610352</ele>
        <time>2017-03-15T09:06:04.000Z</time>
      </trkpt>
      <trkpt lat="44.37048" lon="4.56795">
        <ele>347</ele>
        <time>2017-03-15T09:06:08.000Z</time>
      </trkpt>
      <trkpt lat="44.37029" lon="4.56794">
        <ele>346.39999389648</ele>
        <time>2017-03-15T09:06:11.000Z</time>
      </trkpt>
      <trkpt lat="44.37015" lon="4.56792">
        <ele>345.20001220703</ele>
        <time>2017-03-15T09:06:13.000Z</time>
      </trkpt>
      <trkpt lat="44.37008" lon="4.56793">
        <ele>344.60000610352</ele>
        <time>2017-03-15T09:06:14.000Z</time>
      </trkpt>
      <trkpt lat="44.37001" lon="4.56794">
        <ele>343.79998779297</ele>
        <time>2017-03-15T09:06:15.000Z</time>
      </trkpt>
      <trkpt lat="44.36988" lon="4.56798">
        <ele>343.20001220703</ele>
        <time>2017-03-15T09:06:17.000Z</time>
      </trkpt>
      <trkpt lat="44.36963" lon="4.56814">
        <ele>343</ele>
        <time>2017-03-15T09:06:21.000Z</time>
      </trkpt>
      <trkpt lat="44.36957" lon="4.56816">
        <ele>342.60000610352</ele>
        <time>2017-03-15T09:06:22.000Z</time>
      </trkpt>
      <trkpt lat="44.3694" lon="4.5682">
        <ele>341.20001220703</ele>
        <time>2017-03-15T09:06:25.000Z</time>
      </trkpt>
      <trkpt lat="44.36935" lon="4.56822">
        <ele>340.79998779297</ele>
        <time>2017-03-15T09:06:26.000Z</time>
      </trkpt>
      <trkpt lat="44.36924" lon="4.56832">
        <ele>341</ele>
        <time>2017-03-15T09:06:29.000Z</time>
      </trkpt>
      <trkpt lat="44.36919" lon="4.56836">
        <ele>340.60000610352</ele>
        <time>2017-03-15T09:06:30.000Z</time>
      </trkpt>
      <trkpt lat="44.36915" lon="4.5684">
        <ele>340</ele>
        <time>2017-03-15T09:06:31.000Z</time>
      </trkpt>
      <trkpt lat="44.36907" lon="4.56849">
        <ele>339</ele>
        <time>2017-03-15T09:06:33.000Z</time>
      </trkpt>
      <trkpt lat="44.36903" lon="4.56854">
        <ele>338.20001220703</ele>
        <time>2017-03-15T09:06:34.000Z</time>
      </trkpt>
      <trkpt lat="44.369" lon="4.56859">
        <ele>337.79998779297</ele>
        <time>2017-03-15T09:06:35.000Z</time>
      </trkpt>
      <trkpt lat="44.36874" lon="4.56894">
        <ele>337.60000610352</ele>
        <time>2017-03-15T09:06:41.000Z</time>
      </trkpt>
      <trkpt lat="44.36854" lon="4.56915">
        <ele>336.79998779297</ele>
        <time>2017-03-15T09:06:45.000Z</time>
      </trkpt>
      <trkpt lat="44.36848" lon="4.56919">
        <ele>336.39999389648</ele>
        <time>2017-03-15T09:06:46.000Z</time>
      </trkpt>
      <trkpt lat="44.36842" lon="4.56923">
        <ele>336.20001220703</ele>
        <time>2017-03-15T09:06:47.000Z</time>
      </trkpt>
      <trkpt lat="44.36836" lon="4.56926">
        <ele>335.79998779297</ele>
        <time>2017-03-15T09:06:48.000Z</time>
      </trkpt>
      <trkpt lat="44.36805" lon="4.56942">
        <ele>334.39999389648</ele>
        <time>2017-03-15T09:06:53.000Z</time>
      </trkpt>
      <trkpt lat="44.36798" lon="4.56945">
        <ele>334.39999389648</ele>
        <time>2017-03-15T09:06:54.000Z</time>
      </trkpt>
      <trkpt lat="44.36778" lon="4.56952">
        <ele>332.79998779297</ele>
        <time>2017-03-15T09:06:57.000Z</time>
      </trkpt>
      <trkpt lat="44.36758" lon="4.56953">
        <ele>331.79998779297</ele>
        <time>2017-03-15T09:07:00.000Z</time>
      </trkpt>
      <trkpt lat="44.36753" lon="4.56954">
        <ele>331.20001220703</ele>
        <time>2017-03-15T09:07:01.000Z</time>
      </trkpt>
      <trkpt lat="44.36737" lon="4.56952">
        <ele>330.20001220703</ele>
        <time>2017-03-15T09:07:04.000Z</time>
      </trkpt>
      <trkpt lat="44.36731" lon="4.56951">
        <ele>329.60000610352</ele>
        <time>2017-03-15T09:07:05.000Z</time>
      </trkpt>
      <trkpt lat="44.36713" lon="4.56944">
        <ele>329</ele>
        <time>2017-03-15T09:07:08.000Z</time>
      </trkpt>
      <trkpt lat="44.367" lon="4.56939">
        <ele>327.60000610352</ele>
        <time>2017-03-15T09:07:10.000Z</time>
      </trkpt>
      <trkpt lat="44.36693" lon="4.56936">
        <ele>327</ele>
        <time>2017-03-15T09:07:11.000Z</time>
      </trkpt>
      <trkpt lat="44.36686" lon="4.56933">
        <ele>326.39999389648</ele>
        <time>2017-03-15T09:07:12.000Z</time>
      </trkpt>
      <trkpt lat="44.3668" lon="4.56929">
        <ele>325.20001220703</ele>
        <time>2017-03-15T09:07:13.000Z</time>
      </trkpt>
      <trkpt lat="44.36674" lon="4.56927">
        <ele>324.60000610352</ele>
        <time>2017-03-15T09:07:14.000Z</time>
      </trkpt>
      <trkpt lat="44.36668" lon="4.56925">
        <ele>323.60000610352</ele>
        <time>2017-03-15T09:07:15.000Z</time>
      </trkpt>
      <trkpt lat="44.36662" lon="4.56921">
        <ele>323.20001220703</ele>
        <time>2017-03-15T09:07:16.000Z</time>
      </trkpt>
      <trkpt lat="44.36656" lon="4.56917">
        <ele>322.39999389648</ele>
        <time>2017-03-15T09:07:17.000Z</time>
      </trkpt>
      <trkpt lat="44.36637" lon="4.56906">
        <ele>320.79998779297</ele>
        <time>2017-03-15T09:07:20.000Z</time>
      </trkpt>
      <trkpt lat="44.36631" lon="4.56903">
        <ele>319.60000610352</ele>
        <time>2017-03-15T09:07:21.000Z</time>
      </trkpt>
      <trkpt lat="44.36625" lon="4.569">
        <ele>318.39999389648</ele>
        <time>2017-03-15T09:07:22.000Z</time>
      </trkpt>
      <trkpt lat="44.36612" lon="4.56894">
        <ele>317</ele>
        <time>2017-03-15T09:07:24.000Z</time>
      </trkpt>
      <trkpt lat="44.36606" lon="4.56892">
        <ele>315.79998779297</ele>
        <time>2017-03-15T09:07:25.000Z</time>
      </trkpt>
      <trkpt lat="44.36592" lon="4.56891">
        <ele>314.60000610352</ele>
        <time>2017-03-15T09:07:27.000Z</time>
      </trkpt>
      <trkpt lat="44.36585" lon="4.56892">
        <ele>314.60000610352</ele>
        <time>2017-03-15T09:07:28.000Z</time>
      </trkpt>
      <trkpt lat="44.36571" lon="4.56895">
        <ele>314</ele>
        <time>2017-03-15T09:07:30.000Z</time>
      </trkpt>
      <trkpt lat="44.36556" lon="4.56898">
        <ele>313.39999389648</ele>
        <time>2017-03-15T09:07:32.000Z</time>
      </trkpt>
      <trkpt lat="44.36541" lon="4.56902">
        <ele>312.39999389648</ele>
        <time>2017-03-15T09:07:34.000Z</time>
      </trkpt>
      <trkpt lat="44.36525" lon="4.56903">
        <ele>311</ele>
        <time>2017-03-15T09:07:36.000Z</time>
      </trkpt>
      <trkpt lat="44.36517" lon="4.56903">
        <ele>310</ele>
        <time>2017-03-15T09:07:37.000Z</time>
      </trkpt>
      <trkpt lat="44.36509" lon="4.56903">
        <ele>308.79998779297</ele>
        <time>2017-03-15T09:07:38.000Z</time>
      </trkpt>
      <trkpt lat="44.36501" lon="4.56902">
        <ele>308.20001220703</ele>
        <time>2017-03-15T09:07:39.000Z</time>
      </trkpt>
      <trkpt lat="44.36486" lon="4.56901">
        <ele>307.60000610352</ele>
        <time>2017-03-15T09:07:41.000Z</time>
      </trkpt>
      <trkpt lat="44.3648" lon="4.56898">
        <ele>307</ele>
        <time>2017-03-15T09:07:42.000Z</time>
      </trkpt>
      <trkpt lat="44.36476" lon="4.56893">
        <ele>306.20001220703</ele>
        <time>2017-03-15T09:07:43.000Z</time>
      </trkpt>
      <trkpt lat="44.36466" lon="4.56887">
        <ele>305.20001220703</ele>
        <time>2017-03-15T09:07:45.000Z</time>
      </trkpt>
      <trkpt lat="44.36454" lon="4.5689">
        <ele>304.60000610352</ele>
        <time>2017-03-15T09:07:47.000Z</time>
      </trkpt>
      <trkpt lat="44.36448" lon="4.56892">
        <ele>304</ele>
        <time>2017-03-15T09:07:48.000Z</time>
      </trkpt>
      <trkpt lat="44.36431" lon="4.56895">
        <ele>303.20001220703</ele>
        <time>2017-03-15T09:07:51.000Z</time>
      </trkpt>
      <trkpt lat="44.36425" lon="4.56892">
        <ele>302.60000610352</ele>
        <time>2017-03-15T09:07:52.000Z</time>
      </trkpt>
      <trkpt lat="44.3642" lon="4.5689">
        <ele>302.20001220703</ele>
        <time>2017-03-15T09:07:53.000Z</time>
      </trkpt>
      <trkpt lat="44.36414" lon="4.5689">
        <ele>301.60000610352</ele>
        <time>2017-03-15T09:07:54.000Z</time>
      </trkpt>
      <trkpt lat="44.36408" lon="4.5689">
        <ele>301.20001220703</ele>
        <time>2017-03-15T09:07:55.000Z</time>
      </trkpt>
      <trkpt lat="44.36401" lon="4.56891">
        <ele>300.60000610352</ele>
        <time>2017-03-15T09:07:56.000Z</time>
      </trkpt>
      <trkpt lat="44.36389" lon="4.56894">
        <ele>299.39999389648</ele>
        <time>2017-03-15T09:07:58.000Z</time>
      </trkpt>
      <trkpt lat="44.36378" lon="4.56899">
        <ele>297.60000610352</ele>
        <time>2017-03-15T09:08:00.000Z</time>
      </trkpt>
      <trkpt lat="44.36369" lon="4.56908">
        <ele>296.20001220703</ele>
        <time>2017-03-15T09:08:02.000Z</time>
      </trkpt>
      <trkpt lat="44.36362" lon="4.56915">
        <ele>295.20001220703</ele>
        <time>2017-03-15T09:08:04.000Z</time>
      </trkpt>
      <trkpt lat="44.36359" lon="4.56918">
        <ele>295.20001220703</ele>
        <time>2017-03-15T09:08:05.000Z</time>
      </trkpt>
      <trkpt lat="44.36346" lon="4.56923">
        <ele>293.60000610352</ele>
        <time>2017-03-15T09:08:08.000Z</time>
      </trkpt>
      <trkpt lat="44.3634" lon="4.56922">
        <ele>293</ele>
        <time>2017-03-15T09:08:09.000Z</time>
      </trkpt>
      <trkpt lat="44.36333" lon="4.56919">
        <ele>292.39999389648</ele>
        <time>2017-03-15T09:08:10.000Z</time>
      </trkpt>
      <trkpt lat="44.36323" lon="4.56911">
        <ele>290.79998779297</ele>
        <time>2017-03-15T09:08:12.000Z</time>
      </trkpt>
      <trkpt lat="44.36315" lon="4.569">
        <ele>289.39999389648</ele>
        <time>2017-03-15T09:08:14.000Z</time>
      </trkpt>
      <trkpt lat="44.36311" lon="4.56886">
        <ele>288.79998779297</ele>
        <time>2017-03-15T09:08:16.000Z</time>
      </trkpt>
      <trkpt lat="44.36309" lon="4.56879">
        <ele>289</ele>
        <time>2017-03-15T09:08:17.000Z</time>
      </trkpt>
      <trkpt lat="44.36303" lon="4.56864">
        <ele>288.20001220703</ele>
        <time>2017-03-15T09:08:19.000Z</time>
      </trkpt>
      <trkpt lat="44.36296" lon="4.56852">
        <ele>286.20001220703</ele>
        <time>2017-03-15T09:08:21.000Z</time>
      </trkpt>
      <trkpt lat="44.36292" lon="4.56848">
        <ele>285.60000610352</ele>
        <time>2017-03-15T09:08:22.000Z</time>
      </trkpt>
      <trkpt lat="44.36288" lon="4.56845">
        <ele>285</ele>
        <time>2017-03-15T09:08:23.000Z</time>
      </trkpt>
      <trkpt lat="44.36284" lon="4.56843">
        <ele>283.79998779297</ele>
        <time>2017-03-15T09:08:24.000Z</time>
      </trkpt>
      <trkpt lat="44.36277" lon="4.56839">
        <ele>282.39999389648</ele>
        <time>2017-03-15T09:08:26.000Z</time>
      </trkpt>
      <trkpt lat="44.36269" lon="4.56829">
        <ele>281.79998779297</ele>
        <time>2017-03-15T09:08:28.000Z</time>
      </trkpt>
      <trkpt lat="44.36263" lon="4.56826">
        <ele>281.39999389648</ele>
        <time>2017-03-15T09:08:29.000Z</time>
      </trkpt>
      <trkpt lat="44.36258" lon="4.56825">
        <ele>280.79998779297</ele>
        <time>2017-03-15T09:08:30.000Z</time>
      </trkpt>
      <trkpt lat="44.3624" lon="4.56827">
        <ele>280.20001220703</ele>
        <time>2017-03-15T09:08:33.000Z</time>
      </trkpt>
      <trkpt lat="44.36233" lon="4.56828">
        <ele>279.60000610352</ele>
        <time>2017-03-15T09:08:34.000Z</time>
      </trkpt>
      <trkpt lat="44.36228" lon="4.5683">
        <ele>279.20001220703</ele>
        <time>2017-03-15T09:08:35.000Z</time>
      </trkpt>
      <trkpt lat="44.36222" lon="4.56831">
        <ele>278.60000610352</ele>
        <time>2017-03-15T09:08:36.000Z</time>
      </trkpt>
      <trkpt lat="44.36204" lon="4.56832">
        <ele>277.60000610352</ele>
        <time>2017-03-15T09:08:39.000Z</time>
      </trkpt>
      <trkpt lat="44.36199" lon="4.56834">
        <ele>277</ele>
        <time>2017-03-15T09:08:40.000Z</time>
      </trkpt>
      <trkpt lat="44.36195" lon="4.56836">
        <ele>276.39999389648</ele>
        <time>2017-03-15T09:08:41.000Z</time>
      </trkpt>
      <trkpt lat="44.36187" lon="4.56838">
        <ele>275.39999389648</ele>
        <time>2017-03-15T09:08:43.000Z</time>
      </trkpt>
      <trkpt lat="44.36183" lon="4.56837">
        <ele>275.20001220703</ele>
        <time>2017-03-15T09:08:44.000Z</time>
      </trkpt>
      <trkpt lat="44.36172" lon="4.56835">
        <ele>274.79998779297</ele>
        <time>2017-03-15T09:08:47.000Z</time>
      </trkpt>
      <trkpt lat="44.36169" lon="4.56834">
        <ele>274.20001220703</ele>
        <time>2017-03-15T09:08:48.000Z</time>
      </trkpt>
      <trkpt lat="44.36163" lon="4.56836">
        <ele>273</ele>
        <time>2017-03-15T09:08:50.000Z</time>
      </trkpt>
      <trkpt lat="44.36157" lon="4.56839">
        <ele>272.39999389648</ele>
        <time>2017-03-15T09:08:52.000Z</time>
      </trkpt>
      <trkpt lat="44.36152" lon="4.56838">
        <ele>271.60000610352</ele>
        <time>2017-03-15T09:08:54.000Z</time>
      </trkpt>
      <trkpt lat="44.36144" lon="4.56835">
        <ele>270.60000610352</ele>
        <time>2017-03-15T09:08:57.000Z</time>
      </trkpt>
      <trkpt lat="44.36142" lon="4.56835">
        <ele>270.39999389648</ele>
        <time>2017-03-15T09:08:58.000Z</time>
      </trkpt>
      <trkpt lat="44.3614" lon="4.56833">
        <ele>269.79998779297</ele>
        <time>2017-03-15T09:09:02.000Z</time>
      </trkpt>
      <trkpt lat="44.3614" lon="4.56833">
        <ele>269</ele>
        <time>2017-03-15T09:09:05.000Z</time>
      </trkpt>
      <trkpt lat="44.3614" lon="4.56833">
        <ele>270.20001220703</ele>
        <time>2017-03-15T09:09:13.000Z</time>
      </trkpt>
      <trkpt lat="44.3614" lon="4.56833">
        <ele>270</ele>
        <time>2017-03-15T09:09:16.000Z</time>
      </trkpt>
      <trkpt lat="44.3614" lon="4.56833">
        <ele>270</ele>
        <time>2017-03-15T09:09:29.000Z</time>
      </trkpt>
      <trkpt lat="44.36141" lon="4.56832">
        <ele>269.60000610352</ele>
        <time>2017-03-15T09:09:43.000Z</time>
      </trkpt>
      <trkpt lat="44.36141" lon="4.56832">
        <ele>270</ele>
        <time>2017-03-15T09:09:54.000Z</time>
      </trkpt>
      <trkpt lat="44.36141" lon="4.56832">
        <ele>270.39999389648</ele>
        <time>2017-03-15T09:10:04.000Z</time>
      </trkpt>
      <trkpt lat="44.36141" lon="4.56832">
        <ele>270</ele>
        <time>2017-03-15T09:10:16.000Z</time>
      </trkpt>
      <trkpt lat="44.36141" lon="4.56832">
        <ele>270</ele>
        <time>2017-03-15T09:10:31.000Z</time>
      </trkpt>
      <trkpt lat="44.36141" lon="4.56832">
        <ele>270.39999389648</ele>
        <time>2017-03-15T09:10:44.000Z</time>
      </trkpt>
      <trkpt lat="44.36141" lon="4.56832">
        <ele>270</ele>
        <time>2017-03-15T09:11:02.000Z</time>
      </trkpt>
      <trkpt lat="44.36137" lon="4.56829">
        <ele>270</ele>
        <time>2017-03-15T09:11:15.000Z</time>
      </trkpt>
      <trkpt lat="44.3613" lon="4.56826">
        <ele>269.20001220703</ele>
        <time>2017-03-15T09:11:18.000Z</time>
      </trkpt>
      <trkpt lat="44.3612" lon="4.5682">
        <ele>268.20001220703</ele>
        <time>2017-03-15T09:11:21.000Z</time>
      </trkpt>
      <trkpt lat="44.36117" lon="4.56817">
        <ele>267.79998779297</ele>
        <time>2017-03-15T09:11:22.000Z</time>
      </trkpt>
      <trkpt lat="44.36104" lon="4.56808">
        <ele>266.39999389648</ele>
        <time>2017-03-15T09:11:25.000Z</time>
      </trkpt>
      <trkpt lat="44.36098" lon="4.56807">
        <ele>265.79998779297</ele>
        <time>2017-03-15T09:11:26.000Z</time>
      </trkpt>
      <trkpt lat="44.36087" lon="4.56808">
        <ele>265.39999389648</ele>
        <time>2017-03-15T09:11:28.000Z</time>
      </trkpt>
      <trkpt lat="44.36081" lon="4.56807">
        <ele>264.79998779297</ele>
        <time>2017-03-15T09:11:29.000Z</time>
      </trkpt>
      <trkpt lat="44.3607" lon="4.56801">
        <ele>263.79998779297</ele>
        <time>2017-03-15T09:11:31.000Z</time>
      </trkpt>
      <trkpt lat="44.36064" lon="4.56797">
        <ele>263.20001220703</ele>
        <time>2017-03-15T09:11:32.000Z</time>
      </trkpt>
      <trkpt lat="44.36059" lon="4.56794">
        <ele>262.60000610352</ele>
        <time>2017-03-15T09:11:33.000Z</time>
      </trkpt>
      <trkpt lat="44.36046" lon="4.56791">
        <ele>262</ele>
        <time>2017-03-15T09:11:35.000Z</time>
      </trkpt>
      <trkpt lat="44.36034" lon="4.56787">
        <ele>261.79998779297</ele>
        <time>2017-03-15T09:11:37.000Z</time>
      </trkpt>
      <trkpt lat="44.3603" lon="4.56784">
        <ele>261.39999389648</ele>
        <time>2017-03-15T09:11:38.000Z</time>
      </trkpt>
      <trkpt lat="44.36022" lon="4.56774">
        <ele>260</ele>
        <time>2017-03-15T09:11:40.000Z</time>
      </trkpt>
      <trkpt lat="44.36012" lon="4.56766">
        <ele>258.79998779297</ele>
        <time>2017-03-15T09:11:42.000Z</time>
      </trkpt>
      <trkpt lat="44.36003" lon="4.56764">
        <ele>257.79998779297</ele>
        <time>2017-03-15T09:11:44.000Z</time>
      </trkpt>
      <trkpt lat="44.35998" lon="4.56763">
        <ele>257.39999389648</ele>
        <time>2017-03-15T09:11:45.000Z</time>
      </trkpt>
      <trkpt lat="44.35979" lon="4.56765">
        <ele>256.20001220703</ele>
        <time>2017-03-15T09:11:49.000Z</time>
      </trkpt>
      <trkpt lat="44.35944" lon="4.56779">
        <ele>254.60000610352</ele>
        <time>2017-03-15T09:11:55.000Z</time>
      </trkpt>
      <trkpt lat="44.35926" lon="4.56784">
        <ele>253.39999389648</ele>
        <time>2017-03-15T09:11:58.000Z</time>
      </trkpt>
      <trkpt lat="44.35906" lon="4.56789">
        <ele>251.80000305176</ele>
        <time>2017-03-15T09:12:01.000Z</time>
      </trkpt>
      <trkpt lat="44.35893" lon="4.56792">
        <ele>251.19999694824</ele>
        <time>2017-03-15T09:12:03.000Z</time>
      </trkpt>
      <trkpt lat="44.35881" lon="4.56791">
        <ele>250.80000305176</ele>
        <time>2017-03-15T09:12:05.000Z</time>
      </trkpt>
      <trkpt lat="44.35875" lon="4.5679">
        <ele>250.60000610352</ele>
        <time>2017-03-15T09:12:06.000Z</time>
      </trkpt>
      <trkpt lat="44.35859" lon="4.56788">
        <ele>250</ele>
        <time>2017-03-15T09:12:09.000Z</time>
      </trkpt>
      <trkpt lat="44.35854" lon="4.56788">
        <ele>250</ele>
        <time>2017-03-15T09:12:10.000Z</time>
      </trkpt>
      <trkpt lat="44.3584" lon="4.56783">
        <ele>250</ele>
        <time>2017-03-15T09:12:13.000Z</time>
      </trkpt>
      <trkpt lat="44.35835" lon="4.56781">
        <ele>249.60000610352</ele>
        <time>2017-03-15T09:12:14.000Z</time>
      </trkpt>
      <trkpt lat="44.35831" lon="4.5678">
        <ele>249.19999694824</ele>
        <time>2017-03-15T09:12:15.000Z</time>
      </trkpt>
      <trkpt lat="44.35826" lon="4.56781">
        <ele>248.80000305176</ele>
        <time>2017-03-15T09:12:16.000Z</time>
      </trkpt>
      <trkpt lat="44.35819" lon="4.56785">
        <ele>248.39999389648</ele>
        <time>2017-03-15T09:12:18.000Z</time>
      </trkpt>
      <trkpt lat="44.35798" lon="4.56794">
        <ele>248</ele>
        <time>2017-03-15T09:12:24.000Z</time>
      </trkpt>
      <trkpt lat="44.35794" lon="4.56794">
        <ele>247.19999694824</ele>
        <time>2017-03-15T09:12:25.000Z</time>
      </trkpt>
      <trkpt lat="44.35773" lon="4.5679">
        <ele>246.39999389648</ele>
        <time>2017-03-15T09:12:30.000Z</time>
      </trkpt>
      <trkpt lat="44.35769" lon="4.56789">
        <ele>246.19999694824</ele>
        <time>2017-03-15T09:12:31.000Z</time>
      </trkpt>
      <trkpt lat="44.3576" lon="4.56788">
        <ele>246</ele>
        <time>2017-03-15T09:12:33.000Z</time>
      </trkpt>
      <trkpt lat="44.35749" lon="4.56784">
        <ele>245.19999694824</ele>
        <time>2017-03-15T09:12:36.000Z</time>
      </trkpt>
      <trkpt lat="44.35746" lon="4.56783">
        <ele>245</ele>
        <time>2017-03-15T09:12:37.000Z</time>
      </trkpt>
      <trkpt lat="44.35741" lon="4.56779">
        <ele>244.19999694824</ele>
        <time>2017-03-15T09:12:40.000Z</time>
      </trkpt>
      <trkpt lat="44.35741" lon="4.56777">
        <ele>244</ele>
        <time>2017-03-15T09:12:41.000Z</time>
      </trkpt>
      <trkpt lat="44.35742" lon="4.56777">
        <ele>245</ele>
        <time>2017-03-15T09:12:44.000Z</time>
      </trkpt>
      <trkpt lat="44.35742" lon="4.56777">
        <ele>244.60000610352</ele>
        <time>2017-03-15T09:12:53.000Z</time>
      </trkpt>
      <trkpt lat="44.35742" lon="4.56773">
        <ele>244.39999389648</ele>
        <time>2017-03-15T09:12:57.000Z</time>
      </trkpt>
      <trkpt lat="44.35743" lon="4.56771">
        <ele>244</ele>
        <time>2017-03-15T09:12:59.000Z</time>
      </trkpt>
      <trkpt lat="44.35744" lon="4.56769">
        <ele>244</ele>
        <time>2017-03-15T09:13:00.000Z</time>
      </trkpt>
      <trkpt lat="44.35744" lon="4.56768">
        <ele>244.39999389648</ele>
        <time>2017-03-15T09:13:01.000Z</time>
      </trkpt>
      <trkpt lat="44.35745" lon="4.56766">
        <ele>244.80000305176</ele>
        <time>2017-03-15T09:13:03.000Z</time>
      </trkpt>
      <trkpt lat="44.35747" lon="4.56765">
        <ele>244.60000610352</ele>
        <time>2017-03-15T09:13:06.000Z</time>
      </trkpt>
      <trkpt lat="44.35748" lon="4.56765">
        <ele>245.19999694824</ele>
        <time>2017-03-15T09:13:09.000Z</time>
      </trkpt>
      <trkpt lat="44.35748" lon="4.56765">
        <ele>245.60000610352</ele>
        <time>2017-03-15T09:13:16.000Z</time>
      </trkpt>
      <trkpt lat="44.35748" lon="4.56765">
        <ele>245.39999389648</ele>
        <time>2017-03-15T09:13:30.000Z</time>
      </trkpt>
      <trkpt lat="44.35748" lon="4.56765">
        <ele>245.60000610352</ele>
        <time>2017-03-15T09:13:44.000Z</time>
      </trkpt>
      <trkpt lat="44.35748" lon="4.56764">
        <ele>245.19999694824</ele>
        <time>2017-03-15T09:13:57.000Z</time>
      </trkpt>
      <trkpt lat="44.35748" lon="4.56764">
        <ele>245.60000610352</ele>
        <time>2017-03-15T09:14:10.000Z</time>
      </trkpt>
      <trkpt lat="44.35748" lon="4.56764">
        <ele>245.60000610352</ele>
        <time>2017-03-15T09:14:22.000Z</time>
      </trkpt>
      <trkpt lat="44.35748" lon="4.56764">
        <ele>245.80000305176</ele>
        <time>2017-03-15T09:14:34.000Z</time>
      </trkpt>
      <trkpt lat="44.35748" lon="4.56764">
        <ele>245.60000610352</ele>
        <time>2017-03-15T09:14:47.000Z</time>
      </trkpt>
      <trkpt lat="44.35748" lon="4.56764">
        <ele>245.80000305176</ele>
        <time>2017-03-15T09:14:54.000Z</time>
      </trkpt>
      <trkpt lat="44.35748" lon="4.56764">
        <ele>245.80000305176</ele>
        <time>2017-03-15T09:14:59.000Z</time>
      </trkpt>
      <trkpt lat="44.35748" lon="4.56764">
        <ele>245.39999389648</ele>
        <time>2017-03-15T09:15:12.000Z</time>
      </trkpt>
      <trkpt lat="44.35748" lon="4.56764">
        <ele>245.80000305176</ele>
        <time>2017-03-15T09:15:22.000Z</time>
      </trkpt>
      <trkpt lat="44.35748" lon="4.56764">
        <ele>246</ele>
        <time>2017-03-15T09:15:34.000Z</time>
      </trkpt>
      <trkpt lat="44.35748" lon="4.56764">
        <ele>245.60000610352</ele>
        <time>2017-03-15T09:15:46.000Z</time>
      </trkpt>
      <trkpt lat="44.35748" lon="4.56764">
        <ele>245.80000305176</ele>
        <time>2017-03-15T09:15:51.000Z</time>
      </trkpt>
      <trkpt lat="44.35748" lon="4.56764">
        <ele>245.60000610352</ele>
        <time>2017-03-15T09:16:02.000Z</time>
      </trkpt>
      <trkpt lat="44.35748" lon="4.56764">
        <ele>246</ele>
        <time>2017-03-15T09:16:14.000Z</time>
      </trkpt>
      <trkpt lat="44.35748" lon="4.56764">
        <ele>246</ele>
        <time>2017-03-15T09:16:33.000Z</time>
      </trkpt>
      <trkpt lat="44.35748" lon="4.56764">
        <ele>246</ele>
        <time>2017-03-15T09:16:49.000Z</time>
      </trkpt>
      <trkpt lat="44.35748" lon="4.56764">
        <ele>245.80000305176</ele>
        <time>2017-03-15T09:16:50.000Z</time>
      </trkpt>
      <trkpt lat="44.35748" lon="4.56764">
        <ele>246.19999694824</ele>
        <time>2017-03-15T09:16:56.000Z</time>
      </trkpt>
      <trkpt lat="44.35748" lon="4.56764">
        <ele>246.19999694824</ele>
        <time>2017-03-15T09:17:04.000Z</time>
      </trkpt>
      <trkpt lat="44.35748" lon="4.56764">
        <ele>245.80000305176</ele>
        <time>2017-03-15T09:17:16.000Z</time>
      </trkpt>
      <trkpt lat="44.35748" lon="4.56764">
        <ele>246</ele>
        <time>2017-03-15T09:17:31.000Z</time>
      </trkpt>
      <trkpt lat="44.35748" lon="4.56764">
        <ele>246</ele>
        <time>2017-03-15T09:17:45.000Z</time>
      </trkpt>
      <trkpt lat="44.35748" lon="4.56764">
        <ele>245.80000305176</ele>
        <time>2017-03-15T09:17:46.000Z</time>
      </trkpt>
      <trkpt lat="44.35748" lon="4.56764">
        <ele>246.39999389648</ele>
        <time>2017-03-15T09:17:55.000Z</time>
      </trkpt>
      <trkpt lat="44.35748" lon="4.56764">
        <ele>245.60000610352</ele>
        <time>2017-03-15T09:18:06.000Z</time>
      </trkpt>
      <trkpt lat="44.35748" lon="4.56764">
        <ele>246.39999389648</ele>
        <time>2017-03-15T09:18:17.000Z</time>
      </trkpt>
      <trkpt lat="44.35748" lon="4.56764">
        <ele>246.19999694824</ele>
        <time>2017-03-15T09:18:32.000Z</time>
      </trkpt>
      <trkpt lat="44.35748" lon="4.56764">
        <ele>246.19999694824</ele>
        <time>2017-03-15T09:18:45.000Z</time>
      </trkpt>
      <trkpt lat="44.35748" lon="4.56764">
        <ele>246.19999694824</ele>
        <time>2017-03-15T09:18:49.000Z</time>
      </trkpt>
      <trkpt lat="44.35748" lon="4.56764">
        <ele>245.80000305176</ele>
        <time>2017-03-15T09:19:04.000Z</time>
      </trkpt>
      <trkpt lat="44.35748" lon="4.56764">
        <ele>246</ele>
        <time>2017-03-15T09:19:18.000Z</time>
      </trkpt>
      <trkpt lat="44.35748" lon="4.56764">
        <ele>246</ele>
        <time>2017-03-15T09:19:35.000Z</time>
      </trkpt>
      <trkpt lat="44.35748" lon="4.56764">
        <ele>246.19999694824</ele>
        <time>2017-03-15T09:19:52.000Z</time>
      </trkpt>
      <trkpt lat="44.35748" lon="4.56764">
        <ele>246.19999694824</ele>
        <time>2017-03-15T09:19:59.000Z</time>
      </trkpt>
      <trkpt lat="44.35748" lon="4.56764">
        <ele>246</ele>
        <time>2017-03-15T09:20:10.000Z</time>
      </trkpt>
      <trkpt lat="44.35748" lon="4.56764">
        <ele>246.19999694824</ele>
        <time>2017-03-15T09:20:26.000Z</time>
      </trkpt>
      <trkpt lat="44.35748" lon="4.56764">
        <ele>246.19999694824</ele>
        <time>2017-03-15T09:20:41.000Z</time>
      </trkpt>
      <trkpt lat="44.35748" lon="4.56764">
        <ele>245.80000305176</ele>
        <time>2017-03-15T09:20:58.000Z</time>
      </trkpt>
      <trkpt lat="44.35748" lon="4.56764">
        <ele>246.19999694824</ele>
        <time>2017-03-15T09:21:15.000Z</time>
      </trkpt>
      <trkpt lat="44.35748" lon="4.56764">
        <ele>246.19999694824</ele>
        <time>2017-03-15T09:21:18.000Z</time>
      </trkpt>
      <trkpt lat="44.35748" lon="4.56764">
        <ele>246.19999694824</ele>
        <time>2017-03-15T09:21:32.000Z</time>
      </trkpt>
      <trkpt lat="44.35748" lon="4.56764">
        <ele>246.60000610352</ele>
        <time>2017-03-15T09:21:50.000Z</time>
      </trkpt>
      <trkpt lat="44.35748" lon="4.56764">
        <ele>246.39999389648</ele>
        <time>2017-03-15T09:22:10.000Z</time>
      </trkpt>
      <trkpt lat="44.35748" lon="4.56764">
        <ele>246</ele>
        <time>2017-03-15T09:22:25.000Z</time>
      </trkpt>
      <trkpt lat="44.35748" lon="4.56764">
        <ele>246</ele>
        <time>2017-03-15T09:22:39.000Z</time>
      </trkpt>
      <trkpt lat="44.35748" lon="4.56764">
        <ele>246.80000305176</ele>
        <time>2017-03-15T09:22:56.000Z</time>
      </trkpt>
      <trkpt lat="44.35748" lon="4.56764">
        <ele>247.19999694824</ele>
        <time>2017-03-15T09:23:06.000Z</time>
      </trkpt>
      <trkpt lat="44.35748" lon="4.56764">
        <ele>246.60000610352</ele>
        <time>2017-03-15T09:23:14.000Z</time>
      </trkpt>
      <trkpt lat="44.35748" lon="4.56764">
        <ele>246.60000610352</ele>
        <time>2017-03-15T09:23:28.000Z</time>
      </trkpt>
      <trkpt lat="44.35748" lon="4.56764">
        <ele>246.39999389648</ele>
        <time>2017-03-15T09:23:30.000Z</time>
      </trkpt>
      <trkpt lat="44.35748" lon="4.56764">
        <ele>246.80000305176</ele>
        <time>2017-03-15T09:23:53.000Z</time>
      </trkpt>
      <trkpt lat="44.35748" lon="4.56764">
        <ele>246.80000305176</ele>
        <time>2017-03-15T09:24:06.000Z</time>
      </trkpt>
      <trkpt lat="44.35748" lon="4.56764">
        <ele>247</ele>
        <time>2017-03-15T09:24:20.000Z</time>
      </trkpt>
      <trkpt lat="44.35748" lon="4.56764">
        <ele>246.80000305176</ele>
        <time>2017-03-15T09:24:39.000Z</time>
      </trkpt>
      <trkpt lat="44.35748" lon="4.56764">
        <ele>246.19999694824</ele>
        <time>2017-03-15T09:24:53.000Z</time>
      </trkpt>
      <trkpt lat="44.35748" lon="4.56764">
        <ele>246.39999389648</ele>
        <time>2017-03-15T09:24:59.000Z</time>
      </trkpt>
      <trkpt lat="44.35748" lon="4.56764">
        <ele>246.60000610352</ele>
        <time>2017-03-15T09:25:22.000Z</time>
      </trkpt>
      <trkpt lat="44.35748" lon="4.56764">
        <ele>246.39999389648</ele>
        <time>2017-03-15T09:25:46.000Z</time>
      </trkpt>
      <trkpt lat="44.35748" lon="4.56764">
        <ele>246.39999389648</ele>
        <time>2017-03-15T09:26:08.000Z</time>
      </trkpt>
      <trkpt lat="44.35748" lon="4.56764">
        <ele>247.39999389648</ele>
        <time>2017-03-15T09:26:11.000Z</time>
      </trkpt>
      <trkpt lat="44.35748" lon="4.56764">
        <ele>246.19999694824</ele>
        <time>2017-03-15T09:26:16.000Z</time>
      </trkpt>
      <trkpt lat="44.35748" lon="4.56764">
        <ele>247.19999694824</ele>
        <time>2017-03-15T09:26:27.000Z</time>
      </trkpt>
      <trkpt lat="44.35748" lon="4.56764">
        <ele>247</ele>
        <time>2017-03-15T09:26:47.000Z</time>
      </trkpt>
      <trkpt lat="44.35748" lon="4.56764">
        <ele>246.19999694824</ele>
        <time>2017-03-15T09:26:50.000Z</time>
      </trkpt>
      <trkpt lat="44.35748" lon="4.56764">
        <ele>247</ele>
        <time>2017-03-15T09:27:08.000Z</time>
      </trkpt>
      <trkpt lat="44.35748" lon="4.56764">
        <ele>247</ele>
        <time>2017-03-15T09:27:33.000Z</time>
      </trkpt>
      <trkpt lat="44.35748" lon="4.56764">
        <ele>247.19999694824</ele>
        <time>2017-03-15T09:27:37.000Z</time>
      </trkpt>
      <trkpt lat="44.35748" lon="4.56764">
        <ele>246.39999389648</ele>
        <time>2017-03-15T09:27:53.000Z</time>
      </trkpt>
      <trkpt lat="44.35748" lon="4.56764">
        <ele>247</ele>
        <time>2017-03-15T09:28:18.000Z</time>
      </trkpt>
      <trkpt lat="44.35748" lon="4.56764">
        <ele>246.60000610352</ele>
        <time>2017-03-15T09:28:41.000Z</time>
      </trkpt>
      <trkpt lat="44.35748" lon="4.56764">
        <ele>247</ele>
        <time>2017-03-15T09:29:02.000Z</time>
      </trkpt>
      <trkpt lat="44.35748" lon="4.56764">
        <ele>246.60000610352</ele>
        <time>2017-03-15T09:29:24.000Z</time>
      </trkpt>
      <trkpt lat="44.35747" lon="4.56761">
        <ele>247.39999389648</ele>
        <time>2017-03-15T09:29:30.000Z</time>
      </trkpt>
      <trkpt lat="44.35748" lon="4.56759">
        <ele>246.80000305176</ele>
        <time>2017-03-15T09:29:34.000Z</time>
      </trkpt>
      <trkpt lat="44.35748" lon="4.56758">
        <ele>246.80000305176</ele>
        <time>2017-03-15T09:29:35.000Z</time>
      </trkpt>
      <trkpt lat="44.3575" lon="4.56751">
        <ele>247.19999694824</ele>
        <time>2017-03-15T09:29:38.000Z</time>
      </trkpt>
      <trkpt lat="44.35753" lon="4.56743">
        <ele>247.39999389648</ele>
        <time>2017-03-15T09:29:41.000Z</time>
      </trkpt>
      <trkpt lat="44.3576" lon="4.56721">
        <ele>248.19999694824</ele>
        <time>2017-03-15T09:29:48.000Z</time>
      </trkpt>
      <trkpt lat="44.35761" lon="4.56718">
        <ele>248.60000610352</ele>
        <time>2017-03-15T09:29:49.000Z</time>
      </trkpt>
      <trkpt lat="44.35764" lon="4.56708">
        <ele>249.60000610352</ele>
        <time>2017-03-15T09:29:52.000Z</time>
      </trkpt>
      <trkpt lat="44.3577" lon="4.56691">
        <ele>250.39999389648</ele>
        <time>2017-03-15T09:29:57.000Z</time>
      </trkpt>
      <trkpt lat="44.35776" lon="4.56673">
        <ele>251.19999694824</ele>
        <time>2017-03-15T09:30:02.000Z</time>
      </trkpt>
      <trkpt lat="44.35782" lon="4.56658">
        <ele>251.60000610352</ele>
        <time>2017-03-15T09:30:06.000Z</time>
      </trkpt>
      <trkpt lat="44.35789" lon="4.56639">
        <ele>252.19999694824</ele>
        <time>2017-03-15T09:30:11.000Z</time>
      </trkpt>
      <trkpt lat="44.35794" lon="4.56623">
        <ele>252.80000305176</ele>
        <time>2017-03-15T09:30:15.000Z</time>
      </trkpt>
      <trkpt lat="44.35797" lon="4.56616">
        <ele>253.80000305176</ele>
        <time>2017-03-15T09:30:17.000Z</time>
      </trkpt>
      <trkpt lat="44.35804" lon="4.56592">
        <ele>254</ele>
        <time>2017-03-15T09:30:23.000Z</time>
      </trkpt>
      <trkpt lat="44.35813" lon="4.56564">
        <ele>255</ele>
        <time>2017-03-15T09:30:30.000Z</time>
      </trkpt>
      <trkpt lat="44.35814" lon="4.5656">
        <ele>255</ele>
        <time>2017-03-15T09:30:31.000Z</time>
      </trkpt>
      <trkpt lat="44.35819" lon="4.5652">
        <ele>255</ele>
        <time>2017-03-15T09:30:40.000Z</time>
      </trkpt>
      <trkpt lat="44.3582" lon="4.56493">
        <ele>254.80000305176</ele>
        <time>2017-03-15T09:30:45.000Z</time>
      </trkpt>
      <trkpt lat="44.3582" lon="4.5648">
        <ele>254.39999389648</ele>
        <time>2017-03-15T09:30:47.000Z</time>
      </trkpt>
      <trkpt lat="44.35821" lon="4.56453">
        <ele>254</ele>
        <time>2017-03-15T09:30:51.000Z</time>
      </trkpt>
      <trkpt lat="44.35822" lon="4.56439">
        <ele>252.80000305176</ele>
        <time>2017-03-15T09:30:53.000Z</time>
      </trkpt>
      <trkpt lat="44.35822" lon="4.56432">
        <ele>252.60000610352</ele>
        <time>2017-03-15T09:30:54.000Z</time>
      </trkpt>
      <trkpt lat="44.35823" lon="4.56424">
        <ele>252.39999389648</ele>
        <time>2017-03-15T09:30:55.000Z</time>
      </trkpt>
      <trkpt lat="44.35826" lon="4.56409">
        <ele>251.60000610352</ele>
        <time>2017-03-15T09:30:57.000Z</time>
      </trkpt>
      <trkpt lat="44.35828" lon="4.56397">
        <ele>251.19999694824</ele>
        <time>2017-03-15T09:30:59.000Z</time>
      </trkpt>
      <trkpt lat="44.3583" lon="4.56391">
        <ele>251.39999389648</ele>
        <time>2017-03-15T09:31:00.000Z</time>
      </trkpt>
      <trkpt lat="44.35834" lon="4.56379">
        <ele>251.60000610352</ele>
        <time>2017-03-15T09:31:02.000Z</time>
      </trkpt>
      <trkpt lat="44.35838" lon="4.56362">
        <ele>251.39999389648</ele>
        <time>2017-03-15T09:31:05.000Z</time>
      </trkpt>
      <trkpt lat="44.3584" lon="4.56356">
        <ele>251.39999389648</ele>
        <time>2017-03-15T09:31:06.000Z</time>
      </trkpt>
      <trkpt lat="44.35842" lon="4.56339">
        <ele>252</ele>
        <time>2017-03-15T09:31:09.000Z</time>
      </trkpt>
      <trkpt lat="44.35841" lon="4.56319">
        <ele>252</ele>
        <time>2017-03-15T09:31:12.000Z</time>
      </trkpt>
      <trkpt lat="44.3584" lon="4.56313">
        <ele>251.80000305176</ele>
        <time>2017-03-15T09:31:13.000Z</time>
      </trkpt>
      <trkpt lat="44.35834" lon="4.56272">
        <ele>251</ele>
        <time>2017-03-15T09:31:19.000Z</time>
      </trkpt>
      <trkpt lat="44.35825" lon="4.56224">
        <ele>252</ele>
        <time>2017-03-15T09:31:27.000Z</time>
      </trkpt>
      <trkpt lat="44.35823" lon="4.56214">
        <ele>252.80000305176</ele>
        <time>2017-03-15T09:31:29.000Z</time>
      </trkpt>
      <trkpt lat="44.3582" lon="4.56204">
        <ele>254</ele>
        <time>2017-03-15T09:31:31.000Z</time>
      </trkpt>
      <trkpt lat="44.35817" lon="4.56186">
        <ele>254</ele>
        <time>2017-03-15T09:31:35.000Z</time>
      </trkpt>
      <trkpt lat="44.35814" lon="4.5616">
        <ele>255</ele>
        <time>2017-03-15T09:31:41.000Z</time>
      </trkpt>
      <trkpt lat="44.35813" lon="4.56153">
        <ele>255</ele>
        <time>2017-03-15T09:31:43.000Z</time>
      </trkpt>
      <trkpt lat="44.35815" lon="4.56145">
        <ele>255.39999389648</ele>
        <time>2017-03-15T09:31:48.000Z</time>
      </trkpt>
      <trkpt lat="44.35815" lon="4.56144">
        <ele>255.39999389648</ele>
        <time>2017-03-15T09:31:50.000Z</time>
      </trkpt>
      <trkpt lat="44.35815" lon="4.56138">
        <ele>255.60000610352</ele>
        <time>2017-03-15T09:31:53.000Z</time>
      </trkpt>
      <trkpt lat="44.35815" lon="4.56135">
        <ele>255.39999389648</ele>
        <time>2017-03-15T09:31:54.000Z</time>
      </trkpt>
      <trkpt lat="44.35819" lon="4.56132">
        <ele>254.80000305176</ele>
        <time>2017-03-15T09:31:57.000Z</time>
      </trkpt>
      <trkpt lat="44.35825" lon="4.56127">
        <ele>256.20001220703</ele>
        <time>2017-03-15T09:32:01.000Z</time>
      </trkpt>
      <trkpt lat="44.35826" lon="4.56126">
        <ele>255.80000305176</ele>
        <time>2017-03-15T09:32:02.000Z</time>
      </trkpt>
      <trkpt lat="44.35831" lon="4.5612">
        <ele>255.60000610352</ele>
        <time>2017-03-15T09:32:05.000Z</time>
      </trkpt>
      <trkpt lat="44.35834" lon="4.56116">
        <ele>255.39999389648</ele>
        <time>2017-03-15T09:32:07.000Z</time>
      </trkpt>
      <trkpt lat="44.35848" lon="4.56094">
        <ele>256.20001220703</ele>
        <time>2017-03-15T09:32:15.000Z</time>
      </trkpt>
      <trkpt lat="44.35856" lon="4.56081">
        <ele>255.80000305176</ele>
        <time>2017-03-15T09:32:19.000Z</time>
      </trkpt>
      <trkpt lat="44.35867" lon="4.56064">
        <ele>255.60000610352</ele>
        <time>2017-03-15T09:32:24.000Z</time>
      </trkpt>
      <trkpt lat="44.35884" lon="4.56036">
        <ele>255.39999389648</ele>
        <time>2017-03-15T09:32:32.000Z</time>
      </trkpt>
      <trkpt lat="44.35888" lon="4.56029">
        <ele>254</ele>
        <time>2017-03-15T09:32:34.000Z</time>
      </trkpt>
      <trkpt lat="44.35894" lon="4.56019">
        <ele>255.39999389648</ele>
        <time>2017-03-15T09:32:37.000Z</time>
      </trkpt>
      <trkpt lat="44.35897" lon="4.56012">
        <ele>254.19999694824</ele>
        <time>2017-03-15T09:32:39.000Z</time>
      </trkpt>
      <trkpt lat="44.3591" lon="4.55983">
        <ele>256.20001220703</ele>
        <time>2017-03-15T09:32:47.000Z</time>
      </trkpt>
      <trkpt lat="44.35911" lon="4.55981">
        <ele>253.39999389648</ele>
        <time>2017-03-15T09:32:48.000Z</time>
      </trkpt>
      <trkpt lat="44.35912" lon="4.55978">
        <ele>256.39999389648</ele>
        <time>2017-03-15T09:32:49.000Z</time>
      </trkpt>
      <trkpt lat="44.35913" lon="4.55975">
        <ele>254</ele>
        <time>2017-03-15T09:32:50.000Z</time>
      </trkpt>
      <trkpt lat="44.35914" lon="4.55973">
        <ele>255</ele>
        <time>2017-03-15T09:32:51.000Z</time>
      </trkpt>
      <trkpt lat="44.35916" lon="4.55967">
        <ele>255</ele>
        <time>2017-03-15T09:32:53.000Z</time>
      </trkpt>
      <trkpt lat="44.35925" lon="4.55935">
        <ele>255</ele>
        <time>2017-03-15T09:33:02.000Z</time>
      </trkpt>
      <trkpt lat="44.35927" lon="4.55923">
        <ele>256.39999389648</ele>
        <time>2017-03-15T09:33:05.000Z</time>
      </trkpt>
      <trkpt lat="44.35932" lon="4.55904">
        <ele>257.60000610352</ele>
        <time>2017-03-15T09:33:10.000Z</time>
      </trkpt>
      <trkpt lat="44.35933" lon="4.559">
        <ele>257.79998779297</ele>
        <time>2017-03-15T09:33:11.000Z</time>
      </trkpt>
      <trkpt lat="44.35933" lon="4.55897">
        <ele>259</ele>
        <time>2017-03-15T09:33:12.000Z</time>
      </trkpt>
      <trkpt lat="44.35933" lon="4.55893">
        <ele>257.60000610352</ele>
        <time>2017-03-15T09:33:13.000Z</time>
      </trkpt>
      <trkpt lat="44.35934" lon="4.55889">
        <ele>254.60000610352</ele>
        <time>2017-03-15T09:33:14.000Z</time>
      </trkpt>
      <trkpt lat="44.35934" lon="4.55886">
        <ele>258.39999389648</ele>
        <time>2017-03-15T09:33:15.000Z</time>
      </trkpt>
      <trkpt lat="44.35935" lon="4.55882">
        <ele>260</ele>
        <time>2017-03-15T09:33:16.000Z</time>
      </trkpt>
      <trkpt lat="44.35935" lon="4.55879">
        <ele>258</ele>
        <time>2017-03-15T09:33:17.000Z</time>
      </trkpt>
      <trkpt lat="44.35936" lon="4.55875">
        <ele>255.39999389648</ele>
        <time>2017-03-15T09:33:18.000Z</time>
      </trkpt>
      <trkpt lat="44.35937" lon="4.55871">
        <ele>258.39999389648</ele>
        <time>2017-03-15T09:33:19.000Z</time>
      </trkpt>
      <trkpt lat="44.35938" lon="4.55864">
        <ele>257.39999389648</ele>
        <time>2017-03-15T09:33:21.000Z</time>
      </trkpt>
      <trkpt lat="44.35939" lon="4.55854">
        <ele>261</ele>
        <time>2017-03-15T09:33:24.000Z</time>
      </trkpt>
      <trkpt lat="44.3594" lon="4.55851">
        <ele>259.39999389648</ele>
        <time>2017-03-15T09:33:25.000Z</time>
      </trkpt>
      <trkpt lat="44.35941" lon="4.55844">
        <ele>259.20001220703</ele>
        <time>2017-03-15T09:33:27.000Z</time>
      </trkpt>
      <trkpt lat="44.35946" lon="4.55819">
        <ele>259.20001220703</ele>
        <time>2017-03-15T09:33:33.000Z</time>
      </trkpt>
      <trkpt lat="44.35948" lon="4.55799">
        <ele>259.39999389648</ele>
        <time>2017-03-15T09:33:38.000Z</time>
      </trkpt>
      <trkpt lat="44.35949" lon="4.55786">
        <ele>259.79998779297</ele>
        <time>2017-03-15T09:33:41.000Z</time>
      </trkpt>
      <trkpt lat="44.35955" lon="4.55755">
        <ele>260.20001220703</ele>
        <time>2017-03-15T09:33:48.000Z</time>
      </trkpt>
      <trkpt lat="44.35956" lon="4.5575">
        <ele>260.60000610352</ele>
        <time>2017-03-15T09:33:49.000Z</time>
      </trkpt>
      <trkpt lat="44.35961" lon="4.55716">
        <ele>261.20001220703</ele>
        <time>2017-03-15T09:33:56.000Z</time>
      </trkpt>
      <trkpt lat="44.35961" lon="4.55711">
        <ele>261.60000610352</ele>
        <time>2017-03-15T09:33:57.000Z</time>
      </trkpt>
      <trkpt lat="44.35966" lon="4.55685">
        <ele>261.79998779297</ele>
        <time>2017-03-15T09:34:03.000Z</time>
      </trkpt>
      <trkpt lat="44.35972" lon="4.55641">
        <ele>262.60000610352</ele>
        <time>2017-03-15T09:34:11.000Z</time>
      </trkpt>
      <trkpt lat="44.35973" lon="4.55634">
        <ele>262.79998779297</ele>
        <time>2017-03-15T09:34:12.000Z</time>
      </trkpt>
      <trkpt lat="44.35975" lon="4.55602">
        <ele>263.20001220703</ele>
        <time>2017-03-15T09:34:17.000Z</time>
      </trkpt>
      <trkpt lat="44.35975" lon="4.55596">
        <ele>263</ele>
        <time>2017-03-15T09:34:18.000Z</time>
      </trkpt>
      <trkpt lat="44.35973" lon="4.55584">
        <ele>263.60000610352</ele>
        <time>2017-03-15T09:34:20.000Z</time>
      </trkpt>
      <trkpt lat="44.35972" lon="4.55578">
        <ele>264</ele>
        <time>2017-03-15T09:34:21.000Z</time>
      </trkpt>
      <trkpt lat="44.35968" lon="4.55559">
        <ele>263.39999389648</ele>
        <time>2017-03-15T09:34:24.000Z</time>
      </trkpt>
      <trkpt lat="44.35967" lon="4.5554">
        <ele>263.60000610352</ele>
        <time>2017-03-15T09:34:27.000Z</time>
      </trkpt>
      <trkpt lat="44.35966" lon="4.55534">
        <ele>262.60000610352</ele>
        <time>2017-03-15T09:34:28.000Z</time>
      </trkpt>
      <trkpt lat="44.35965" lon="4.55521">
        <ele>262.20001220703</ele>
        <time>2017-03-15T09:34:30.000Z</time>
      </trkpt>
      <trkpt lat="44.35966" lon="4.55496">
        <ele>262</ele>
        <time>2017-03-15T09:34:34.000Z</time>
      </trkpt>
      <trkpt lat="44.35965" lon="4.55484">
        <ele>262</ele>
        <time>2017-03-15T09:34:36.000Z</time>
      </trkpt>
      <trkpt lat="44.35964" lon="4.55479">
        <ele>261.39999389648</ele>
        <time>2017-03-15T09:34:37.000Z</time>
      </trkpt>
      <trkpt lat="44.35959" lon="4.55462">
        <ele>261.79998779297</ele>
        <time>2017-03-15T09:34:40.000Z</time>
      </trkpt>
      <trkpt lat="44.35955" lon="4.55451">
        <ele>261.39999389648</ele>
        <time>2017-03-15T09:34:42.000Z</time>
      </trkpt>
      <trkpt lat="44.35951" lon="4.55447">
        <ele>261.20001220703</ele>
        <time>2017-03-15T09:34:43.000Z</time>
      </trkpt>
      <trkpt lat="44.35942" lon="4.55435">
        <ele>260.60000610352</ele>
        <time>2017-03-15T09:34:46.000Z</time>
      </trkpt>
      <trkpt lat="44.35939" lon="4.5543">
        <ele>260.39999389648</ele>
        <time>2017-03-15T09:34:47.000Z</time>
      </trkpt>
      <trkpt lat="44.35935" lon="4.55425">
        <ele>260.60000610352</ele>
        <time>2017-03-15T09:34:48.000Z</time>
      </trkpt>
      <trkpt lat="44.35926" lon="4.55409">
        <ele>260.20001220703</ele>
        <time>2017-03-15T09:34:51.000Z</time>
      </trkpt>
      <trkpt lat="44.35921" lon="4.55399">
        <ele>260.20001220703</ele>
        <time>2017-03-15T09:34:53.000Z</time>
      </trkpt>
      <trkpt lat="44.35918" lon="4.55395">
        <ele>260</ele>
        <time>2017-03-15T09:34:54.000Z</time>
      </trkpt>
      <trkpt lat="44.35899" lon="4.55359">
        <ele>260.20001220703</ele>
        <time>2017-03-15T09:35:01.000Z</time>
      </trkpt>
      <trkpt lat="44.35892" lon="4.5534">
        <ele>259.60000610352</ele>
        <time>2017-03-15T09:35:04.000Z</time>
      </trkpt>
      <trkpt lat="44.35889" lon="4.55335">
        <ele>259</ele>
        <time>2017-03-15T09:35:05.000Z</time>
      </trkpt>
      <trkpt lat="44.35882" lon="4.55325">
        <ele>258.79998779297</ele>
        <time>2017-03-15T09:35:07.000Z</time>
      </trkpt>
      <trkpt lat="44.35874" lon="4.55309">
        <ele>259</ele>
        <time>2017-03-15T09:35:10.000Z</time>
      </trkpt>
      <trkpt lat="44.35873" lon="4.55298">
        <ele>258.60000610352</ele>
        <time>2017-03-15T09:35:12.000Z</time>
      </trkpt>
      <trkpt lat="44.35872" lon="4.55284">
        <ele>257.79998779297</ele>
        <time>2017-03-15T09:35:15.000Z</time>
      </trkpt>
      <trkpt lat="44.35873" lon="4.55269">
        <ele>256.79998779297</ele>
        <time>2017-03-15T09:35:18.000Z</time>
      </trkpt>
      <trkpt lat="44.35876" lon="4.55264">
        <ele>256.39999389648</ele>
        <time>2017-03-15T09:35:20.000Z</time>
      </trkpt>
      <trkpt lat="44.35881" lon="4.5526">
        <ele>256.39999389648</ele>
        <time>2017-03-15T09:35:22.000Z</time>
      </trkpt>
      <trkpt lat="44.35887" lon="4.55253">
        <ele>255.60000610352</ele>
        <time>2017-03-15T09:35:25.000Z</time>
      </trkpt>
      <trkpt lat="44.35896" lon="4.55247">
        <ele>255.80000305176</ele>
        <time>2017-03-15T09:35:28.000Z</time>
      </trkpt>
      <trkpt lat="44.35907" lon="4.55238">
        <ele>254.60000610352</ele>
        <time>2017-03-15T09:35:32.000Z</time>
      </trkpt>
      <trkpt lat="44.3591" lon="4.55236">
        <ele>254.60000610352</ele>
        <time>2017-03-15T09:35:33.000Z</time>
      </trkpt>
      <trkpt lat="44.35927" lon="4.55222">
        <ele>253.19999694824</ele>
        <time>2017-03-15T09:35:39.000Z</time>
      </trkpt>
      <trkpt lat="44.3593" lon="4.5522">
        <ele>253</ele>
        <time>2017-03-15T09:35:40.000Z</time>
      </trkpt>
      <trkpt lat="44.35937" lon="4.55213">
        <ele>251.80000305176</ele>
        <time>2017-03-15T09:35:42.000Z</time>
      </trkpt>
      <trkpt lat="44.3594" lon="4.55208">
        <ele>251.80000305176</ele>
        <time>2017-03-15T09:35:43.000Z</time>
      </trkpt>
      <trkpt lat="44.35942" lon="4.55202">
        <ele>252.19999694824</ele>
        <time>2017-03-15T09:35:44.000Z</time>
      </trkpt>
      <trkpt lat="44.35941" lon="4.55183">
        <ele>252.80000305176</ele>
        <time>2017-03-15T09:35:47.000Z</time>
      </trkpt>
      <trkpt lat="44.3594" lon="4.55177">
        <ele>253</ele>
        <time>2017-03-15T09:35:48.000Z</time>
      </trkpt>
      <trkpt lat="44.35938" lon="4.5516">
        <ele>254.19999694824</ele>
        <time>2017-03-15T09:35:51.000Z</time>
      </trkpt>
      <trkpt lat="44.35937" lon="4.55144">
        <ele>254.80000305176</ele>
        <time>2017-03-15T09:35:54.000Z</time>
      </trkpt>
      <trkpt lat="44.35933" lon="4.5513">
        <ele>255.19999694824</ele>
        <time>2017-03-15T09:35:57.000Z</time>
      </trkpt>
      <trkpt lat="44.3593" lon="4.55117">
        <ele>254.60000610352</ele>
        <time>2017-03-15T09:36:00.000Z</time>
      </trkpt>
      <trkpt lat="44.35929" lon="4.55105">
        <ele>256</ele>
        <time>2017-03-15T09:36:04.000Z</time>
      </trkpt>
      <trkpt lat="44.35928" lon="4.55098">
        <ele>256.20001220703</ele>
        <time>2017-03-15T09:36:06.000Z</time>
      </trkpt>
      <trkpt lat="44.35926" lon="4.55083">
        <ele>257</ele>
        <time>2017-03-15T09:36:11.000Z</time>
      </trkpt>
      <trkpt lat="44.35923" lon="4.55064">
        <ele>256.60000610352</ele>
        <time>2017-03-15T09:36:17.000Z</time>
      </trkpt>
      <trkpt lat="44.3592" lon="4.55035">
        <ele>257.20001220703</ele>
        <time>2017-03-15T09:36:24.000Z</time>
      </trkpt>
      <trkpt lat="44.35917" lon="4.55003">
        <ele>258</ele>
        <time>2017-03-15T09:36:32.000Z</time>
      </trkpt>
      <trkpt lat="44.35916" lon="4.54999">
        <ele>259.60000610352</ele>
        <time>2017-03-15T09:36:33.000Z</time>
      </trkpt>
      <trkpt lat="44.35914" lon="4.54973">
        <ele>259.39999389648</ele>
        <time>2017-03-15T09:36:40.000Z</time>
      </trkpt>
      <trkpt lat="44.35913" lon="4.54956">
        <ele>259.39999389648</ele>
        <time>2017-03-15T09:36:45.000Z</time>
      </trkpt>
      <trkpt lat="44.35912" lon="4.54947">
        <ele>260.20001220703</ele>
        <time>2017-03-15T09:36:50.000Z</time>
      </trkpt>
      <trkpt lat="44.35911" lon="4.54943">
        <ele>260.20001220703</ele>
        <time>2017-03-15T09:37:03.000Z</time>
      </trkpt>
      <trkpt lat="44.35908" lon="4.54921">
        <ele>260.60000610352</ele>
        <time>2017-03-15T09:37:08.000Z</time>
      </trkpt>
      <trkpt lat="44.35904" lon="4.54883">
        <ele>261.20001220703</ele>
        <time>2017-03-15T09:37:15.000Z</time>
      </trkpt>
      <trkpt lat="44.35901" lon="4.54854">
        <ele>261.79998779297</ele>
        <time>2017-03-15T09:37:20.000Z</time>
      </trkpt>
      <trkpt lat="44.35901" lon="4.54842">
        <ele>262.39999389648</ele>
        <time>2017-03-15T09:37:22.000Z</time>
      </trkpt>
      <trkpt lat="44.35898" lon="4.54805">
        <ele>262.79998779297</ele>
        <time>2017-03-15T09:37:29.000Z</time>
      </trkpt>
      <trkpt lat="44.35896" lon="4.54777">
        <ele>264</ele>
        <time>2017-03-15T09:37:35.000Z</time>
      </trkpt>
      <trkpt lat="44.35896" lon="4.54773">
        <ele>264.20001220703</ele>
        <time>2017-03-15T09:37:36.000Z</time>
      </trkpt>
      <trkpt lat="44.35895" lon="4.54763">
        <ele>265.20001220703</ele>
        <time>2017-03-15T09:37:39.000Z</time>
      </trkpt>
      <trkpt lat="44.35894" lon="4.54749">
        <ele>265.79998779297</ele>
        <time>2017-03-15T09:37:43.000Z</time>
      </trkpt>
      <trkpt lat="44.35894" lon="4.54746">
        <ele>266.20001220703</ele>
        <time>2017-03-15T09:37:44.000Z</time>
      </trkpt>
      <trkpt lat="44.35894" lon="4.54732">
        <ele>266.60000610352</ele>
        <time>2017-03-15T09:37:50.000Z</time>
      </trkpt>
      <trkpt lat="44.35893" lon="4.54726">
        <ele>267.20001220703</ele>
        <time>2017-03-15T09:37:52.000Z</time>
      </trkpt>
      <trkpt lat="44.35892" lon="4.54715">
        <ele>268.60000610352</ele>
        <time>2017-03-15T09:37:56.000Z</time>
      </trkpt>
      <trkpt lat="44.3589" lon="4.54707">
        <ele>269.79998779297</ele>
        <time>2017-03-15T09:37:59.000Z</time>
      </trkpt>
      <trkpt lat="44.35888" lon="4.54697">
        <ele>271.39999389648</ele>
        <time>2017-03-15T09:38:03.000Z</time>
      </trkpt>
      <trkpt lat="44.35886" lon="4.54684">
        <ele>271.79998779297</ele>
        <time>2017-03-15T09:38:09.000Z</time>
      </trkpt>
      <trkpt lat="44.35886" lon="4.54676">
        <ele>272.79998779297</ele>
        <time>2017-03-15T09:38:13.000Z</time>
      </trkpt>
      <trkpt lat="44.35886" lon="4.54667">
        <ele>274.20001220703</ele>
        <time>2017-03-15T09:38:17.000Z</time>
      </trkpt>
      <trkpt lat="44.35885" lon="4.54654">
        <ele>275.60000610352</ele>
        <time>2017-03-15T09:38:24.000Z</time>
      </trkpt>
      <trkpt lat="44.35885" lon="4.54647">
        <ele>276.60000610352</ele>
        <time>2017-03-15T09:38:27.000Z</time>
      </trkpt>
      <trkpt lat="44.35883" lon="4.5464">
        <ele>277.60000610352</ele>
        <time>2017-03-15T09:38:31.000Z</time>
      </trkpt>
      <trkpt lat="44.35883" lon="4.54637">
        <ele>277.79998779297</ele>
        <time>2017-03-15T09:38:32.000Z</time>
      </trkpt>
      <trkpt lat="44.35881" lon="4.54627">
        <ele>278.60000610352</ele>
        <time>2017-03-15T09:38:37.000Z</time>
      </trkpt>
      <trkpt lat="44.3588" lon="4.54621">
        <ele>278.60000610352</ele>
        <time>2017-03-15T09:38:40.000Z</time>
      </trkpt>
      <trkpt lat="44.35879" lon="4.54612">
        <ele>279.60000610352</ele>
        <time>2017-03-15T09:38:44.000Z</time>
      </trkpt>
      <trkpt lat="44.35878" lon="4.54602">
        <ele>280.60000610352</ele>
        <time>2017-03-15T09:38:49.000Z</time>
      </trkpt>
      <trkpt lat="44.35878" lon="4.546">
        <ele>280.79998779297</ele>
        <time>2017-03-15T09:38:50.000Z</time>
      </trkpt>
      <trkpt lat="44.35877" lon="4.54581">
        <ele>281.60000610352</ele>
        <time>2017-03-15T09:38:58.000Z</time>
      </trkpt>
      <trkpt lat="44.35877" lon="4.54576">
        <ele>281.79998779297</ele>
        <time>2017-03-15T09:39:00.000Z</time>
      </trkpt>
      <trkpt lat="44.35876" lon="4.54564">
        <ele>281.60000610352</ele>
        <time>2017-03-15T09:39:04.000Z</time>
      </trkpt>
      <trkpt lat="44.35875" lon="4.54545">
        <ele>282.39999389648</ele>
        <time>2017-03-15T09:39:11.000Z</time>
      </trkpt>
      <trkpt lat="44.35875" lon="4.5453">
        <ele>282.20001220703</ele>
        <time>2017-03-15T09:39:16.000Z</time>
      </trkpt>
      <trkpt lat="44.35877" lon="4.54525">
        <ele>282.39999389648</ele>
        <time>2017-03-15T09:39:19.000Z</time>
      </trkpt>
      <trkpt lat="44.35877" lon="4.54524">
        <ele>283</ele>
        <time>2017-03-15T09:39:20.000Z</time>
      </trkpt>
      <trkpt lat="44.35877" lon="4.54524">
        <ele>283.20001220703</ele>
        <time>2017-03-15T09:39:21.000Z</time>
      </trkpt>
      <trkpt lat="44.35877" lon="4.54524">
        <ele>283.20001220703</ele>
        <time>2017-03-15T09:39:33.000Z</time>
      </trkpt>
      <trkpt lat="44.35877" lon="4.54524">
        <ele>283</ele>
        <time>2017-03-15T09:39:44.000Z</time>
      </trkpt>
      <trkpt lat="44.35877" lon="4.54524">
        <ele>283.60000610352</ele>
        <time>2017-03-15T09:40:00.000Z</time>
      </trkpt>
      <trkpt lat="44.35877" lon="4.54524">
        <ele>282.79998779297</ele>
        <time>2017-03-15T09:40:13.000Z</time>
      </trkpt>
      <trkpt lat="44.35877" lon="4.54524">
        <ele>282.79998779297</ele>
        <time>2017-03-15T09:40:26.000Z</time>
      </trkpt>
      <trkpt lat="44.35879" lon="4.54523">
        <ele>282.79998779297</ele>
        <time>2017-03-15T09:40:31.000Z</time>
      </trkpt>
      <trkpt lat="44.35881" lon="4.54521">
        <ele>282.60000610352</ele>
        <time>2017-03-15T09:40:32.000Z</time>
      </trkpt>
      <trkpt lat="44.35885" lon="4.54509">
        <ele>282.60000610352</ele>
        <time>2017-03-15T09:40:36.000Z</time>
      </trkpt>
      <trkpt lat="44.35885" lon="4.54502">
        <ele>282.60000610352</ele>
        <time>2017-03-15T09:40:39.000Z</time>
      </trkpt>
      <trkpt lat="44.35887" lon="4.54495">
        <ele>282</ele>
        <time>2017-03-15T09:40:41.000Z</time>
      </trkpt>
      <trkpt lat="44.35889" lon="4.54491">
        <ele>281.79998779297</ele>
        <time>2017-03-15T09:40:42.000Z</time>
      </trkpt>
      <trkpt lat="44.35894" lon="4.54474">
        <ele>282.79998779297</ele>
        <time>2017-03-15T09:40:47.000Z</time>
      </trkpt>
      <trkpt lat="44.35896" lon="4.54471">
        <ele>283.20001220703</ele>
        <time>2017-03-15T09:40:48.000Z</time>
      </trkpt>
      <trkpt lat="44.35906" lon="4.54457">
        <ele>284</ele>
        <time>2017-03-15T09:40:53.000Z</time>
      </trkpt>
      <trkpt lat="44.3592" lon="4.54433">
        <ele>283.39999389648</ele>
        <time>2017-03-15T09:41:01.000Z</time>
      </trkpt>
      <trkpt lat="44.35926" lon="4.54416">
        <ele>283.60000610352</ele>
        <time>2017-03-15T09:41:08.000Z</time>
      </trkpt>
      <trkpt lat="44.35929" lon="4.54406">
        <ele>282.79998779297</ele>
        <time>2017-03-15T09:41:12.000Z</time>
      </trkpt>
      <trkpt lat="44.3593" lon="4.54403">
        <ele>283</ele>
        <time>2017-03-15T09:41:13.000Z</time>
      </trkpt>
      <trkpt lat="44.35936" lon="4.54381">
        <ele>283</ele>
        <time>2017-03-15T09:41:20.000Z</time>
      </trkpt>
      <trkpt lat="44.35944" lon="4.54362">
        <ele>282.20001220703</ele>
        <time>2017-03-15T09:41:27.000Z</time>
      </trkpt>
      <trkpt lat="44.35945" lon="4.54359">
        <ele>282</ele>
        <time>2017-03-15T09:41:28.000Z</time>
      </trkpt>
      <trkpt lat="44.35952" lon="4.5434">
        <ele>282.20001220703</ele>
        <time>2017-03-15T09:41:33.000Z</time>
      </trkpt>
      <trkpt lat="44.35959" lon="4.5432">
        <ele>282.20001220703</ele>
        <time>2017-03-15T09:41:39.000Z</time>
      </trkpt>
      <trkpt lat="44.35966" lon="4.54301">
        <ele>280.79998779297</ele>
        <time>2017-03-15T09:41:44.000Z</time>
      </trkpt>
      <trkpt lat="44.3597" lon="4.54292">
        <ele>281</ele>
        <time>2017-03-15T09:41:46.000Z</time>
      </trkpt>
      <trkpt lat="44.35985" lon="4.54252">
        <ele>280.39999389648</ele>
        <time>2017-03-15T09:41:55.000Z</time>
      </trkpt>
      <trkpt lat="44.35993" lon="4.54223">
        <ele>280.20001220703</ele>
        <time>2017-03-15T09:42:01.000Z</time>
      </trkpt>
      <trkpt lat="44.35997" lon="4.54215">
        <ele>279.39999389648</ele>
        <time>2017-03-15T09:42:03.000Z</time>
      </trkpt>
      <trkpt lat="44.36005" lon="4.54199">
        <ele>280.20001220703</ele>
        <time>2017-03-15T09:42:07.000Z</time>
      </trkpt>
      <trkpt lat="44.36014" lon="4.54176">
        <ele>279.60000610352</ele>
        <time>2017-03-15T09:42:13.000Z</time>
      </trkpt>
      <trkpt lat="44.36027" lon="4.54145">
        <ele>278.60000610352</ele>
        <time>2017-03-15T09:42:20.000Z</time>
      </trkpt>
      <trkpt lat="44.36035" lon="4.54124">
        <ele>278.39999389648</ele>
        <time>2017-03-15T09:42:25.000Z</time>
      </trkpt>
      <trkpt lat="44.36041" lon="4.54111">
        <ele>277.60000610352</ele>
        <time>2017-03-15T09:42:28.000Z</time>
      </trkpt>
      <trkpt lat="44.36053" lon="4.54086">
        <ele>277</ele>
        <time>2017-03-15T09:42:34.000Z</time>
      </trkpt>
      <trkpt lat="44.36057" lon="4.54078">
        <ele>276.79998779297</ele>
        <time>2017-03-15T09:42:36.000Z</time>
      </trkpt>
      <trkpt lat="44.36073" lon="4.54057">
        <ele>275.79998779297</ele>
        <time>2017-03-15T09:42:42.000Z</time>
      </trkpt>
      <trkpt lat="44.36075" lon="4.54053">
        <ele>275.39999389648</ele>
        <time>2017-03-15T09:42:43.000Z</time>
      </trkpt>
      <trkpt lat="44.36094" lon="4.54032">
        <ele>275.60000610352</ele>
        <time>2017-03-15T09:42:49.000Z</time>
      </trkpt>
      <trkpt lat="44.36109" lon="4.54022">
        <ele>275</ele>
        <time>2017-03-15T09:42:54.000Z</time>
      </trkpt>
      <trkpt lat="44.36121" lon="4.54014">
        <ele>274.79998779297</ele>
        <time>2017-03-15T09:42:58.000Z</time>
      </trkpt>
      <trkpt lat="44.36131" lon="4.54006">
        <ele>275.20001220703</ele>
        <time>2017-03-15T09:43:01.000Z</time>
      </trkpt>
      <trkpt lat="44.36146" lon="4.53992">
        <ele>273.60000610352</ele>
        <time>2017-03-15T09:43:05.000Z</time>
      </trkpt>
      <trkpt lat="44.36154" lon="4.53982">
        <ele>273.60000610352</ele>
        <time>2017-03-15T09:43:08.000Z</time>
      </trkpt>
      <trkpt lat="44.36159" lon="4.53976">
        <ele>274.79998779297</ele>
        <time>2017-03-15T09:43:10.000Z</time>
      </trkpt>
      <trkpt lat="44.36167" lon="4.53968">
        <ele>275.60000610352</ele>
        <time>2017-03-15T09:43:14.000Z</time>
      </trkpt>
      <trkpt lat="44.36174" lon="4.53963">
        <ele>275.79998779297</ele>
        <time>2017-03-15T09:43:17.000Z</time>
      </trkpt>
      <trkpt lat="44.36183" lon="4.53958">
        <ele>277</ele>
        <time>2017-03-15T09:43:21.000Z</time>
      </trkpt>
      <trkpt lat="44.36195" lon="4.5395">
        <ele>277.20001220703</ele>
        <time>2017-03-15T09:43:27.000Z</time>
      </trkpt>
      <trkpt lat="44.362" lon="4.53946">
        <ele>278</ele>
        <time>2017-03-15T09:43:30.000Z</time>
      </trkpt>
      <trkpt lat="44.36201" lon="4.53945">
        <ele>278.20001220703</ele>
        <time>2017-03-15T09:43:32.000Z</time>
      </trkpt>
      <trkpt lat="44.36201" lon="4.53945">
        <ele>278.20001220703</ele>
        <time>2017-03-15T09:43:34.000Z</time>
      </trkpt>
      <trkpt lat="44.36201" lon="4.53945">
        <ele>278.60000610352</ele>
        <time>2017-03-15T09:43:41.000Z</time>
      </trkpt>
      <trkpt lat="44.36202" lon="4.53945">
        <ele>278.20001220703</ele>
        <time>2017-03-15T09:43:49.000Z</time>
      </trkpt>
      <trkpt lat="44.36205" lon="4.53943">
        <ele>278.39999389648</ele>
        <time>2017-03-15T09:43:51.000Z</time>
      </trkpt>
      <trkpt lat="44.36211" lon="4.53939">
        <ele>278.39999389648</ele>
        <time>2017-03-15T09:43:54.000Z</time>
      </trkpt>
      <trkpt lat="44.36217" lon="4.53934">
        <ele>278.79998779297</ele>
        <time>2017-03-15T09:43:57.000Z</time>
      </trkpt>
      <trkpt lat="44.36218" lon="4.53932">
        <ele>279.20001220703</ele>
        <time>2017-03-15T09:43:58.000Z</time>
      </trkpt>
      <trkpt lat="44.36228" lon="4.53925">
        <ele>280</ele>
        <time>2017-03-15T09:44:03.000Z</time>
      </trkpt>
      <trkpt lat="44.36232" lon="4.53922">
        <ele>280.20001220703</ele>
        <time>2017-03-15T09:44:05.000Z</time>
      </trkpt>
      <trkpt lat="44.36241" lon="4.53916">
        <ele>280.20001220703</ele>
        <time>2017-03-15T09:44:10.000Z</time>
      </trkpt>
      <trkpt lat="44.36243" lon="4.53914">
        <ele>279.79998779297</ele>
        <time>2017-03-15T09:44:15.000Z</time>
      </trkpt>
      <trkpt lat="44.36248" lon="4.53912">
        <ele>280.79998779297</ele>
        <time>2017-03-15T09:44:27.000Z</time>
      </trkpt>
      <trkpt lat="44.3626" lon="4.53904">
        <ele>281.20001220703</ele>
        <time>2017-03-15T09:44:32.000Z</time>
      </trkpt>
      <trkpt lat="44.36262" lon="4.53902">
        <ele>281.60000610352</ele>
        <time>2017-03-15T09:44:33.000Z</time>
      </trkpt>
      <trkpt lat="44.36271" lon="4.53897">
        <ele>282.20001220703</ele>
        <time>2017-03-15T09:44:37.000Z</time>
      </trkpt>
      <trkpt lat="44.36274" lon="4.53893">
        <ele>282.60000610352</ele>
        <time>2017-03-15T09:44:39.000Z</time>
      </trkpt>
      <trkpt lat="44.36279" lon="4.53891">
        <ele>283.39999389648</ele>
        <time>2017-03-15T09:44:41.000Z</time>
      </trkpt>
      <trkpt lat="44.36285" lon="4.53884">
        <ele>283.60000610352</ele>
        <time>2017-03-15T09:44:45.000Z</time>
      </trkpt>
      <trkpt lat="44.36289" lon="4.5388">
        <ele>283.79998779297</ele>
        <time>2017-03-15T09:44:49.000Z</time>
      </trkpt>
      <trkpt lat="44.3629" lon="4.53879">
        <ele>283.60000610352</ele>
        <time>2017-03-15T09:44:50.000Z</time>
      </trkpt>
      <trkpt lat="44.36293" lon="4.53879">
        <ele>283.60000610352</ele>
        <time>2017-03-15T09:44:56.000Z</time>
      </trkpt>
      <trkpt lat="44.36293" lon="4.53879">
        <ele>282.39999389648</ele>
        <time>2017-03-15T09:45:00.000Z</time>
      </trkpt>
      <trkpt lat="44.36293" lon="4.53879">
        <ele>284.60000610352</ele>
        <time>2017-03-15T09:45:01.000Z</time>
      </trkpt>
      <trkpt lat="44.36293" lon="4.53879">
        <ele>286.39999389648</ele>
        <time>2017-03-15T09:45:03.000Z</time>
      </trkpt>
      <trkpt lat="44.36293" lon="4.53879">
        <ele>283.79998779297</ele>
        <time>2017-03-15T09:45:04.000Z</time>
      </trkpt>
      <trkpt lat="44.36293" lon="4.53879">
        <ele>284.39999389648</ele>
        <time>2017-03-15T09:45:12.000Z</time>
      </trkpt>
      <trkpt lat="44.36293" lon="4.53879">
        <ele>284.20001220703</ele>
        <time>2017-03-15T09:45:27.000Z</time>
      </trkpt>
      <trkpt lat="44.36293" lon="4.53879">
        <ele>283.79998779297</ele>
        <time>2017-03-15T09:45:44.000Z</time>
      </trkpt>
      <trkpt lat="44.36293" lon="4.53879">
        <ele>281.20001220703</ele>
        <time>2017-03-15T09:45:52.000Z</time>
      </trkpt>
      <trkpt lat="44.36293" lon="4.53879">
        <ele>283</ele>
        <time>2017-03-15T09:45:53.000Z</time>
      </trkpt>
      <trkpt lat="44.36293" lon="4.53879">
        <ele>285</ele>
        <time>2017-03-15T09:45:55.000Z</time>
      </trkpt>
      <trkpt lat="44.36293" lon="4.53879">
        <ele>284</ele>
        <time>2017-03-15T09:45:56.000Z</time>
      </trkpt>
      <trkpt lat="44.36293" lon="4.53879">
        <ele>284</ele>
        <time>2017-03-15T09:46:03.000Z</time>
      </trkpt>
      <trkpt lat="44.36293" lon="4.53879">
        <ele>284</ele>
        <time>2017-03-15T09:46:23.000Z</time>
      </trkpt>
      <trkpt lat="44.36293" lon="4.53879">
        <ele>282.60000610352</ele>
        <time>2017-03-15T09:46:29.000Z</time>
      </trkpt>
      <trkpt lat="44.36293" lon="4.53879">
        <ele>284.39999389648</ele>
        <time>2017-03-15T09:46:32.000Z</time>
      </trkpt>
      <trkpt lat="44.36293" lon="4.53879">
        <ele>283.79998779297</ele>
        <time>2017-03-15T09:46:39.000Z</time>
      </trkpt>
      <trkpt lat="44.36297" lon="4.53877">
        <ele>284.20001220703</ele>
        <time>2017-03-15T09:46:47.000Z</time>
      </trkpt>
      <trkpt lat="44.36312" lon="4.53865">
        <ele>284.20001220703</ele>
        <time>2017-03-15T09:46:53.000Z</time>
      </trkpt>
      <trkpt lat="44.36325" lon="4.53854">
        <ele>285.60000610352</ele>
        <time>2017-03-15T09:46:57.000Z</time>
      </trkpt>
      <trkpt lat="44.36335" lon="4.53847">
        <ele>285.20001220703</ele>
        <time>2017-03-15T09:47:00.000Z</time>
      </trkpt>
      <trkpt lat="44.3635" lon="4.53835">
        <ele>286.60000610352</ele>
        <time>2017-03-15T09:47:05.000Z</time>
      </trkpt>
      <trkpt lat="44.36353" lon="4.53834">
        <ele>286.79998779297</ele>
        <time>2017-03-15T09:47:06.000Z</time>
      </trkpt>
      <trkpt lat="44.36365" lon="4.53826">
        <ele>287.39999389648</ele>
        <time>2017-03-15T09:47:11.000Z</time>
      </trkpt>
      <trkpt lat="44.36369" lon="4.53823">
        <ele>287.79998779297</ele>
        <time>2017-03-15T09:47:13.000Z</time>
      </trkpt>
      <trkpt lat="44.36375" lon="4.53819">
        <ele>288.39999389648</ele>
        <time>2017-03-15T09:47:17.000Z</time>
      </trkpt>
      <trkpt lat="44.3638" lon="4.53815">
        <ele>288.79998779297</ele>
        <time>2017-03-15T09:47:20.000Z</time>
      </trkpt>
      <trkpt lat="44.36388" lon="4.5381">
        <ele>288.79998779297</ele>
        <time>2017-03-15T09:47:24.000Z</time>
      </trkpt>
      <trkpt lat="44.36392" lon="4.53808">
        <ele>288.60000610352</ele>
        <time>2017-03-15T09:47:26.000Z</time>
      </trkpt>
      <trkpt lat="44.36399" lon="4.53804">
        <ele>289.79998779297</ele>
        <time>2017-03-15T09:47:29.000Z</time>
      </trkpt>
      <trkpt lat="44.36401" lon="4.53803">
        <ele>290</ele>
        <time>2017-03-15T09:47:30.000Z</time>
      </trkpt>
      <trkpt lat="44.36413" lon="4.53796">
        <ele>291.20001220703</ele>
        <time>2017-03-15T09:47:36.000Z</time>
      </trkpt>
      <trkpt lat="44.36422" lon="4.5379">
        <ele>291</ele>
        <time>2017-03-15T09:47:42.000Z</time>
      </trkpt>
      <trkpt lat="44.36431" lon="4.53784">
        <ele>291.79998779297</ele>
        <time>2017-03-15T09:47:48.000Z</time>
      </trkpt>
      <trkpt lat="44.36443" lon="4.53774">
        <ele>292</ele>
        <time>2017-03-15T09:47:53.000Z</time>
      </trkpt>
      <trkpt lat="44.36445" lon="4.53773">
        <ele>292.20001220703</ele>
        <time>2017-03-15T09:47:54.000Z</time>
      </trkpt>
      <trkpt lat="44.3646" lon="4.53761">
        <ele>293</ele>
        <time>2017-03-15T09:48:01.000Z</time>
      </trkpt>
      <trkpt lat="44.36471" lon="4.53753">
        <ele>293.39999389648</ele>
        <time>2017-03-15T09:48:06.000Z</time>
      </trkpt>
      <trkpt lat="44.36474" lon="4.53752">
        <ele>293.39999389648</ele>
        <time>2017-03-15T09:48:07.000Z</time>
      </trkpt>
      <trkpt lat="44.36486" lon="4.53743">
        <ele>293.79998779297</ele>
        <time>2017-03-15T09:48:12.000Z</time>
      </trkpt>
      <trkpt lat="44.36503" lon="4.53731">
        <ele>293.79998779297</ele>
        <time>2017-03-15T09:48:18.000Z</time>
      </trkpt>
      <trkpt lat="44.36516" lon="4.53715">
        <ele>293.79998779297</ele>
        <time>2017-03-15T09:48:23.000Z</time>
      </trkpt>
      <trkpt lat="44.36528" lon="4.53684">
        <ele>293</ele>
        <time>2017-03-15T09:48:30.000Z</time>
      </trkpt>
      <trkpt lat="44.36529" lon="4.53676">
        <ele>292.20001220703</ele>
        <time>2017-03-15T09:48:32.000Z</time>
      </trkpt>
      <trkpt lat="44.36532" lon="4.53663">
        <ele>291.39999389648</ele>
        <time>2017-03-15T09:48:35.000Z</time>
      </trkpt>
      <trkpt lat="44.36534" lon="4.53654">
        <ele>291.20001220703</ele>
        <time>2017-03-15T09:48:37.000Z</time>
      </trkpt>
      <trkpt lat="44.36538" lon="4.53631">
        <ele>291.39999389648</ele>
        <time>2017-03-15T09:48:42.000Z</time>
      </trkpt>
      <trkpt lat="44.36546" lon="4.53595">
        <ele>291</ele>
        <time>2017-03-15T09:48:50.000Z</time>
      </trkpt>
      <trkpt lat="44.36549" lon="4.53571">
        <ele>290.20001220703</ele>
        <time>2017-03-15T09:48:55.000Z</time>
      </trkpt>
      <trkpt lat="44.36549" lon="4.53555">
        <ele>289</ele>
        <time>2017-03-15T09:48:59.000Z</time>
      </trkpt>
      <trkpt lat="44.3655" lon="4.53553">
        <ele>288.79998779297</ele>
        <time>2017-03-15T09:49:00.000Z</time>
      </trkpt>
      <trkpt lat="44.3655" lon="4.53542">
        <ele>288.20001220703</ele>
        <time>2017-03-15T09:49:04.000Z</time>
      </trkpt>
      <trkpt lat="44.36546" lon="4.53535">
        <ele>288</ele>
        <time>2017-03-15T09:49:07.000Z</time>
      </trkpt>
      <trkpt lat="44.36547" lon="4.53533">
        <ele>287.60000610352</ele>
        <time>2017-03-15T09:49:08.000Z</time>
      </trkpt>
      <trkpt lat="44.36556" lon="4.53527">
        <ele>287.79998779297</ele>
        <time>2017-03-15T09:49:11.000Z</time>
      </trkpt>
      <trkpt lat="44.36559" lon="4.53524">
        <ele>288</ele>
        <time>2017-03-15T09:49:12.000Z</time>
      </trkpt>
      <trkpt lat="44.36578" lon="4.53505">
        <ele>288.39999389648</ele>
        <time>2017-03-15T09:49:19.000Z</time>
      </trkpt>
      <trkpt lat="44.36593" lon="4.53492">
        <ele>288.39999389648</ele>
        <time>2017-03-15T09:49:25.000Z</time>
      </trkpt>
      <trkpt lat="44.36609" lon="4.53476">
        <ele>289</ele>
        <time>2017-03-15T09:49:32.000Z</time>
      </trkpt>
      <trkpt lat="44.36615" lon="4.53467">
        <ele>290.20001220703</ele>
        <time>2017-03-15T09:49:35.000Z</time>
      </trkpt>
      <trkpt lat="44.36622" lon="4.53452">
        <ele>290.39999389648</ele>
        <time>2017-03-15T09:49:40.000Z</time>
      </trkpt>
      <trkpt lat="44.36622" lon="4.5344">
        <ele>290.79998779297</ele>
        <time>2017-03-15T09:49:46.000Z</time>
      </trkpt>
      <trkpt lat="44.36622" lon="4.53439">
        <ele>292</ele>
        <time>2017-03-15T09:49:54.000Z</time>
      </trkpt>
      <trkpt lat="44.36622" lon="4.53439">
        <ele>291</ele>
        <time>2017-03-15T09:49:55.000Z</time>
      </trkpt>
      <trkpt lat="44.36622" lon="4.53439">
        <ele>292</ele>
        <time>2017-03-15T09:49:56.000Z</time>
      </trkpt>
      <trkpt lat="44.36622" lon="4.53439">
        <ele>291</ele>
        <time>2017-03-15T09:50:04.000Z</time>
      </trkpt>
      <trkpt lat="44.36622" lon="4.53439">
        <ele>291</ele>
        <time>2017-03-15T09:50:07.000Z</time>
      </trkpt>
      <trkpt lat="44.36622" lon="4.53439">
        <ele>290.60000610352</ele>
        <time>2017-03-15T09:50:19.000Z</time>
      </trkpt>
      <trkpt lat="44.36622" lon="4.53438">
        <ele>290.79998779297</ele>
        <time>2017-03-15T09:50:29.000Z</time>
      </trkpt>
      <trkpt lat="44.36622" lon="4.53438">
        <ele>291.20001220703</ele>
        <time>2017-03-15T09:50:37.000Z</time>
      </trkpt>
      <trkpt lat="44.36622" lon="4.53438">
        <ele>286.39999389648</ele>
        <time>2017-03-15T09:50:42.000Z</time>
      </trkpt>
      <trkpt lat="44.36622" lon="4.53438">
        <ele>290.20001220703</ele>
        <time>2017-03-15T09:50:43.000Z</time>
      </trkpt>
      <trkpt lat="44.36622" lon="4.53438">
        <ele>291.60000610352</ele>
        <time>2017-03-15T09:50:44.000Z</time>
      </trkpt>
      <trkpt lat="44.36622" lon="4.53438">
        <ele>296</ele>
        <time>2017-03-15T09:50:45.000Z</time>
      </trkpt>
      <trkpt lat="44.36622" lon="4.53438">
        <ele>291.60000610352</ele>
        <time>2017-03-15T09:50:46.000Z</time>
      </trkpt>
      <trkpt lat="44.36622" lon="4.53438">
        <ele>292.39999389648</ele>
        <time>2017-03-15T09:50:54.000Z</time>
      </trkpt>
      <trkpt lat="44.36622" lon="4.53438">
        <ele>292.60000610352</ele>
        <time>2017-03-15T09:51:04.000Z</time>
      </trkpt>
      <trkpt lat="44.36622" lon="4.53438">
        <ele>290.39999389648</ele>
        <time>2017-03-15T09:51:06.000Z</time>
      </trkpt>
      <trkpt lat="44.36622" lon="4.53438">
        <ele>290.60000610352</ele>
        <time>2017-03-15T09:51:07.000Z</time>
      </trkpt>
      <trkpt lat="44.36622" lon="4.53438">
        <ele>293.39999389648</ele>
        <time>2017-03-15T09:51:09.000Z</time>
      </trkpt>
      <trkpt lat="44.36622" lon="4.53438">
        <ele>292.20001220703</ele>
        <time>2017-03-15T09:51:11.000Z</time>
      </trkpt>
      <trkpt lat="44.36622" lon="4.53438">
        <ele>290</ele>
        <time>2017-03-15T09:51:16.000Z</time>
      </trkpt>
      <trkpt lat="44.36622" lon="4.53438">
        <ele>291</ele>
        <time>2017-03-15T09:51:18.000Z</time>
      </trkpt>
      <trkpt lat="44.36622" lon="4.53438">
        <ele>292.39999389648</ele>
        <time>2017-03-15T09:51:19.000Z</time>
      </trkpt>
      <trkpt lat="44.36622" lon="4.53438">
        <ele>292</ele>
        <time>2017-03-15T09:51:21.000Z</time>
      </trkpt>
      <trkpt lat="44.36622" lon="4.53438">
        <ele>291.79998779297</ele>
        <time>2017-03-15T09:51:34.000Z</time>
      </trkpt>
      <trkpt lat="44.36622" lon="4.53436">
        <ele>291.20001220703</ele>
        <time>2017-03-15T09:51:39.000Z</time>
      </trkpt>
      <trkpt lat="44.36622" lon="4.53435">
        <ele>291.20001220703</ele>
        <time>2017-03-15T09:51:40.000Z</time>
      </trkpt>
      <trkpt lat="44.36617" lon="4.53422">
        <ele>291.79998779297</ele>
        <time>2017-03-15T09:51:44.000Z</time>
      </trkpt>
      <trkpt lat="44.3661" lon="4.53407">
        <ele>292.20001220703</ele>
        <time>2017-03-15T09:51:48.000Z</time>
      </trkpt>
      <trkpt lat="44.36607" lon="4.534">
        <ele>292.60000610352</ele>
        <time>2017-03-15T09:51:50.000Z</time>
      </trkpt>
      <trkpt lat="44.36596" lon="4.53378">
        <ele>293.39999389648</ele>
        <time>2017-03-15T09:51:57.000Z</time>
      </trkpt>
      <trkpt lat="44.36594" lon="4.53375">
        <ele>293.39999389648</ele>
        <time>2017-03-15T09:51:58.000Z</time>
      </trkpt>
      <trkpt lat="44.36581" lon="4.53355">
        <ele>294</ele>
        <time>2017-03-15T09:52:05.000Z</time>
      </trkpt>
      <trkpt lat="44.36578" lon="4.53349">
        <ele>294.39999389648</ele>
        <time>2017-03-15T09:52:08.000Z</time>
      </trkpt>
      <trkpt lat="44.36574" lon="4.53339">
        <ele>294.39999389648</ele>
        <time>2017-03-15T09:52:11.000Z</time>
      </trkpt>
      <trkpt lat="44.36565" lon="4.5332">
        <ele>295.60000610352</ele>
        <time>2017-03-15T09:52:16.000Z</time>
      </trkpt>
      <trkpt lat="44.36564" lon="4.53316">
        <ele>296</ele>
        <time>2017-03-15T09:52:17.000Z</time>
      </trkpt>
      <trkpt lat="44.3656" lon="4.53291">
        <ele>296.39999389648</ele>
        <time>2017-03-15T09:52:23.000Z</time>
      </trkpt>
      <trkpt lat="44.3656" lon="4.53287">
        <ele>296.60000610352</ele>
        <time>2017-03-15T09:52:24.000Z</time>
      </trkpt>
      <trkpt lat="44.36558" lon="4.53263">
        <ele>297.79998779297</ele>
        <time>2017-03-15T09:52:30.000Z</time>
      </trkpt>
      <trkpt lat="44.36558" lon="4.53255">
        <ele>298.39999389648</ele>
        <time>2017-03-15T09:52:32.000Z</time>
      </trkpt>
      <trkpt lat="44.3656" lon="4.53236">
        <ele>298.79998779297</ele>
        <time>2017-03-15T09:52:37.000Z</time>
      </trkpt>
      <trkpt lat="44.36561" lon="4.53224">
        <ele>298.79998779297</ele>
        <time>2017-03-15T09:52:40.000Z</time>
      </trkpt>
      <trkpt lat="44.36561" lon="4.53195">
        <ele>298.79998779297</ele>
        <time>2017-03-15T09:52:47.000Z</time>
      </trkpt>
      <trkpt lat="44.36555" lon="4.53165">
        <ele>299.39999389648</ele>
        <time>2017-03-15T09:52:55.000Z</time>
      </trkpt>
      <trkpt lat="44.36553" lon="4.53154">
        <ele>299.79998779297</ele>
        <time>2017-03-15T09:52:58.000Z</time>
      </trkpt>
      <trkpt lat="44.36548" lon="4.53134">
        <ele>300.20001220703</ele>
        <time>2017-03-15T09:53:03.000Z</time>
      </trkpt>
      <trkpt lat="44.36544" lon="4.53114">
        <ele>301</ele>
        <time>2017-03-15T09:53:08.000Z</time>
      </trkpt>
      <trkpt lat="44.36541" lon="4.53103">
        <ele>301.39999389648</ele>
        <time>2017-03-15T09:53:11.000Z</time>
      </trkpt>
      <trkpt lat="44.36534" lon="4.53073">
        <ele>301.60000610352</ele>
        <time>2017-03-15T09:53:19.000Z</time>
      </trkpt>
      <trkpt lat="44.36531" lon="4.53061">
        <ele>302.20001220703</ele>
        <time>2017-03-15T09:53:22.000Z</time>
      </trkpt>
      <trkpt lat="44.36528" lon="4.53048">
        <ele>302.60000610352</ele>
        <time>2017-03-15T09:53:26.000Z</time>
      </trkpt>
      <trkpt lat="44.36521" lon="4.53034">
        <ele>303.20001220703</ele>
        <time>2017-03-15T09:53:32.000Z</time>
      </trkpt>
      <trkpt lat="44.3652" lon="4.53032">
        <ele>303.20001220703</ele>
        <time>2017-03-15T09:53:34.000Z</time>
      </trkpt>
      <trkpt lat="44.3652" lon="4.53032">
        <ele>303</ele>
        <time>2017-03-15T09:53:41.000Z</time>
      </trkpt>
      <trkpt lat="44.3652" lon="4.53032">
        <ele>304.39999389648</ele>
        <time>2017-03-15T09:53:46.000Z</time>
      </trkpt>
      <trkpt lat="44.3652" lon="4.53032">
        <ele>299.20001220703</ele>
        <time>2017-03-15T09:53:51.000Z</time>
      </trkpt>
      <trkpt lat="44.3652" lon="4.53032">
        <ele>301.60000610352</ele>
        <time>2017-03-15T09:53:52.000Z</time>
      </trkpt>
      <trkpt lat="44.3652" lon="4.53032">
        <ele>306</ele>
        <time>2017-03-15T09:53:54.000Z</time>
      </trkpt>
      <trkpt lat="44.3652" lon="4.53032">
        <ele>300.39999389648</ele>
        <time>2017-03-15T09:53:55.000Z</time>
      </trkpt>
      <trkpt lat="44.3652" lon="4.53032">
        <ele>301.60000610352</ele>
        <time>2017-03-15T09:53:56.000Z</time>
      </trkpt>
      <trkpt lat="44.3652" lon="4.53032">
        <ele>301.20001220703</ele>
        <time>2017-03-15T09:53:57.000Z</time>
      </trkpt>
      <trkpt lat="44.3652" lon="4.53032">
        <ele>304.20001220703</ele>
        <time>2017-03-15T09:53:58.000Z</time>
      </trkpt>
      <trkpt lat="44.3652" lon="4.53032">
        <ele>303</ele>
        <time>2017-03-15T09:53:59.000Z</time>
      </trkpt>
      <trkpt lat="44.3652" lon="4.53032">
        <ele>303.20001220703</ele>
        <time>2017-03-15T09:54:10.000Z</time>
      </trkpt>
      <trkpt lat="44.36521" lon="4.53032">
        <ele>303</ele>
        <time>2017-03-15T09:54:25.000Z</time>
      </trkpt>
      <trkpt lat="44.36521" lon="4.53032">
        <ele>302.79998779297</ele>
        <time>2017-03-15T09:54:40.000Z</time>
      </trkpt>
      <trkpt lat="44.36521" lon="4.53032">
        <ele>303.79998779297</ele>
        <time>2017-03-15T09:54:56.000Z</time>
      </trkpt>
      <trkpt lat="44.36521" lon="4.53032">
        <ele>303.20001220703</ele>
        <time>2017-03-15T09:55:07.000Z</time>
      </trkpt>
      <trkpt lat="44.36521" lon="4.53032">
        <ele>303.39999389648</ele>
        <time>2017-03-15T09:55:20.000Z</time>
      </trkpt>
      <trkpt lat="44.36521" lon="4.53032">
        <ele>303.60000610352</ele>
        <time>2017-03-15T09:55:33.000Z</time>
      </trkpt>
      <trkpt lat="44.36521" lon="4.53032">
        <ele>303.20001220703</ele>
        <time>2017-03-15T09:55:41.000Z</time>
      </trkpt>
      <trkpt lat="44.36521" lon="4.53032">
        <ele>304</ele>
        <time>2017-03-15T09:55:43.000Z</time>
      </trkpt>
      <trkpt lat="44.36521" lon="4.53032">
        <ele>303</ele>
        <time>2017-03-15T09:55:53.000Z</time>
      </trkpt>
      <trkpt lat="44.36521" lon="4.53032">
        <ele>303.20001220703</ele>
        <time>2017-03-15T09:55:54.000Z</time>
      </trkpt>
      <trkpt lat="44.36521" lon="4.53032">
        <ele>304</ele>
        <time>2017-03-15T09:56:03.000Z</time>
      </trkpt>
      <trkpt lat="44.36521" lon="4.53032">
        <ele>303</ele>
        <time>2017-03-15T09:56:05.000Z</time>
      </trkpt>
      <trkpt lat="44.36521" lon="4.53032">
        <ele>303.20001220703</ele>
        <time>2017-03-15T09:56:10.000Z</time>
      </trkpt>
      <trkpt lat="44.36521" lon="4.53032">
        <ele>303</ele>
        <time>2017-03-15T09:56:22.000Z</time>
      </trkpt>
      <trkpt lat="44.36521" lon="4.53032">
        <ele>302.79998779297</ele>
        <time>2017-03-15T09:56:37.000Z</time>
      </trkpt>
      <trkpt lat="44.36521" lon="4.53032">
        <ele>303.20001220703</ele>
        <time>2017-03-15T09:56:52.000Z</time>
      </trkpt>
      <trkpt lat="44.36521" lon="4.5303">
        <ele>303.20001220703</ele>
        <time>2017-03-15T09:56:55.000Z</time>
      </trkpt>
      <trkpt lat="44.36521" lon="4.53029">
        <ele>303.20001220703</ele>
        <time>2017-03-15T09:56:57.000Z</time>
      </trkpt>
      <trkpt lat="44.36519" lon="4.53025">
        <ele>303.20001220703</ele>
        <time>2017-03-15T09:57:03.000Z</time>
      </trkpt>
      <trkpt lat="44.36518" lon="4.53026">
        <ele>303.39999389648</ele>
        <time>2017-03-15T09:57:08.000Z</time>
      </trkpt>
      <trkpt lat="44.36518" lon="4.53025">
        <ele>303.60000610352</ele>
        <time>2017-03-15T09:57:15.000Z</time>
      </trkpt>
      <trkpt lat="44.36518" lon="4.53025">
        <ele>303.20001220703</ele>
        <time>2017-03-15T09:57:23.000Z</time>
      </trkpt>
      <trkpt lat="44.36518" lon="4.53025">
        <ele>303.79998779297</ele>
        <time>2017-03-15T09:57:47.000Z</time>
      </trkpt>
      <trkpt lat="44.36519" lon="4.53025">
        <ele>304</ele>
        <time>2017-03-15T09:57:56.000Z</time>
      </trkpt>
      <trkpt lat="44.36519" lon="4.53025">
        <ele>303.79998779297</ele>
        <time>2017-03-15T09:58:03.000Z</time>
      </trkpt>
      <trkpt lat="44.36519" lon="4.53025">
        <ele>304.20001220703</ele>
        <time>2017-03-15T09:58:17.000Z</time>
      </trkpt>
      <trkpt lat="44.3652" lon="4.53025">
        <ele>304</ele>
        <time>2017-03-15T09:58:23.000Z</time>
      </trkpt>
      <trkpt lat="44.3652" lon="4.53025">
        <ele>304.20001220703</ele>
        <time>2017-03-15T09:58:26.000Z</time>
      </trkpt>
      <trkpt lat="44.36521" lon="4.53026">
        <ele>303.60000610352</ele>
        <time>2017-03-15T09:58:31.000Z</time>
      </trkpt>
      <trkpt lat="44.36521" lon="4.53026">
        <ele>303.39999389648</ele>
        <time>2017-03-15T09:58:41.000Z</time>
      </trkpt>
      <trkpt lat="44.36521" lon="4.53027">
        <ele>303.39999389648</ele>
        <time>2017-03-15T09:58:52.000Z</time>
      </trkpt>
      <trkpt lat="44.36523" lon="4.53034">
        <ele>303.20001220703</ele>
        <time>2017-03-15T09:58:58.000Z</time>
      </trkpt>
      <trkpt lat="44.36527" lon="4.53047">
        <ele>302.79998779297</ele>
        <time>2017-03-15T09:59:02.000Z</time>
      </trkpt>
      <trkpt lat="44.36528" lon="4.5305">
        <ele>302.39999389648</ele>
        <time>2017-03-15T09:59:03.000Z</time>
      </trkpt>
      <trkpt lat="44.36535" lon="4.53081">
        <ele>302.60000610352</ele>
        <time>2017-03-15T09:59:10.000Z</time>
      </trkpt>
      <trkpt lat="44.36543" lon="4.5312">
        <ele>301.60000610352</ele>
        <time>2017-03-15T09:59:17.000Z</time>
      </trkpt>
      <trkpt lat="44.36544" lon="4.53126">
        <ele>301.39999389648</ele>
        <time>2017-03-15T09:59:18.000Z</time>
      </trkpt>
      <trkpt lat="44.36553" lon="4.53161">
        <ele>300.60000610352</ele>
        <time>2017-03-15T09:59:24.000Z</time>
      </trkpt>
      <trkpt lat="44.36556" lon="4.53181">
        <ele>300.60000610352</ele>
        <time>2017-03-15T09:59:27.000Z</time>
      </trkpt>
      <trkpt lat="44.36559" lon="4.53199">
        <ele>299.39999389648</ele>
        <time>2017-03-15T09:59:30.000Z</time>
      </trkpt>
      <trkpt lat="44.36559" lon="4.53215">
        <ele>300</ele>
        <time>2017-03-15T09:59:33.000Z</time>
      </trkpt>
      <trkpt lat="44.36557" lon="4.53247">
        <ele>298.60000610352</ele>
        <time>2017-03-15T09:59:39.000Z</time>
      </trkpt>
      <trkpt lat="44.36556" lon="4.53254">
        <ele>298.20001220703</ele>
        <time>2017-03-15T09:59:41.000Z</time>
      </trkpt>
      <trkpt lat="44.36556" lon="4.53254">
        <ele>298.20001220703</ele>
        <time>2017-03-15T09:59:43.000Z</time>
      </trkpt>
      <trkpt lat="44.36556" lon="4.53254">
        <ele>296.79998779297</ele>
        <time>2017-03-15T09:59:49.000Z</time>
      </trkpt>
      <trkpt lat="44.36556" lon="4.53254">
        <ele>298</ele>
        <time>2017-03-15T09:59:50.000Z</time>
      </trkpt>
      <trkpt lat="44.36556" lon="4.53254">
        <ele>299.79998779297</ele>
        <time>2017-03-15T09:59:52.000Z</time>
      </trkpt>
      <trkpt lat="44.36556" lon="4.53254">
        <ele>298.79998779297</ele>
        <time>2017-03-15T09:59:53.000Z</time>
      </trkpt>
      <trkpt lat="44.36556" lon="4.53254">
        <ele>298</ele>
        <time>2017-03-15T10:00:03.000Z</time>
      </trkpt>
      <trkpt lat="44.36559" lon="4.53256">
        <ele>297.79998779297</ele>
        <time>2017-03-15T10:00:05.000Z</time>
      </trkpt>
      <trkpt lat="44.3656" lon="4.53254">
        <ele>297.79998779297</ele>
        <time>2017-03-15T10:00:06.000Z</time>
      </trkpt>
      <trkpt lat="44.3656" lon="4.53241">
        <ele>298</ele>
        <time>2017-03-15T10:00:10.000Z</time>
      </trkpt>
      <trkpt lat="44.36563" lon="4.53215">
        <ele>298.20001220703</ele>
        <time>2017-03-15T10:00:18.000Z</time>
      </trkpt>
      <trkpt lat="44.36565" lon="4.53216">
        <ele>297.79998779297</ele>
        <time>2017-03-15T10:00:19.000Z</time>
      </trkpt>
      <trkpt lat="44.36568" lon="4.53226">
        <ele>299.39999389648</ele>
        <time>2017-03-15T10:00:22.000Z</time>
      </trkpt>
      <trkpt lat="44.36568" lon="4.53229">
        <ele>300</ele>
        <time>2017-03-15T10:00:23.000Z</time>
      </trkpt>
      <trkpt lat="44.36569" lon="4.53235">
        <ele>300.60000610352</ele>
        <time>2017-03-15T10:00:25.000Z</time>
      </trkpt>
      <trkpt lat="44.36572" lon="4.53255">
        <ele>301</ele>
        <time>2017-03-15T10:00:31.000Z</time>
      </trkpt>
      <trkpt lat="44.36578" lon="4.53275">
        <ele>301.20001220703</ele>
        <time>2017-03-15T10:00:37.000Z</time>
      </trkpt>
      <trkpt lat="44.36579" lon="4.53278">
        <ele>301.20001220703</ele>
        <time>2017-03-15T10:00:38.000Z</time>
      </trkpt>
      <trkpt lat="44.36582" lon="4.53282">
        <ele>301.60000610352</ele>
        <time>2017-03-15T10:00:40.000Z</time>
      </trkpt>
      <trkpt lat="44.36586" lon="4.53286">
        <ele>301.79998779297</ele>
        <time>2017-03-15T10:00:42.000Z</time>
      </trkpt>
      <trkpt lat="44.3659" lon="4.53291">
        <ele>302.39999389648</ele>
        <time>2017-03-15T10:00:45.000Z</time>
      </trkpt>
      <trkpt lat="44.36591" lon="4.53293">
        <ele>302.60000610352</ele>
        <time>2017-03-15T10:00:46.000Z</time>
      </trkpt>
      <trkpt lat="44.36593" lon="4.53295">
        <ele>302.60000610352</ele>
        <time>2017-03-15T10:00:48.000Z</time>
      </trkpt>
      <trkpt lat="44.36596" lon="4.53298">
        <ele>302.39999389648</ele>
        <time>2017-03-15T10:00:50.000Z</time>
      </trkpt>
      <trkpt lat="44.36607" lon="4.5331">
        <ele>303.60000610352</ele>
        <time>2017-03-15T10:00:56.000Z</time>
      </trkpt>
      <trkpt lat="44.36612" lon="4.53316">
        <ele>304.39999389648</ele>
        <time>2017-03-15T10:00:59.000Z</time>
      </trkpt>
      <trkpt lat="44.36617" lon="4.53321">
        <ele>304.79998779297</ele>
        <time>2017-03-15T10:01:02.000Z</time>
      </trkpt>
      <trkpt lat="44.36622" lon="4.53327">
        <ele>305.20001220703</ele>
        <time>2017-03-15T10:01:05.000Z</time>
      </trkpt>
      <trkpt lat="44.36627" lon="4.53332">
        <ele>305.79998779297</ele>
        <time>2017-03-15T10:01:08.000Z</time>
      </trkpt>
      <trkpt lat="44.36634" lon="4.53341">
        <ele>306.60000610352</ele>
        <time>2017-03-15T10:01:13.000Z</time>
      </trkpt>
      <trkpt lat="44.36636" lon="4.53345">
        <ele>307</ele>
        <time>2017-03-15T10:01:15.000Z</time>
      </trkpt>
      <trkpt lat="44.36639" lon="4.53347">
        <ele>307.79998779297</ele>
        <time>2017-03-15T10:01:18.000Z</time>
      </trkpt>
      <trkpt lat="44.3664" lon="4.53346">
        <ele>308.20001220703</ele>
        <time>2017-03-15T10:01:19.000Z</time>
      </trkpt>
      <trkpt lat="44.36641" lon="4.53345">
        <ele>308.20001220703</ele>
        <time>2017-03-15T10:01:20.000Z</time>
      </trkpt>
      <trkpt lat="44.36645" lon="4.53337">
        <ele>308.79998779297</ele>
        <time>2017-03-15T10:01:27.000Z</time>
      </trkpt>
      <trkpt lat="44.36645" lon="4.53337">
        <ele>309.20001220703</ele>
        <time>2017-03-15T10:01:30.000Z</time>
      </trkpt>
      <trkpt lat="44.36645" lon="4.53337">
        <ele>308</ele>
        <time>2017-03-15T10:01:33.000Z</time>
      </trkpt>
      <trkpt lat="44.36645" lon="4.53337">
        <ele>309.60000610352</ele>
        <time>2017-03-15T10:01:34.000Z</time>
      </trkpt>
      <trkpt lat="44.36645" lon="4.53337">
        <ele>310.79998779297</ele>
        <time>2017-03-15T10:01:44.000Z</time>
      </trkpt>
      <trkpt lat="44.36645" lon="4.53337">
        <ele>309</ele>
        <time>2017-03-15T10:01:45.000Z</time>
      </trkpt>
      <trkpt lat="44.36645" lon="4.53337">
        <ele>309</ele>
        <time>2017-03-15T10:01:47.000Z</time>
      </trkpt>
      <trkpt lat="44.36645" lon="4.53337">
        <ele>310.20001220703</ele>
        <time>2017-03-15T10:01:48.000Z</time>
      </trkpt>
      <trkpt lat="44.36645" lon="4.53337">
        <ele>309</ele>
        <time>2017-03-15T10:01:50.000Z</time>
      </trkpt>
      <trkpt lat="44.36645" lon="4.53337">
        <ele>309</ele>
        <time>2017-03-15T10:01:58.000Z</time>
      </trkpt>
      <trkpt lat="44.36645" lon="4.53337">
        <ele>309.20001220703</ele>
        <time>2017-03-15T10:02:10.000Z</time>
      </trkpt>
      <trkpt lat="44.36645" lon="4.53337">
        <ele>309.39999389648</ele>
        <time>2017-03-15T10:02:19.000Z</time>
      </trkpt>
      <trkpt lat="44.36645" lon="4.53337">
        <ele>309</ele>
        <time>2017-03-15T10:02:30.000Z</time>
      </trkpt>
      <trkpt lat="44.36645" lon="4.53337">
        <ele>309.60000610352</ele>
        <time>2017-03-15T10:02:40.000Z</time>
      </trkpt>
      <trkpt lat="44.36645" lon="4.53337">
        <ele>309.39999389648</ele>
        <time>2017-03-15T10:02:52.000Z</time>
      </trkpt>
      <trkpt lat="44.36646" lon="4.53333">
        <ele>309.60000610352</ele>
        <time>2017-03-15T10:02:58.000Z</time>
      </trkpt>
      <trkpt lat="44.36648" lon="4.53328">
        <ele>310.20001220703</ele>
        <time>2017-03-15T10:03:01.000Z</time>
      </trkpt>
      <trkpt lat="44.36649" lon="4.53319">
        <ele>311.20001220703</ele>
        <time>2017-03-15T10:03:05.000Z</time>
      </trkpt>
      <trkpt lat="44.36649" lon="4.53317">
        <ele>311.60000610352</ele>
        <time>2017-03-15T10:03:06.000Z</time>
      </trkpt>
      <trkpt lat="44.36652" lon="4.53308">
        <ele>312.20001220703</ele>
        <time>2017-03-15T10:03:11.000Z</time>
      </trkpt>
      <trkpt lat="44.36656" lon="4.53302">
        <ele>312.60000610352</ele>
        <time>2017-03-15T10:03:15.000Z</time>
      </trkpt>
      <trkpt lat="44.36657" lon="4.53297">
        <ele>313.39999389648</ele>
        <time>2017-03-15T10:03:18.000Z</time>
      </trkpt>
      <trkpt lat="44.36659" lon="4.53292">
        <ele>314.20001220703</ele>
        <time>2017-03-15T10:03:22.000Z</time>
      </trkpt>
      <trkpt lat="44.36659" lon="4.5329">
        <ele>314.39999389648</ele>
        <time>2017-03-15T10:03:25.000Z</time>
      </trkpt>
      <trkpt lat="44.36659" lon="4.5329">
        <ele>314.60000610352</ele>
        <time>2017-03-15T10:03:28.000Z</time>
      </trkpt>
      <trkpt lat="44.36659" lon="4.5329">
        <ele>314.79998779297</ele>
        <time>2017-03-15T10:03:40.000Z</time>
      </trkpt>
      <trkpt lat="44.36659" lon="4.5329">
        <ele>314.39999389648</ele>
        <time>2017-03-15T10:03:56.000Z</time>
      </trkpt>
      <trkpt lat="44.36659" lon="4.5329">
        <ele>313</ele>
        <time>2017-03-15T10:04:00.000Z</time>
      </trkpt>
      <trkpt lat="44.36659" lon="4.5329">
        <ele>314.20001220703</ele>
        <time>2017-03-15T10:04:03.000Z</time>
      </trkpt>
      <trkpt lat="44.3666" lon="4.5329">
        <ele>314.60000610352</ele>
        <time>2017-03-15T10:04:10.000Z</time>
      </trkpt>
      <trkpt lat="44.3666" lon="4.5329">
        <ele>314.39999389648</ele>
        <time>2017-03-15T10:04:25.000Z</time>
      </trkpt>
      <trkpt lat="44.3666" lon="4.5329">
        <ele>314.39999389648</ele>
        <time>2017-03-15T10:04:42.000Z</time>
      </trkpt>
      <trkpt lat="44.36661" lon="4.53286">
        <ele>314.79998779297</ele>
        <time>2017-03-15T10:04:50.000Z</time>
      </trkpt>
      <trkpt lat="44.36663" lon="4.53281">
        <ele>315.39999389648</ele>
        <time>2017-03-15T10:04:53.000Z</time>
      </trkpt>
      <trkpt lat="44.36667" lon="4.53271">
        <ele>315.79998779297</ele>
        <time>2017-03-15T10:04:58.000Z</time>
      </trkpt>
      <trkpt lat="44.36669" lon="4.53266">
        <ele>316.39999389648</ele>
        <time>2017-03-15T10:05:01.000Z</time>
      </trkpt>
      <trkpt lat="44.36671" lon="4.5326">
        <ele>317.39999389648</ele>
        <time>2017-03-15T10:05:04.000Z</time>
      </trkpt>
      <trkpt lat="44.36672" lon="4.53258">
        <ele>317.60000610352</ele>
        <time>2017-03-15T10:05:05.000Z</time>
      </trkpt>
      <trkpt lat="44.36679" lon="4.53243">
        <ele>318.39999389648</ele>
        <time>2017-03-15T10:05:14.000Z</time>
      </trkpt>
      <trkpt lat="44.36681" lon="4.5324">
        <ele>318.60000610352</ele>
        <time>2017-03-15T10:05:16.000Z</time>
      </trkpt>
      <trkpt lat="44.36686" lon="4.53231">
        <ele>319.20001220703</ele>
        <time>2017-03-15T10:05:21.000Z</time>
      </trkpt>
      <trkpt lat="44.36689" lon="4.53222">
        <ele>319.79998779297</ele>
        <time>2017-03-15T10:05:26.000Z</time>
      </trkpt>
      <trkpt lat="44.36689" lon="4.53216">
        <ele>319.60000610352</ele>
        <time>2017-03-15T10:05:29.000Z</time>
      </trkpt>
      <trkpt lat="44.36687" lon="4.53197">
        <ele>320.39999389648</ele>
        <time>2017-03-15T10:05:37.000Z</time>
      </trkpt>
      <trkpt lat="44.36688" lon="4.53195">
        <ele>320.39999389648</ele>
        <time>2017-03-15T10:05:38.000Z</time>
      </trkpt>
      <trkpt lat="44.36686" lon="4.53187">
        <ele>320.79998779297</ele>
        <time>2017-03-15T10:05:42.000Z</time>
      </trkpt>
      <trkpt lat="44.36686" lon="4.53183">
        <ele>321</ele>
        <time>2017-03-15T10:05:44.000Z</time>
      </trkpt>
      <trkpt lat="44.36687" lon="4.53172">
        <ele>321.39999389648</ele>
        <time>2017-03-15T10:05:49.000Z</time>
      </trkpt>
      <trkpt lat="44.36687" lon="4.5317">
        <ele>321.60000610352</ele>
        <time>2017-03-15T10:05:50.000Z</time>
      </trkpt>
      <trkpt lat="44.36687" lon="4.53159">
        <ele>321.79998779297</ele>
        <time>2017-03-15T10:05:55.000Z</time>
      </trkpt>
      <trkpt lat="44.36687" lon="4.53153">
        <ele>322</ele>
        <time>2017-03-15T10:05:58.000Z</time>
      </trkpt>
      <trkpt lat="44.36687" lon="4.53143">
        <ele>322.39999389648</ele>
        <time>2017-03-15T10:06:02.000Z</time>
      </trkpt>
      <trkpt lat="44.36686" lon="4.5313">
        <ele>322.60000610352</ele>
        <time>2017-03-15T10:06:08.000Z</time>
      </trkpt>
      <trkpt lat="44.36688" lon="4.53111">
        <ele>323</ele>
        <time>2017-03-15T10:06:16.000Z</time>
      </trkpt>
      <trkpt lat="44.36689" lon="4.53098">
        <ele>323</ele>
        <time>2017-03-15T10:06:22.000Z</time>
      </trkpt>
      <trkpt lat="44.3669" lon="4.53087">
        <ele>324</ele>
        <time>2017-03-15T10:06:29.000Z</time>
      </trkpt>
      <trkpt lat="44.3669" lon="4.53079">
        <ele>324.20001220703</ele>
        <time>2017-03-15T10:06:35.000Z</time>
      </trkpt>
      <trkpt lat="44.3669" lon="4.53079">
        <ele>324.20001220703</ele>
        <time>2017-03-15T10:06:36.000Z</time>
      </trkpt>
      <trkpt lat="44.36689" lon="4.53078">
        <ele>322.39999389648</ele>
        <time>2017-03-15T10:06:39.000Z</time>
      </trkpt>
      <trkpt lat="44.36689" lon="4.53078">
        <ele>324.79998779297</ele>
        <time>2017-03-15T10:06:42.000Z</time>
      </trkpt>
      <trkpt lat="44.36689" lon="4.53078">
        <ele>323.60000610352</ele>
        <time>2017-03-15T10:06:43.000Z</time>
      </trkpt>
      <trkpt lat="44.36689" lon="4.53078">
        <ele>323.60000610352</ele>
        <time>2017-03-15T10:06:46.000Z</time>
      </trkpt>
      <trkpt lat="44.3669" lon="4.53071">
        <ele>323.79998779297</ele>
        <time>2017-03-15T10:06:51.000Z</time>
      </trkpt>
      <trkpt lat="44.36688" lon="4.53057">
        <ele>324.20001220703</ele>
        <time>2017-03-15T10:06:56.000Z</time>
      </trkpt>
      <trkpt lat="44.36687" lon="4.53051">
        <ele>323.79998779297</ele>
        <time>2017-03-15T10:06:59.000Z</time>
      </trkpt>
      <trkpt lat="44.36688" lon="4.53045">
        <ele>323.60000610352</ele>
        <time>2017-03-15T10:07:02.000Z</time>
      </trkpt>
      <trkpt lat="44.36689" lon="4.53043">
        <ele>324.20001220703</ele>
        <time>2017-03-15T10:07:06.000Z</time>
      </trkpt>
      <trkpt lat="44.3669" lon="4.5304">
        <ele>324</ele>
        <time>2017-03-15T10:07:11.000Z</time>
      </trkpt>
      <trkpt lat="44.3669" lon="4.53036">
        <ele>324.39999389648</ele>
        <time>2017-03-15T10:07:17.000Z</time>
      </trkpt>
      <trkpt lat="44.36691" lon="4.53034">
        <ele>324.39999389648</ele>
        <time>2017-03-15T10:07:22.000Z</time>
      </trkpt>
      <trkpt lat="44.36691" lon="4.53026">
        <ele>324</ele>
        <time>2017-03-15T10:07:27.000Z</time>
      </trkpt>
      <trkpt lat="44.36692" lon="4.53017">
        <ele>323.79998779297</ele>
        <time>2017-03-15T10:07:30.000Z</time>
      </trkpt>
      <trkpt lat="44.36694" lon="4.53011">
        <ele>324.20001220703</ele>
        <time>2017-03-15T10:07:32.000Z</time>
      </trkpt>
      <trkpt lat="44.36694" lon="4.53007">
        <ele>324</ele>
        <time>2017-03-15T10:07:33.000Z</time>
      </trkpt>
      <trkpt lat="44.36694" lon="4.53002">
        <ele>323.20001220703</ele>
        <time>2017-03-15T10:07:36.000Z</time>
      </trkpt>
      <trkpt lat="44.36694" lon="4.53001">
        <ele>323</ele>
        <time>2017-03-15T10:07:45.000Z</time>
      </trkpt>
      <trkpt lat="44.36694" lon="4.53">
        <ele>322.39999389648</ele>
        <time>2017-03-15T10:07:50.000Z</time>
      </trkpt>
      <trkpt lat="44.36695" lon="4.52998">
        <ele>322.20001220703</ele>
        <time>2017-03-15T10:07:52.000Z</time>
      </trkpt>
      <trkpt lat="44.36694" lon="4.52992">
        <ele>322.39999389648</ele>
        <time>2017-03-15T10:07:58.000Z</time>
      </trkpt>
      <trkpt lat="44.36693" lon="4.52986">
        <ele>322.39999389648</ele>
        <time>2017-03-15T10:08:04.000Z</time>
      </trkpt>
      <trkpt lat="44.36693" lon="4.5298">
        <ele>321.39999389648</ele>
        <time>2017-03-15T10:08:10.000Z</time>
      </trkpt>
      <trkpt lat="44.36693" lon="4.52978">
        <ele>321.20001220703</ele>
        <time>2017-03-15T10:08:11.000Z</time>
      </trkpt>
      <trkpt lat="44.36693" lon="4.52966">
        <ele>321.39999389648</ele>
        <time>2017-03-15T10:08:14.000Z</time>
      </trkpt>
      <trkpt lat="44.36692" lon="4.52954">
        <ele>320.60000610352</ele>
        <time>2017-03-15T10:08:17.000Z</time>
      </trkpt>
      <trkpt lat="44.3669" lon="4.5295">
        <ele>320</ele>
        <time>2017-03-15T10:08:18.000Z</time>
      </trkpt>
      <trkpt lat="44.36689" lon="4.52942">
        <ele>318.79998779297</ele>
        <time>2017-03-15T10:08:20.000Z</time>
      </trkpt>
      <trkpt lat="44.36689" lon="4.52934">
        <ele>318.60000610352</ele>
        <time>2017-03-15T10:08:22.000Z</time>
      </trkpt>
      <trkpt lat="44.36686" lon="4.52921">
        <ele>318</ele>
        <time>2017-03-15T10:08:26.000Z</time>
      </trkpt>
      <trkpt lat="44.36684" lon="4.52919">
        <ele>317.79998779297</ele>
        <time>2017-03-15T10:08:27.000Z</time>
      </trkpt>
      <trkpt lat="44.36683" lon="4.52917">
        <ele>317.39999389648</ele>
        <time>2017-03-15T10:08:28.000Z</time>
      </trkpt>
      <trkpt lat="44.36682" lon="4.52915">
        <ele>316.60000610352</ele>
        <time>2017-03-15T10:08:29.000Z</time>
      </trkpt>
      <trkpt lat="44.3668" lon="4.52909">
        <ele>315.79998779297</ele>
        <time>2017-03-15T10:08:31.000Z</time>
      </trkpt>
      <trkpt lat="44.36679" lon="4.52907">
        <ele>315.60000610352</ele>
        <time>2017-03-15T10:08:32.000Z</time>
      </trkpt>
      <trkpt lat="44.36676" lon="4.52906">
        <ele>315.20001220703</ele>
        <time>2017-03-15T10:08:34.000Z</time>
      </trkpt>
      <trkpt lat="44.36675" lon="4.52905">
        <ele>315</ele>
        <time>2017-03-15T10:08:35.000Z</time>
      </trkpt>
      <trkpt lat="44.36671" lon="4.52902">
        <ele>314.39999389648</ele>
        <time>2017-03-15T10:08:37.000Z</time>
      </trkpt>
      <trkpt lat="44.36667" lon="4.52893">
        <ele>313.79998779297</ele>
        <time>2017-03-15T10:08:40.000Z</time>
      </trkpt>
      <trkpt lat="44.36667" lon="4.52889">
        <ele>313.39999389648</ele>
        <time>2017-03-15T10:08:41.000Z</time>
      </trkpt>
      <trkpt lat="44.36669" lon="4.52882">
        <ele>313.20001220703</ele>
        <time>2017-03-15T10:08:43.000Z</time>
      </trkpt>
      <trkpt lat="44.36671" lon="4.52874">
        <ele>313.20001220703</ele>
        <time>2017-03-15T10:08:45.000Z</time>
      </trkpt>
      <trkpt lat="44.36678" lon="4.52859">
        <ele>312.39999389648</ele>
        <time>2017-03-15T10:08:50.000Z</time>
      </trkpt>
      <trkpt lat="44.36678" lon="4.52858">
        <ele>311.79998779297</ele>
        <time>2017-03-15T10:08:54.000Z</time>
      </trkpt>
      <trkpt lat="44.36677" lon="4.52857">
        <ele>311.60000610352</ele>
        <time>2017-03-15T10:08:56.000Z</time>
      </trkpt>
      <trkpt lat="44.36677" lon="4.52856">
        <ele>311.39999389648</ele>
        <time>2017-03-15T10:08:57.000Z</time>
      </trkpt>
      <trkpt lat="44.36673" lon="4.52852">
        <ele>311.20001220703</ele>
        <time>2017-03-15T10:08:59.000Z</time>
      </trkpt>
      <trkpt lat="44.3666" lon="4.52842">
        <ele>310.39999389648</ele>
        <time>2017-03-15T10:09:05.000Z</time>
      </trkpt>
      <trkpt lat="44.36655" lon="4.52826">
        <ele>310.20001220703</ele>
        <time>2017-03-15T10:09:09.000Z</time>
      </trkpt>
      <trkpt lat="44.36649" lon="4.52807">
        <ele>309.39999389648</ele>
        <time>2017-03-15T10:09:14.000Z</time>
      </trkpt>
      <trkpt lat="44.36646" lon="4.52799">
        <ele>309.20001220703</ele>
        <time>2017-03-15T10:09:17.000Z</time>
      </trkpt>
      <trkpt lat="44.36634" lon="4.52783">
        <ele>309.79998779297</ele>
        <time>2017-03-15T10:09:23.000Z</time>
      </trkpt>
      <trkpt lat="44.36618" lon="4.52763">
        <ele>309.39999389648</ele>
        <time>2017-03-15T10:09:29.000Z</time>
      </trkpt>
      <trkpt lat="44.36603" lon="4.52738">
        <ele>308.60000610352</ele>
        <time>2017-03-15T10:09:35.000Z</time>
      </trkpt>
      <trkpt lat="44.36594" lon="4.52731">
        <ele>308.20001220703</ele>
        <time>2017-03-15T10:09:37.000Z</time>
      </trkpt>
      <trkpt lat="44.36586" lon="4.52724">
        <ele>307.79998779297</ele>
        <time>2017-03-15T10:09:39.000Z</time>
      </trkpt>
      <trkpt lat="44.36561" lon="4.52702">
        <ele>307</ele>
        <time>2017-03-15T10:09:45.000Z</time>
      </trkpt>
      <trkpt lat="44.36557" lon="4.52699">
        <ele>307</ele>
        <time>2017-03-15T10:09:46.000Z</time>
      </trkpt>
      <trkpt lat="44.36531" lon="4.52678">
        <ele>307.39999389648</ele>
        <time>2017-03-15T10:09:54.000Z</time>
      </trkpt>
      <trkpt lat="44.36508" lon="4.52658">
        <ele>306.79998779297</ele>
        <time>2017-03-15T10:10:02.000Z</time>
      </trkpt>
      <trkpt lat="44.36482" lon="4.52633">
        <ele>307.79998779297</ele>
        <time>2017-03-15T10:10:12.000Z</time>
      </trkpt>
      <trkpt lat="44.36477" lon="4.52628">
        <ele>308</ele>
        <time>2017-03-15T10:10:14.000Z</time>
      </trkpt>
      <trkpt lat="44.36457" lon="4.52614">
        <ele>308</ele>
        <time>2017-03-15T10:10:21.000Z</time>
      </trkpt>
      <trkpt lat="44.36436" lon="4.526">
        <ele>308</ele>
        <time>2017-03-15T10:10:28.000Z</time>
      </trkpt>
      <trkpt lat="44.3641" lon="4.52582">
        <ele>307.39999389648</ele>
        <time>2017-03-15T10:10:36.000Z</time>
      </trkpt>
      <trkpt lat="44.36395" lon="4.52571">
        <ele>307</ele>
        <time>2017-03-15T10:10:40.000Z</time>
      </trkpt>
      <trkpt lat="44.36382" lon="4.52563">
        <ele>306.60000610352</ele>
        <time>2017-03-15T10:10:43.000Z</time>
      </trkpt>
      <trkpt lat="44.36342" lon="4.52536">
        <ele>306</ele>
        <time>2017-03-15T10:10:52.000Z</time>
      </trkpt>
      <trkpt lat="44.36338" lon="4.52533">
        <ele>305.79998779297</ele>
        <time>2017-03-15T10:10:53.000Z</time>
      </trkpt>
      <trkpt lat="44.36308" lon="4.52508">
        <ele>305.39999389648</ele>
        <time>2017-03-15T10:11:00.000Z</time>
      </trkpt>
      <trkpt lat="44.36284" lon="4.52483">
        <ele>305.20001220703</ele>
        <time>2017-03-15T10:11:07.000Z</time>
      </trkpt>
      <trkpt lat="44.3627" lon="4.5247">
        <ele>305.20001220703</ele>
        <time>2017-03-15T10:11:11.000Z</time>
      </trkpt>
      <trkpt lat="44.36259" lon="4.52459">
        <ele>305.79998779297</ele>
        <time>2017-03-15T10:11:14.000Z</time>
      </trkpt>
      <trkpt lat="44.36231" lon="4.5243">
        <ele>305.60000610352</ele>
        <time>2017-03-15T10:11:22.000Z</time>
      </trkpt>
      <trkpt lat="44.36209" lon="4.52409">
        <ele>306.60000610352</ele>
        <time>2017-03-15T10:11:29.000Z</time>
      </trkpt>
      <trkpt lat="44.36197" lon="4.52396">
        <ele>307</ele>
        <time>2017-03-15T10:11:33.000Z</time>
      </trkpt>
      <trkpt lat="44.36185" lon="4.52383">
        <ele>307</ele>
        <time>2017-03-15T10:11:37.000Z</time>
      </trkpt>
      <trkpt lat="44.36159" lon="4.52353">
        <ele>307.39999389648</ele>
        <time>2017-03-15T10:11:46.000Z</time>
      </trkpt>
      <trkpt lat="44.36152" lon="4.52343">
        <ele>308</ele>
        <time>2017-03-15T10:11:49.000Z</time>
      </trkpt>
      <trkpt lat="44.36143" lon="4.52329">
        <ele>308.20001220703</ele>
        <time>2017-03-15T10:11:53.000Z</time>
      </trkpt>
      <trkpt lat="44.36138" lon="4.52309">
        <ele>309</ele>
        <time>2017-03-15T10:11:58.000Z</time>
      </trkpt>
      <trkpt lat="44.36135" lon="4.52285">
        <ele>309.60000610352</ele>
        <time>2017-03-15T10:12:04.000Z</time>
      </trkpt>
      <trkpt lat="44.36133" lon="4.52272">
        <ele>310</ele>
        <time>2017-03-15T10:12:07.000Z</time>
      </trkpt>
      <trkpt lat="44.3613" lon="4.52256">
        <ele>310.20001220703</ele>
        <time>2017-03-15T10:12:11.000Z</time>
      </trkpt>
      <trkpt lat="44.36126" lon="4.52237">
        <ele>310.79998779297</ele>
        <time>2017-03-15T10:12:17.000Z</time>
      </trkpt>
      <trkpt lat="44.36124" lon="4.52224">
        <ele>311</ele>
        <time>2017-03-15T10:12:21.000Z</time>
      </trkpt>
      <trkpt lat="44.36123" lon="4.52217">
        <ele>311</ele>
        <time>2017-03-15T10:12:23.000Z</time>
      </trkpt>
      <trkpt lat="44.36118" lon="4.52189">
        <ele>311.39999389648</ele>
        <time>2017-03-15T10:12:31.000Z</time>
      </trkpt>
      <trkpt lat="44.36115" lon="4.52167">
        <ele>312.20001220703</ele>
        <time>2017-03-15T10:12:37.000Z</time>
      </trkpt>
      <trkpt lat="44.36113" lon="4.52155">
        <ele>312.60000610352</ele>
        <time>2017-03-15T10:12:40.000Z</time>
      </trkpt>
      <trkpt lat="44.36107" lon="4.52124">
        <ele>313</ele>
        <time>2017-03-15T10:12:48.000Z</time>
      </trkpt>
      <trkpt lat="44.36104" lon="4.52105">
        <ele>313.20001220703</ele>
        <time>2017-03-15T10:12:53.000Z</time>
      </trkpt>
      <trkpt lat="44.36099" lon="4.5208">
        <ele>313.20001220703</ele>
        <time>2017-03-15T10:12:59.000Z</time>
      </trkpt>
      <trkpt lat="44.36092" lon="4.52043">
        <ele>313.79998779297</ele>
        <time>2017-03-15T10:13:08.000Z</time>
      </trkpt>
      <trkpt lat="44.36085" lon="4.52005">
        <ele>314</ele>
        <time>2017-03-15T10:13:17.000Z</time>
      </trkpt>
      <trkpt lat="44.36081" lon="4.51979">
        <ele>313.39999389648</ele>
        <time>2017-03-15T10:13:23.000Z</time>
      </trkpt>
      <trkpt lat="44.36075" lon="4.51951">
        <ele>313</ele>
        <time>2017-03-15T10:13:29.000Z</time>
      </trkpt>
      <trkpt lat="44.36072" lon="4.51918">
        <ele>312.20001220703</ele>
        <time>2017-03-15T10:13:36.000Z</time>
      </trkpt>
      <trkpt lat="44.36071" lon="4.51913">
        <ele>312.20001220703</ele>
        <time>2017-03-15T10:13:37.000Z</time>
      </trkpt>
      <trkpt lat="44.36065" lon="4.5189">
        <ele>311.39999389648</ele>
        <time>2017-03-15T10:13:42.000Z</time>
      </trkpt>
      <trkpt lat="44.36064" lon="4.51879">
        <ele>311</ele>
        <time>2017-03-15T10:13:44.000Z</time>
      </trkpt>
      <trkpt lat="44.36063" lon="4.51863">
        <ele>310.60000610352</ele>
        <time>2017-03-15T10:13:47.000Z</time>
      </trkpt>
      <trkpt lat="44.36055" lon="4.5183">
        <ele>310.20001220703</ele>
        <time>2017-03-15T10:13:53.000Z</time>
      </trkpt>
      <trkpt lat="44.36054" lon="4.51824">
        <ele>310</ele>
        <time>2017-03-15T10:13:54.000Z</time>
      </trkpt>
      <trkpt lat="44.36049" lon="4.51798">
        <ele>308.60000610352</ele>
        <time>2017-03-15T10:13:58.000Z</time>
      </trkpt>
      <trkpt lat="44.36047" lon="4.51785">
        <ele>307.79998779297</ele>
        <time>2017-03-15T10:14:00.000Z</time>
      </trkpt>
      <trkpt lat="44.36039" lon="4.51739">
        <ele>308.20001220703</ele>
        <time>2017-03-15T10:14:07.000Z</time>
      </trkpt>
      <trkpt lat="44.36031" lon="4.51714">
        <ele>307.60000610352</ele>
        <time>2017-03-15T10:14:11.000Z</time>
      </trkpt>
      <trkpt lat="44.36029" lon="4.51707">
        <ele>307.39999389648</ele>
        <time>2017-03-15T10:14:12.000Z</time>
      </trkpt>
      <trkpt lat="44.36028" lon="4.51692">
        <ele>306.39999389648</ele>
        <time>2017-03-15T10:14:14.000Z</time>
      </trkpt>
      <trkpt lat="44.36026" lon="4.51677">
        <ele>305.39999389648</ele>
        <time>2017-03-15T10:14:16.000Z</time>
      </trkpt>
      <trkpt lat="44.36023" lon="4.51646">
        <ele>304.20001220703</ele>
        <time>2017-03-15T10:14:20.000Z</time>
      </trkpt>
      <trkpt lat="44.36024" lon="4.51637">
        <ele>304.20001220703</ele>
        <time>2017-03-15T10:14:23.000Z</time>
      </trkpt>
      <trkpt lat="44.36024" lon="4.51636">
        <ele>304.79998779297</ele>
        <time>2017-03-15T10:14:29.000Z</time>
      </trkpt>
      <trkpt lat="44.36024" lon="4.51636">
        <ele>302.79998779297</ele>
        <time>2017-03-15T10:14:30.000Z</time>
      </trkpt>
      <trkpt lat="44.36024" lon="4.51636">
        <ele>300.60000610352</ele>
        <time>2017-03-15T10:14:31.000Z</time>
      </trkpt>
      <trkpt lat="44.36024" lon="4.51636">
        <ele>308.60000610352</ele>
        <time>2017-03-15T10:14:33.000Z</time>
      </trkpt>
      <trkpt lat="44.36024" lon="4.51636">
        <ele>309.79998779297</ele>
        <time>2017-03-15T10:14:34.000Z</time>
      </trkpt>
      <trkpt lat="44.36024" lon="4.51636">
        <ele>305</ele>
        <time>2017-03-15T10:14:36.000Z</time>
      </trkpt>
      <trkpt lat="44.36024" lon="4.51636">
        <ele>304.20001220703</ele>
        <time>2017-03-15T10:14:44.000Z</time>
      </trkpt>
      <trkpt lat="44.36024" lon="4.51636">
        <ele>304.60000610352</ele>
        <time>2017-03-15T10:14:55.000Z</time>
      </trkpt>
      <trkpt lat="44.36024" lon="4.51636">
        <ele>306</ele>
        <time>2017-03-15T10:15:11.000Z</time>
      </trkpt>
      <trkpt lat="44.36024" lon="4.51636">
        <ele>304.79998779297</ele>
        <time>2017-03-15T10:15:15.000Z</time>
      </trkpt>
      <trkpt lat="44.36024" lon="4.51636">
        <ele>305</ele>
        <time>2017-03-15T10:15:26.000Z</time>
      </trkpt>
      <trkpt lat="44.36024" lon="4.51636">
        <ele>304.60000610352</ele>
        <time>2017-03-15T10:15:40.000Z</time>
      </trkpt>
      <trkpt lat="44.36024" lon="4.51636">
        <ele>303.79998779297</ele>
        <time>2017-03-15T10:15:55.000Z</time>
      </trkpt>
      <trkpt lat="44.36024" lon="4.51636">
        <ele>303.60000610352</ele>
        <time>2017-03-15T10:15:57.000Z</time>
      </trkpt>
      <trkpt lat="44.36024" lon="4.51636">
        <ele>304</ele>
        <time>2017-03-15T10:16:04.000Z</time>
      </trkpt>
      <trkpt lat="44.36024" lon="4.51636">
        <ele>304.79998779297</ele>
        <time>2017-03-15T10:16:09.000Z</time>
      </trkpt>
      <trkpt lat="44.36024" lon="4.51636">
        <ele>303.79998779297</ele>
        <time>2017-03-15T10:16:13.000Z</time>
      </trkpt>
      <trkpt lat="44.36024" lon="4.51636">
        <ele>304.79998779297</ele>
        <time>2017-03-15T10:16:16.000Z</time>
      </trkpt>
      <trkpt lat="44.36024" lon="4.51636">
        <ele>304.60000610352</ele>
        <time>2017-03-15T10:16:20.000Z</time>
      </trkpt>
      <trkpt lat="44.36024" lon="4.51636">
        <ele>303.60000610352</ele>
        <time>2017-03-15T10:16:21.000Z</time>
      </trkpt>
      <trkpt lat="44.36024" lon="4.51636">
        <ele>305.20001220703</ele>
        <time>2017-03-15T10:16:26.000Z</time>
      </trkpt>
      <trkpt lat="44.36024" lon="4.51636">
        <ele>303</ele>
        <time>2017-03-15T10:16:32.000Z</time>
      </trkpt>
      <trkpt lat="44.36024" lon="4.51636">
        <ele>299.79998779297</ele>
        <time>2017-03-15T10:16:33.000Z</time>
      </trkpt>
      <trkpt lat="44.36024" lon="4.51636">
        <ele>303.79998779297</ele>
        <time>2017-03-15T10:16:35.000Z</time>
      </trkpt>
      <trkpt lat="44.36024" lon="4.51636">
        <ele>310.20001220703</ele>
        <time>2017-03-15T10:16:36.000Z</time>
      </trkpt>
      <trkpt lat="44.36024" lon="4.51636">
        <ele>311.79998779297</ele>
        <time>2017-03-15T10:16:38.000Z</time>
      </trkpt>
      <trkpt lat="44.36024" lon="4.51636">
        <ele>313.79998779297</ele>
        <time>2017-03-15T10:16:39.000Z</time>
      </trkpt>
      <trkpt lat="44.36024" lon="4.51636">
        <ele>306.39999389648</ele>
        <time>2017-03-15T10:16:41.000Z</time>
      </trkpt>
      <trkpt lat="44.36024" lon="4.51636">
        <ele>301.39999389648</ele>
        <time>2017-03-15T10:16:42.000Z</time>
      </trkpt>
      <trkpt lat="44.36024" lon="4.51636">
        <ele>303.60000610352</ele>
        <time>2017-03-15T10:16:43.000Z</time>
      </trkpt>
      <trkpt lat="44.36024" lon="4.51636">
        <ele>307.20001220703</ele>
        <time>2017-03-15T10:16:44.000Z</time>
      </trkpt>
      <trkpt lat="44.36024" lon="4.51636">
        <ele>305.20001220703</ele>
        <time>2017-03-15T10:16:45.000Z</time>
      </trkpt>
      <trkpt lat="44.36024" lon="4.51636">
        <ele>303.79998779297</ele>
        <time>2017-03-15T10:16:46.000Z</time>
      </trkpt>
      <trkpt lat="44.36024" lon="4.51636">
        <ele>304.79998779297</ele>
        <time>2017-03-15T10:16:48.000Z</time>
      </trkpt>
      <trkpt lat="44.36024" lon="4.51636">
        <ele>303.39999389648</ele>
        <time>2017-03-15T10:16:50.000Z</time>
      </trkpt>
      <trkpt lat="44.36024" lon="4.51636">
        <ele>299.20001220703</ele>
        <time>2017-03-15T10:16:57.000Z</time>
      </trkpt>
      <trkpt lat="44.36024" lon="4.51636">
        <ele>302</ele>
        <time>2017-03-15T10:16:58.000Z</time>
      </trkpt>
      <trkpt lat="44.36024" lon="4.51636">
        <ele>306.79998779297</ele>
        <time>2017-03-15T10:17:00.000Z</time>
      </trkpt>
      <trkpt lat="44.36024" lon="4.51636">
        <ele>303.79998779297</ele>
        <time>2017-03-15T10:17:01.000Z</time>
      </trkpt>
      <trkpt lat="44.36024" lon="4.51636">
        <ele>303</ele>
        <time>2017-03-15T10:17:09.000Z</time>
      </trkpt>
      <trkpt lat="44.36024" lon="4.51636">
        <ele>302.60000610352</ele>
        <time>2017-03-15T10:17:25.000Z</time>
      </trkpt>
      <trkpt lat="44.36024" lon="4.51636">
        <ele>304</ele>
        <time>2017-03-15T10:17:28.000Z</time>
      </trkpt>
      <trkpt lat="44.36024" lon="4.51636">
        <ele>302.39999389648</ele>
        <time>2017-03-15T10:17:32.000Z</time>
      </trkpt>
      <trkpt lat="44.36024" lon="4.51636">
        <ele>303.79998779297</ele>
        <time>2017-03-15T10:17:37.000Z</time>
      </trkpt>
      <trkpt lat="44.36024" lon="4.51636">
        <ele>303</ele>
        <time>2017-03-15T10:17:41.000Z</time>
      </trkpt>
      <trkpt lat="44.36024" lon="4.51634">
        <ele>302.79998779297</ele>
        <time>2017-03-15T10:17:46.000Z</time>
      </trkpt>
      <trkpt lat="44.36023" lon="4.51632">
        <ele>302.79998779297</ele>
        <time>2017-03-15T10:17:47.000Z</time>
      </trkpt>
      <trkpt lat="44.36023" lon="4.51629">
        <ele>302.60000610352</ele>
        <time>2017-03-15T10:17:49.000Z</time>
      </trkpt>
      <trkpt lat="44.36019" lon="4.51625">
        <ele>302.60000610352</ele>
        <time>2017-03-15T10:17:52.000Z</time>
      </trkpt>
      <trkpt lat="44.36017" lon="4.51624">
        <ele>302.79998779297</ele>
        <time>2017-03-15T10:17:53.000Z</time>
      </trkpt>
      <trkpt lat="44.36007" lon="4.51622">
        <ele>303</ele>
        <time>2017-03-15T10:17:58.000Z</time>
      </trkpt>
      <trkpt lat="44.35997" lon="4.51619">
        <ele>303.20001220703</ele>
        <time>2017-03-15T10:18:03.000Z</time>
      </trkpt>
      <trkpt lat="44.35992" lon="4.51619">
        <ele>303.39999389648</ele>
        <time>2017-03-15T10:18:07.000Z</time>
      </trkpt>
      <trkpt lat="44.35991" lon="4.51619">
        <ele>303.39999389648</ele>
        <time>2017-03-15T10:18:08.000Z</time>
      </trkpt>
      <trkpt lat="44.3599" lon="4.51618">
        <ele>303.39999389648</ele>
        <time>2017-03-15T10:18:09.000Z</time>
      </trkpt>
      <trkpt lat="44.35985" lon="4.51617">
        <ele>303.39999389648</ele>
        <time>2017-03-15T10:18:12.000Z</time>
      </trkpt>
      <trkpt lat="44.35981" lon="4.51615">
        <ele>303.39999389648</ele>
        <time>2017-03-15T10:18:14.000Z</time>
      </trkpt>
      <trkpt lat="44.35976" lon="4.51613">
        <ele>303.79998779297</ele>
        <time>2017-03-15T10:18:16.000Z</time>
      </trkpt>
      <trkpt lat="44.35969" lon="4.5161">
        <ele>304</ele>
        <time>2017-03-15T10:18:19.000Z</time>
      </trkpt>
      <trkpt lat="44.35952" lon="4.51605">
        <ele>304.39999389648</ele>
        <time>2017-03-15T10:18:26.000Z</time>
      </trkpt>
      <trkpt lat="44.35939" lon="4.51603">
        <ele>304.60000610352</ele>
        <time>2017-03-15T10:18:31.000Z</time>
      </trkpt>
      <trkpt lat="44.35936" lon="4.51603">
        <ele>304.79998779297</ele>
        <time>2017-03-15T10:18:32.000Z</time>
      </trkpt>
      <trkpt lat="44.35922" lon="4.51605">
        <ele>305</ele>
        <time>2017-03-15T10:18:36.000Z</time>
      </trkpt>
      <trkpt lat="44.35897" lon="4.51606">
        <ele>304.60000610352</ele>
        <time>2017-03-15T10:18:43.000Z</time>
      </trkpt>
      <trkpt lat="44.35875" lon="4.51603">
        <ele>304.79998779297</ele>
        <time>2017-03-15T10:18:50.000Z</time>
      </trkpt>
      <trkpt lat="44.35856" lon="4.51596">
        <ele>304.79998779297</ele>
        <time>2017-03-15T10:18:57.000Z</time>
      </trkpt>
      <trkpt lat="44.3585" lon="4.51592">
        <ele>305.20001220703</ele>
        <time>2017-03-15T10:19:00.000Z</time>
      </trkpt>
      <trkpt lat="44.35845" lon="4.51589">
        <ele>305.20001220703</ele>
        <time>2017-03-15T10:19:02.000Z</time>
      </trkpt>
      <trkpt lat="44.3583" lon="4.51577">
        <ele>305</ele>
        <time>2017-03-15T10:19:09.000Z</time>
      </trkpt>
      <trkpt lat="44.35814" lon="4.51562">
        <ele>305</ele>
        <time>2017-03-15T10:19:17.000Z</time>
      </trkpt>
      <trkpt lat="44.35799" lon="4.51555">
        <ele>304.60000610352</ele>
        <time>2017-03-15T10:19:23.000Z</time>
      </trkpt>
      <trkpt lat="44.35781" lon="4.51541">
        <ele>304.20001220703</ele>
        <time>2017-03-15T10:19:31.000Z</time>
      </trkpt>
      <trkpt lat="44.35771" lon="4.51532">
        <ele>303.79998779297</ele>
        <time>2017-03-15T10:19:35.000Z</time>
      </trkpt>
      <trkpt lat="44.35761" lon="4.51522">
        <ele>303.39999389648</ele>
        <time>2017-03-15T10:19:39.000Z</time>
      </trkpt>
      <trkpt lat="44.35744" lon="4.51505">
        <ele>302.79998779297</ele>
        <time>2017-03-15T10:19:45.000Z</time>
      </trkpt>
      <trkpt lat="44.35735" lon="4.51498">
        <ele>302.60000610352</ele>
        <time>2017-03-15T10:19:48.000Z</time>
      </trkpt>
      <trkpt lat="44.35717" lon="4.51479">
        <ele>301.79998779297</ele>
        <time>2017-03-15T10:19:55.000Z</time>
      </trkpt>
      <trkpt lat="44.35714" lon="4.51477">
        <ele>301.60000610352</ele>
        <time>2017-03-15T10:19:56.000Z</time>
      </trkpt>
      <trkpt lat="44.35696" lon="4.5146">
        <ele>300.79998779297</ele>
        <time>2017-03-15T10:20:03.000Z</time>
      </trkpt>
      <trkpt lat="44.3569" lon="4.51453">
        <ele>300.60000610352</ele>
        <time>2017-03-15T10:20:05.000Z</time>
      </trkpt>
      <trkpt lat="44.35685" lon="4.5144">
        <ele>300.20001220703</ele>
        <time>2017-03-15T10:20:08.000Z</time>
      </trkpt>
      <trkpt lat="44.35681" lon="4.51421">
        <ele>299.60000610352</ele>
        <time>2017-03-15T10:20:13.000Z</time>
      </trkpt>
      <trkpt lat="44.35674" lon="4.51408">
        <ele>298.39999389648</ele>
        <time>2017-03-15T10:20:16.000Z</time>
      </trkpt>
      <trkpt lat="44.3567" lon="4.51405">
        <ele>298</ele>
        <time>2017-03-15T10:20:17.000Z</time>
      </trkpt>
      <trkpt lat="44.35654" lon="4.51396">
        <ele>297.20001220703</ele>
        <time>2017-03-15T10:20:20.000Z</time>
      </trkpt>
      <trkpt lat="44.35649" lon="4.51393">
        <ele>297.20001220703</ele>
        <time>2017-03-15T10:20:21.000Z</time>
      </trkpt>
      <trkpt lat="44.35634" lon="4.51383">
        <ele>295.79998779297</ele>
        <time>2017-03-15T10:20:24.000Z</time>
      </trkpt>
      <trkpt lat="44.3563" lon="4.51378">
        <ele>295.60000610352</ele>
        <time>2017-03-15T10:20:25.000Z</time>
      </trkpt>
      <trkpt lat="44.35621" lon="4.51369">
        <ele>295.20001220703</ele>
        <time>2017-03-15T10:20:27.000Z</time>
      </trkpt>
      <trkpt lat="44.35612" lon="4.51359">
        <ele>295.20001220703</ele>
        <time>2017-03-15T10:20:31.000Z</time>
      </trkpt>
      <trkpt lat="44.35603" lon="4.51352">
        <ele>294.79998779297</ele>
        <time>2017-03-15T10:20:35.000Z</time>
      </trkpt>
      <trkpt lat="44.35597" lon="4.51349">
        <ele>294.79998779297</ele>
        <time>2017-03-15T10:20:37.000Z</time>
      </trkpt>
      <trkpt lat="44.35586" lon="4.51341">
        <ele>294.39999389648</ele>
        <time>2017-03-15T10:20:41.000Z</time>
      </trkpt>
      <trkpt lat="44.35569" lon="4.51326">
        <ele>294.60000610352</ele>
        <time>2017-03-15T10:20:47.000Z</time>
      </trkpt>
      <trkpt lat="44.35557" lon="4.51317">
        <ele>295</ele>
        <time>2017-03-15T10:20:52.000Z</time>
      </trkpt>
      <trkpt lat="44.35542" lon="4.51307">
        <ele>295.39999389648</ele>
        <time>2017-03-15T10:20:58.000Z</time>
      </trkpt>
      <trkpt lat="44.35524" lon="4.513">
        <ele>295.79998779297</ele>
        <time>2017-03-15T10:21:04.000Z</time>
      </trkpt>
      <trkpt lat="44.35521" lon="4.513">
        <ele>295.79998779297</ele>
        <time>2017-03-15T10:21:05.000Z</time>
      </trkpt>
      <trkpt lat="44.355" lon="4.51294">
        <ele>296.60000610352</ele>
        <time>2017-03-15T10:21:12.000Z</time>
      </trkpt>
      <trkpt lat="44.35497" lon="4.51293">
        <ele>296.79998779297</ele>
        <time>2017-03-15T10:21:13.000Z</time>
      </trkpt>
      <trkpt lat="44.35478" lon="4.51286">
        <ele>297.20001220703</ele>
        <time>2017-03-15T10:21:19.000Z</time>
      </trkpt>
      <trkpt lat="44.35457" lon="4.51274">
        <ele>298</ele>
        <time>2017-03-15T10:21:26.000Z</time>
      </trkpt>
      <trkpt lat="44.35448" lon="4.51261">
        <ele>297.60000610352</ele>
        <time>2017-03-15T10:21:30.000Z</time>
      </trkpt>
      <trkpt lat="44.35448" lon="4.51257">
        <ele>297.60000610352</ele>
        <time>2017-03-15T10:21:31.000Z</time>
      </trkpt>
      <trkpt lat="44.35444" lon="4.51236">
        <ele>299</ele>
        <time>2017-03-15T10:21:36.000Z</time>
      </trkpt>
      <trkpt lat="44.35444" lon="4.51232">
        <ele>299</ele>
        <time>2017-03-15T10:21:37.000Z</time>
      </trkpt>
      <trkpt lat="44.35441" lon="4.51215">
        <ele>299</ele>
        <time>2017-03-15T10:21:42.000Z</time>
      </trkpt>
      <trkpt lat="44.35437" lon="4.51199">
        <ele>299.60000610352</ele>
        <time>2017-03-15T10:21:48.000Z</time>
      </trkpt>
      <trkpt lat="44.35441" lon="4.5118">
        <ele>300.20001220703</ele>
        <time>2017-03-15T10:21:54.000Z</time>
      </trkpt>
      <trkpt lat="44.35444" lon="4.51165">
        <ele>301</ele>
        <time>2017-03-15T10:22:00.000Z</time>
      </trkpt>
      <trkpt lat="44.35444" lon="4.51159">
        <ele>301.39999389648</ele>
        <time>2017-03-15T10:22:02.000Z</time>
      </trkpt>
      <trkpt lat="44.35441" lon="4.51147">
        <ele>302</ele>
        <time>2017-03-15T10:22:07.000Z</time>
      </trkpt>
      <trkpt lat="44.3544" lon="4.51136">
        <ele>302.60000610352</ele>
        <time>2017-03-15T10:22:11.000Z</time>
      </trkpt>
      <trkpt lat="44.35438" lon="4.51132">
        <ele>303</ele>
        <time>2017-03-15T10:22:13.000Z</time>
      </trkpt>
      <trkpt lat="44.35437" lon="4.51124">
        <ele>303.60000610352</ele>
        <time>2017-03-15T10:22:16.000Z</time>
      </trkpt>
      <trkpt lat="44.35437" lon="4.51115">
        <ele>304</ele>
        <time>2017-03-15T10:22:19.000Z</time>
      </trkpt>
      <trkpt lat="44.35436" lon="4.51106">
        <ele>304.79998779297</ele>
        <time>2017-03-15T10:22:22.000Z</time>
      </trkpt>
      <trkpt lat="44.35435" lon="4.51095">
        <ele>305.20001220703</ele>
        <time>2017-03-15T10:22:26.000Z</time>
      </trkpt>
      <trkpt lat="44.35434" lon="4.51079">
        <ele>305.79998779297</ele>
        <time>2017-03-15T10:22:32.000Z</time>
      </trkpt>
      <trkpt lat="44.35434" lon="4.51076">
        <ele>306</ele>
        <time>2017-03-15T10:22:33.000Z</time>
      </trkpt>
      <trkpt lat="44.35435" lon="4.51063">
        <ele>306.60000610352</ele>
        <time>2017-03-15T10:22:38.000Z</time>
      </trkpt>
      <trkpt lat="44.35434" lon="4.51061">
        <ele>306.60000610352</ele>
        <time>2017-03-15T10:22:39.000Z</time>
      </trkpt>
      <trkpt lat="44.35433" lon="4.5105">
        <ele>307</ele>
        <time>2017-03-15T10:22:43.000Z</time>
      </trkpt>
      <trkpt lat="44.35433" lon="4.51045">
        <ele>307.39999389648</ele>
        <time>2017-03-15T10:22:45.000Z</time>
      </trkpt>
      <trkpt lat="44.35433" lon="4.51034">
        <ele>308.60000610352</ele>
        <time>2017-03-15T10:22:49.000Z</time>
      </trkpt>
      <trkpt lat="44.35432" lon="4.51015">
        <ele>309.39999389648</ele>
        <time>2017-03-15T10:22:56.000Z</time>
      </trkpt>
      <trkpt lat="44.35432" lon="4.51007">
        <ele>309.79998779297</ele>
        <time>2017-03-15T10:22:59.000Z</time>
      </trkpt>
      <trkpt lat="44.35433" lon="4.50998">
        <ele>310.20001220703</ele>
        <time>2017-03-15T10:23:02.000Z</time>
      </trkpt>
      <trkpt lat="44.35432" lon="4.50995">
        <ele>310.39999389648</ele>
        <time>2017-03-15T10:23:03.000Z</time>
      </trkpt>
      <trkpt lat="44.35432" lon="4.5099">
        <ele>310.79998779297</ele>
        <time>2017-03-15T10:23:05.000Z</time>
      </trkpt>
      <trkpt lat="44.35432" lon="4.50984">
        <ele>311.20001220703</ele>
        <time>2017-03-15T10:23:07.000Z</time>
      </trkpt>
      <trkpt lat="44.35431" lon="4.50975">
        <ele>311.79998779297</ele>
        <time>2017-03-15T10:23:10.000Z</time>
      </trkpt>
      <trkpt lat="44.35431" lon="4.50972">
        <ele>312</ele>
        <time>2017-03-15T10:23:11.000Z</time>
      </trkpt>
      <trkpt lat="44.3543" lon="4.50957">
        <ele>313</ele>
        <time>2017-03-15T10:23:16.000Z</time>
      </trkpt>
      <trkpt lat="44.3543" lon="4.50951">
        <ele>313.60000610352</ele>
        <time>2017-03-15T10:23:18.000Z</time>
      </trkpt>
      <trkpt lat="44.35429" lon="4.50943">
        <ele>314.20001220703</ele>
        <time>2017-03-15T10:23:21.000Z</time>
      </trkpt>
      <trkpt lat="44.35428" lon="4.50928">
        <ele>314.39999389648</ele>
        <time>2017-03-15T10:23:26.000Z</time>
      </trkpt>
      <trkpt lat="44.35428" lon="4.50911">
        <ele>315</ele>
        <time>2017-03-15T10:23:33.000Z</time>
      </trkpt>
      <trkpt lat="44.35428" lon="4.50909">
        <ele>315.20001220703</ele>
        <time>2017-03-15T10:23:34.000Z</time>
      </trkpt>
      <trkpt lat="44.35427" lon="4.50899">
        <ele>315.60000610352</ele>
        <time>2017-03-15T10:23:41.000Z</time>
      </trkpt>
      <trkpt lat="44.35427" lon="4.50899">
        <ele>314</ele>
        <time>2017-03-15T10:23:44.000Z</time>
      </trkpt>
      <trkpt lat="44.35427" lon="4.50899">
        <ele>312.60000610352</ele>
        <time>2017-03-15T10:23:45.000Z</time>
      </trkpt>
      <trkpt lat="44.35427" lon="4.50899">
        <ele>316.60000610352</ele>
        <time>2017-03-15T10:23:47.000Z</time>
      </trkpt>
      <trkpt lat="44.35427" lon="4.50899">
        <ele>318.39999389648</ele>
        <time>2017-03-15T10:23:48.000Z</time>
      </trkpt>
      <trkpt lat="44.35427" lon="4.50899">
        <ele>319.39999389648</ele>
        <time>2017-03-15T10:23:49.000Z</time>
      </trkpt>
      <trkpt lat="44.35427" lon="4.50899">
        <ele>318.39999389648</ele>
        <time>2017-03-15T10:23:51.000Z</time>
      </trkpt>
      <trkpt lat="44.35427" lon="4.50899">
        <ele>315</ele>
        <time>2017-03-15T10:23:52.000Z</time>
      </trkpt>
      <trkpt lat="44.35427" lon="4.50899">
        <ele>312.60000610352</ele>
        <time>2017-03-15T10:23:54.000Z</time>
      </trkpt>
      <trkpt lat="44.35427" lon="4.50899">
        <ele>316.20001220703</ele>
        <time>2017-03-15T10:23:55.000Z</time>
      </trkpt>
      <trkpt lat="44.35427" lon="4.50899">
        <ele>314.20001220703</ele>
        <time>2017-03-15T10:23:56.000Z</time>
      </trkpt>
      <trkpt lat="44.35427" lon="4.50899">
        <ele>316.20001220703</ele>
        <time>2017-03-15T10:23:57.000Z</time>
      </trkpt>
      <trkpt lat="44.35427" lon="4.50899">
        <ele>315</ele>
        <time>2017-03-15T10:23:58.000Z</time>
      </trkpt>
      <trkpt lat="44.35427" lon="4.50899">
        <ele>315.20001220703</ele>
        <time>2017-03-15T10:24:09.000Z</time>
      </trkpt>
      <trkpt lat="44.35427" lon="4.50899">
        <ele>315.79998779297</ele>
        <time>2017-03-15T10:24:24.000Z</time>
      </trkpt>
      <trkpt lat="44.35427" lon="4.50899">
        <ele>313.20001220703</ele>
        <time>2017-03-15T10:24:38.000Z</time>
      </trkpt>
      <trkpt lat="44.35427" lon="4.50899">
        <ele>314.39999389648</ele>
        <time>2017-03-15T10:24:39.000Z</time>
      </trkpt>
      <trkpt lat="44.35427" lon="4.50899">
        <ele>316.39999389648</ele>
        <time>2017-03-15T10:24:41.000Z</time>
      </trkpt>
      <trkpt lat="44.35427" lon="4.50899">
        <ele>315.39999389648</ele>
        <time>2017-03-15T10:24:42.000Z</time>
      </trkpt>
      <trkpt lat="44.35427" lon="4.50899">
        <ele>315.20001220703</ele>
        <time>2017-03-15T10:24:47.000Z</time>
      </trkpt>
      <trkpt lat="44.35427" lon="4.50899">
        <ele>315</ele>
        <time>2017-03-15T10:24:52.000Z</time>
      </trkpt>
      <trkpt lat="44.35427" lon="4.50899">
        <ele>315.39999389648</ele>
        <time>2017-03-15T10:25:08.000Z</time>
      </trkpt>
      <trkpt lat="44.35427" lon="4.50899">
        <ele>315</ele>
        <time>2017-03-15T10:25:29.000Z</time>
      </trkpt>
      <trkpt lat="44.35427" lon="4.50898">
        <ele>315.20001220703</ele>
        <time>2017-03-15T10:25:46.000Z</time>
      </trkpt>
      <trkpt lat="44.35427" lon="4.50898">
        <ele>315</ele>
        <time>2017-03-15T10:25:58.000Z</time>
      </trkpt>
      <trkpt lat="44.35427" lon="4.50896">
        <ele>314.79998779297</ele>
        <time>2017-03-15T10:26:08.000Z</time>
      </trkpt>
      <trkpt lat="44.35427" lon="4.50896">
        <ele>314.60000610352</ele>
        <time>2017-03-15T10:26:24.000Z</time>
      </trkpt>
      <trkpt lat="44.35427" lon="4.50896">
        <ele>314.60000610352</ele>
        <time>2017-03-15T10:26:38.000Z</time>
      </trkpt>
      <trkpt lat="44.35427" lon="4.50896">
        <ele>315</ele>
        <time>2017-03-15T10:26:52.000Z</time>
      </trkpt>
      <trkpt lat="44.35427" lon="4.50896">
        <ele>314.39999389648</ele>
        <time>2017-03-15T10:27:08.000Z</time>
      </trkpt>
      <trkpt lat="44.35427" lon="4.50896">
        <ele>314.39999389648</ele>
        <time>2017-03-15T10:27:11.000Z</time>
      </trkpt>
      <trkpt lat="44.35427" lon="4.50896">
        <ele>314.20001220703</ele>
        <time>2017-03-15T10:27:20.000Z</time>
      </trkpt>
      <trkpt lat="44.35427" lon="4.50896">
        <ele>314.20001220703</ele>
        <time>2017-03-15T10:27:31.000Z</time>
      </trkpt>
      <trkpt lat="44.35427" lon="4.50896">
        <ele>314.39999389648</ele>
        <time>2017-03-15T10:27:32.000Z</time>
      </trkpt>
      <trkpt lat="44.35427" lon="4.50896">
        <ele>314</ele>
        <time>2017-03-15T10:27:46.000Z</time>
      </trkpt>
      <trkpt lat="44.35427" lon="4.50896">
        <ele>314</ele>
        <time>2017-03-15T10:27:59.000Z</time>
      </trkpt>
      <trkpt lat="44.35426" lon="4.50889">
        <ele>313.79998779297</ele>
        <time>2017-03-15T10:28:08.000Z</time>
      </trkpt>
      <trkpt lat="44.35426" lon="4.50866">
        <ele>313.60000610352</ele>
        <time>2017-03-15T10:28:13.000Z</time>
      </trkpt>
      <trkpt lat="44.35425" lon="4.50855">
        <ele>313.20001220703</ele>
        <time>2017-03-15T10:28:15.000Z</time>
      </trkpt>
      <trkpt lat="44.35421" lon="4.50835">
        <ele>312.79998779297</ele>
        <time>2017-03-15T10:28:19.000Z</time>
      </trkpt>
      <trkpt lat="44.35414" lon="4.50818">
        <ele>312</ele>
        <time>2017-03-15T10:28:23.000Z</time>
      </trkpt>
      <trkpt lat="44.35415" lon="4.50813">
        <ele>311.79998779297</ele>
        <time>2017-03-15T10:28:25.000Z</time>
      </trkpt>
      <trkpt lat="44.35422" lon="4.50812">
        <ele>311.20001220703</ele>
        <time>2017-03-15T10:28:29.000Z</time>
      </trkpt>
      <trkpt lat="44.35426" lon="4.50814">
        <ele>311</ele>
        <time>2017-03-15T10:28:31.000Z</time>
      </trkpt>
      <trkpt lat="44.35437" lon="4.50819">
        <ele>310.20001220703</ele>
        <time>2017-03-15T10:28:35.000Z</time>
      </trkpt>
      <trkpt lat="44.35453" lon="4.50818">
        <ele>310.20001220703</ele>
        <time>2017-03-15T10:28:39.000Z</time>
      </trkpt>
      <trkpt lat="44.35457" lon="4.50819">
        <ele>310</ele>
        <time>2017-03-15T10:28:40.000Z</time>
      </trkpt>
      <trkpt lat="44.35473" lon="4.50822">
        <ele>309.39999389648</ele>
        <time>2017-03-15T10:28:44.000Z</time>
      </trkpt>
      <trkpt lat="44.35487" lon="4.50816">
        <ele>309.60000610352</ele>
        <time>2017-03-15T10:28:48.000Z</time>
      </trkpt>
      <trkpt lat="44.35503" lon="4.50806">
        <ele>309.20001220703</ele>
        <time>2017-03-15T10:28:53.000Z</time>
      </trkpt>
      <trkpt lat="44.35506" lon="4.50803">
        <ele>309.39999389648</ele>
        <time>2017-03-15T10:28:54.000Z</time>
      </trkpt>
      <trkpt lat="44.35513" lon="4.50793">
        <ele>309.60000610352</ele>
        <time>2017-03-15T10:28:57.000Z</time>
      </trkpt>
      <trkpt lat="44.35529" lon="4.50769">
        <ele>310.60000610352</ele>
        <time>2017-03-15T10:29:04.000Z</time>
      </trkpt>
      <trkpt lat="44.3554" lon="4.50751">
        <ele>311</ele>
        <time>2017-03-15T10:29:10.000Z</time>
      </trkpt>
      <trkpt lat="44.35541" lon="4.50747">
        <ele>311</ele>
        <time>2017-03-15T10:29:11.000Z</time>
      </trkpt>
      <trkpt lat="44.35546" lon="4.50731">
        <ele>311.79998779297</ele>
        <time>2017-03-15T10:29:16.000Z</time>
      </trkpt>
      <trkpt lat="44.35548" lon="4.50728">
        <ele>312.20001220703</ele>
        <time>2017-03-15T10:29:17.000Z</time>
      </trkpt>
      <trkpt lat="44.35555" lon="4.50714">
        <ele>313.20001220703</ele>
        <time>2017-03-15T10:29:22.000Z</time>
      </trkpt>
      <trkpt lat="44.35558" lon="4.50712">
        <ele>313.39999389648</ele>
        <time>2017-03-15T10:29:23.000Z</time>
      </trkpt>
      <trkpt lat="44.35571" lon="4.50696">
        <ele>314</ele>
        <time>2017-03-15T10:29:30.000Z</time>
      </trkpt>
      <trkpt lat="44.35575" lon="4.50693">
        <ele>314.20001220703</ele>
        <time>2017-03-15T10:29:32.000Z</time>
      </trkpt>
      <trkpt lat="44.35585" lon="4.50691">
        <ele>314.60000610352</ele>
        <time>2017-03-15T10:29:36.000Z</time>
      </trkpt>
      <trkpt lat="44.35601" lon="4.50694">
        <ele>314.60000610352</ele>
        <time>2017-03-15T10:29:42.000Z</time>
      </trkpt>
      <trkpt lat="44.35621" lon="4.50705">
        <ele>315.39999389648</ele>
        <time>2017-03-15T10:29:48.000Z</time>
      </trkpt>
      <trkpt lat="44.35631" lon="4.50709">
        <ele>315.39999389648</ele>
        <time>2017-03-15T10:29:51.000Z</time>
      </trkpt>
      <trkpt lat="44.35651" lon="4.50718">
        <ele>315.39999389648</ele>
        <time>2017-03-15T10:29:57.000Z</time>
      </trkpt>
      <trkpt lat="44.35674" lon="4.50736">
        <ele>315.60000610352</ele>
        <time>2017-03-15T10:30:04.000Z</time>
      </trkpt>
      <trkpt lat="44.35696" lon="4.50748">
        <ele>315.60000610352</ele>
        <time>2017-03-15T10:30:10.000Z</time>
      </trkpt>
      <trkpt lat="44.35725" lon="4.50756">
        <ele>316.39999389648</ele>
        <time>2017-03-15T10:30:18.000Z</time>
      </trkpt>
      <trkpt lat="44.35729" lon="4.50757">
        <ele>316.20001220703</ele>
        <time>2017-03-15T10:30:19.000Z</time>
      </trkpt>
      <trkpt lat="44.35758" lon="4.5076">
        <ele>316</ele>
        <time>2017-03-15T10:30:27.000Z</time>
      </trkpt>
      <trkpt lat="44.35782" lon="4.5077">
        <ele>317.20001220703</ele>
        <time>2017-03-15T10:30:34.000Z</time>
      </trkpt>
      <trkpt lat="44.35792" lon="4.50776">
        <ele>317.39999389648</ele>
        <time>2017-03-15T10:30:37.000Z</time>
      </trkpt>
      <trkpt lat="44.35807" lon="4.50783">
        <ele>317.39999389648</ele>
        <time>2017-03-15T10:30:41.000Z</time>
      </trkpt>
      <trkpt lat="44.35837" lon="4.50788">
        <ele>317.60000610352</ele>
        <time>2017-03-15T10:30:49.000Z</time>
      </trkpt>
      <trkpt lat="44.35863" lon="4.50786">
        <ele>317.79998779297</ele>
        <time>2017-03-15T10:30:56.000Z</time>
      </trkpt>
      <trkpt lat="44.3588" lon="4.50789">
        <ele>318.20001220703</ele>
        <time>2017-03-15T10:31:01.000Z</time>
      </trkpt>
      <trkpt lat="44.35896" lon="4.50784">
        <ele>318.39999389648</ele>
        <time>2017-03-15T10:31:06.000Z</time>
      </trkpt>
      <trkpt lat="44.35899" lon="4.50783">
        <ele>318.60000610352</ele>
        <time>2017-03-15T10:31:07.000Z</time>
      </trkpt>
      <trkpt lat="44.3592" lon="4.50781">
        <ele>319.20001220703</ele>
        <time>2017-03-15T10:31:13.000Z</time>
      </trkpt>
      <trkpt lat="44.35923" lon="4.50781">
        <ele>319.60000610352</ele>
        <time>2017-03-15T10:31:14.000Z</time>
      </trkpt>
      <trkpt lat="44.35935" lon="4.50776">
        <ele>319.39999389648</ele>
        <time>2017-03-15T10:31:19.000Z</time>
      </trkpt>
      <trkpt lat="44.35948" lon="4.50769">
        <ele>319.60000610352</ele>
        <time>2017-03-15T10:31:24.000Z</time>
      </trkpt>
      <trkpt lat="44.35963" lon="4.50762">
        <ele>320.39999389648</ele>
        <time>2017-03-15T10:31:30.000Z</time>
      </trkpt>
      <trkpt lat="44.35969" lon="4.50759">
        <ele>320.60000610352</ele>
        <time>2017-03-15T10:31:32.000Z</time>
      </trkpt>
      <trkpt lat="44.35977" lon="4.50759">
        <ele>320.79998779297</ele>
        <time>2017-03-15T10:31:35.000Z</time>
      </trkpt>
      <trkpt lat="44.35979" lon="4.5076">
        <ele>320.60000610352</ele>
        <time>2017-03-15T10:31:36.000Z</time>
      </trkpt>
      <trkpt lat="44.35989" lon="4.50761">
        <ele>321.79998779297</ele>
        <time>2017-03-15T10:31:40.000Z</time>
      </trkpt>
      <trkpt lat="44.35993" lon="4.50762">
        <ele>321.79998779297</ele>
        <time>2017-03-15T10:31:42.000Z</time>
      </trkpt>
      <trkpt lat="44.36003" lon="4.50763">
        <ele>322.79998779297</ele>
        <time>2017-03-15T10:31:46.000Z</time>
      </trkpt>
      <trkpt lat="44.36009" lon="4.50767">
        <ele>323</ele>
        <time>2017-03-15T10:31:49.000Z</time>
      </trkpt>
      <trkpt lat="44.36012" lon="4.50767">
        <ele>323.39999389648</ele>
        <time>2017-03-15T10:31:50.000Z</time>
      </trkpt>
      <trkpt lat="44.3602" lon="4.5076">
        <ele>323.79998779297</ele>
        <time>2017-03-15T10:31:54.000Z</time>
      </trkpt>
      <trkpt lat="44.36025" lon="4.50756">
        <ele>323.79998779297</ele>
        <time>2017-03-15T10:31:56.000Z</time>
      </trkpt>
      <trkpt lat="44.36035" lon="4.50754">
        <ele>324</ele>
        <time>2017-03-15T10:32:00.000Z</time>
      </trkpt>
      <trkpt lat="44.36045" lon="4.50749">
        <ele>324.20001220703</ele>
        <time>2017-03-15T10:32:05.000Z</time>
      </trkpt>
      <trkpt lat="44.36045" lon="4.50739">
        <ele>324.20001220703</ele>
        <time>2017-03-15T10:32:10.000Z</time>
      </trkpt>
      <trkpt lat="44.36043" lon="4.50737">
        <ele>324.20001220703</ele>
        <time>2017-03-15T10:32:12.000Z</time>
      </trkpt>
      <trkpt lat="44.36038" lon="4.50732">
        <ele>324.79998779297</ele>
        <time>2017-03-15T10:32:15.000Z</time>
      </trkpt>
      <trkpt lat="44.36036" lon="4.50726">
        <ele>324.79998779297</ele>
        <time>2017-03-15T10:32:17.000Z</time>
      </trkpt>
      <trkpt lat="44.36028" lon="4.50714">
        <ele>324.20001220703</ele>
        <time>2017-03-15T10:32:21.000Z</time>
      </trkpt>
      <trkpt lat="44.36013" lon="4.50691">
        <ele>324.39999389648</ele>
        <time>2017-03-15T10:32:29.000Z</time>
      </trkpt>
      <trkpt lat="44.36005" lon="4.5068">
        <ele>325</ele>
        <time>2017-03-15T10:32:33.000Z</time>
      </trkpt>
      <trkpt lat="44.36001" lon="4.50674">
        <ele>325.20001220703</ele>
        <time>2017-03-15T10:32:35.000Z</time>
      </trkpt>
      <trkpt lat="44.35984" lon="4.50648">
        <ele>326</ele>
        <time>2017-03-15T10:32:44.000Z</time>
      </trkpt>
      <trkpt lat="44.35982" lon="4.50646">
        <ele>326.20001220703</ele>
        <time>2017-03-15T10:32:45.000Z</time>
      </trkpt>
      <trkpt lat="44.35963" lon="4.50617">
        <ele>326.60000610352</ele>
        <time>2017-03-15T10:32:55.000Z</time>
      </trkpt>
      <trkpt lat="44.35949" lon="4.50597">
        <ele>327.20001220703</ele>
        <time>2017-03-15T10:33:02.000Z</time>
      </trkpt>
      <trkpt lat="44.35934" lon="4.50572">
        <ele>327.39999389648</ele>
        <time>2017-03-15T10:33:10.000Z</time>
      </trkpt>
      <trkpt lat="44.35923" lon="4.50548">
        <ele>327.79998779297</ele>
        <time>2017-03-15T10:33:17.000Z</time>
      </trkpt>
      <trkpt lat="44.3592" lon="4.5054">
        <ele>328.20001220703</ele>
        <time>2017-03-15T10:33:19.000Z</time>
      </trkpt>
      <trkpt lat="44.35916" lon="4.50518">
        <ele>328.20001220703</ele>
        <time>2017-03-15T10:33:24.000Z</time>
      </trkpt>
      <trkpt lat="44.35916" lon="4.50495">
        <ele>328.79998779297</ele>
        <time>2017-03-15T10:33:30.000Z</time>
      </trkpt>
      <trkpt lat="44.35915" lon="4.50493">
        <ele>328.79998779297</ele>
        <time>2017-03-15T10:33:31.000Z</time>
      </trkpt>
      <trkpt lat="44.35911" lon="4.50496">
        <ele>329</ele>
        <time>2017-03-15T10:33:33.000Z</time>
      </trkpt>
      <trkpt lat="44.35912" lon="4.5051">
        <ele>328.60000610352</ele>
        <time>2017-03-15T10:33:37.000Z</time>
      </trkpt>
      <trkpt lat="44.35913" lon="4.50527">
        <ele>328.79998779297</ele>
        <time>2017-03-15T10:33:43.000Z</time>
      </trkpt>
      <trkpt lat="44.35916" lon="4.50522">
        <ele>328.60000610352</ele>
        <time>2017-03-15T10:33:46.000Z</time>
      </trkpt>
      <trkpt lat="44.35915" lon="4.50513">
        <ele>328.60000610352</ele>
        <time>2017-03-15T10:33:48.000Z</time>
      </trkpt>
      <trkpt lat="44.35916" lon="4.50505">
        <ele>328.60000610352</ele>
        <time>2017-03-15T10:33:50.000Z</time>
      </trkpt>
      <trkpt lat="44.35919" lon="4.50479">
        <ele>328.79998779297</ele>
        <time>2017-03-15T10:33:56.000Z</time>
      </trkpt>
      <trkpt lat="44.35926" lon="4.50454">
        <ele>329.39999389648</ele>
        <time>2017-03-15T10:34:02.000Z</time>
      </trkpt>
      <trkpt lat="44.35927" lon="4.5045">
        <ele>329.39999389648</ele>
        <time>2017-03-15T10:34:03.000Z</time>
      </trkpt>
      <trkpt lat="44.35935" lon="4.50424">
        <ele>329.60000610352</ele>
        <time>2017-03-15T10:34:09.000Z</time>
      </trkpt>
      <trkpt lat="44.35937" lon="4.5042">
        <ele>329.79998779297</ele>
        <time>2017-03-15T10:34:10.000Z</time>
      </trkpt>
      <trkpt lat="44.35946" lon="4.50396">
        <ele>329.79998779297</ele>
        <time>2017-03-15T10:34:16.000Z</time>
      </trkpt>
      <trkpt lat="44.35951" lon="4.50379">
        <ele>330.39999389648</ele>
        <time>2017-03-15T10:34:20.000Z</time>
      </trkpt>
      <trkpt lat="44.35958" lon="4.50358">
        <ele>330.79998779297</ele>
        <time>2017-03-15T10:34:25.000Z</time>
      </trkpt>
      <trkpt lat="44.35968" lon="4.50329">
        <ele>331.20001220703</ele>
        <time>2017-03-15T10:34:32.000Z</time>
      </trkpt>
      <trkpt lat="44.35972" lon="4.5032">
        <ele>331.60000610352</ele>
        <time>2017-03-15T10:34:34.000Z</time>
      </trkpt>
      <trkpt lat="44.35982" lon="4.50291">
        <ele>332.39999389648</ele>
        <time>2017-03-15T10:34:41.000Z</time>
      </trkpt>
      <trkpt lat="44.3599" lon="4.50269">
        <ele>332.60000610352</ele>
        <time>2017-03-15T10:34:46.000Z</time>
      </trkpt>
      <trkpt lat="44.35994" lon="4.50257">
        <ele>333</ele>
        <time>2017-03-15T10:34:49.000Z</time>
      </trkpt>
      <trkpt lat="44.36008" lon="4.50222">
        <ele>333.39999389648</ele>
        <time>2017-03-15T10:34:57.000Z</time>
      </trkpt>
      <trkpt lat="44.36018" lon="4.5019">
        <ele>333.20001220703</ele>
        <time>2017-03-15T10:35:04.000Z</time>
      </trkpt>
      <trkpt lat="44.36028" lon="4.50153">
        <ele>332.20001220703</ele>
        <time>2017-03-15T10:35:12.000Z</time>
      </trkpt>
      <trkpt lat="44.36035" lon="4.50137">
        <ele>331.60000610352</ele>
        <time>2017-03-15T10:35:18.000Z</time>
      </trkpt>
      <trkpt lat="44.36035" lon="4.50137">
        <ele>331.79998779297</ele>
        <time>2017-03-15T10:35:22.000Z</time>
      </trkpt>
      <trkpt lat="44.36036" lon="4.50137">
        <ele>331.60000610352</ele>
        <time>2017-03-15T10:35:28.000Z</time>
      </trkpt>
      <trkpt lat="44.36037" lon="4.50136">
        <ele>331.60000610352</ele>
        <time>2017-03-15T10:35:29.000Z</time>
      </trkpt>
      <trkpt lat="44.36039" lon="4.50135">
        <ele>331.39999389648</ele>
        <time>2017-03-15T10:35:30.000Z</time>
      </trkpt>
      <trkpt lat="44.3605" lon="4.50136">
        <ele>331</ele>
        <time>2017-03-15T10:35:36.000Z</time>
      </trkpt>
      <trkpt lat="44.36062" lon="4.50135">
        <ele>330.39999389648</ele>
        <time>2017-03-15T10:35:41.000Z</time>
      </trkpt>
      <trkpt lat="44.36063" lon="4.50135">
        <ele>330.39999389648</ele>
        <time>2017-03-15T10:35:42.000Z</time>
      </trkpt>
      <trkpt lat="44.36065" lon="4.50134">
        <ele>330.39999389648</ele>
        <time>2017-03-15T10:35:47.000Z</time>
      </trkpt>
      <trkpt lat="44.36065" lon="4.50134">
        <ele>330.60000610352</ele>
        <time>2017-03-15T10:36:04.000Z</time>
      </trkpt>
      <trkpt lat="44.36065" lon="4.50134">
        <ele>330.60000610352</ele>
        <time>2017-03-15T10:36:19.000Z</time>
      </trkpt>
      <trkpt lat="44.3607" lon="4.50136">
        <ele>330.60000610352</ele>
        <time>2017-03-15T10:36:28.000Z</time>
      </trkpt>
      <trkpt lat="44.3609" lon="4.50136">
        <ele>330.20001220703</ele>
        <time>2017-03-15T10:36:34.000Z</time>
      </trkpt>
      <trkpt lat="44.36115" lon="4.50137">
        <ele>329.20001220703</ele>
        <time>2017-03-15T10:36:40.000Z</time>
      </trkpt>
      <trkpt lat="44.36125" lon="4.50137">
        <ele>329</ele>
        <time>2017-03-15T10:36:42.000Z</time>
      </trkpt>
      <trkpt lat="44.3616" lon="4.50137">
        <ele>328.20001220703</ele>
        <time>2017-03-15T10:36:50.000Z</time>
      </trkpt>
      <trkpt lat="44.36195" lon="4.50137">
        <ele>328</ele>
        <time>2017-03-15T10:36:57.000Z</time>
      </trkpt>
      <trkpt lat="44.36213" lon="4.50138">
        <ele>327</ele>
        <time>2017-03-15T10:37:01.000Z</time>
      </trkpt>
      <trkpt lat="44.36233" lon="4.50137">
        <ele>327.20001220703</ele>
        <time>2017-03-15T10:37:05.000Z</time>
      </trkpt>
      <trkpt lat="44.36272" lon="4.50137">
        <ele>326.39999389648</ele>
        <time>2017-03-15T10:37:14.000Z</time>
      </trkpt>
      <trkpt lat="44.36295" lon="4.50138">
        <ele>326.20001220703</ele>
        <time>2017-03-15T10:37:19.000Z</time>
      </trkpt>
      <trkpt lat="44.36299" lon="4.50139">
        <ele>326</ele>
        <time>2017-03-15T10:37:20.000Z</time>
      </trkpt>
      <trkpt lat="44.36308" lon="4.50138">
        <ele>326</ele>
        <time>2017-03-15T10:37:22.000Z</time>
      </trkpt>
      <trkpt lat="44.36332" lon="4.50137">
        <ele>326.20001220703</ele>
        <time>2017-03-15T10:37:27.000Z</time>
      </trkpt>
      <trkpt lat="44.36368" lon="4.50139">
        <ele>326.20001220703</ele>
        <time>2017-03-15T10:37:35.000Z</time>
      </trkpt>
      <trkpt lat="44.36404" lon="4.50137">
        <ele>325.79998779297</ele>
        <time>2017-03-15T10:37:43.000Z</time>
      </trkpt>
      <trkpt lat="44.36428" lon="4.50137">
        <ele>325.60000610352</ele>
        <time>2017-03-15T10:37:49.000Z</time>
      </trkpt>
      <trkpt lat="44.36452" lon="4.50138">
        <ele>326.20001220703</ele>
        <time>2017-03-15T10:37:55.000Z</time>
      </trkpt>
      <trkpt lat="44.36456" lon="4.50138">
        <ele>326.20001220703</ele>
        <time>2017-03-15T10:37:56.000Z</time>
      </trkpt>
      <trkpt lat="44.36483" lon="4.50139">
        <ele>326.39999389648</ele>
        <time>2017-03-15T10:38:03.000Z</time>
      </trkpt>
      <trkpt lat="44.36501" lon="4.50139">
        <ele>326</ele>
        <time>2017-03-15T10:38:08.000Z</time>
      </trkpt>
      <trkpt lat="44.36528" lon="4.50139">
        <ele>326.60000610352</ele>
        <time>2017-03-15T10:38:15.000Z</time>
      </trkpt>
      <trkpt lat="44.3655" lon="4.50141">
        <ele>326.60000610352</ele>
        <time>2017-03-15T10:38:21.000Z</time>
      </trkpt>
      <trkpt lat="44.36571" lon="4.5014">
        <ele>326.79998779297</ele>
        <time>2017-03-15T10:38:26.000Z</time>
      </trkpt>
      <trkpt lat="44.3658" lon="4.5014">
        <ele>327</ele>
        <time>2017-03-15T10:38:28.000Z</time>
      </trkpt>
      <trkpt lat="44.36592" lon="4.50139">
        <ele>326.39999389648</ele>
        <time>2017-03-15T10:38:31.000Z</time>
      </trkpt>
      <trkpt lat="44.36618" lon="4.50138">
        <ele>326.60000610352</ele>
        <time>2017-03-15T10:38:37.000Z</time>
      </trkpt>
      <trkpt lat="44.36644" lon="4.50139">
        <ele>326.79998779297</ele>
        <time>2017-03-15T10:38:44.000Z</time>
      </trkpt>
      <trkpt lat="44.36672" lon="4.50138">
        <ele>326.39999389648</ele>
        <time>2017-03-15T10:38:51.000Z</time>
      </trkpt>
      <trkpt lat="44.36694" lon="4.50138">
        <ele>327.20001220703</ele>
        <time>2017-03-15T10:38:57.000Z</time>
      </trkpt>
      <trkpt lat="44.36723" lon="4.5014">
        <ele>327</ele>
        <time>2017-03-15T10:39:05.000Z</time>
      </trkpt>
      <trkpt lat="44.36745" lon="4.5014">
        <ele>327.60000610352</ele>
        <time>2017-03-15T10:39:11.000Z</time>
      </trkpt>
      <trkpt lat="44.36773" lon="4.50141">
        <ele>327</ele>
        <time>2017-03-15T10:39:18.000Z</time>
      </trkpt>
      <trkpt lat="44.36785" lon="4.50141">
        <ele>328.20001220703</ele>
        <time>2017-03-15T10:39:21.000Z</time>
      </trkpt>
      <trkpt lat="44.368" lon="4.50141">
        <ele>327.20001220703</ele>
        <time>2017-03-15T10:39:25.000Z</time>
      </trkpt>
      <trkpt lat="44.36804" lon="4.50141">
        <ele>327.39999389648</ele>
        <time>2017-03-15T10:39:26.000Z</time>
      </trkpt>
      <trkpt lat="44.36827" lon="4.50148">
        <ele>328</ele>
        <time>2017-03-15T10:39:32.000Z</time>
      </trkpt>
      <trkpt lat="44.3683" lon="4.50149">
        <ele>328.20001220703</ele>
        <time>2017-03-15T10:39:33.000Z</time>
      </trkpt>
      <trkpt lat="44.3684" lon="4.50155">
        <ele>329.20001220703</ele>
        <time>2017-03-15T10:39:36.000Z</time>
      </trkpt>
      <trkpt lat="44.36846" lon="4.50157">
        <ele>329</ele>
        <time>2017-03-15T10:39:38.000Z</time>
      </trkpt>
      <trkpt lat="44.36873" lon="4.50166">
        <ele>329.79998779297</ele>
        <time>2017-03-15T10:39:46.000Z</time>
      </trkpt>
      <trkpt lat="44.36899" lon="4.50179">
        <ele>330.20001220703</ele>
        <time>2017-03-15T10:39:54.000Z</time>
      </trkpt>
      <trkpt lat="44.36918" lon="4.50187">
        <ele>331</ele>
        <time>2017-03-15T10:40:00.000Z</time>
      </trkpt>
      <trkpt lat="44.36923" lon="4.5019">
        <ele>331.60000610352</ele>
        <time>2017-03-15T10:40:02.000Z</time>
      </trkpt>
      <trkpt lat="44.36935" lon="4.50195">
        <ele>331.60000610352</ele>
        <time>2017-03-15T10:40:06.000Z</time>
      </trkpt>
      <trkpt lat="44.36953" lon="4.50201">
        <ele>332.79998779297</ele>
        <time>2017-03-15T10:40:12.000Z</time>
      </trkpt>
      <trkpt lat="44.36956" lon="4.50202">
        <ele>333</ele>
        <time>2017-03-15T10:40:13.000Z</time>
      </trkpt>
      <trkpt lat="44.36971" lon="4.50209">
        <ele>333.79998779297</ele>
        <time>2017-03-15T10:40:18.000Z</time>
      </trkpt>
      <trkpt lat="44.36976" lon="4.50212">
        <ele>334.39999389648</ele>
        <time>2017-03-15T10:40:20.000Z</time>
      </trkpt>
      <trkpt lat="44.36991" lon="4.50218">
        <ele>334.79998779297</ele>
        <time>2017-03-15T10:40:26.000Z</time>
      </trkpt>
      <trkpt lat="44.36996" lon="4.50219">
        <ele>335.20001220703</ele>
        <time>2017-03-15T10:40:28.000Z</time>
      </trkpt>
      <trkpt lat="44.37003" lon="4.50222">
        <ele>336.20001220703</ele>
        <time>2017-03-15T10:40:31.000Z</time>
      </trkpt>
      <trkpt lat="44.3701" lon="4.50225">
        <ele>336</ele>
        <time>2017-03-15T10:40:34.000Z</time>
      </trkpt>
      <trkpt lat="44.37024" lon="4.5023">
        <ele>336.79998779297</ele>
        <time>2017-03-15T10:40:40.000Z</time>
      </trkpt>
      <trkpt lat="44.37028" lon="4.50231">
        <ele>337.39999389648</ele>
        <time>2017-03-15T10:40:42.000Z</time>
      </trkpt>
      <trkpt lat="44.3704" lon="4.50234">
        <ele>338.20001220703</ele>
        <time>2017-03-15T10:40:47.000Z</time>
      </trkpt>
      <trkpt lat="44.37047" lon="4.50237">
        <ele>338.60000610352</ele>
        <time>2017-03-15T10:40:50.000Z</time>
      </trkpt>
      <trkpt lat="44.37055" lon="4.5024">
        <ele>338.79998779297</ele>
        <time>2017-03-15T10:40:53.000Z</time>
      </trkpt>
      <trkpt lat="44.37068" lon="4.50246">
        <ele>339.60000610352</ele>
        <time>2017-03-15T10:40:58.000Z</time>
      </trkpt>
      <trkpt lat="44.37075" lon="4.50248">
        <ele>340.20001220703</ele>
        <time>2017-03-15T10:41:01.000Z</time>
      </trkpt>
      <trkpt lat="44.37087" lon="4.50252">
        <ele>340.60000610352</ele>
        <time>2017-03-15T10:41:06.000Z</time>
      </trkpt>
      <trkpt lat="44.37094" lon="4.50257">
        <ele>341.20001220703</ele>
        <time>2017-03-15T10:41:09.000Z</time>
      </trkpt>
      <trkpt lat="44.371" lon="4.50261">
        <ele>342</ele>
        <time>2017-03-15T10:41:12.000Z</time>
      </trkpt>
      <trkpt lat="44.37113" lon="4.50265">
        <ele>342.60000610352</ele>
        <time>2017-03-15T10:41:17.000Z</time>
      </trkpt>
      <trkpt lat="44.37115" lon="4.50266">
        <ele>342.60000610352</ele>
        <time>2017-03-15T10:41:18.000Z</time>
      </trkpt>
      <trkpt lat="44.37126" lon="4.50269">
        <ele>343.60000610352</ele>
        <time>2017-03-15T10:41:23.000Z</time>
      </trkpt>
      <trkpt lat="44.37128" lon="4.5027">
        <ele>344.20001220703</ele>
        <time>2017-03-15T10:41:24.000Z</time>
      </trkpt>
      <trkpt lat="44.37132" lon="4.50272">
        <ele>344.79998779297</ele>
        <time>2017-03-15T10:41:26.000Z</time>
      </trkpt>
      <trkpt lat="44.37143" lon="4.50276">
        <ele>345.39999389648</ele>
        <time>2017-03-15T10:41:31.000Z</time>
      </trkpt>
      <trkpt lat="44.37154" lon="4.5028">
        <ele>346</ele>
        <time>2017-03-15T10:41:36.000Z</time>
      </trkpt>
      <trkpt lat="44.37156" lon="4.50281">
        <ele>346</ele>
        <time>2017-03-15T10:41:37.000Z</time>
      </trkpt>
      <trkpt lat="44.37163" lon="4.50283">
        <ele>346.79998779297</ele>
        <time>2017-03-15T10:41:40.000Z</time>
      </trkpt>
      <trkpt lat="44.37165" lon="4.50285">
        <ele>347.20001220703</ele>
        <time>2017-03-15T10:41:41.000Z</time>
      </trkpt>
      <trkpt lat="44.37173" lon="4.50288">
        <ele>347.79998779297</ele>
        <time>2017-03-15T10:41:45.000Z</time>
      </trkpt>
      <trkpt lat="44.3718" lon="4.50292">
        <ele>348.39999389648</ele>
        <time>2017-03-15T10:41:49.000Z</time>
      </trkpt>
      <trkpt lat="44.37184" lon="4.50293">
        <ele>348.60000610352</ele>
        <time>2017-03-15T10:41:51.000Z</time>
      </trkpt>
      <trkpt lat="44.37192" lon="4.50296">
        <ele>349.79998779297</ele>
        <time>2017-03-15T10:41:55.000Z</time>
      </trkpt>
      <trkpt lat="44.37195" lon="4.50297">
        <ele>350.20001220703</ele>
        <time>2017-03-15T10:41:57.000Z</time>
      </trkpt>
      <trkpt lat="44.37209" lon="4.50302">
        <ele>350.79998779297</ele>
        <time>2017-03-15T10:42:05.000Z</time>
      </trkpt>
      <trkpt lat="44.37223" lon="4.50309">
        <ele>351.60000610352</ele>
        <time>2017-03-15T10:42:12.000Z</time>
      </trkpt>
      <trkpt lat="44.37225" lon="4.50309">
        <ele>351.79998779297</ele>
        <time>2017-03-15T10:42:13.000Z</time>
      </trkpt>
      <trkpt lat="44.37232" lon="4.5031">
        <ele>352.20001220703</ele>
        <time>2017-03-15T10:42:17.000Z</time>
      </trkpt>
      <trkpt lat="44.37233" lon="4.5031">
        <ele>352.39999389648</ele>
        <time>2017-03-15T10:42:23.000Z</time>
      </trkpt>
      <trkpt lat="44.37234" lon="4.50311">
        <ele>352.60000610352</ele>
        <time>2017-03-15T10:42:27.000Z</time>
      </trkpt>
      <trkpt lat="44.37239" lon="4.50313">
        <ele>352.60000610352</ele>
        <time>2017-03-15T10:42:30.000Z</time>
      </trkpt>
      <trkpt lat="44.37241" lon="4.50313">
        <ele>352.39999389648</ele>
        <time>2017-03-15T10:42:31.000Z</time>
      </trkpt>
      <trkpt lat="44.37255" lon="4.50317">
        <ele>352.79998779297</ele>
        <time>2017-03-15T10:42:37.000Z</time>
      </trkpt>
      <trkpt lat="44.37258" lon="4.50318">
        <ele>353</ele>
        <time>2017-03-15T10:42:38.000Z</time>
      </trkpt>
      <trkpt lat="44.37271" lon="4.50323">
        <ele>353.39999389648</ele>
        <time>2017-03-15T10:42:43.000Z</time>
      </trkpt>
      <trkpt lat="44.37292" lon="4.50329">
        <ele>353.79998779297</ele>
        <time>2017-03-15T10:42:49.000Z</time>
      </trkpt>
      <trkpt lat="44.37305" lon="4.50334">
        <ele>354.20001220703</ele>
        <time>2017-03-15T10:42:53.000Z</time>
      </trkpt>
      <trkpt lat="44.37315" lon="4.50337">
        <ele>354.20001220703</ele>
        <time>2017-03-15T10:42:56.000Z</time>
      </trkpt>
      <trkpt lat="44.37334" lon="4.50342">
        <ele>354.79998779297</ele>
        <time>2017-03-15T10:43:02.000Z</time>
      </trkpt>
      <trkpt lat="44.3735" lon="4.50348">
        <ele>355</ele>
        <time>2017-03-15T10:43:08.000Z</time>
      </trkpt>
      <trkpt lat="44.37353" lon="4.50349">
        <ele>355.20001220703</ele>
        <time>2017-03-15T10:43:10.000Z</time>
      </trkpt>
      <trkpt lat="44.37358" lon="4.50351">
        <ele>355.60000610352</ele>
        <time>2017-03-15T10:43:14.000Z</time>
      </trkpt>
      <trkpt lat="44.37365" lon="4.50353">
        <ele>356.20001220703</ele>
        <time>2017-03-15T10:43:19.000Z</time>
      </trkpt>
      <trkpt lat="44.37371" lon="4.50354">
        <ele>356.60000610352</ele>
        <time>2017-03-15T10:43:22.000Z</time>
      </trkpt>
      <trkpt lat="44.37381" lon="4.50357">
        <ele>357.39999389648</ele>
        <time>2017-03-15T10:43:26.000Z</time>
      </trkpt>
      <trkpt lat="44.37384" lon="4.50358">
        <ele>357.79998779297</ele>
        <time>2017-03-15T10:43:28.000Z</time>
      </trkpt>
      <trkpt lat="44.37391" lon="4.5036">
        <ele>358.39999389648</ele>
        <time>2017-03-15T10:43:32.000Z</time>
      </trkpt>
      <trkpt lat="44.37395" lon="4.50362">
        <ele>358.79998779297</ele>
        <time>2017-03-15T10:43:34.000Z</time>
      </trkpt>
      <trkpt lat="44.37401" lon="4.50364">
        <ele>359.39999389648</ele>
        <time>2017-03-15T10:43:38.000Z</time>
      </trkpt>
      <trkpt lat="44.37404" lon="4.50364">
        <ele>360</ele>
        <time>2017-03-15T10:43:40.000Z</time>
      </trkpt>
      <trkpt lat="44.37409" lon="4.50366">
        <ele>360.60000610352</ele>
        <time>2017-03-15T10:43:43.000Z</time>
      </trkpt>
      <trkpt lat="44.37414" lon="4.50368">
        <ele>361.20001220703</ele>
        <time>2017-03-15T10:43:46.000Z</time>
      </trkpt>
      <trkpt lat="44.37416" lon="4.50368">
        <ele>361.60000610352</ele>
        <time>2017-03-15T10:43:47.000Z</time>
      </trkpt>
      <trkpt lat="44.37423" lon="4.50372">
        <ele>362.39999389648</ele>
        <time>2017-03-15T10:43:53.000Z</time>
      </trkpt>
      <trkpt lat="44.37426" lon="4.50373">
        <ele>363</ele>
        <time>2017-03-15T10:43:55.000Z</time>
      </trkpt>
      <trkpt lat="44.37434" lon="4.50375">
        <ele>363.79998779297</ele>
        <time>2017-03-15T10:44:00.000Z</time>
      </trkpt>
      <trkpt lat="44.37436" lon="4.50375">
        <ele>364</ele>
        <time>2017-03-15T10:44:01.000Z</time>
      </trkpt>
      <trkpt lat="44.37441" lon="4.50377">
        <ele>364.60000610352</ele>
        <time>2017-03-15T10:44:05.000Z</time>
      </trkpt>
      <trkpt lat="44.37444" lon="4.50377">
        <ele>365</ele>
        <time>2017-03-15T10:44:07.000Z</time>
      </trkpt>
      <trkpt lat="44.37446" lon="4.50378">
        <ele>365.20001220703</ele>
        <time>2017-03-15T10:44:08.000Z</time>
      </trkpt>
      <trkpt lat="44.3745" lon="4.50378">
        <ele>365.60000610352</ele>
        <time>2017-03-15T10:44:11.000Z</time>
      </trkpt>
      <trkpt lat="44.37459" lon="4.50381">
        <ele>366.39999389648</ele>
        <time>2017-03-15T10:44:17.000Z</time>
      </trkpt>
      <trkpt lat="44.37471" lon="4.50384">
        <ele>367.39999389648</ele>
        <time>2017-03-15T10:44:23.000Z</time>
      </trkpt>
      <trkpt lat="44.37481" lon="4.50388">
        <ele>368.39999389648</ele>
        <time>2017-03-15T10:44:29.000Z</time>
      </trkpt>
      <trkpt lat="44.37483" lon="4.50389">
        <ele>368.60000610352</ele>
        <time>2017-03-15T10:44:30.000Z</time>
      </trkpt>
      <trkpt lat="44.37491" lon="4.50392">
        <ele>369.60000610352</ele>
        <time>2017-03-15T10:44:35.000Z</time>
      </trkpt>
      <trkpt lat="44.37492" lon="4.50393">
        <ele>369.60000610352</ele>
        <time>2017-03-15T10:44:36.000Z</time>
      </trkpt>
      <trkpt lat="44.37498" lon="4.50397">
        <ele>369.79998779297</ele>
        <time>2017-03-15T10:44:41.000Z</time>
      </trkpt>
      <trkpt lat="44.37511" lon="4.50406">
        <ele>370.39999389648</ele>
        <time>2017-03-15T10:44:48.000Z</time>
      </trkpt>
      <trkpt lat="44.37516" lon="4.50408">
        <ele>370.79998779297</ele>
        <time>2017-03-15T10:44:50.000Z</time>
      </trkpt>
      <trkpt lat="44.37523" lon="4.50413">
        <ele>372</ele>
        <time>2017-03-15T10:44:54.000Z</time>
      </trkpt>
      <trkpt lat="44.37533" lon="4.50419">
        <ele>373</ele>
        <time>2017-03-15T10:44:59.000Z</time>
      </trkpt>
      <trkpt lat="44.37535" lon="4.5042">
        <ele>373</ele>
        <time>2017-03-15T10:45:00.000Z</time>
      </trkpt>
      <trkpt lat="44.37551" lon="4.50429">
        <ele>373</ele>
        <time>2017-03-15T10:45:08.000Z</time>
      </trkpt>
      <trkpt lat="44.37563" lon="4.50439">
        <ele>373.60000610352</ele>
        <time>2017-03-15T10:45:14.000Z</time>
      </trkpt>
      <trkpt lat="44.37567" lon="4.50442">
        <ele>374.39999389648</ele>
        <time>2017-03-15T10:45:16.000Z</time>
      </trkpt>
      <trkpt lat="44.37575" lon="4.50445">
        <ele>374.79998779297</ele>
        <time>2017-03-15T10:45:20.000Z</time>
      </trkpt>
      <trkpt lat="44.37583" lon="4.50445">
        <ele>375</ele>
        <time>2017-03-15T10:45:25.000Z</time>
      </trkpt>
      <trkpt lat="44.37587" lon="4.50445">
        <ele>375.60000610352</ele>
        <time>2017-03-15T10:45:28.000Z</time>
      </trkpt>
      <trkpt lat="44.37594" lon="4.50444">
        <ele>376.39999389648</ele>
        <time>2017-03-15T10:45:31.000Z</time>
      </trkpt>
      <trkpt lat="44.37595" lon="4.50444">
        <ele>376.60000610352</ele>
        <time>2017-03-15T10:45:32.000Z</time>
      </trkpt>
      <trkpt lat="44.37604" lon="4.50442">
        <ele>377.20001220703</ele>
        <time>2017-03-15T10:45:36.000Z</time>
      </trkpt>
      <trkpt lat="44.3761" lon="4.50442">
        <ele>377.60000610352</ele>
        <time>2017-03-15T10:45:39.000Z</time>
      </trkpt>
      <trkpt lat="44.37615" lon="4.50441">
        <ele>378</ele>
        <time>2017-03-15T10:45:42.000Z</time>
      </trkpt>
      <trkpt lat="44.37616" lon="4.50441">
        <ele>378.20001220703</ele>
        <time>2017-03-15T10:45:43.000Z</time>
      </trkpt>
      <trkpt lat="44.37618" lon="4.50441">
        <ele>378.79998779297</ele>
        <time>2017-03-15T10:45:44.000Z</time>
      </trkpt>
      <trkpt lat="44.37628" lon="4.50439">
        <ele>379.79998779297</ele>
        <time>2017-03-15T10:45:51.000Z</time>
      </trkpt>
      <trkpt lat="44.37635" lon="4.50438">
        <ele>380.79998779297</ele>
        <time>2017-03-15T10:45:56.000Z</time>
      </trkpt>
      <trkpt lat="44.37636" lon="4.50438">
        <ele>380.79998779297</ele>
        <time>2017-03-15T10:45:57.000Z</time>
      </trkpt>
      <trkpt lat="44.37645" lon="4.50438">
        <ele>381.60000610352</ele>
        <time>2017-03-15T10:46:03.000Z</time>
      </trkpt>
      <trkpt lat="44.37647" lon="4.50438">
        <ele>381.79998779297</ele>
        <time>2017-03-15T10:46:05.000Z</time>
      </trkpt>
      <trkpt lat="44.37655" lon="4.50437">
        <ele>382</ele>
        <time>2017-03-15T10:46:10.000Z</time>
      </trkpt>
      <trkpt lat="44.37663" lon="4.50437">
        <ele>382.39999389648</ele>
        <time>2017-03-15T10:46:14.000Z</time>
      </trkpt>
      <trkpt lat="44.37668" lon="4.50438">
        <ele>382.79998779297</ele>
        <time>2017-03-15T10:46:17.000Z</time>
      </trkpt>
      <trkpt lat="44.3767" lon="4.50437">
        <ele>383</ele>
        <time>2017-03-15T10:46:18.000Z</time>
      </trkpt>
      <trkpt lat="44.37677" lon="4.50438">
        <ele>383.79998779297</ele>
        <time>2017-03-15T10:46:23.000Z</time>
      </trkpt>
      <trkpt lat="44.37686" lon="4.50444">
        <ele>383.79998779297</ele>
        <time>2017-03-15T10:46:29.000Z</time>
      </trkpt>
      <trkpt lat="44.37688" lon="4.50445">
        <ele>384.20001220703</ele>
        <time>2017-03-15T10:46:30.000Z</time>
      </trkpt>
      <trkpt lat="44.37694" lon="4.50449">
        <ele>385.20001220703</ele>
        <time>2017-03-15T10:46:35.000Z</time>
      </trkpt>
      <trkpt lat="44.37695" lon="4.50451">
        <ele>385.20001220703</ele>
        <time>2017-03-15T10:46:36.000Z</time>
      </trkpt>
      <trkpt lat="44.37703" lon="4.50455">
        <ele>386.39999389648</ele>
        <time>2017-03-15T10:46:41.000Z</time>
      </trkpt>
      <trkpt lat="44.37705" lon="4.50455">
        <ele>386.20001220703</ele>
        <time>2017-03-15T10:46:42.000Z</time>
      </trkpt>
      <trkpt lat="44.37707" lon="4.50454">
        <ele>386.39999389648</ele>
        <time>2017-03-15T10:46:43.000Z</time>
      </trkpt>
      <trkpt lat="44.37716" lon="4.50448">
        <ele>386.39999389648</ele>
        <time>2017-03-15T10:46:48.000Z</time>
      </trkpt>
      <trkpt lat="44.37723" lon="4.50439">
        <ele>386.79998779297</ele>
        <time>2017-03-15T10:46:53.000Z</time>
      </trkpt>
      <trkpt lat="44.37729" lon="4.50432">
        <ele>387.39999389648</ele>
        <time>2017-03-15T10:46:58.000Z</time>
      </trkpt>
      <trkpt lat="44.37732" lon="4.50429">
        <ele>387.79998779297</ele>
        <time>2017-03-15T10:47:00.000Z</time>
      </trkpt>
      <trkpt lat="44.37739" lon="4.50424">
        <ele>388.39999389648</ele>
        <time>2017-03-15T10:47:05.000Z</time>
      </trkpt>
      <trkpt lat="44.37746" lon="4.50414">
        <ele>389.39999389648</ele>
        <time>2017-03-15T10:47:11.000Z</time>
      </trkpt>
      <trkpt lat="44.37748" lon="4.50412">
        <ele>389.60000610352</ele>
        <time>2017-03-15T10:47:12.000Z</time>
      </trkpt>
      <trkpt lat="44.37752" lon="4.50404">
        <ele>390.39999389648</ele>
        <time>2017-03-15T10:47:17.000Z</time>
      </trkpt>
      <trkpt lat="44.37754" lon="4.50403">
        <ele>390.39999389648</ele>
        <time>2017-03-15T10:47:18.000Z</time>
      </trkpt>
      <trkpt lat="44.37756" lon="4.504">
        <ele>390.60000610352</ele>
        <time>2017-03-15T10:47:20.000Z</time>
      </trkpt>
      <trkpt lat="44.37761" lon="4.50393">
        <ele>391.39999389648</ele>
        <time>2017-03-15T10:47:25.000Z</time>
      </trkpt>
      <trkpt lat="44.37763" lon="4.50388">
        <ele>391.79998779297</ele>
        <time>2017-03-15T10:47:28.000Z</time>
      </trkpt>
      <trkpt lat="44.37767" lon="4.50381">
        <ele>392</ele>
        <time>2017-03-15T10:47:32.000Z</time>
      </trkpt>
      <trkpt lat="44.37772" lon="4.50373">
        <ele>392.60000610352</ele>
        <time>2017-03-15T10:47:37.000Z</time>
      </trkpt>
      <trkpt lat="44.37773" lon="4.5037">
        <ele>393</ele>
        <time>2017-03-15T10:47:39.000Z</time>
      </trkpt>
      <trkpt lat="44.37775" lon="4.50368">
        <ele>393</ele>
        <time>2017-03-15T10:47:40.000Z</time>
      </trkpt>
      <trkpt lat="44.37778" lon="4.50364">
        <ele>393.39999389648</ele>
        <time>2017-03-15T10:47:43.000Z</time>
      </trkpt>
      <trkpt lat="44.37779" lon="4.50363">
        <ele>393.60000610352</ele>
        <time>2017-03-15T10:47:44.000Z</time>
      </trkpt>
      <trkpt lat="44.37787" lon="4.50361">
        <ele>394.20001220703</ele>
        <time>2017-03-15T10:47:49.000Z</time>
      </trkpt>
      <trkpt lat="44.37789" lon="4.50361">
        <ele>394.60000610352</ele>
        <time>2017-03-15T10:47:54.000Z</time>
      </trkpt>
      <trkpt lat="44.37789" lon="4.50361">
        <ele>394.60000610352</ele>
        <time>2017-03-15T10:48:00.000Z</time>
      </trkpt>
      <trkpt lat="44.37789" lon="4.50361">
        <ele>394.60000610352</ele>
        <time>2017-03-15T10:48:16.000Z</time>
      </trkpt>
      <trkpt lat="44.37789" lon="4.50361">
        <ele>394.60000610352</ele>
        <time>2017-03-15T10:48:33.000Z</time>
      </trkpt>
      <trkpt lat="44.37789" lon="4.50361">
        <ele>394.60000610352</ele>
        <time>2017-03-15T10:48:46.000Z</time>
      </trkpt>
      <trkpt lat="44.37789" lon="4.50361">
        <ele>394.60000610352</ele>
        <time>2017-03-15T10:48:58.000Z</time>
      </trkpt>
      <trkpt lat="44.37789" lon="4.50361">
        <ele>394.60000610352</ele>
        <time>2017-03-15T10:49:09.000Z</time>
      </trkpt>
      <trkpt lat="44.37789" lon="4.50361">
        <ele>394.39999389648</ele>
        <time>2017-03-15T10:49:19.000Z</time>
      </trkpt>
      <trkpt lat="44.37789" lon="4.50361">
        <ele>394.79998779297</ele>
        <time>2017-03-15T10:49:33.000Z</time>
      </trkpt>
      <trkpt lat="44.37789" lon="4.50361">
        <ele>394.60000610352</ele>
        <time>2017-03-15T10:49:49.000Z</time>
      </trkpt>
      <trkpt lat="44.3779" lon="4.50361">
        <ele>395</ele>
        <time>2017-03-15T10:50:02.000Z</time>
      </trkpt>
      <trkpt lat="44.3779" lon="4.50361">
        <ele>394.79998779297</ele>
        <time>2017-03-15T10:50:20.000Z</time>
      </trkpt>
      <trkpt lat="44.3779" lon="4.50361">
        <ele>394.79998779297</ele>
        <time>2017-03-15T10:50:35.000Z</time>
      </trkpt>
      <trkpt lat="44.3779" lon="4.50361">
        <ele>395.20001220703</ele>
        <time>2017-03-15T10:50:43.000Z</time>
      </trkpt>
      <trkpt lat="44.3779" lon="4.50361">
        <ele>395</ele>
        <time>2017-03-15T10:50:47.000Z</time>
      </trkpt>
      <trkpt lat="44.3779" lon="4.50361">
        <ele>395</ele>
        <time>2017-03-15T10:51:03.000Z</time>
      </trkpt>
      <trkpt lat="44.3779" lon="4.5036">
        <ele>395.39999389648</ele>
        <time>2017-03-15T10:51:17.000Z</time>
      </trkpt>
      <trkpt lat="44.3779" lon="4.5036">
        <ele>395.20001220703</ele>
        <time>2017-03-15T10:51:32.000Z</time>
      </trkpt>
      <trkpt lat="44.3779" lon="4.5036">
        <ele>395.20001220703</ele>
        <time>2017-03-15T10:51:46.000Z</time>
      </trkpt>
      <trkpt lat="44.3779" lon="4.5036">
        <ele>395.39999389648</ele>
        <time>2017-03-15T10:51:58.000Z</time>
      </trkpt>
      <trkpt lat="44.3779" lon="4.5036">
        <ele>395.39999389648</ele>
        <time>2017-03-15T10:52:14.000Z</time>
      </trkpt>
      <trkpt lat="44.3779" lon="4.5036">
        <ele>395.60000610352</ele>
        <time>2017-03-15T10:52:26.000Z</time>
      </trkpt>
      <trkpt lat="44.3779" lon="4.5036">
        <ele>395.39999389648</ele>
        <time>2017-03-15T10:52:34.000Z</time>
      </trkpt>
      <trkpt lat="44.3779" lon="4.5036">
        <ele>395.20001220703</ele>
        <time>2017-03-15T10:52:46.000Z</time>
      </trkpt>
      <trkpt lat="44.3779" lon="4.5036">
        <ele>394.79998779297</ele>
        <time>2017-03-15T10:52:54.000Z</time>
      </trkpt>
      <trkpt lat="44.3779" lon="4.5036">
        <ele>395.20001220703</ele>
        <time>2017-03-15T10:52:57.000Z</time>
      </trkpt>
      <trkpt lat="44.3779" lon="4.5036">
        <ele>395.20001220703</ele>
        <time>2017-03-15T10:53:06.000Z</time>
      </trkpt>
      <trkpt lat="44.3779" lon="4.5036">
        <ele>395.39999389648</ele>
        <time>2017-03-15T10:53:19.000Z</time>
      </trkpt>
      <trkpt lat="44.3779" lon="4.5036">
        <ele>395.20001220703</ele>
        <time>2017-03-15T10:53:30.000Z</time>
      </trkpt>
      <trkpt lat="44.3779" lon="4.5036">
        <ele>395.39999389648</ele>
        <time>2017-03-15T10:53:41.000Z</time>
      </trkpt>
      <trkpt lat="44.3779" lon="4.5036">
        <ele>395.20001220703</ele>
        <time>2017-03-15T10:53:50.000Z</time>
      </trkpt>
      <trkpt lat="44.3779" lon="4.5036">
        <ele>395.20001220703</ele>
        <time>2017-03-15T10:53:51.000Z</time>
      </trkpt>
      <trkpt lat="44.3779" lon="4.5036">
        <ele>395.39999389648</ele>
        <time>2017-03-15T10:54:03.000Z</time>
      </trkpt>
      <trkpt lat="44.3779" lon="4.5036">
        <ele>395.60000610352</ele>
        <time>2017-03-15T10:54:13.000Z</time>
      </trkpt>
      <trkpt lat="44.3779" lon="4.5036">
        <ele>395.39999389648</ele>
        <time>2017-03-15T10:54:24.000Z</time>
      </trkpt>
      <trkpt lat="44.37791" lon="4.5036">
        <ele>395.60000610352</ele>
        <time>2017-03-15T10:54:33.000Z</time>
      </trkpt>
      <trkpt lat="44.37791" lon="4.5036">
        <ele>395.79998779297</ele>
        <time>2017-03-15T10:54:38.000Z</time>
      </trkpt>
      <trkpt lat="44.37791" lon="4.5036">
        <ele>395.79998779297</ele>
        <time>2017-03-15T10:54:43.000Z</time>
      </trkpt>
      <trkpt lat="44.37791" lon="4.5036">
        <ele>395.79998779297</ele>
        <time>2017-03-15T10:54:53.000Z</time>
      </trkpt>
      <trkpt lat="44.37791" lon="4.5036">
        <ele>396.39999389648</ele>
        <time>2017-03-15T10:54:57.000Z</time>
      </trkpt>
      <trkpt lat="44.37791" lon="4.5036">
        <ele>397</ele>
        <time>2017-03-15T10:55:06.000Z</time>
      </trkpt>
      <trkpt lat="44.3779" lon="4.50361">
        <ele>394.79998779297</ele>
        <time>2017-03-15T10:55:19.000Z</time>
      </trkpt>
      <trkpt lat="44.3779" lon="4.50361">
        <ele>396</ele>
        <time>2017-03-15T10:55:25.000Z</time>
      </trkpt>
      <trkpt lat="44.3779" lon="4.50361">
        <ele>393.20001220703</ele>
        <time>2017-03-15T10:55:29.000Z</time>
      </trkpt>
      <trkpt lat="44.3779" lon="4.50361">
        <ele>397</ele>
        <time>2017-03-15T10:55:30.000Z</time>
      </trkpt>
      <trkpt lat="44.3779" lon="4.50361">
        <ele>395.20001220703</ele>
        <time>2017-03-15T10:55:31.000Z</time>
      </trkpt>
      <trkpt lat="44.3779" lon="4.50361">
        <ele>392.79998779297</ele>
        <time>2017-03-15T10:55:32.000Z</time>
      </trkpt>
      <trkpt lat="44.3779" lon="4.50361">
        <ele>394.39999389648</ele>
        <time>2017-03-15T10:55:33.000Z</time>
      </trkpt>
      <trkpt lat="44.3779" lon="4.50361">
        <ele>396.60000610352</ele>
        <time>2017-03-15T10:55:34.000Z</time>
      </trkpt>
      <trkpt lat="44.3779" lon="4.50361">
        <ele>401.60000610352</ele>
        <time>2017-03-15T10:55:35.000Z</time>
      </trkpt>
      <trkpt lat="44.3779" lon="4.50361">
        <ele>396.20001220703</ele>
        <time>2017-03-15T10:55:36.000Z</time>
      </trkpt>
      <trkpt lat="44.3779" lon="4.50361">
        <ele>395.39999389648</ele>
        <time>2017-03-15T10:55:44.000Z</time>
      </trkpt>
      <trkpt lat="44.37791" lon="4.5036">
        <ele>393.20001220703</ele>
        <time>2017-03-15T10:55:52.000Z</time>
      </trkpt>
      <trkpt lat="44.37791" lon="4.5036">
        <ele>394.39999389648</ele>
        <time>2017-03-15T10:55:53.000Z</time>
      </trkpt>
      <trkpt lat="44.37791" lon="4.5036">
        <ele>397.20001220703</ele>
        <time>2017-03-15T10:55:55.000Z</time>
      </trkpt>
      <trkpt lat="44.37791" lon="4.5036">
        <ele>396</ele>
        <time>2017-03-15T10:55:56.000Z</time>
      </trkpt>
      <trkpt lat="44.37791" lon="4.5036">
        <ele>395.60000610352</ele>
        <time>2017-03-15T10:55:58.000Z</time>
      </trkpt>
      <trkpt lat="44.37791" lon="4.5036">
        <ele>395.60000610352</ele>
        <time>2017-03-15T10:56:07.000Z</time>
      </trkpt>
      <trkpt lat="44.37791" lon="4.5036">
        <ele>395.60000610352</ele>
        <time>2017-03-15T10:56:14.000Z</time>
      </trkpt>
      <trkpt lat="44.37791" lon="4.5036">
        <ele>395.20001220703</ele>
        <time>2017-03-15T10:56:28.000Z</time>
      </trkpt>
      <trkpt lat="44.37791" lon="4.50361">
        <ele>393.20001220703</ele>
        <time>2017-03-15T10:56:33.000Z</time>
      </trkpt>
      <trkpt lat="44.37791" lon="4.50361">
        <ele>396.20001220703</ele>
        <time>2017-03-15T10:56:34.000Z</time>
      </trkpt>
      <trkpt lat="44.37791" lon="4.50361">
        <ele>394.79998779297</ele>
        <time>2017-03-15T10:56:37.000Z</time>
      </trkpt>
      <trkpt lat="44.37791" lon="4.50361">
        <ele>392.39999389648</ele>
        <time>2017-03-15T10:56:38.000Z</time>
      </trkpt>
      <trkpt lat="44.37791" lon="4.50361">
        <ele>395</ele>
        <time>2017-03-15T10:56:39.000Z</time>
      </trkpt>
      <trkpt lat="44.37791" lon="4.50361">
        <ele>396.39999389648</ele>
        <time>2017-03-15T10:56:41.000Z</time>
      </trkpt>
      <trkpt lat="44.37791" lon="4.50361">
        <ele>395.39999389648</ele>
        <time>2017-03-15T10:56:42.000Z</time>
      </trkpt>
      <trkpt lat="44.37791" lon="4.50361">
        <ele>395.60000610352</ele>
        <time>2017-03-15T10:56:43.000Z</time>
      </trkpt>
      <trkpt lat="44.37791" lon="4.50361">
        <ele>395</ele>
        <time>2017-03-15T10:56:57.000Z</time>
      </trkpt>
      <trkpt lat="44.37791" lon="4.50361">
        <ele>395</ele>
        <time>2017-03-15T10:57:10.000Z</time>
      </trkpt>
      <trkpt lat="44.37792" lon="4.50359">
        <ele>395.39999389648</ele>
        <time>2017-03-15T10:57:20.000Z</time>
      </trkpt>
      <trkpt lat="44.37792" lon="4.50359">
        <ele>395.79998779297</ele>
        <time>2017-03-15T10:57:26.000Z</time>
      </trkpt>
      <trkpt lat="44.37793" lon="4.50358">
        <ele>396</ele>
        <time>2017-03-15T10:57:27.000Z</time>
      </trkpt>
      <trkpt lat="44.378" lon="4.50355">
        <ele>396.20001220703</ele>
        <time>2017-03-15T10:57:33.000Z</time>
      </trkpt>
      <trkpt lat="44.37803" lon="4.50352">
        <ele>396.39999389648</ele>
        <time>2017-03-15T10:57:35.000Z</time>
      </trkpt>
      <trkpt lat="44.3781" lon="4.50346">
        <ele>397.39999389648</ele>
        <time>2017-03-15T10:57:39.000Z</time>
      </trkpt>
      <trkpt lat="44.37812" lon="4.50344">
        <ele>397.60000610352</ele>
        <time>2017-03-15T10:57:40.000Z</time>
      </trkpt>
      <trkpt lat="44.37819" lon="4.5034">
        <ele>398.39999389648</ele>
        <time>2017-03-15T10:57:44.000Z</time>
      </trkpt>
      <trkpt lat="44.3782" lon="4.5034">
        <ele>398.79998779297</ele>
        <time>2017-03-15T10:57:45.000Z</time>
      </trkpt>
      <trkpt lat="44.37829" lon="4.50337">
        <ele>399</ele>
        <time>2017-03-15T10:57:49.000Z</time>
      </trkpt>
      <trkpt lat="44.37841" lon="4.50335">
        <ele>399.39999389648</ele>
        <time>2017-03-15T10:57:55.000Z</time>
      </trkpt>
      <trkpt lat="44.37846" lon="4.5033">
        <ele>400.20001220703</ele>
        <time>2017-03-15T10:57:58.000Z</time>
      </trkpt>
      <trkpt lat="44.37849" lon="4.50331">
        <ele>400.79998779297</ele>
        <time>2017-03-15T10:58:00.000Z</time>
      </trkpt>
      <trkpt lat="44.37857" lon="4.5034">
        <ele>401.20001220703</ele>
        <time>2017-03-15T10:58:06.000Z</time>
      </trkpt>
      <trkpt lat="44.37866" lon="4.50352">
        <ele>402</ele>
        <time>2017-03-15T10:58:12.000Z</time>
      </trkpt>
      <trkpt lat="44.3787" lon="4.50358">
        <ele>402.39999389648</ele>
        <time>2017-03-15T10:58:15.000Z</time>
      </trkpt>
      <trkpt lat="44.37871" lon="4.50361">
        <ele>402.39999389648</ele>
        <time>2017-03-15T10:58:16.000Z</time>
      </trkpt>
      <trkpt lat="44.37872" lon="4.50363">
        <ele>402.60000610352</ele>
        <time>2017-03-15T10:58:17.000Z</time>
      </trkpt>
      <trkpt lat="44.37875" lon="4.50366">
        <ele>403</ele>
        <time>2017-03-15T10:58:19.000Z</time>
      </trkpt>
      <trkpt lat="44.37879" lon="4.50368">
        <ele>403.20001220703</ele>
        <time>2017-03-15T10:58:21.000Z</time>
      </trkpt>
      <trkpt lat="44.3788" lon="4.5037">
        <ele>403.39999389648</ele>
        <time>2017-03-15T10:58:22.000Z</time>
      </trkpt>
      <trkpt lat="44.37882" lon="4.50371">
        <ele>403.39999389648</ele>
        <time>2017-03-15T10:58:23.000Z</time>
      </trkpt>
      <trkpt lat="44.37888" lon="4.5038">
        <ele>403.79998779297</ele>
        <time>2017-03-15T10:58:28.000Z</time>
      </trkpt>
      <trkpt lat="44.37893" lon="4.50383">
        <ele>404.39999389648</ele>
        <time>2017-03-15T10:58:31.000Z</time>
      </trkpt>
      <trkpt lat="44.37896" lon="4.50382">
        <ele>404.79998779297</ele>
        <time>2017-03-15T10:58:32.000Z</time>
      </trkpt>
      <trkpt lat="44.37901" lon="4.50382">
        <ele>405</ele>
        <time>2017-03-15T10:58:34.000Z</time>
      </trkpt>
      <trkpt lat="44.37915" lon="4.50383">
        <ele>404.39999389648</ele>
        <time>2017-03-15T10:58:40.000Z</time>
      </trkpt>
      <trkpt lat="44.37923" lon="4.50385">
        <ele>403.79998779297</ele>
        <time>2017-03-15T10:58:43.000Z</time>
      </trkpt>
      <trkpt lat="44.37928" lon="4.50385">
        <ele>403.60000610352</ele>
        <time>2017-03-15T10:58:45.000Z</time>
      </trkpt>
      <trkpt lat="44.37934" lon="4.50385">
        <ele>402.79998779297</ele>
        <time>2017-03-15T10:58:47.000Z</time>
      </trkpt>
      <trkpt lat="44.37941" lon="4.50388">
        <ele>402.39999389648</ele>
        <time>2017-03-15T10:58:49.000Z</time>
      </trkpt>
      <trkpt lat="44.37957" lon="4.50399">
        <ele>401.79998779297</ele>
        <time>2017-03-15T10:58:54.000Z</time>
      </trkpt>
      <trkpt lat="44.37972" lon="4.50406">
        <ele>401.20001220703</ele>
        <time>2017-03-15T10:58:58.000Z</time>
      </trkpt>
      <trkpt lat="44.37979" lon="4.50411">
        <ele>400.79998779297</ele>
        <time>2017-03-15T10:59:00.000Z</time>
      </trkpt>
      <trkpt lat="44.37986" lon="4.50418">
        <ele>400.79998779297</ele>
        <time>2017-03-15T10:59:02.000Z</time>
      </trkpt>
      <trkpt lat="44.3799" lon="4.50419">
        <ele>400</ele>
        <time>2017-03-15T10:59:03.000Z</time>
      </trkpt>
      <trkpt lat="44.37999" lon="4.50422">
        <ele>398.79998779297</ele>
        <time>2017-03-15T10:59:05.000Z</time>
      </trkpt>
      <trkpt lat="44.38017" lon="4.5043">
        <ele>398.39999389648</ele>
        <time>2017-03-15T10:59:11.000Z</time>
      </trkpt>
      <trkpt lat="44.38018" lon="4.5043">
        <ele>397.79998779297</ele>
        <time>2017-03-15T10:59:12.000Z</time>
      </trkpt>
      <trkpt lat="44.3802" lon="4.5043">
        <ele>397.60000610352</ele>
        <time>2017-03-15T10:59:13.000Z</time>
      </trkpt>
      <trkpt lat="44.38025" lon="4.50428">
        <ele>397.79998779297</ele>
        <time>2017-03-15T10:59:16.000Z</time>
      </trkpt>
      <trkpt lat="44.38029" lon="4.50425">
        <ele>397.79998779297</ele>
        <time>2017-03-15T10:59:18.000Z</time>
      </trkpt>
      <trkpt lat="44.38033" lon="4.5042">
        <ele>397.60000610352</ele>
        <time>2017-03-15T10:59:21.000Z</time>
      </trkpt>
      <trkpt lat="44.3804" lon="4.50413">
        <ele>397.39999389648</ele>
        <time>2017-03-15T10:59:27.000Z</time>
      </trkpt>
      <trkpt lat="44.38045" lon="4.50409">
        <ele>398.20001220703</ele>
        <time>2017-03-15T10:59:33.000Z</time>
      </trkpt>
      <trkpt lat="44.38045" lon="4.50409">
        <ele>398</ele>
        <time>2017-03-15T10:59:46.000Z</time>
      </trkpt>
      <trkpt lat="44.38045" lon="4.50409">
        <ele>397.60000610352</ele>
        <time>2017-03-15T11:00:04.000Z</time>
      </trkpt>
      <trkpt lat="44.38046" lon="4.50409">
        <ele>398</ele>
        <time>2017-03-15T11:00:23.000Z</time>
      </trkpt>
      <trkpt lat="44.38046" lon="4.50409">
        <ele>397.79998779297</ele>
        <time>2017-03-15T11:00:40.000Z</time>
      </trkpt>
      <trkpt lat="44.38046" lon="4.50409">
        <ele>397.79998779297</ele>
        <time>2017-03-15T11:00:48.000Z</time>
      </trkpt>
      <trkpt lat="44.38046" lon="4.50409">
        <ele>397.79998779297</ele>
        <time>2017-03-15T11:00:52.000Z</time>
      </trkpt>
      <trkpt lat="44.38046" lon="4.50408">
        <ele>397.79998779297</ele>
        <time>2017-03-15T11:01:00.000Z</time>
      </trkpt>
      <trkpt lat="44.38053" lon="4.50402">
        <ele>397.60000610352</ele>
        <time>2017-03-15T11:01:05.000Z</time>
      </trkpt>
      <trkpt lat="44.38062" lon="4.50388">
        <ele>398.39999389648</ele>
        <time>2017-03-15T11:01:11.000Z</time>
      </trkpt>
      <trkpt lat="44.38065" lon="4.50384">
        <ele>399</ele>
        <time>2017-03-15T11:01:13.000Z</time>
      </trkpt>
      <trkpt lat="44.38074" lon="4.50371">
        <ele>399.79998779297</ele>
        <time>2017-03-15T11:01:19.000Z</time>
      </trkpt>
      <trkpt lat="44.38078" lon="4.50367">
        <ele>400.20001220703</ele>
        <time>2017-03-15T11:01:21.000Z</time>
      </trkpt>
      <trkpt lat="44.38083" lon="4.50361">
        <ele>400.60000610352</ele>
        <time>2017-03-15T11:01:24.000Z</time>
      </trkpt>
      <trkpt lat="44.38089" lon="4.50355">
        <ele>401.20001220703</ele>
        <time>2017-03-15T11:01:28.000Z</time>
      </trkpt>
      <trkpt lat="44.38095" lon="4.50348">
        <ele>402</ele>
        <time>2017-03-15T11:01:32.000Z</time>
      </trkpt>
      <trkpt lat="44.38096" lon="4.50346">
        <ele>402.20001220703</ele>
        <time>2017-03-15T11:01:33.000Z</time>
      </trkpt>
      <trkpt lat="44.38104" lon="4.50341">
        <ele>402.79998779297</ele>
        <time>2017-03-15T11:01:38.000Z</time>
      </trkpt>
      <trkpt lat="44.38108" lon="4.50342">
        <ele>403.39999389648</ele>
        <time>2017-03-15T11:01:41.000Z</time>
      </trkpt>
      <trkpt lat="44.38113" lon="4.50341">
        <ele>403.60000610352</ele>
        <time>2017-03-15T11:01:44.000Z</time>
      </trkpt>
      <trkpt lat="44.38122" lon="4.50342">
        <ele>404.60000610352</ele>
        <time>2017-03-15T11:01:50.000Z</time>
      </trkpt>
      <trkpt lat="44.38126" lon="4.50342">
        <ele>404.79998779297</ele>
        <time>2017-03-15T11:01:52.000Z</time>
      </trkpt>
      <trkpt lat="44.38131" lon="4.50342">
        <ele>405.79998779297</ele>
        <time>2017-03-15T11:01:55.000Z</time>
      </trkpt>
      <trkpt lat="44.38133" lon="4.50342">
        <ele>406</ele>
        <time>2017-03-15T11:01:56.000Z</time>
      </trkpt>
      <trkpt lat="44.38134" lon="4.50343">
        <ele>406.20001220703</ele>
        <time>2017-03-15T11:01:57.000Z</time>
      </trkpt>
      <trkpt lat="44.38141" lon="4.50347">
        <ele>406.79998779297</ele>
        <time>2017-03-15T11:02:01.000Z</time>
      </trkpt>
      <trkpt lat="44.38145" lon="4.50349">
        <ele>407</ele>
        <time>2017-03-15T11:02:04.000Z</time>
      </trkpt>
      <trkpt lat="44.38156" lon="4.5035">
        <ele>408</ele>
        <time>2017-03-15T11:02:10.000Z</time>
      </trkpt>
      <trkpt lat="44.3816" lon="4.50351">
        <ele>408.39999389648</ele>
        <time>2017-03-15T11:02:12.000Z</time>
      </trkpt>
      <trkpt lat="44.38171" lon="4.50351">
        <ele>408.79998779297</ele>
        <time>2017-03-15T11:02:19.000Z</time>
      </trkpt>
      <trkpt lat="44.38177" lon="4.50351">
        <ele>409.20001220703</ele>
        <time>2017-03-15T11:02:22.000Z</time>
      </trkpt>
      <trkpt lat="44.38185" lon="4.50351">
        <ele>409.39999389648</ele>
        <time>2017-03-15T11:02:27.000Z</time>
      </trkpt>
      <trkpt lat="44.38195" lon="4.50352">
        <ele>410.39999389648</ele>
        <time>2017-03-15T11:02:33.000Z</time>
      </trkpt>
      <trkpt lat="44.38198" lon="4.50352">
        <ele>410.60000610352</ele>
        <time>2017-03-15T11:02:35.000Z</time>
      </trkpt>
      <trkpt lat="44.38211" lon="4.50354">
        <ele>411.60000610352</ele>
        <time>2017-03-15T11:02:42.000Z</time>
      </trkpt>
      <trkpt lat="44.38226" lon="4.50357">
        <ele>411.20001220703</ele>
        <time>2017-03-15T11:02:49.000Z</time>
      </trkpt>
      <trkpt lat="44.38239" lon="4.5036">
        <ele>413</ele>
        <time>2017-03-15T11:02:54.000Z</time>
      </trkpt>
      <trkpt lat="44.38252" lon="4.50361">
        <ele>413.39999389648</ele>
        <time>2017-03-15T11:02:59.000Z</time>
      </trkpt>
      <trkpt lat="44.38267" lon="4.50362">
        <ele>414.20001220703</ele>
        <time>2017-03-15T11:03:06.000Z</time>
      </trkpt>
      <trkpt lat="44.38277" lon="4.50363">
        <ele>414.39999389648</ele>
        <time>2017-03-15T11:03:11.000Z</time>
      </trkpt>
      <trkpt lat="44.38293" lon="4.50366">
        <ele>414.20001220703</ele>
        <time>2017-03-15T11:03:18.000Z</time>
      </trkpt>
      <trkpt lat="44.38297" lon="4.50366">
        <ele>414.39999389648</ele>
        <time>2017-03-15T11:03:20.000Z</time>
      </trkpt>
      <trkpt lat="44.38308" lon="4.50368">
        <ele>414.79998779297</ele>
        <time>2017-03-15T11:03:24.000Z</time>
      </trkpt>
      <trkpt lat="44.38324" lon="4.50371">
        <ele>415</ele>
        <time>2017-03-15T11:03:30.000Z</time>
      </trkpt>
      <trkpt lat="44.38336" lon="4.50374">
        <ele>415</ele>
        <time>2017-03-15T11:03:34.000Z</time>
      </trkpt>
      <trkpt lat="44.3834" lon="4.50375">
        <ele>415.39999389648</ele>
        <time>2017-03-15T11:03:35.000Z</time>
      </trkpt>
      <trkpt lat="44.38359" lon="4.50379">
        <ele>415.39999389648</ele>
        <time>2017-03-15T11:03:40.000Z</time>
      </trkpt>
      <trkpt lat="44.38363" lon="4.50379">
        <ele>415.39999389648</ele>
        <time>2017-03-15T11:03:41.000Z</time>
      </trkpt>
      <trkpt lat="44.38375" lon="4.5038">
        <ele>416</ele>
        <time>2017-03-15T11:03:44.000Z</time>
      </trkpt>
      <trkpt lat="44.38381" lon="4.50382">
        <ele>416.20001220703</ele>
        <time>2017-03-15T11:03:46.000Z</time>
      </trkpt>
      <trkpt lat="44.38384" lon="4.50383">
        <ele>416.60000610352</ele>
        <time>2017-03-15T11:03:47.000Z</time>
      </trkpt>
      <trkpt lat="44.38391" lon="4.50383">
        <ele>417.20001220703</ele>
        <time>2017-03-15T11:03:50.000Z</time>
      </trkpt>
      <trkpt lat="44.3841" lon="4.50386">
        <ele>417.20001220703</ele>
        <time>2017-03-15T11:03:57.000Z</time>
      </trkpt>
      <trkpt lat="44.38414" lon="4.50387">
        <ele>417.60000610352</ele>
        <time>2017-03-15T11:03:59.000Z</time>
      </trkpt>
      <trkpt lat="44.38421" lon="4.50387">
        <ele>417.39999389648</ele>
        <time>2017-03-15T11:04:02.000Z</time>
      </trkpt>
      <trkpt lat="44.38436" lon="4.5039">
        <ele>418.39999389648</ele>
        <time>2017-03-15T11:04:08.000Z</time>
      </trkpt>
      <trkpt lat="44.38454" lon="4.50393">
        <ele>417.79998779297</ele>
        <time>2017-03-15T11:04:15.000Z</time>
      </trkpt>
      <trkpt lat="44.38467" lon="4.50394">
        <ele>418.60000610352</ele>
        <time>2017-03-15T11:04:20.000Z</time>
      </trkpt>
      <trkpt lat="44.3847" lon="4.50394">
        <ele>418.60000610352</ele>
        <time>2017-03-15T11:04:21.000Z</time>
      </trkpt>
      <trkpt lat="44.3848" lon="4.50396">
        <ele>419</ele>
        <time>2017-03-15T11:04:25.000Z</time>
      </trkpt>
      <trkpt lat="44.38492" lon="4.50399">
        <ele>418.39999389648</ele>
        <time>2017-03-15T11:04:30.000Z</time>
      </trkpt>
      <trkpt lat="44.38513" lon="4.50403">
        <ele>418.20001220703</ele>
        <time>2017-03-15T11:04:37.000Z</time>
      </trkpt>
      <trkpt lat="44.38529" lon="4.50405">
        <ele>418.39999389648</ele>
        <time>2017-03-15T11:04:43.000Z</time>
      </trkpt>
      <trkpt lat="44.38548" lon="4.50409">
        <ele>419.20001220703</ele>
        <time>2017-03-15T11:04:50.000Z</time>
      </trkpt>
      <trkpt lat="44.3856" lon="4.50411">
        <ele>419.79998779297</ele>
        <time>2017-03-15T11:04:55.000Z</time>
      </trkpt>
      <trkpt lat="44.38563" lon="4.5041">
        <ele>419.79998779297</ele>
        <time>2017-03-15T11:04:56.000Z</time>
      </trkpt>
      <trkpt lat="44.3858" lon="4.50412">
        <ele>419.20001220703</ele>
        <time>2017-03-15T11:05:02.000Z</time>
      </trkpt>
      <trkpt lat="44.38597" lon="4.50416">
        <ele>418.79998779297</ele>
        <time>2017-03-15T11:05:08.000Z</time>
      </trkpt>
      <trkpt lat="44.386" lon="4.50417">
        <ele>418.79998779297</ele>
        <time>2017-03-15T11:05:09.000Z</time>
      </trkpt>
      <trkpt lat="44.38617" lon="4.50419">
        <ele>418.79998779297</ele>
        <time>2017-03-15T11:05:14.000Z</time>
      </trkpt>
      <trkpt lat="44.38642" lon="4.50424">
        <ele>418.39999389648</ele>
        <time>2017-03-15T11:05:20.000Z</time>
      </trkpt>
      <trkpt lat="44.38657" lon="4.5043">
        <ele>417.60000610352</ele>
        <time>2017-03-15T11:05:24.000Z</time>
      </trkpt>
      <trkpt lat="44.38663" lon="4.50436">
        <ele>417.60000610352</ele>
        <time>2017-03-15T11:05:26.000Z</time>
      </trkpt>
      <trkpt lat="44.38672" lon="4.50451">
        <ele>418.79998779297</ele>
        <time>2017-03-15T11:05:30.000Z</time>
      </trkpt>
      <trkpt lat="44.38674" lon="4.50454">
        <ele>418.79998779297</ele>
        <time>2017-03-15T11:05:31.000Z</time>
      </trkpt>
      <trkpt lat="44.38686" lon="4.50467">
        <ele>417.60000610352</ele>
        <time>2017-03-15T11:05:35.000Z</time>
      </trkpt>
      <trkpt lat="44.38693" lon="4.50474">
        <ele>417.60000610352</ele>
        <time>2017-03-15T11:05:37.000Z</time>
      </trkpt>
      <trkpt lat="44.3871" lon="4.50498">
        <ele>418.20001220703</ele>
        <time>2017-03-15T11:05:44.000Z</time>
      </trkpt>
      <trkpt lat="44.38713" lon="4.505">
        <ele>418.60000610352</ele>
        <time>2017-03-15T11:05:45.000Z</time>
      </trkpt>
      <trkpt lat="44.38723" lon="4.50514">
        <ele>418.79998779297</ele>
        <time>2017-03-15T11:05:50.000Z</time>
      </trkpt>
      <trkpt lat="44.38732" lon="4.50528">
        <ele>419</ele>
        <time>2017-03-15T11:05:56.000Z</time>
      </trkpt>
      <trkpt lat="44.38734" lon="4.50531">
        <ele>419.20001220703</ele>
        <time>2017-03-15T11:05:58.000Z</time>
      </trkpt>
      <trkpt lat="44.38734" lon="4.50531">
        <ele>418.79998779297</ele>
        <time>2017-03-15T11:06:01.000Z</time>
      </trkpt>
      <trkpt lat="44.38734" lon="4.50531">
        <ele>416</ele>
        <time>2017-03-15T11:06:12.000Z</time>
      </trkpt>
      <trkpt lat="44.38734" lon="4.50531">
        <ele>417.20001220703</ele>
        <time>2017-03-15T11:06:13.000Z</time>
      </trkpt>
      <trkpt lat="44.38734" lon="4.50531">
        <ele>415</ele>
        <time>2017-03-15T11:06:14.000Z</time>
      </trkpt>
      <trkpt lat="44.38734" lon="4.50531">
        <ele>419.39999389648</ele>
        <time>2017-03-15T11:06:15.000Z</time>
      </trkpt>
      <trkpt lat="44.38734" lon="4.50531">
        <ele>420.79998779297</ele>
        <time>2017-03-15T11:06:17.000Z</time>
      </trkpt>
      <trkpt lat="44.38734" lon="4.50531">
        <ele>418.79998779297</ele>
        <time>2017-03-15T11:06:18.000Z</time>
      </trkpt>
      <trkpt lat="44.38734" lon="4.50531">
        <ele>420</ele>
        <time>2017-03-15T11:06:27.000Z</time>
      </trkpt>
      <trkpt lat="44.38734" lon="4.50531">
        <ele>417.60000610352</ele>
        <time>2017-03-15T11:06:32.000Z</time>
      </trkpt>
      <trkpt lat="44.38734" lon="4.50531">
        <ele>419</ele>
        <time>2017-03-15T11:06:34.000Z</time>
      </trkpt>
      <trkpt lat="44.38734" lon="4.50531">
        <ele>419</ele>
        <time>2017-03-15T11:06:40.000Z</time>
      </trkpt>
      <trkpt lat="44.38734" lon="4.50531">
        <ele>418.79998779297</ele>
        <time>2017-03-15T11:06:53.000Z</time>
      </trkpt>
      <trkpt lat="44.38734" lon="4.50531">
        <ele>418.60000610352</ele>
        <time>2017-03-15T11:07:04.000Z</time>
      </trkpt>
      <trkpt lat="44.38734" lon="4.50531">
        <ele>418.79998779297</ele>
        <time>2017-03-15T11:07:17.000Z</time>
      </trkpt>
      <trkpt lat="44.38734" lon="4.50532">
        <ele>419</ele>
        <time>2017-03-15T11:07:31.000Z</time>
      </trkpt>
      <trkpt lat="44.38734" lon="4.50532">
        <ele>419.20001220703</ele>
        <time>2017-03-15T11:07:44.000Z</time>
      </trkpt>
      <trkpt lat="44.38734" lon="4.50532">
        <ele>418.79998779297</ele>
        <time>2017-03-15T11:07:56.000Z</time>
      </trkpt>
      <trkpt lat="44.38733" lon="4.50531">
        <ele>418.79998779297</ele>
        <time>2017-03-15T11:08:11.000Z</time>
      </trkpt>
      <trkpt lat="44.38733" lon="4.50531">
        <ele>419.20001220703</ele>
        <time>2017-03-15T11:08:24.000Z</time>
      </trkpt>
      <trkpt lat="44.38733" lon="4.50531">
        <ele>419</ele>
        <time>2017-03-15T11:08:36.000Z</time>
      </trkpt>
      <trkpt lat="44.38733" lon="4.50531">
        <ele>418.79998779297</ele>
        <time>2017-03-15T11:08:39.000Z</time>
      </trkpt>
      <trkpt lat="44.38733" lon="4.50531">
        <ele>418.60000610352</ele>
        <time>2017-03-15T11:08:46.000Z</time>
      </trkpt>
      <trkpt lat="44.38733" lon="4.50531">
        <ele>419</ele>
        <time>2017-03-15T11:09:00.000Z</time>
      </trkpt>
      <trkpt lat="44.38733" lon="4.50531">
        <ele>419</ele>
        <time>2017-03-15T11:09:12.000Z</time>
      </trkpt>
      <trkpt lat="44.38734" lon="4.50532">
        <ele>418.79998779297</ele>
        <time>2017-03-15T11:09:23.000Z</time>
      </trkpt>
      <trkpt lat="44.38734" lon="4.50532">
        <ele>419</ele>
        <time>2017-03-15T11:09:38.000Z</time>
      </trkpt>
      <trkpt lat="44.38734" lon="4.50532">
        <ele>419</ele>
        <time>2017-03-15T11:09:49.000Z</time>
      </trkpt>
      <trkpt lat="44.38734" lon="4.50532">
        <ele>419</ele>
        <time>2017-03-15T11:09:53.000Z</time>
      </trkpt>
      <trkpt lat="44.38733" lon="4.50532">
        <ele>419</ele>
        <time>2017-03-15T11:10:07.000Z</time>
      </trkpt>
      <trkpt lat="44.38733" lon="4.50532">
        <ele>418</ele>
        <time>2017-03-15T11:10:09.000Z</time>
      </trkpt>
      <trkpt lat="44.38733" lon="4.50532">
        <ele>419.60000610352</ele>
        <time>2017-03-15T11:10:11.000Z</time>
      </trkpt>
      <trkpt lat="44.38733" lon="4.50532">
        <ele>419</ele>
        <time>2017-03-15T11:10:23.000Z</time>
      </trkpt>
      <trkpt lat="44.38733" lon="4.50532">
        <ele>418.39999389648</ele>
        <time>2017-03-15T11:10:25.000Z</time>
      </trkpt>
      <trkpt lat="44.38733" lon="4.50532">
        <ele>419</ele>
        <time>2017-03-15T11:10:36.000Z</time>
      </trkpt>
      <trkpt lat="44.38734" lon="4.50532">
        <ele>419.20001220703</ele>
        <time>2017-03-15T11:10:54.000Z</time>
      </trkpt>
      <trkpt lat="44.38734" lon="4.50532">
        <ele>419.60000610352</ele>
        <time>2017-03-15T11:11:05.000Z</time>
      </trkpt>
      <trkpt lat="44.38734" lon="4.50532">
        <ele>419.60000610352</ele>
        <time>2017-03-15T11:11:07.000Z</time>
      </trkpt>
      <trkpt lat="44.38734" lon="4.50532">
        <ele>419.39999389648</ele>
        <time>2017-03-15T11:11:08.000Z</time>
      </trkpt>
      <trkpt lat="44.38734" lon="4.50532">
        <ele>419.20001220703</ele>
        <time>2017-03-15T11:11:18.000Z</time>
      </trkpt>
      <trkpt lat="44.38734" lon="4.50532">
        <ele>419.39999389648</ele>
        <time>2017-03-15T11:11:32.000Z</time>
      </trkpt>
      <trkpt lat="44.38734" lon="4.50532">
        <ele>419.60000610352</ele>
        <time>2017-03-15T11:11:45.000Z</time>
      </trkpt>
      <trkpt lat="44.38735" lon="4.50533">
        <ele>419.39999389648</ele>
        <time>2017-03-15T11:11:46.000Z</time>
      </trkpt>
      <trkpt lat="44.38739" lon="4.50539">
        <ele>419.39999389648</ele>
        <time>2017-03-15T11:11:49.000Z</time>
      </trkpt>
      <trkpt lat="44.38751" lon="4.50555">
        <ele>419.60000610352</ele>
        <time>2017-03-15T11:11:55.000Z</time>
      </trkpt>
      <trkpt lat="44.3877" lon="4.5058">
        <ele>419.60000610352</ele>
        <time>2017-03-15T11:12:03.000Z</time>
      </trkpt>
      <trkpt lat="44.38785" lon="4.50601">
        <ele>419.60000610352</ele>
        <time>2017-03-15T11:12:09.000Z</time>
      </trkpt>
      <trkpt lat="44.38802" lon="4.50627">
        <ele>419.20001220703</ele>
        <time>2017-03-15T11:12:16.000Z</time>
      </trkpt>
      <trkpt lat="44.38813" lon="4.50642">
        <ele>418.39999389648</ele>
        <time>2017-03-15T11:12:20.000Z</time>
      </trkpt>
      <trkpt lat="44.38821" lon="4.50654">
        <ele>418.39999389648</ele>
        <time>2017-03-15T11:12:23.000Z</time>
      </trkpt>
      <trkpt lat="44.38846" lon="4.50685">
        <ele>417.39999389648</ele>
        <time>2017-03-15T11:12:32.000Z</time>
      </trkpt>
      <trkpt lat="44.38849" lon="4.50686">
        <ele>417.60000610352</ele>
        <time>2017-03-15T11:12:33.000Z</time>
      </trkpt>
      <trkpt lat="44.38857" lon="4.50684">
        <ele>417</ele>
        <time>2017-03-15T11:12:35.000Z</time>
      </trkpt>
      <trkpt lat="44.38861" lon="4.50682">
        <ele>416.60000610352</ele>
        <time>2017-03-15T11:12:36.000Z</time>
      </trkpt>
      <trkpt lat="44.3887" lon="4.50678">
        <ele>415.79998779297</ele>
        <time>2017-03-15T11:12:38.000Z</time>
      </trkpt>
      <trkpt lat="44.38877" lon="4.50674">
        <ele>415.60000610352</ele>
        <time>2017-03-15T11:12:40.000Z</time>
      </trkpt>
      <trkpt lat="44.38885" lon="4.50669">
        <ele>415.20001220703</ele>
        <time>2017-03-15T11:12:42.000Z</time>
      </trkpt>
      <trkpt lat="44.38894" lon="4.50665">
        <ele>414.39999389648</ele>
        <time>2017-03-15T11:12:44.000Z</time>
      </trkpt>
      <trkpt lat="44.38903" lon="4.5066">
        <ele>413.60000610352</ele>
        <time>2017-03-15T11:12:46.000Z</time>
      </trkpt>
      <trkpt lat="44.38908" lon="4.50657">
        <ele>413.20001220703</ele>
        <time>2017-03-15T11:12:47.000Z</time>
      </trkpt>
      <trkpt lat="44.38925" lon="4.50648">
        <ele>412</ele>
        <time>2017-03-15T11:12:51.000Z</time>
      </trkpt>
      <trkpt lat="44.38929" lon="4.50646">
        <ele>412.20001220703</ele>
        <time>2017-03-15T11:12:52.000Z</time>
      </trkpt>
      <trkpt lat="44.38939" lon="4.50642">
        <ele>410.79998779297</ele>
        <time>2017-03-15T11:12:54.000Z</time>
      </trkpt>
      <trkpt lat="44.38949" lon="4.50637">
        <ele>410.60000610352</ele>
        <time>2017-03-15T11:12:56.000Z</time>
      </trkpt>
      <trkpt lat="44.38959" lon="4.50632">
        <ele>409.39999389648</ele>
        <time>2017-03-15T11:12:58.000Z</time>
      </trkpt>
      <trkpt lat="44.38964" lon="4.50629">
        <ele>407.39999389648</ele>
        <time>2017-03-15T11:12:59.000Z</time>
      </trkpt>
      <trkpt lat="44.38991" lon="4.50617">
        <ele>406.39999389648</ele>
        <time>2017-03-15T11:13:04.000Z</time>
      </trkpt>
      <trkpt lat="44.38996" lon="4.50614">
        <ele>406</ele>
        <time>2017-03-15T11:13:05.000Z</time>
      </trkpt>
      <trkpt lat="44.39011" lon="4.50606">
        <ele>405.20001220703</ele>
        <time>2017-03-15T11:13:08.000Z</time>
      </trkpt>
      <trkpt lat="44.39022" lon="4.506">
        <ele>404</ele>
        <time>2017-03-15T11:13:10.000Z</time>
      </trkpt>
      <trkpt lat="44.39026" lon="4.50598">
        <ele>403</ele>
        <time>2017-03-15T11:13:11.000Z</time>
      </trkpt>
      <trkpt lat="44.3903" lon="4.50595">
        <ele>401.79998779297</ele>
        <time>2017-03-15T11:13:13.000Z</time>
      </trkpt>
      <trkpt lat="44.39031" lon="4.50594">
        <ele>401</ele>
        <time>2017-03-15T11:13:17.000Z</time>
      </trkpt>
      <trkpt lat="44.39032" lon="4.50592">
        <ele>400.79998779297</ele>
        <time>2017-03-15T11:13:23.000Z</time>
      </trkpt>
      <trkpt lat="44.39033" lon="4.5059">
        <ele>400.60000610352</ele>
        <time>2017-03-15T11:13:24.000Z</time>
      </trkpt>
      <trkpt lat="44.39042" lon="4.50585">
        <ele>399.60000610352</ele>
        <time>2017-03-15T11:13:27.000Z</time>
      </trkpt>
      <trkpt lat="44.39044" lon="4.50583">
        <ele>398.60000610352</ele>
        <time>2017-03-15T11:13:28.000Z</time>
      </trkpt>
      <trkpt lat="44.39046" lon="4.50582">
        <ele>397.79998779297</ele>
        <time>2017-03-15T11:13:29.000Z</time>
      </trkpt>
      <trkpt lat="44.39054" lon="4.50579">
        <ele>396.79998779297</ele>
        <time>2017-03-15T11:13:33.000Z</time>
      </trkpt>
      <trkpt lat="44.39058" lon="4.50578">
        <ele>395.20001220703</ele>
        <time>2017-03-15T11:13:35.000Z</time>
      </trkpt>
      <trkpt lat="44.3906" lon="4.50577">
        <ele>394.60000610352</ele>
        <time>2017-03-15T11:13:36.000Z</time>
      </trkpt>
      <trkpt lat="44.3906" lon="4.50576">
        <ele>394</ele>
        <time>2017-03-15T11:13:37.000Z</time>
      </trkpt>
      <trkpt lat="44.3906" lon="4.50576">
        <ele>393.79998779297</ele>
        <time>2017-03-15T11:13:38.000Z</time>
      </trkpt>
      <trkpt lat="44.39063" lon="4.50578">
        <ele>393.20001220703</ele>
        <time>2017-03-15T11:13:40.000Z</time>
      </trkpt>
      <trkpt lat="44.39065" lon="4.50579">
        <ele>392.79998779297</ele>
        <time>2017-03-15T11:13:41.000Z</time>
      </trkpt>
      <trkpt lat="44.39068" lon="4.50582">
        <ele>393</ele>
        <time>2017-03-15T11:13:43.000Z</time>
      </trkpt>
      <trkpt lat="44.39079" lon="4.50594">
        <ele>392.20001220703</ele>
        <time>2017-03-15T11:13:48.000Z</time>
      </trkpt>
      <trkpt lat="44.39083" lon="4.50598">
        <ele>391.79998779297</ele>
        <time>2017-03-15T11:13:49.000Z</time>
      </trkpt>
      <trkpt lat="44.39086" lon="4.50601">
        <ele>391.39999389648</ele>
        <time>2017-03-15T11:13:50.000Z</time>
      </trkpt>
      <trkpt lat="44.39091" lon="4.50604">
        <ele>390.60000610352</ele>
        <time>2017-03-15T11:13:51.000Z</time>
      </trkpt>
      <trkpt lat="44.39096" lon="4.50604">
        <ele>389.79998779297</ele>
        <time>2017-03-15T11:13:52.000Z</time>
      </trkpt>
      <trkpt lat="44.39102" lon="4.50604">
        <ele>389</ele>
        <time>2017-03-15T11:13:53.000Z</time>
      </trkpt>
      <trkpt lat="44.39108" lon="4.50603">
        <ele>388</ele>
        <time>2017-03-15T11:13:54.000Z</time>
      </trkpt>
      <trkpt lat="44.39113" lon="4.50603">
        <ele>387.20001220703</ele>
        <time>2017-03-15T11:13:55.000Z</time>
      </trkpt>
      <trkpt lat="44.39124" lon="4.50603">
        <ele>385.39999389648</ele>
        <time>2017-03-15T11:13:57.000Z</time>
      </trkpt>
      <trkpt lat="44.39136" lon="4.50604">
        <ele>383.79998779297</ele>
        <time>2017-03-15T11:13:59.000Z</time>
      </trkpt>
      <trkpt lat="44.39148" lon="4.50604">
        <ele>382</ele>
        <time>2017-03-15T11:14:01.000Z</time>
      </trkpt>
      <trkpt lat="44.39161" lon="4.50601">
        <ele>380.20001220703</ele>
        <time>2017-03-15T11:14:03.000Z</time>
      </trkpt>
      <trkpt lat="44.39172" lon="4.506">
        <ele>379</ele>
        <time>2017-03-15T11:14:05.000Z</time>
      </trkpt>
      <trkpt lat="44.39185" lon="4.50598">
        <ele>378</ele>
        <time>2017-03-15T11:14:08.000Z</time>
      </trkpt>
      <trkpt lat="44.392" lon="4.50595">
        <ele>377</ele>
        <time>2017-03-15T11:14:12.000Z</time>
      </trkpt>
      <trkpt lat="44.39204" lon="4.50594">
        <ele>376.60000610352</ele>
        <time>2017-03-15T11:14:13.000Z</time>
      </trkpt>
      <trkpt lat="44.39208" lon="4.50592">
        <ele>376.20001220703</ele>
        <time>2017-03-15T11:14:14.000Z</time>
      </trkpt>
      <trkpt lat="44.39212" lon="4.5059">
        <ele>375.79998779297</ele>
        <time>2017-03-15T11:14:15.000Z</time>
      </trkpt>
      <trkpt lat="44.39223" lon="4.50583">
        <ele>374.39999389648</ele>
        <time>2017-03-15T11:14:18.000Z</time>
      </trkpt>
      <trkpt lat="44.39228" lon="4.5058">
        <ele>373.60000610352</ele>
        <time>2017-03-15T11:14:20.000Z</time>
      </trkpt>
      <trkpt lat="44.3923" lon="4.5058">
        <ele>373.60000610352</ele>
        <time>2017-03-15T11:14:21.000Z</time>
      </trkpt>
      <trkpt lat="44.39235" lon="4.5058">
        <ele>373.39999389648</ele>
        <time>2017-03-15T11:14:24.000Z</time>
      </trkpt>
      <trkpt lat="44.39235" lon="4.5058">
        <ele>373.79998779297</ele>
        <time>2017-03-15T11:14:30.000Z</time>
      </trkpt>
      <trkpt lat="44.39235" lon="4.5058">
        <ele>373.60000610352</ele>
        <time>2017-03-15T11:14:31.000Z</time>
      </trkpt>
      <trkpt lat="44.39235" lon="4.5058">
        <ele>373.20001220703</ele>
        <time>2017-03-15T11:14:34.000Z</time>
      </trkpt>
      <trkpt lat="44.39235" lon="4.5058">
        <ele>373.20001220703</ele>
        <time>2017-03-15T11:14:46.000Z</time>
      </trkpt>
      <trkpt lat="44.39235" lon="4.5058">
        <ele>373</ele>
        <time>2017-03-15T11:14:59.000Z</time>
      </trkpt>
      <trkpt lat="44.39239" lon="4.50579">
        <ele>373</ele>
        <time>2017-03-15T11:15:10.000Z</time>
      </trkpt>
      <trkpt lat="44.39252" lon="4.50569">
        <ele>372.60000610352</ele>
        <time>2017-03-15T11:15:15.000Z</time>
      </trkpt>
      <trkpt lat="44.39256" lon="4.50562">
        <ele>372.20001220703</ele>
        <time>2017-03-15T11:15:17.000Z</time>
      </trkpt>
      <trkpt lat="44.39266" lon="4.50546">
        <ele>372.60000610352</ele>
        <time>2017-03-15T11:15:21.000Z</time>
      </trkpt>
      <trkpt lat="44.39284" lon="4.50526">
        <ele>371.60000610352</ele>
        <time>2017-03-15T11:15:27.000Z</time>
      </trkpt>
      <trkpt lat="44.39292" lon="4.50509">
        <ele>371</ele>
        <time>2017-03-15T11:15:31.000Z</time>
      </trkpt>
      <trkpt lat="44.39295" lon="4.50506">
        <ele>370.79998779297</ele>
        <time>2017-03-15T11:15:32.000Z</time>
      </trkpt>
      <trkpt lat="44.39308" lon="4.505">
        <ele>371</ele>
        <time>2017-03-15T11:15:36.000Z</time>
      </trkpt>
      <trkpt lat="44.39331" lon="4.50492">
        <ele>370.60000610352</ele>
        <time>2017-03-15T11:15:42.000Z</time>
      </trkpt>
      <trkpt lat="44.39348" lon="4.50487">
        <ele>370</ele>
        <time>2017-03-15T11:15:46.000Z</time>
      </trkpt>
      <trkpt lat="44.39371" lon="4.5048">
        <ele>369.60000610352</ele>
        <time>2017-03-15T11:15:51.000Z</time>
      </trkpt>
      <trkpt lat="44.39381" lon="4.50477">
        <ele>369.60000610352</ele>
        <time>2017-03-15T11:15:53.000Z</time>
      </trkpt>
      <trkpt lat="44.39401" lon="4.50474">
        <ele>369</ele>
        <time>2017-03-15T11:15:57.000Z</time>
      </trkpt>
      <trkpt lat="44.39406" lon="4.50475">
        <ele>368.79998779297</ele>
        <time>2017-03-15T11:15:58.000Z</time>
      </trkpt>
      <trkpt lat="44.39423" lon="4.50486">
        <ele>368.39999389648</ele>
        <time>2017-03-15T11:16:02.000Z</time>
      </trkpt>
      <trkpt lat="44.3943" lon="4.50494">
        <ele>367.79998779297</ele>
        <time>2017-03-15T11:16:04.000Z</time>
      </trkpt>
      <trkpt lat="44.39441" lon="4.50509">
        <ele>368.20001220703</ele>
        <time>2017-03-15T11:16:08.000Z</time>
      </trkpt>
      <trkpt lat="44.39446" lon="4.50516">
        <ele>369.20001220703</ele>
        <time>2017-03-15T11:16:10.000Z</time>
      </trkpt>
      <trkpt lat="44.39464" lon="4.50542">
        <ele>370</ele>
        <time>2017-03-15T11:16:17.000Z</time>
      </trkpt>
      <trkpt lat="44.39482" lon="4.50567">
        <ele>370.60000610352</ele>
        <time>2017-03-15T11:16:24.000Z</time>
      </trkpt>
      <trkpt lat="44.39488" lon="4.50575">
        <ele>370.60000610352</ele>
        <time>2017-03-15T11:16:26.000Z</time>
      </trkpt>
      <trkpt lat="44.39498" lon="4.5059">
        <ele>371.60000610352</ele>
        <time>2017-03-15T11:16:30.000Z</time>
      </trkpt>
      <trkpt lat="44.39509" lon="4.50603">
        <ele>372</ele>
        <time>2017-03-15T11:16:34.000Z</time>
      </trkpt>
      <trkpt lat="44.39535" lon="4.50628">
        <ele>371</ele>
        <time>2017-03-15T11:16:43.000Z</time>
      </trkpt>
      <trkpt lat="44.39562" lon="4.50651">
        <ele>372.39999389648</ele>
        <time>2017-03-15T11:16:52.000Z</time>
      </trkpt>
      <trkpt lat="44.39574" lon="4.50662">
        <ele>372.60000610352</ele>
        <time>2017-03-15T11:16:58.000Z</time>
      </trkpt>
      <trkpt lat="44.39574" lon="4.50665">
        <ele>372.60000610352</ele>
        <time>2017-03-15T11:16:59.000Z</time>
      </trkpt>
      <trkpt lat="44.39572" lon="4.50672">
        <ele>372.60000610352</ele>
        <time>2017-03-15T11:17:02.000Z</time>
      </trkpt>
      <trkpt lat="44.39565" lon="4.50678">
        <ele>372.60000610352</ele>
        <time>2017-03-15T11:17:07.000Z</time>
      </trkpt>
      <trkpt lat="44.39561" lon="4.5068">
        <ele>372.79998779297</ele>
        <time>2017-03-15T11:17:10.000Z</time>
      </trkpt>
      <trkpt lat="44.39558" lon="4.50679">
        <ele>373</ele>
        <time>2017-03-15T11:17:13.000Z</time>
      </trkpt>
      <trkpt lat="44.39557" lon="4.50679">
        <ele>373</ele>
        <time>2017-03-15T11:17:14.000Z</time>
      </trkpt>
      <trkpt lat="44.39557" lon="4.5068">
        <ele>372.79998779297</ele>
        <time>2017-03-15T11:17:18.000Z</time>
      </trkpt>
      <trkpt lat="44.39557" lon="4.5068">
        <ele>372.79998779297</ele>
        <time>2017-03-15T11:17:24.000Z</time>
      </trkpt>
      <trkpt lat="44.39555" lon="4.50681">
        <ele>372.79998779297</ele>
        <time>2017-03-15T11:17:31.000Z</time>
      </trkpt>
      <trkpt lat="44.39555" lon="4.50681">
        <ele>372.60000610352</ele>
        <time>2017-03-15T11:17:42.000Z</time>
      </trkpt>
      <trkpt lat="44.39555" lon="4.50681">
        <ele>372.60000610352</ele>
        <time>2017-03-15T11:17:51.000Z</time>
      </trkpt>
      <trkpt lat="44.39555" lon="4.50681">
        <ele>374.60000610352</ele>
        <time>2017-03-15T11:18:03.000Z</time>
      </trkpt>
      <trkpt lat="44.39555" lon="4.50681">
        <ele>374.39999389648</ele>
        <time>2017-03-15T11:18:04.000Z</time>
      </trkpt>
      <trkpt lat="44.39555" lon="4.50681">
        <ele>372.39999389648</ele>
        <time>2017-03-15T11:18:06.000Z</time>
      </trkpt>
      <trkpt lat="44.39554" lon="4.50682">
        <ele>372.39999389648</ele>
        <time>2017-03-15T11:18:11.000Z</time>
      </trkpt>
      <trkpt lat="44.39552" lon="4.50683">
        <ele>372.60000610352</ele>
        <time>2017-03-15T11:18:17.000Z</time>
      </trkpt>
      <trkpt lat="44.39552" lon="4.50682">
        <ele>372.39999389648</ele>
        <time>2017-03-15T11:18:22.000Z</time>
      </trkpt>
      <trkpt lat="44.39552" lon="4.50682">
        <ele>372.39999389648</ele>
        <time>2017-03-15T11:18:31.000Z</time>
      </trkpt>
      <trkpt lat="44.39552" lon="4.50682">
        <ele>372.60000610352</ele>
        <time>2017-03-15T11:18:40.000Z</time>
      </trkpt>
      <trkpt lat="44.39552" lon="4.50682">
        <ele>371.60000610352</ele>
        <time>2017-03-15T11:18:46.000Z</time>
      </trkpt>
      <trkpt lat="44.39552" lon="4.50682">
        <ele>373</ele>
        <time>2017-03-15T11:18:47.000Z</time>
      </trkpt>
      <trkpt lat="44.39552" lon="4.50682">
        <ele>373.79998779297</ele>
        <time>2017-03-15T11:18:49.000Z</time>
      </trkpt>
      <trkpt lat="44.39552" lon="4.50682">
        <ele>372.79998779297</ele>
        <time>2017-03-15T11:18:54.000Z</time>
      </trkpt>
      <trkpt lat="44.39552" lon="4.50682">
        <ele>372.79998779297</ele>
        <time>2017-03-15T11:18:56.000Z</time>
      </trkpt>
      <trkpt lat="44.39552" lon="4.50682">
        <ele>372.79998779297</ele>
        <time>2017-03-15T11:19:00.000Z</time>
      </trkpt>
      <trkpt lat="44.39552" lon="4.50682">
        <ele>373</ele>
        <time>2017-03-15T11:19:09.000Z</time>
      </trkpt>
      <trkpt lat="44.39552" lon="4.50682">
        <ele>373</ele>
        <time>2017-03-15T11:19:19.000Z</time>
      </trkpt>
      <trkpt lat="44.39552" lon="4.50682">
        <ele>373.20001220703</ele>
        <time>2017-03-15T11:19:29.000Z</time>
      </trkpt>
      <trkpt lat="44.39552" lon="4.50682">
        <ele>372.79998779297</ele>
        <time>2017-03-15T11:19:35.000Z</time>
      </trkpt>
      <trkpt lat="44.39552" lon="4.50682">
        <ele>373</ele>
        <time>2017-03-15T11:19:45.000Z</time>
      </trkpt>
      <trkpt lat="44.39552" lon="4.50682">
        <ele>372.79998779297</ele>
        <time>2017-03-15T11:19:55.000Z</time>
      </trkpt>
      <trkpt lat="44.39552" lon="4.50682">
        <ele>372.39999389648</ele>
        <time>2017-03-15T11:20:01.000Z</time>
      </trkpt>
      <trkpt lat="44.39552" lon="4.50682">
        <ele>372.60000610352</ele>
        <time>2017-03-15T11:20:11.000Z</time>
      </trkpt>
      <trkpt lat="44.39552" lon="4.50682">
        <ele>371.79998779297</ele>
        <time>2017-03-15T11:20:21.000Z</time>
      </trkpt>
      <trkpt lat="44.39552" lon="4.50682">
        <ele>371.60000610352</ele>
        <time>2017-03-15T11:20:22.000Z</time>
      </trkpt>
      <trkpt lat="44.39552" lon="4.50682">
        <ele>373.20001220703</ele>
        <time>2017-03-15T11:20:25.000Z</time>
      </trkpt>
      <trkpt lat="44.39552" lon="4.50682">
        <ele>373</ele>
        <time>2017-03-15T11:20:33.000Z</time>
      </trkpt>
      <trkpt lat="44.39552" lon="4.50682">
        <ele>372.79998779297</ele>
        <time>2017-03-15T11:20:40.000Z</time>
      </trkpt>
      <trkpt lat="44.39552" lon="4.50682">
        <ele>372.60000610352</ele>
        <time>2017-03-15T11:20:57.000Z</time>
      </trkpt>
      <trkpt lat="44.39552" lon="4.50682">
        <ele>372.39999389648</ele>
        <time>2017-03-15T11:21:08.000Z</time>
      </trkpt>
      <trkpt lat="44.39552" lon="4.50682">
        <ele>372.60000610352</ele>
        <time>2017-03-15T11:21:18.000Z</time>
      </trkpt>
      <trkpt lat="44.39552" lon="4.50682">
        <ele>372.79998779297</ele>
        <time>2017-03-15T11:21:27.000Z</time>
      </trkpt>
      <trkpt lat="44.39555" lon="4.50678">
        <ele>372.39999389648</ele>
        <time>2017-03-15T11:21:34.000Z</time>
      </trkpt>
      <trkpt lat="44.39555" lon="4.50678">
        <ele>372</ele>
        <time>2017-03-15T11:21:35.000Z</time>
      </trkpt>
      <trkpt lat="44.39558" lon="4.5068">
        <ele>372.39999389648</ele>
        <time>2017-03-15T11:21:43.000Z</time>
      </trkpt>
      <trkpt lat="44.39558" lon="4.50685">
        <ele>372.79998779297</ele>
        <time>2017-03-15T11:21:50.000Z</time>
      </trkpt>
      <trkpt lat="44.39553" lon="4.5069">
        <ele>372.60000610352</ele>
        <time>2017-03-15T11:22:01.000Z</time>
      </trkpt>
      <trkpt lat="44.39552" lon="4.50692">
        <ele>372.60000610352</ele>
        <time>2017-03-15T11:22:12.000Z</time>
      </trkpt>
      <trkpt lat="44.39552" lon="4.50692">
        <ele>373</ele>
        <time>2017-03-15T11:22:25.000Z</time>
      </trkpt>
      <trkpt lat="44.39551" lon="4.50696">
        <ele>372.20001220703</ele>
        <time>2017-03-15T11:22:37.000Z</time>
      </trkpt>
      <trkpt lat="44.39551" lon="4.50696">
        <ele>372.39999389648</ele>
        <time>2017-03-15T11:22:49.000Z</time>
      </trkpt>
      <trkpt lat="44.39554" lon="4.50696">
        <ele>372.39999389648</ele>
        <time>2017-03-15T11:22:59.000Z</time>
      </trkpt>
      <trkpt lat="44.39554" lon="4.50696">
        <ele>372.39999389648</ele>
        <time>2017-03-15T11:23:13.000Z</time>
      </trkpt>
      <trkpt lat="44.39554" lon="4.50696">
        <ele>372.60000610352</ele>
        <time>2017-03-15T11:23:17.000Z</time>
      </trkpt>
      <trkpt lat="44.39554" lon="4.50696">
        <ele>372.79998779297</ele>
        <time>2017-03-15T11:23:33.000Z</time>
      </trkpt>
      <trkpt lat="44.39553" lon="4.50698">
        <ele>372.60000610352</ele>
        <time>2017-03-15T11:23:51.000Z</time>
      </trkpt>
      <trkpt lat="44.39553" lon="4.50698">
        <ele>372.39999389648</ele>
        <time>2017-03-15T11:24:08.000Z</time>
      </trkpt>
      <trkpt lat="44.39553" lon="4.50698">
        <ele>372.79998779297</ele>
        <time>2017-03-15T11:24:23.000Z</time>
      </trkpt>
      <trkpt lat="44.39553" lon="4.50698">
        <ele>372.60000610352</ele>
        <time>2017-03-15T11:24:40.000Z</time>
      </trkpt>
      <trkpt lat="44.39553" lon="4.50698">
        <ele>373.39999389648</ele>
        <time>2017-03-15T11:24:54.000Z</time>
      </trkpt>
      <trkpt lat="44.39553" lon="4.50698">
        <ele>372.79998779297</ele>
        <time>2017-03-15T11:24:55.000Z</time>
      </trkpt>
      <trkpt lat="44.39553" lon="4.50699">
        <ele>372.39999389648</ele>
        <time>2017-03-15T11:24:57.000Z</time>
      </trkpt>
      <trkpt lat="44.39553" lon="4.50699">
        <ele>372.79998779297</ele>
        <time>2017-03-15T11:25:14.000Z</time>
      </trkpt>
      <trkpt lat="44.39553" lon="4.50699">
        <ele>372.60000610352</ele>
        <time>2017-03-15T11:25:35.000Z</time>
      </trkpt>
      <trkpt lat="44.39553" lon="4.50699">
        <ele>373.39999389648</ele>
        <time>2017-03-15T11:25:46.000Z</time>
      </trkpt>
      <trkpt lat="44.39553" lon="4.50699">
        <ele>373</ele>
        <time>2017-03-15T11:25:53.000Z</time>
      </trkpt>
      <trkpt lat="44.39553" lon="4.50699">
        <ele>373.39999389648</ele>
        <time>2017-03-15T11:25:56.000Z</time>
      </trkpt>
      <trkpt lat="44.39553" lon="4.50699">
        <ele>372.39999389648</ele>
        <time>2017-03-15T11:26:00.000Z</time>
      </trkpt>
      <trkpt lat="44.39553" lon="4.50699">
        <ele>373.39999389648</ele>
        <time>2017-03-15T11:26:03.000Z</time>
      </trkpt>
      <trkpt lat="44.39553" lon="4.50699">
        <ele>373.20001220703</ele>
        <time>2017-03-15T11:26:10.000Z</time>
      </trkpt>
      <trkpt lat="44.39553" lon="4.50699">
        <ele>372.79998779297</ele>
        <time>2017-03-15T11:26:25.000Z</time>
      </trkpt>
      <trkpt lat="44.39553" lon="4.50699">
        <ele>372.79998779297</ele>
        <time>2017-03-15T11:26:46.000Z</time>
      </trkpt>
      <trkpt lat="44.39553" lon="4.507">
        <ele>372.79998779297</ele>
        <time>2017-03-15T11:27:00.000Z</time>
      </trkpt>
      <trkpt lat="44.39553" lon="4.507">
        <ele>372.60000610352</ele>
        <time>2017-03-15T11:27:12.000Z</time>
      </trkpt>
      <trkpt lat="44.39553" lon="4.507">
        <ele>373</ele>
        <time>2017-03-15T11:27:20.000Z</time>
      </trkpt>
      <trkpt lat="44.39555" lon="4.507">
        <ele>373</ele>
        <time>2017-03-15T11:27:31.000Z</time>
      </trkpt>
      <trkpt lat="44.39555" lon="4.507">
        <ele>372.39999389648</ele>
        <time>2017-03-15T11:27:45.000Z</time>
      </trkpt>
      <trkpt lat="44.39555" lon="4.507">
        <ele>372.60000610352</ele>
        <time>2017-03-15T11:27:47.000Z</time>
      </trkpt>
      <trkpt lat="44.39555" lon="4.507">
        <ele>372.60000610352</ele>
        <time>2017-03-15T11:28:01.000Z</time>
      </trkpt>
      <trkpt lat="44.39555" lon="4.507">
        <ele>372.79998779297</ele>
        <time>2017-03-15T11:28:11.000Z</time>
      </trkpt>
      <trkpt lat="44.39555" lon="4.507">
        <ele>372.60000610352</ele>
        <time>2017-03-15T11:28:25.000Z</time>
      </trkpt>
      <trkpt lat="44.39555" lon="4.507">
        <ele>373.60000610352</ele>
        <time>2017-03-15T11:28:34.000Z</time>
      </trkpt>
      <trkpt lat="44.39555" lon="4.507">
        <ele>373</ele>
        <time>2017-03-15T11:28:39.000Z</time>
      </trkpt>
      <trkpt lat="44.39555" lon="4.507">
        <ele>373.20001220703</ele>
        <time>2017-03-15T11:28:42.000Z</time>
      </trkpt>
      <trkpt lat="44.39556" lon="4.507">
        <ele>373</ele>
        <time>2017-03-15T11:28:57.000Z</time>
      </trkpt>
      <trkpt lat="44.39556" lon="4.507">
        <ele>373</ele>
        <time>2017-03-15T11:29:13.000Z</time>
      </trkpt>
      <trkpt lat="44.39556" lon="4.507">
        <ele>373.20001220703</ele>
        <time>2017-03-15T11:29:27.000Z</time>
      </trkpt>
      <trkpt lat="44.39558" lon="4.507">
        <ele>373.20001220703</ele>
        <time>2017-03-15T11:29:44.000Z</time>
      </trkpt>
      <trkpt lat="44.39558" lon="4.507">
        <ele>373.20001220703</ele>
        <time>2017-03-15T11:30:02.000Z</time>
      </trkpt>
      <trkpt lat="44.39558" lon="4.50701">
        <ele>373.20001220703</ele>
        <time>2017-03-15T11:30:22.000Z</time>
      </trkpt>
      <trkpt lat="44.39558" lon="4.50701">
        <ele>373.20001220703</ele>
        <time>2017-03-15T11:30:43.000Z</time>
      </trkpt>
      <trkpt lat="44.39556" lon="4.50702">
        <ele>373.60000610352</ele>
        <time>2017-03-15T11:31:03.000Z</time>
      </trkpt>
      <trkpt lat="44.39556" lon="4.50702">
        <ele>373.39999389648</ele>
        <time>2017-03-15T11:31:21.000Z</time>
      </trkpt>
      <trkpt lat="44.39557" lon="4.50703">
        <ele>373.39999389648</ele>
        <time>2017-03-15T11:31:35.000Z</time>
      </trkpt>
      <trkpt lat="44.39557" lon="4.50703">
        <ele>373.39999389648</ele>
        <time>2017-03-15T11:31:55.000Z</time>
      </trkpt>
      <trkpt lat="44.39557" lon="4.50703">
        <ele>373.20001220703</ele>
        <time>2017-03-15T11:32:08.000Z</time>
      </trkpt>
      <trkpt lat="44.39555" lon="4.50708">
        <ele>373.20001220703</ele>
        <time>2017-03-15T11:32:23.000Z</time>
      </trkpt>
      <trkpt lat="44.39555" lon="4.50708">
        <ele>373.60000610352</ele>
        <time>2017-03-15T11:32:40.000Z</time>
      </trkpt>
      <trkpt lat="44.39555" lon="4.50708">
        <ele>373.60000610352</ele>
        <time>2017-03-15T11:32:58.000Z</time>
      </trkpt>
      <trkpt lat="44.39555" lon="4.50708">
        <ele>373.39999389648</ele>
        <time>2017-03-15T11:33:18.000Z</time>
      </trkpt>
      <trkpt lat="44.39555" lon="4.50708">
        <ele>373.39999389648</ele>
        <time>2017-03-15T11:33:37.000Z</time>
      </trkpt>
      <trkpt lat="44.39555" lon="4.50708">
        <ele>373.39999389648</ele>
        <time>2017-03-15T11:33:56.000Z</time>
      </trkpt>
      <trkpt lat="44.39555" lon="4.50707">
        <ele>373.60000610352</ele>
        <time>2017-03-15T11:34:17.000Z</time>
      </trkpt>
      <trkpt lat="44.39555" lon="4.50707">
        <ele>373.60000610352</ele>
        <time>2017-03-15T11:34:40.000Z</time>
      </trkpt>
      <trkpt lat="44.39555" lon="4.50706">
        <ele>373.39999389648</ele>
        <time>2017-03-15T11:35:03.000Z</time>
      </trkpt>
      <trkpt lat="44.39555" lon="4.50706">
        <ele>373.20001220703</ele>
        <time>2017-03-15T11:35:19.000Z</time>
      </trkpt>
      <trkpt lat="44.39555" lon="4.50706">
        <ele>373.60000610352</ele>
        <time>2017-03-15T11:35:36.000Z</time>
      </trkpt>
      <trkpt lat="44.39555" lon="4.50706">
        <ele>373.39999389648</ele>
        <time>2017-03-15T11:35:52.000Z</time>
      </trkpt>
      <trkpt lat="44.39555" lon="4.50706">
        <ele>373.60000610352</ele>
        <time>2017-03-15T11:36:08.000Z</time>
      </trkpt>
      <trkpt lat="44.39555" lon="4.50705">
        <ele>373.39999389648</ele>
        <time>2017-03-15T11:36:22.000Z</time>
      </trkpt>
      <trkpt lat="44.39555" lon="4.50705">
        <ele>373.39999389648</ele>
        <time>2017-03-15T11:36:36.000Z</time>
      </trkpt>
      <trkpt lat="44.39555" lon="4.50705">
        <ele>373.39999389648</ele>
        <time>2017-03-15T11:36:51.000Z</time>
      </trkpt>
      <trkpt lat="44.39554" lon="4.50705">
        <ele>373.39999389648</ele>
        <time>2017-03-15T11:37:07.000Z</time>
      </trkpt>
      <trkpt lat="44.39554" lon="4.50705">
        <ele>373.20001220703</ele>
        <time>2017-03-15T11:37:24.000Z</time>
      </trkpt>
      <trkpt lat="44.39554" lon="4.50704">
        <ele>373.39999389648</ele>
        <time>2017-03-15T11:37:46.000Z</time>
      </trkpt>
      <trkpt lat="44.39554" lon="4.50704">
        <ele>373.39999389648</ele>
        <time>2017-03-15T11:38:07.000Z</time>
      </trkpt>
      <trkpt lat="44.39554" lon="4.50704">
        <ele>373.60000610352</ele>
        <time>2017-03-15T11:38:28.000Z</time>
      </trkpt>
      <trkpt lat="44.39554" lon="4.50704">
        <ele>373.60000610352</ele>
        <time>2017-03-15T11:38:43.000Z</time>
      </trkpt>
      <trkpt lat="44.39554" lon="4.50703">
        <ele>373.60000610352</ele>
        <time>2017-03-15T11:39:00.000Z</time>
      </trkpt>
      <trkpt lat="44.39554" lon="4.50703">
        <ele>373.79998779297</ele>
        <time>2017-03-15T11:39:17.000Z</time>
      </trkpt>
      <trkpt lat="44.39554" lon="4.50703">
        <ele>373.39999389648</ele>
        <time>2017-03-15T11:39:36.000Z</time>
      </trkpt>
      <trkpt lat="44.39554" lon="4.50703">
        <ele>373.60000610352</ele>
        <time>2017-03-15T11:39:53.000Z</time>
      </trkpt>
      <trkpt lat="44.39554" lon="4.50703">
        <ele>373.79998779297</ele>
        <time>2017-03-15T11:40:10.000Z</time>
      </trkpt>
      <trkpt lat="44.39554" lon="4.50703">
        <ele>373.79998779297</ele>
        <time>2017-03-15T11:40:29.000Z</time>
      </trkpt>
      <trkpt lat="44.39554" lon="4.50703">
        <ele>373.60000610352</ele>
        <time>2017-03-15T11:40:51.000Z</time>
      </trkpt>
      <trkpt lat="44.39554" lon="4.50703">
        <ele>373.79998779297</ele>
        <time>2017-03-15T11:41:10.000Z</time>
      </trkpt>
      <trkpt lat="44.39554" lon="4.50703">
        <ele>373.60000610352</ele>
        <time>2017-03-15T11:41:29.000Z</time>
      </trkpt>
      <trkpt lat="44.39554" lon="4.50703">
        <ele>373.79998779297</ele>
        <time>2017-03-15T11:41:45.000Z</time>
      </trkpt>
      <trkpt lat="44.39554" lon="4.50703">
        <ele>374</ele>
        <time>2017-03-15T11:42:00.000Z</time>
      </trkpt>
      <trkpt lat="44.39554" lon="4.50703">
        <ele>373.79998779297</ele>
        <time>2017-03-15T11:42:16.000Z</time>
      </trkpt>
      <trkpt lat="44.39554" lon="4.50703">
        <ele>374</ele>
        <time>2017-03-15T11:42:33.000Z</time>
      </trkpt>
      <trkpt lat="44.39554" lon="4.50703">
        <ele>373.60000610352</ele>
        <time>2017-03-15T11:42:50.000Z</time>
      </trkpt>
      <trkpt lat="44.39554" lon="4.50703">
        <ele>374</ele>
        <time>2017-03-15T11:43:02.000Z</time>
      </trkpt>
      <trkpt lat="44.39554" lon="4.50703">
        <ele>373.60000610352</ele>
        <time>2017-03-15T11:43:15.000Z</time>
      </trkpt>
      <trkpt lat="44.39554" lon="4.50703">
        <ele>373.60000610352</ele>
        <time>2017-03-15T11:43:22.000Z</time>
      </trkpt>
      <trkpt lat="44.39555" lon="4.50703">
        <ele>373.79998779297</ele>
        <time>2017-03-15T11:43:40.000Z</time>
      </trkpt>
      <trkpt lat="44.39555" lon="4.50703">
        <ele>374</ele>
        <time>2017-03-15T11:43:56.000Z</time>
      </trkpt>
      <trkpt lat="44.39555" lon="4.50703">
        <ele>374</ele>
        <time>2017-03-15T11:44:17.000Z</time>
      </trkpt>
      <trkpt lat="44.39555" lon="4.50703">
        <ele>374.20001220703</ele>
        <time>2017-03-15T11:44:34.000Z</time>
      </trkpt>
      <trkpt lat="44.39555" lon="4.50703">
        <ele>374</ele>
        <time>2017-03-15T11:44:52.000Z</time>
      </trkpt>
      <trkpt lat="44.39555" lon="4.50703">
        <ele>374.20001220703</ele>
        <time>2017-03-15T11:45:11.000Z</time>
      </trkpt>
      <trkpt lat="44.39555" lon="4.50703">
        <ele>374</ele>
        <time>2017-03-15T11:45:29.000Z</time>
      </trkpt>
      <trkpt lat="44.39555" lon="4.50703">
        <ele>374</ele>
        <time>2017-03-15T11:45:47.000Z</time>
      </trkpt>
      <trkpt lat="44.39555" lon="4.50703">
        <ele>374.20001220703</ele>
        <time>2017-03-15T11:46:05.000Z</time>
      </trkpt>
      <trkpt lat="44.39555" lon="4.50703">
        <ele>374.20001220703</ele>
        <time>2017-03-15T11:46:21.000Z</time>
      </trkpt>
      <trkpt lat="44.39555" lon="4.50703">
        <ele>374.39999389648</ele>
        <time>2017-03-15T11:46:39.000Z</time>
      </trkpt>
      <trkpt lat="44.39555" lon="4.50703">
        <ele>374.60000610352</ele>
        <time>2017-03-15T11:46:53.000Z</time>
      </trkpt>
      <trkpt lat="44.39555" lon="4.50703">
        <ele>374.79998779297</ele>
        <time>2017-03-15T11:47:00.000Z</time>
      </trkpt>
      <trkpt lat="44.39555" lon="4.50703">
        <ele>374.60000610352</ele>
        <time>2017-03-15T11:47:21.000Z</time>
      </trkpt>
      <trkpt lat="44.39555" lon="4.50703">
        <ele>375</ele>
        <time>2017-03-15T11:47:38.000Z</time>
      </trkpt>
      <trkpt lat="44.39555" lon="4.50703">
        <ele>374.79998779297</ele>
        <time>2017-03-15T11:47:52.000Z</time>
      </trkpt>
      <trkpt lat="44.39555" lon="4.50703">
        <ele>374.60000610352</ele>
        <time>2017-03-15T11:48:09.000Z</time>
      </trkpt>
      <trkpt lat="44.39555" lon="4.50702">
        <ele>374.79998779297</ele>
        <time>2017-03-15T11:48:29.000Z</time>
      </trkpt>
      <trkpt lat="44.39555" lon="4.50702">
        <ele>374.79998779297</ele>
        <time>2017-03-15T11:48:45.000Z</time>
      </trkpt>
      <trkpt lat="44.39555" lon="4.50702">
        <ele>375</ele>
        <time>2017-03-15T11:49:05.000Z</time>
      </trkpt>
      <trkpt lat="44.39555" lon="4.50702">
        <ele>374.79998779297</ele>
        <time>2017-03-15T11:49:21.000Z</time>
      </trkpt>
      <trkpt lat="44.39555" lon="4.50702">
        <ele>375.39999389648</ele>
        <time>2017-03-15T11:49:39.000Z</time>
      </trkpt>
      <trkpt lat="44.39555" lon="4.50702">
        <ele>374.60000610352</ele>
        <time>2017-03-15T11:49:55.000Z</time>
      </trkpt>
      <trkpt lat="44.39555" lon="4.50702">
        <ele>374.79998779297</ele>
        <time>2017-03-15T11:50:15.000Z</time>
      </trkpt>
      <trkpt lat="44.39555" lon="4.50703">
        <ele>375</ele>
        <time>2017-03-15T11:50:32.000Z</time>
      </trkpt>
      <trkpt lat="44.39555" lon="4.50703">
        <ele>375</ele>
        <time>2017-03-15T11:50:51.000Z</time>
      </trkpt>
      <trkpt lat="44.39555" lon="4.50703">
        <ele>375</ele>
        <time>2017-03-15T11:51:11.000Z</time>
      </trkpt>
      <trkpt lat="44.39555" lon="4.50703">
        <ele>375.20001220703</ele>
        <time>2017-03-15T11:51:32.000Z</time>
      </trkpt>
      <trkpt lat="44.39555" lon="4.50703">
        <ele>375.20001220703</ele>
        <time>2017-03-15T11:51:54.000Z</time>
      </trkpt>
      <trkpt lat="44.39555" lon="4.50703">
        <ele>375.20001220703</ele>
        <time>2017-03-15T11:52:12.000Z</time>
      </trkpt>
      <trkpt lat="44.39555" lon="4.50703">
        <ele>375.39999389648</ele>
        <time>2017-03-15T11:52:28.000Z</time>
      </trkpt>
      <trkpt lat="44.39555" lon="4.50703">
        <ele>375.39999389648</ele>
        <time>2017-03-15T11:52:46.000Z</time>
      </trkpt>
      <trkpt lat="44.39555" lon="4.50703">
        <ele>375.60000610352</ele>
        <time>2017-03-15T11:52:49.000Z</time>
      </trkpt>
      <trkpt lat="44.39555" lon="4.50703">
        <ele>375.60000610352</ele>
        <time>2017-03-15T11:53:08.000Z</time>
      </trkpt>
      <trkpt lat="44.39555" lon="4.50703">
        <ele>375.39999389648</ele>
        <time>2017-03-15T11:53:25.000Z</time>
      </trkpt>
      <trkpt lat="44.39555" lon="4.50703">
        <ele>375.39999389648</ele>
        <time>2017-03-15T11:53:39.000Z</time>
      </trkpt>
      <trkpt lat="44.39555" lon="4.50703">
        <ele>375.20001220703</ele>
        <time>2017-03-15T11:53:54.000Z</time>
      </trkpt>
      <trkpt lat="44.39555" lon="4.50703">
        <ele>375.39999389648</ele>
        <time>2017-03-15T11:54:10.000Z</time>
      </trkpt>
      <trkpt lat="44.39555" lon="4.50703">
        <ele>375.60000610352</ele>
        <time>2017-03-15T11:54:26.000Z</time>
      </trkpt>
      <trkpt lat="44.39555" lon="4.50703">
        <ele>375.39999389648</ele>
        <time>2017-03-15T11:54:41.000Z</time>
      </trkpt>
      <trkpt lat="44.39555" lon="4.50703">
        <ele>375.60000610352</ele>
        <time>2017-03-15T11:54:59.000Z</time>
      </trkpt>
      <trkpt lat="44.39555" lon="4.50703">
        <ele>375.79998779297</ele>
        <time>2017-03-15T11:55:13.000Z</time>
      </trkpt>
      <trkpt lat="44.39556" lon="4.50703">
        <ele>375.79998779297</ele>
        <time>2017-03-15T11:55:27.000Z</time>
      </trkpt>
      <trkpt lat="44.39556" lon="4.50703">
        <ele>376</ele>
        <time>2017-03-15T11:55:45.000Z</time>
      </trkpt>
      <trkpt lat="44.39556" lon="4.50703">
        <ele>376</ele>
        <time>2017-03-15T11:55:59.000Z</time>
      </trkpt>
      <trkpt lat="44.39556" lon="4.50703">
        <ele>376</ele>
        <time>2017-03-15T11:56:17.000Z</time>
      </trkpt>
      <trkpt lat="44.39556" lon="4.50703">
        <ele>375.79998779297</ele>
        <time>2017-03-15T11:56:33.000Z</time>
      </trkpt>
      <trkpt lat="44.39557" lon="4.50703">
        <ele>376</ele>
        <time>2017-03-15T11:56:47.000Z</time>
      </trkpt>
      <trkpt lat="44.39557" lon="4.50703">
        <ele>376</ele>
        <time>2017-03-15T11:57:05.000Z</time>
      </trkpt>
      <trkpt lat="44.39557" lon="4.50703">
        <ele>376</ele>
        <time>2017-03-15T11:57:25.000Z</time>
      </trkpt>
      <trkpt lat="44.39557" lon="4.50703">
        <ele>376.20001220703</ele>
        <time>2017-03-15T11:57:45.000Z</time>
      </trkpt>
      <trkpt lat="44.39557" lon="4.50703">
        <ele>376.39999389648</ele>
        <time>2017-03-15T11:58:04.000Z</time>
      </trkpt>
      <trkpt lat="44.39557" lon="4.50703">
        <ele>376.39999389648</ele>
        <time>2017-03-15T11:58:26.000Z</time>
      </trkpt>
      <trkpt lat="44.39557" lon="4.50703">
        <ele>376.39999389648</ele>
        <time>2017-03-15T11:58:46.000Z</time>
      </trkpt>
      <trkpt lat="44.39557" lon="4.50703">
        <ele>376.60000610352</ele>
        <time>2017-03-15T11:59:08.000Z</time>
      </trkpt>
      <trkpt lat="44.39556" lon="4.50702">
        <ele>376.60000610352</ele>
        <time>2017-03-15T11:59:19.000Z</time>
      </trkpt>
      <trkpt lat="44.39556" lon="4.50702">
        <ele>376.79998779297</ele>
        <time>2017-03-15T11:59:28.000Z</time>
      </trkpt>
      <trkpt lat="44.39556" lon="4.50702">
        <ele>376.79998779297</ele>
        <time>2017-03-15T11:59:43.000Z</time>
      </trkpt>
      <trkpt lat="44.39556" lon="4.50702">
        <ele>376.39999389648</ele>
        <time>2017-03-15T12:00:05.000Z</time>
      </trkpt>
      <trkpt lat="44.39556" lon="4.50702">
        <ele>376.20001220703</ele>
        <time>2017-03-15T12:00:24.000Z</time>
      </trkpt>
      <trkpt lat="44.39556" lon="4.50702">
        <ele>376.39999389648</ele>
        <time>2017-03-15T12:00:40.000Z</time>
      </trkpt>
      <trkpt lat="44.39556" lon="4.50702">
        <ele>376.79998779297</ele>
        <time>2017-03-15T12:00:57.000Z</time>
      </trkpt>
      <trkpt lat="44.39556" lon="4.50702">
        <ele>376.60000610352</ele>
        <time>2017-03-15T12:01:18.000Z</time>
      </trkpt>
      <trkpt lat="44.39556" lon="4.50702">
        <ele>376.79998779297</ele>
        <time>2017-03-15T12:01:41.000Z</time>
      </trkpt>
      <trkpt lat="44.39556" lon="4.50702">
        <ele>376.79998779297</ele>
        <time>2017-03-15T12:02:01.000Z</time>
      </trkpt>
      <trkpt lat="44.39556" lon="4.50702">
        <ele>377</ele>
        <time>2017-03-15T12:02:23.000Z</time>
      </trkpt>
      <trkpt lat="44.39555" lon="4.50703">
        <ele>377</ele>
        <time>2017-03-15T12:02:39.000Z</time>
      </trkpt>
      <trkpt lat="44.39555" lon="4.50703">
        <ele>376.79998779297</ele>
        <time>2017-03-15T12:02:58.000Z</time>
      </trkpt>
      <trkpt lat="44.39556" lon="4.50703">
        <ele>376.79998779297</ele>
        <time>2017-03-15T12:03:12.000Z</time>
      </trkpt>
      <trkpt lat="44.39556" lon="4.50703">
        <ele>376.60000610352</ele>
        <time>2017-03-15T12:03:25.000Z</time>
      </trkpt>
      <trkpt lat="44.39556" lon="4.50703">
        <ele>376.79998779297</ele>
        <time>2017-03-15T12:03:44.000Z</time>
      </trkpt>
      <trkpt lat="44.39556" lon="4.50703">
        <ele>376.79998779297</ele>
        <time>2017-03-15T12:03:59.000Z</time>
      </trkpt>
      <trkpt lat="44.39556" lon="4.50703">
        <ele>376.60000610352</ele>
        <time>2017-03-15T12:04:19.000Z</time>
      </trkpt>
      <trkpt lat="44.39556" lon="4.50703">
        <ele>376.39999389648</ele>
        <time>2017-03-15T12:04:36.000Z</time>
      </trkpt>
      <trkpt lat="44.39556" lon="4.50703">
        <ele>376.79998779297</ele>
        <time>2017-03-15T12:04:52.000Z</time>
      </trkpt>
      <trkpt lat="44.39556" lon="4.50703">
        <ele>376.79998779297</ele>
        <time>2017-03-15T12:05:10.000Z</time>
      </trkpt>
      <trkpt lat="44.39556" lon="4.50703">
        <ele>376.79998779297</ele>
        <time>2017-03-15T12:05:30.000Z</time>
      </trkpt>
      <trkpt lat="44.39556" lon="4.50703">
        <ele>376.79998779297</ele>
        <time>2017-03-15T12:05:45.000Z</time>
      </trkpt>
      <trkpt lat="44.39556" lon="4.50703">
        <ele>376.79998779297</ele>
        <time>2017-03-15T12:05:59.000Z</time>
      </trkpt>
      <trkpt lat="44.39556" lon="4.50703">
        <ele>376.79998779297</ele>
        <time>2017-03-15T12:06:13.000Z</time>
      </trkpt>
      <trkpt lat="44.39556" lon="4.50703">
        <ele>377</ele>
        <time>2017-03-15T12:06:28.000Z</time>
      </trkpt>
      <trkpt lat="44.39556" lon="4.50703">
        <ele>377</ele>
        <time>2017-03-15T12:06:41.000Z</time>
      </trkpt>
      <trkpt lat="44.39556" lon="4.50703">
        <ele>377</ele>
        <time>2017-03-15T12:06:55.000Z</time>
      </trkpt>
      <trkpt lat="44.39556" lon="4.50703">
        <ele>377</ele>
        <time>2017-03-15T12:07:12.000Z</time>
      </trkpt>
      <trkpt lat="44.39556" lon="4.50703">
        <ele>377.20001220703</ele>
        <time>2017-03-15T12:07:29.000Z</time>
      </trkpt>
      <trkpt lat="44.39556" lon="4.50703">
        <ele>377.20001220703</ele>
        <time>2017-03-15T12:07:44.000Z</time>
      </trkpt>
      <trkpt lat="44.39556" lon="4.50703">
        <ele>377.39999389648</ele>
        <time>2017-03-15T12:08:00.000Z</time>
      </trkpt>
      <trkpt lat="44.39556" lon="4.50703">
        <ele>377.39999389648</ele>
        <time>2017-03-15T12:08:20.000Z</time>
      </trkpt>
      <trkpt lat="44.39555" lon="4.50703">
        <ele>377.20001220703</ele>
        <time>2017-03-15T12:08:41.000Z</time>
      </trkpt>
      <trkpt lat="44.39555" lon="4.50703">
        <ele>377.39999389648</ele>
        <time>2017-03-15T12:09:00.000Z</time>
      </trkpt>
      <trkpt lat="44.39556" lon="4.50703">
        <ele>377</ele>
        <time>2017-03-15T12:09:17.000Z</time>
      </trkpt>
      <trkpt lat="44.39556" lon="4.50703">
        <ele>377.39999389648</ele>
        <time>2017-03-15T12:09:36.000Z</time>
      </trkpt>
      <trkpt lat="44.39555" lon="4.50703">
        <ele>377.39999389648</ele>
        <time>2017-03-15T12:09:57.000Z</time>
      </trkpt>
      <trkpt lat="44.39555" lon="4.50703">
        <ele>377.39999389648</ele>
        <time>2017-03-15T12:10:14.000Z</time>
      </trkpt>
      <trkpt lat="44.39555" lon="4.50703">
        <ele>377.60000610352</ele>
        <time>2017-03-15T12:10:26.000Z</time>
      </trkpt>
      <trkpt lat="44.39555" lon="4.50703">
        <ele>377.60000610352</ele>
        <time>2017-03-15T12:10:27.000Z</time>
      </trkpt>
      <trkpt lat="44.39555" lon="4.50703">
        <ele>377.79998779297</ele>
        <time>2017-03-15T12:10:49.000Z</time>
      </trkpt>
      <trkpt lat="44.39555" lon="4.50702">
        <ele>377.60000610352</ele>
        <time>2017-03-15T12:11:09.000Z</time>
      </trkpt>
      <trkpt lat="44.39555" lon="4.50702">
        <ele>377.60000610352</ele>
        <time>2017-03-15T12:11:30.000Z</time>
      </trkpt>
      <trkpt lat="44.39555" lon="4.50702">
        <ele>377.79998779297</ele>
        <time>2017-03-15T12:11:47.000Z</time>
      </trkpt>
      <trkpt lat="44.39555" lon="4.50702">
        <ele>377.60000610352</ele>
        <time>2017-03-15T12:12:03.000Z</time>
      </trkpt>
      <trkpt lat="44.39555" lon="4.50702">
        <ele>377.39999389648</ele>
        <time>2017-03-15T12:12:24.000Z</time>
      </trkpt>
      <trkpt lat="44.39555" lon="4.50702">
        <ele>377.20001220703</ele>
        <time>2017-03-15T12:12:41.000Z</time>
      </trkpt>
      <trkpt lat="44.39555" lon="4.50702">
        <ele>377.39999389648</ele>
        <time>2017-03-15T12:12:59.000Z</time>
      </trkpt>
      <trkpt lat="44.39555" lon="4.50703">
        <ele>377.60000610352</ele>
        <time>2017-03-15T12:13:18.000Z</time>
      </trkpt>
      <trkpt lat="44.39555" lon="4.50703">
        <ele>377.60000610352</ele>
        <time>2017-03-15T12:13:41.000Z</time>
      </trkpt>
      <trkpt lat="44.39555" lon="4.50703">
        <ele>377.60000610352</ele>
        <time>2017-03-15T12:14:01.000Z</time>
      </trkpt>
      <trkpt lat="44.39555" lon="4.50703">
        <ele>377.60000610352</ele>
        <time>2017-03-15T12:14:23.000Z</time>
      </trkpt>
      <trkpt lat="44.39555" lon="4.50702">
        <ele>377.60000610352</ele>
        <time>2017-03-15T12:14:40.000Z</time>
      </trkpt>
      <trkpt lat="44.39555" lon="4.50702">
        <ele>377.39999389648</ele>
        <time>2017-03-15T12:15:04.000Z</time>
      </trkpt>
      <trkpt lat="44.39555" lon="4.50703">
        <ele>377.60000610352</ele>
        <time>2017-03-15T12:15:24.000Z</time>
      </trkpt>
      <trkpt lat="44.39555" lon="4.50703">
        <ele>377.79998779297</ele>
        <time>2017-03-15T12:15:45.000Z</time>
      </trkpt>
      <trkpt lat="44.39555" lon="4.50703">
        <ele>377.60000610352</ele>
        <time>2017-03-15T12:16:07.000Z</time>
      </trkpt>
      <trkpt lat="44.39555" lon="4.50703">
        <ele>377.79998779297</ele>
        <time>2017-03-15T12:16:29.000Z</time>
      </trkpt>
      <trkpt lat="44.39555" lon="4.50703">
        <ele>377.79998779297</ele>
        <time>2017-03-15T12:16:50.000Z</time>
      </trkpt>
      <trkpt lat="44.39555" lon="4.50703">
        <ele>377.60000610352</ele>
        <time>2017-03-15T12:17:06.000Z</time>
      </trkpt>
      <trkpt lat="44.39555" lon="4.50703">
        <ele>377.79998779297</ele>
        <time>2017-03-15T12:17:23.000Z</time>
      </trkpt>
      <trkpt lat="44.39555" lon="4.50703">
        <ele>377.79998779297</ele>
        <time>2017-03-15T12:17:41.000Z</time>
      </trkpt>
      <trkpt lat="44.39555" lon="4.50703">
        <ele>377.79998779297</ele>
        <time>2017-03-15T12:18:02.000Z</time>
      </trkpt>
      <trkpt lat="44.39555" lon="4.50703">
        <ele>378</ele>
        <time>2017-03-15T12:18:19.000Z</time>
      </trkpt>
      <trkpt lat="44.39555" lon="4.50703">
        <ele>378.20001220703</ele>
        <time>2017-03-15T12:18:37.000Z</time>
      </trkpt>
      <trkpt lat="44.39555" lon="4.50703">
        <ele>378</ele>
        <time>2017-03-15T12:18:58.000Z</time>
      </trkpt>
      <trkpt lat="44.39555" lon="4.50703">
        <ele>377.79998779297</ele>
        <time>2017-03-15T12:19:15.000Z</time>
      </trkpt>
      <trkpt lat="44.39555" lon="4.50703">
        <ele>378</ele>
        <time>2017-03-15T12:19:35.000Z</time>
      </trkpt>
      <trkpt lat="44.39555" lon="4.50703">
        <ele>377.79998779297</ele>
        <time>2017-03-15T12:19:56.000Z</time>
      </trkpt>
      <trkpt lat="44.39555" lon="4.50703">
        <ele>377.79998779297</ele>
        <time>2017-03-15T12:20:19.000Z</time>
      </trkpt>
      <trkpt lat="44.39555" lon="4.50703">
        <ele>377.79998779297</ele>
        <time>2017-03-15T12:20:39.000Z</time>
      </trkpt>
      <trkpt lat="44.39555" lon="4.50703">
        <ele>377.79998779297</ele>
        <time>2017-03-15T12:20:45.000Z</time>
      </trkpt>
      <trkpt lat="44.39555" lon="4.50703">
        <ele>377.79998779297</ele>
        <time>2017-03-15T12:20:59.000Z</time>
      </trkpt>
      <trkpt lat="44.39555" lon="4.50702">
        <ele>378</ele>
        <time>2017-03-15T12:21:19.000Z</time>
      </trkpt>
      <trkpt lat="44.39555" lon="4.50702">
        <ele>378</ele>
        <time>2017-03-15T12:21:40.000Z</time>
      </trkpt>
      <trkpt lat="44.39555" lon="4.50702">
        <ele>377.79998779297</ele>
        <time>2017-03-15T12:22:01.000Z</time>
      </trkpt>
      <trkpt lat="44.39555" lon="4.50702">
        <ele>378</ele>
        <time>2017-03-15T12:22:23.000Z</time>
      </trkpt>
      <trkpt lat="44.39555" lon="4.50702">
        <ele>378</ele>
        <time>2017-03-15T12:22:39.000Z</time>
      </trkpt>
      <trkpt lat="44.39555" lon="4.50702">
        <ele>378.20001220703</ele>
        <time>2017-03-15T12:22:57.000Z</time>
      </trkpt>
      <trkpt lat="44.39555" lon="4.50703">
        <ele>378.20001220703</ele>
        <time>2017-03-15T12:23:15.000Z</time>
      </trkpt>
      <trkpt lat="44.39555" lon="4.50703">
        <ele>378.79998779297</ele>
        <time>2017-03-15T12:23:26.000Z</time>
      </trkpt>
      <trkpt lat="44.39555" lon="4.50703">
        <ele>378.20001220703</ele>
        <time>2017-03-15T12:23:29.000Z</time>
      </trkpt>
      <trkpt lat="44.39555" lon="4.50703">
        <ele>378.39999389648</ele>
        <time>2017-03-15T12:23:47.000Z</time>
      </trkpt>
      <trkpt lat="44.39555" lon="4.50703">
        <ele>378.39999389648</ele>
        <time>2017-03-15T12:24:09.000Z</time>
      </trkpt>
      <trkpt lat="44.39555" lon="4.50703">
        <ele>378.39999389648</ele>
        <time>2017-03-15T12:24:30.000Z</time>
      </trkpt>
      <trkpt lat="44.39555" lon="4.50703">
        <ele>378.39999389648</ele>
        <time>2017-03-15T12:24:48.000Z</time>
      </trkpt>
      <trkpt lat="44.39555" lon="4.50703">
        <ele>378.39999389648</ele>
        <time>2017-03-15T12:25:09.000Z</time>
      </trkpt>
      <trkpt lat="44.39555" lon="4.50703">
        <ele>378.60000610352</ele>
        <time>2017-03-15T12:25:30.000Z</time>
      </trkpt>
      <trkpt lat="44.39555" lon="4.50703">
        <ele>378.79998779297</ele>
        <time>2017-03-15T12:25:57.000Z</time>
      </trkpt>
      <trkpt lat="44.39555" lon="4.50703">
        <ele>378.39999389648</ele>
        <time>2017-03-15T12:26:20.000Z</time>
      </trkpt>
      <trkpt lat="44.39555" lon="4.50703">
        <ele>378.79998779297</ele>
        <time>2017-03-15T12:26:41.000Z</time>
      </trkpt>
      <trkpt lat="44.39555" lon="4.50703">
        <ele>378.60000610352</ele>
        <time>2017-03-15T12:27:01.000Z</time>
      </trkpt>
      <trkpt lat="44.39554" lon="4.50703">
        <ele>378.79998779297</ele>
        <time>2017-03-15T12:27:17.000Z</time>
      </trkpt>
      <trkpt lat="44.39554" lon="4.50703">
        <ele>378.79998779297</ele>
        <time>2017-03-15T12:27:35.000Z</time>
      </trkpt>
      <trkpt lat="44.39554" lon="4.50704">
        <ele>379.20001220703</ele>
        <time>2017-03-15T12:27:53.000Z</time>
      </trkpt>
      <trkpt lat="44.39554" lon="4.50704">
        <ele>379</ele>
        <time>2017-03-15T12:28:11.000Z</time>
      </trkpt>
      <trkpt lat="44.39554" lon="4.50704">
        <ele>379.20001220703</ele>
        <time>2017-03-15T12:28:30.000Z</time>
      </trkpt>
      <trkpt lat="44.39554" lon="4.50704">
        <ele>379</ele>
        <time>2017-03-15T12:28:47.000Z</time>
      </trkpt>
      <trkpt lat="44.39554" lon="4.50704">
        <ele>379.20001220703</ele>
        <time>2017-03-15T12:29:04.000Z</time>
      </trkpt>
      <trkpt lat="44.39554" lon="4.50704">
        <ele>379</ele>
        <time>2017-03-15T12:29:18.000Z</time>
      </trkpt>
      <trkpt lat="44.39554" lon="4.50704">
        <ele>379</ele>
        <time>2017-03-15T12:29:31.000Z</time>
      </trkpt>
      <trkpt lat="44.39554" lon="4.50704">
        <ele>379</ele>
        <time>2017-03-15T12:29:47.000Z</time>
      </trkpt>
      <trkpt lat="44.39554" lon="4.50704">
        <ele>379</ele>
        <time>2017-03-15T12:30:01.000Z</time>
      </trkpt>
      <trkpt lat="44.39554" lon="4.50704">
        <ele>378.79998779297</ele>
        <time>2017-03-15T12:30:12.000Z</time>
      </trkpt>
      <trkpt lat="44.39554" lon="4.50704">
        <ele>378.79998779297</ele>
        <time>2017-03-15T12:30:27.000Z</time>
      </trkpt>
      <trkpt lat="44.39554" lon="4.50704">
        <ele>378.79998779297</ele>
        <time>2017-03-15T12:30:42.000Z</time>
      </trkpt>
      <trkpt lat="44.39554" lon="4.50704">
        <ele>379.20001220703</ele>
        <time>2017-03-15T12:30:56.000Z</time>
      </trkpt>
      <trkpt lat="44.39554" lon="4.50704">
        <ele>379</ele>
        <time>2017-03-15T12:31:08.000Z</time>
      </trkpt>
      <trkpt lat="44.39554" lon="4.50704">
        <ele>379</ele>
        <time>2017-03-15T12:31:23.000Z</time>
      </trkpt>
      <trkpt lat="44.39554" lon="4.50704">
        <ele>379</ele>
        <time>2017-03-15T12:31:34.000Z</time>
      </trkpt>
      <trkpt lat="44.39554" lon="4.50704">
        <ele>379</ele>
        <time>2017-03-15T12:31:45.000Z</time>
      </trkpt>
      <trkpt lat="44.39558" lon="4.50701">
        <ele>379.20001220703</ele>
        <time>2017-03-15T12:31:57.000Z</time>
      </trkpt>
      <trkpt lat="44.3956" lon="4.507">
        <ele>379.20001220703</ele>
        <time>2017-03-15T12:32:07.000Z</time>
      </trkpt>
      <trkpt lat="44.3956" lon="4.507">
        <ele>379.20001220703</ele>
        <time>2017-03-15T12:32:17.000Z</time>
      </trkpt>
      <trkpt lat="44.3956" lon="4.507">
        <ele>379.20001220703</ele>
        <time>2017-03-15T12:32:34.000Z</time>
      </trkpt>
      <trkpt lat="44.3956" lon="4.507">
        <ele>379.20001220703</ele>
        <time>2017-03-15T12:32:47.000Z</time>
      </trkpt>
      <trkpt lat="44.3956" lon="4.507">
        <ele>379.20001220703</ele>
        <time>2017-03-15T12:33:04.000Z</time>
      </trkpt>
      <trkpt lat="44.3956" lon="4.507">
        <ele>379.20001220703</ele>
        <time>2017-03-15T12:33:21.000Z</time>
      </trkpt>
      <trkpt lat="44.3956" lon="4.507">
        <ele>379</ele>
        <time>2017-03-15T12:33:35.000Z</time>
      </trkpt>
      <trkpt lat="44.3956" lon="4.507">
        <ele>379.39999389648</ele>
        <time>2017-03-15T12:33:51.000Z</time>
      </trkpt>
      <trkpt lat="44.3956" lon="4.507">
        <ele>379.20001220703</ele>
        <time>2017-03-15T12:34:09.000Z</time>
      </trkpt>
      <trkpt lat="44.3956" lon="4.50701">
        <ele>379</ele>
        <time>2017-03-15T12:34:30.000Z</time>
      </trkpt>
      <trkpt lat="44.3956" lon="4.50701">
        <ele>379.20001220703</ele>
        <time>2017-03-15T12:34:47.000Z</time>
      </trkpt>
      <trkpt lat="44.39559" lon="4.50701">
        <ele>379.39999389648</ele>
        <time>2017-03-15T12:35:03.000Z</time>
      </trkpt>
      <trkpt lat="44.39559" lon="4.50701">
        <ele>379.20001220703</ele>
        <time>2017-03-15T12:35:19.000Z</time>
      </trkpt>
      <trkpt lat="44.39558" lon="4.50701">
        <ele>379.39999389648</ele>
        <time>2017-03-15T12:35:37.000Z</time>
      </trkpt>
      <trkpt lat="44.39558" lon="4.50701">
        <ele>379.39999389648</ele>
        <time>2017-03-15T12:35:56.000Z</time>
      </trkpt>
      <trkpt lat="44.39558" lon="4.50701">
        <ele>379.20001220703</ele>
        <time>2017-03-15T12:36:16.000Z</time>
      </trkpt>
      <trkpt lat="44.39558" lon="4.50701">
        <ele>379.20001220703</ele>
        <time>2017-03-15T12:36:37.000Z</time>
      </trkpt>
      <trkpt lat="44.39558" lon="4.50701">
        <ele>379.39999389648</ele>
        <time>2017-03-15T12:36:55.000Z</time>
      </trkpt>
      <trkpt lat="44.39558" lon="4.50701">
        <ele>379.60000610352</ele>
        <time>2017-03-15T12:37:14.000Z</time>
      </trkpt>
      <trkpt lat="44.39558" lon="4.50701">
        <ele>379.60000610352</ele>
        <time>2017-03-15T12:37:34.000Z</time>
      </trkpt>
      <trkpt lat="44.39558" lon="4.50701">
        <ele>379.60000610352</ele>
        <time>2017-03-15T12:37:55.000Z</time>
      </trkpt>
      <trkpt lat="44.39557" lon="4.50702">
        <ele>379.60000610352</ele>
        <time>2017-03-15T12:38:19.000Z</time>
      </trkpt>
      <trkpt lat="44.39557" lon="4.50702">
        <ele>379.79998779297</ele>
        <time>2017-03-15T12:38:31.000Z</time>
      </trkpt>
      <trkpt lat="44.39557" lon="4.50702">
        <ele>379.79998779297</ele>
        <time>2017-03-15T12:38:37.000Z</time>
      </trkpt>
      <trkpt lat="44.39557" lon="4.50702">
        <ele>379.79998779297</ele>
        <time>2017-03-15T12:38:58.000Z</time>
      </trkpt>
      <trkpt lat="44.39557" lon="4.50702">
        <ele>379.79998779297</ele>
        <time>2017-03-15T12:39:19.000Z</time>
      </trkpt>
      <trkpt lat="44.39557" lon="4.50702">
        <ele>379.60000610352</ele>
        <time>2017-03-15T12:39:39.000Z</time>
      </trkpt>
      <trkpt lat="44.39557" lon="4.50702">
        <ele>378.79998779297</ele>
        <time>2017-03-15T12:39:49.000Z</time>
      </trkpt>
      <trkpt lat="44.39557" lon="4.50702">
        <ele>378.79998779297</ele>
        <time>2017-03-15T12:39:58.000Z</time>
      </trkpt>
      <trkpt lat="44.39557" lon="4.50702">
        <ele>379.20001220703</ele>
        <time>2017-03-15T12:40:17.000Z</time>
      </trkpt>
      <trkpt lat="44.39557" lon="4.50702">
        <ele>378.79998779297</ele>
        <time>2017-03-15T12:40:39.000Z</time>
      </trkpt>
      <trkpt lat="44.39557" lon="4.50702">
        <ele>379</ele>
        <time>2017-03-15T12:41:02.000Z</time>
      </trkpt>
      <trkpt lat="44.39557" lon="4.50702">
        <ele>380</ele>
        <time>2017-03-15T12:41:04.000Z</time>
      </trkpt>
      <trkpt lat="44.39557" lon="4.50702">
        <ele>380</ele>
        <time>2017-03-15T12:41:24.000Z</time>
      </trkpt>
      <trkpt lat="44.39557" lon="4.50702">
        <ele>380</ele>
        <time>2017-03-15T12:41:43.000Z</time>
      </trkpt>
      <trkpt lat="44.39557" lon="4.50702">
        <ele>379.79998779297</ele>
        <time>2017-03-15T12:42:03.000Z</time>
      </trkpt>
      <trkpt lat="44.39557" lon="4.50702">
        <ele>379.39999389648</ele>
        <time>2017-03-15T12:42:23.000Z</time>
      </trkpt>
      <trkpt lat="44.39557" lon="4.50702">
        <ele>379.79998779297</ele>
        <time>2017-03-15T12:42:38.000Z</time>
      </trkpt>
      <trkpt lat="44.39557" lon="4.50702">
        <ele>379.79998779297</ele>
        <time>2017-03-15T12:42:58.000Z</time>
      </trkpt>
      <trkpt lat="44.39557" lon="4.50702">
        <ele>379.79998779297</ele>
        <time>2017-03-15T12:43:17.000Z</time>
      </trkpt>
      <trkpt lat="44.39557" lon="4.50702">
        <ele>380</ele>
        <time>2017-03-15T12:43:37.000Z</time>
      </trkpt>
      <trkpt lat="44.39557" lon="4.50702">
        <ele>380</ele>
        <time>2017-03-15T12:44:01.000Z</time>
      </trkpt>
      <trkpt lat="44.39557" lon="4.50702">
        <ele>380.39999389648</ele>
        <time>2017-03-15T12:44:25.000Z</time>
      </trkpt>
      <trkpt lat="44.39557" lon="4.50702">
        <ele>380</ele>
        <time>2017-03-15T12:44:45.000Z</time>
      </trkpt>
      <trkpt lat="44.39557" lon="4.50702">
        <ele>380</ele>
        <time>2017-03-15T12:45:03.000Z</time>
      </trkpt>
      <trkpt lat="44.39557" lon="4.50702">
        <ele>380</ele>
        <time>2017-03-15T12:45:24.000Z</time>
      </trkpt>
      <trkpt lat="44.39556" lon="4.50702">
        <ele>380</ele>
        <time>2017-03-15T12:45:45.000Z</time>
      </trkpt>
      <trkpt lat="44.39556" lon="4.50702">
        <ele>380</ele>
        <time>2017-03-15T12:46:05.000Z</time>
      </trkpt>
      <trkpt lat="44.39556" lon="4.50702">
        <ele>380.20001220703</ele>
        <time>2017-03-15T12:46:23.000Z</time>
      </trkpt>
      <trkpt lat="44.39556" lon="4.50702">
        <ele>380.39999389648</ele>
        <time>2017-03-15T12:46:41.000Z</time>
      </trkpt>
      <trkpt lat="44.39556" lon="4.50702">
        <ele>379.79998779297</ele>
        <time>2017-03-15T12:46:57.000Z</time>
      </trkpt>
      <trkpt lat="44.39556" lon="4.50702">
        <ele>380.39999389648</ele>
        <time>2017-03-15T12:47:16.000Z</time>
      </trkpt>
      <trkpt lat="44.39556" lon="4.50702">
        <ele>380.20001220703</ele>
        <time>2017-03-15T12:47:33.000Z</time>
      </trkpt>
      <trkpt lat="44.39556" lon="4.50702">
        <ele>380.39999389648</ele>
        <time>2017-03-15T12:47:53.000Z</time>
      </trkpt>
      <trkpt lat="44.39556" lon="4.50702">
        <ele>380.39999389648</ele>
        <time>2017-03-15T12:48:10.000Z</time>
      </trkpt>
      <trkpt lat="44.39556" lon="4.50702">
        <ele>380.60000610352</ele>
        <time>2017-03-15T12:48:24.000Z</time>
      </trkpt>
      <trkpt lat="44.39556" lon="4.50702">
        <ele>380.60000610352</ele>
        <time>2017-03-15T12:48:41.000Z</time>
      </trkpt>
      <trkpt lat="44.39556" lon="4.50702">
        <ele>380.79998779297</ele>
        <time>2017-03-15T12:49:00.000Z</time>
      </trkpt>
      <trkpt lat="44.39556" lon="4.50702">
        <ele>380.79998779297</ele>
        <time>2017-03-15T12:49:20.000Z</time>
      </trkpt>
      <trkpt lat="44.39556" lon="4.50701">
        <ele>380.60000610352</ele>
        <time>2017-03-15T12:49:38.000Z</time>
      </trkpt>
      <trkpt lat="44.39556" lon="4.50701">
        <ele>380.60000610352</ele>
        <time>2017-03-15T12:49:54.000Z</time>
      </trkpt>
      <trkpt lat="44.39556" lon="4.50701">
        <ele>380.79998779297</ele>
        <time>2017-03-15T12:50:14.000Z</time>
      </trkpt>
      <trkpt lat="44.39556" lon="4.50701">
        <ele>380.79998779297</ele>
        <time>2017-03-15T12:50:31.000Z</time>
      </trkpt>
      <trkpt lat="44.39556" lon="4.50701">
        <ele>381</ele>
        <time>2017-03-15T12:50:50.000Z</time>
      </trkpt>
      <trkpt lat="44.39556" lon="4.50701">
        <ele>381</ele>
        <time>2017-03-15T12:50:51.000Z</time>
      </trkpt>
      <trkpt lat="44.39556" lon="4.50701">
        <ele>380.79998779297</ele>
        <time>2017-03-15T12:51:12.000Z</time>
      </trkpt>
      <trkpt lat="44.39556" lon="4.50701">
        <ele>380.79998779297</ele>
        <time>2017-03-15T12:51:30.000Z</time>
      </trkpt>
      <trkpt lat="44.39556" lon="4.50701">
        <ele>379.39999389648</ele>
        <time>2017-03-15T12:51:36.000Z</time>
      </trkpt>
      <trkpt lat="44.39556" lon="4.50701">
        <ele>380.79998779297</ele>
        <time>2017-03-15T12:51:38.000Z</time>
      </trkpt>
      <trkpt lat="44.39556" lon="4.50701">
        <ele>380.79998779297</ele>
        <time>2017-03-15T12:51:42.000Z</time>
      </trkpt>
      <trkpt lat="44.39556" lon="4.50701">
        <ele>379.79998779297</ele>
        <time>2017-03-15T12:51:43.000Z</time>
      </trkpt>
      <trkpt lat="44.39556" lon="4.50701">
        <ele>378.39999389648</ele>
        <time>2017-03-15T12:51:45.000Z</time>
      </trkpt>
      <trkpt lat="44.39556" lon="4.50701">
        <ele>381.79998779297</ele>
        <time>2017-03-15T12:51:46.000Z</time>
      </trkpt>
      <trkpt lat="44.39556" lon="4.50701">
        <ele>379.60000610352</ele>
        <time>2017-03-15T12:51:47.000Z</time>
      </trkpt>
      <trkpt lat="44.39556" lon="4.50701">
        <ele>381.79998779297</ele>
        <time>2017-03-15T12:51:48.000Z</time>
      </trkpt>
      <trkpt lat="44.39556" lon="4.50701">
        <ele>382.79998779297</ele>
        <time>2017-03-15T12:51:49.000Z</time>
      </trkpt>
      <trkpt lat="44.39556" lon="4.50701">
        <ele>384.79998779297</ele>
        <time>2017-03-15T12:51:50.000Z</time>
      </trkpt>
      <trkpt lat="44.39556" lon="4.50701">
        <ele>381.39999389648</ele>
        <time>2017-03-15T12:51:52.000Z</time>
      </trkpt>
      <trkpt lat="44.39556" lon="4.50701">
        <ele>381</ele>
        <time>2017-03-15T12:51:56.000Z</time>
      </trkpt>
      <trkpt lat="44.39556" lon="4.50702">
        <ele>380.79998779297</ele>
        <time>2017-03-15T12:52:05.000Z</time>
      </trkpt>
      <trkpt lat="44.39561" lon="4.50704">
        <ele>381</ele>
        <time>2017-03-15T12:52:18.000Z</time>
      </trkpt>
      <trkpt lat="44.39566" lon="4.50708">
        <ele>381</ele>
        <time>2017-03-15T12:52:28.000Z</time>
      </trkpt>
      <trkpt lat="44.39567" lon="4.50708">
        <ele>381</ele>
        <time>2017-03-15T12:52:29.000Z</time>
      </trkpt>
      <trkpt lat="44.39574" lon="4.50715">
        <ele>380.79998779297</ele>
        <time>2017-03-15T12:52:43.000Z</time>
      </trkpt>
      <trkpt lat="44.39592" lon="4.50733">
        <ele>380.79998779297</ele>
        <time>2017-03-15T12:53:02.000Z</time>
      </trkpt>
      <trkpt lat="44.39602" lon="4.50742">
        <ele>380.79998779297</ele>
        <time>2017-03-15T12:53:14.000Z</time>
      </trkpt>
      <trkpt lat="44.3961" lon="4.50749">
        <ele>381</ele>
        <time>2017-03-15T12:53:27.000Z</time>
      </trkpt>
      <trkpt lat="44.39607" lon="4.50747">
        <ele>380.79998779297</ele>
        <time>2017-03-15T12:53:38.000Z</time>
      </trkpt>
      <trkpt lat="44.39578" lon="4.50736">
        <ele>381</ele>
        <time>2017-03-15T12:53:49.000Z</time>
      </trkpt>
      <trkpt lat="44.39575" lon="4.50745">
        <ele>380.79998779297</ele>
        <time>2017-03-15T12:54:02.000Z</time>
      </trkpt>
      <trkpt lat="44.39568" lon="4.50722">
        <ele>381</ele>
        <time>2017-03-15T12:54:12.000Z</time>
      </trkpt>
      <trkpt lat="44.39568" lon="4.50722">
        <ele>379.39999389648</ele>
        <time>2017-03-15T12:54:18.000Z</time>
      </trkpt>
      <trkpt lat="44.39568" lon="4.50722">
        <ele>381</ele>
        <time>2017-03-15T12:54:19.000Z</time>
      </trkpt>
      <trkpt lat="44.39568" lon="4.50722">
        <ele>379.79998779297</ele>
        <time>2017-03-15T12:54:20.000Z</time>
      </trkpt>
      <trkpt lat="44.39568" lon="4.50722">
        <ele>381.20001220703</ele>
        <time>2017-03-15T12:54:21.000Z</time>
      </trkpt>
      <trkpt lat="44.39568" lon="4.50722">
        <ele>382.39999389648</ele>
        <time>2017-03-15T12:54:25.000Z</time>
      </trkpt>
      <trkpt lat="44.39568" lon="4.50722">
        <ele>381</ele>
        <time>2017-03-15T12:54:26.000Z</time>
      </trkpt>
      <trkpt lat="44.39568" lon="4.50722">
        <ele>381</ele>
        <time>2017-03-15T12:54:41.000Z</time>
      </trkpt>
      <trkpt lat="44.39566" lon="4.50714">
        <ele>379</ele>
        <time>2017-03-15T12:54:56.000Z</time>
      </trkpt>
      <trkpt lat="44.39566" lon="4.50714">
        <ele>380.20001220703</ele>
        <time>2017-03-15T12:54:57.000Z</time>
      </trkpt>
      <trkpt lat="44.39566" lon="4.50714">
        <ele>382.20001220703</ele>
        <time>2017-03-15T12:54:59.000Z</time>
      </trkpt>
      <trkpt lat="44.39564" lon="4.507">
        <ele>381.20001220703</ele>
        <time>2017-03-15T12:55:00.000Z</time>
      </trkpt>
      <trkpt lat="44.39563" lon="4.50697">
        <ele>380.79998779297</ele>
        <time>2017-03-15T12:55:06.000Z</time>
      </trkpt>
      <trkpt lat="44.3956" lon="4.50698">
        <ele>381</ele>
        <time>2017-03-15T12:55:17.000Z</time>
      </trkpt>
      <trkpt lat="44.3956" lon="4.50698">
        <ele>381.20001220703</ele>
        <time>2017-03-15T12:55:37.000Z</time>
      </trkpt>
      <trkpt lat="44.39559" lon="4.50698">
        <ele>381.20001220703</ele>
        <time>2017-03-15T12:55:58.000Z</time>
      </trkpt>
      <trkpt lat="44.39559" lon="4.50698">
        <ele>381.60000610352</ele>
        <time>2017-03-15T12:56:19.000Z</time>
      </trkpt>
      <trkpt lat="44.39559" lon="4.50698">
        <ele>381.20001220703</ele>
        <time>2017-03-15T12:56:42.000Z</time>
      </trkpt>
      <trkpt lat="44.39559" lon="4.50698">
        <ele>381.39999389648</ele>
        <time>2017-03-15T12:57:05.000Z</time>
      </trkpt>
      <trkpt lat="44.39559" lon="4.50698">
        <ele>381.60000610352</ele>
        <time>2017-03-15T12:57:29.000Z</time>
      </trkpt>
      <trkpt lat="44.39559" lon="4.50698">
        <ele>381.20001220703</ele>
        <time>2017-03-15T12:57:46.000Z</time>
      </trkpt>
      <trkpt lat="44.39559" lon="4.50699">
        <ele>381.39999389648</ele>
        <time>2017-03-15T12:57:58.000Z</time>
      </trkpt>
      <trkpt lat="44.39559" lon="4.50699">
        <ele>381.20001220703</ele>
        <time>2017-03-15T12:58:11.000Z</time>
      </trkpt>
      <trkpt lat="44.39559" lon="4.50699">
        <ele>381.39999389648</ele>
        <time>2017-03-15T12:58:25.000Z</time>
      </trkpt>
      <trkpt lat="44.39559" lon="4.50702">
        <ele>381.20001220703</ele>
        <time>2017-03-15T12:58:35.000Z</time>
      </trkpt>
      <trkpt lat="44.39562" lon="4.50707">
        <ele>381.20001220703</ele>
        <time>2017-03-15T12:58:46.000Z</time>
      </trkpt>
      <trkpt lat="44.39561" lon="4.50706">
        <ele>381.20001220703</ele>
        <time>2017-03-15T12:58:56.000Z</time>
      </trkpt>
      <trkpt lat="44.39556" lon="4.50702">
        <ele>381.20001220703</ele>
        <time>2017-03-15T12:59:06.000Z</time>
      </trkpt>
      <trkpt lat="44.39556" lon="4.50702">
        <ele>381.39999389648</ele>
        <time>2017-03-15T12:59:20.000Z</time>
      </trkpt>
      <trkpt lat="44.39556" lon="4.50702">
        <ele>381.39999389648</ele>
        <time>2017-03-15T12:59:39.000Z</time>
      </trkpt>
      <trkpt lat="44.39556" lon="4.50702">
        <ele>381.60000610352</ele>
        <time>2017-03-15T12:59:55.000Z</time>
      </trkpt>
      <trkpt lat="44.39556" lon="4.50702">
        <ele>381.60000610352</ele>
        <time>2017-03-15T13:00:11.000Z</time>
      </trkpt>
      <trkpt lat="44.39556" lon="4.50702">
        <ele>381.60000610352</ele>
        <time>2017-03-15T13:00:14.000Z</time>
      </trkpt>
      <trkpt lat="44.39556" lon="4.50701">
        <ele>381.39999389648</ele>
        <time>2017-03-15T13:00:29.000Z</time>
      </trkpt>
      <trkpt lat="44.39556" lon="4.50701">
        <ele>381.79998779297</ele>
        <time>2017-03-15T13:00:42.000Z</time>
      </trkpt>
      <trkpt lat="44.39556" lon="4.50701">
        <ele>382.39999389648</ele>
        <time>2017-03-15T13:00:46.000Z</time>
      </trkpt>
      <trkpt lat="44.39557" lon="4.50702">
        <ele>382.39999389648</ele>
        <time>2017-03-15T13:00:53.000Z</time>
      </trkpt>
      <trkpt lat="44.39557" lon="4.50702">
        <ele>382.20001220703</ele>
        <time>2017-03-15T13:01:05.000Z</time>
      </trkpt>
      <trkpt lat="44.39557" lon="4.50702">
        <ele>382.20001220703</ele>
        <time>2017-03-15T13:01:18.000Z</time>
      </trkpt>
      <trkpt lat="44.39555" lon="4.50698">
        <ele>382</ele>
        <time>2017-03-15T13:01:27.000Z</time>
      </trkpt>
      <trkpt lat="44.39549" lon="4.50699">
        <ele>381.60000610352</ele>
        <time>2017-03-15T13:01:41.000Z</time>
      </trkpt>
      <trkpt lat="44.39549" lon="4.50699">
        <ele>382</ele>
        <time>2017-03-15T13:01:53.000Z</time>
      </trkpt>
      <trkpt lat="44.3955" lon="4.50698">
        <ele>381.79998779297</ele>
        <time>2017-03-15T13:02:03.000Z</time>
      </trkpt>
      <trkpt lat="44.39551" lon="4.507">
        <ele>381.20001220703</ele>
        <time>2017-03-15T13:02:10.000Z</time>
      </trkpt>
      <trkpt lat="44.39551" lon="4.50701">
        <ele>382</ele>
        <time>2017-03-15T13:02:15.000Z</time>
      </trkpt>
      <trkpt lat="44.39551" lon="4.50701">
        <ele>382.20001220703</ele>
        <time>2017-03-15T13:02:16.000Z</time>
      </trkpt>
      <trkpt lat="44.39551" lon="4.50701">
        <ele>382.20001220703</ele>
        <time>2017-03-15T13:02:26.000Z</time>
      </trkpt>
      <trkpt lat="44.39549" lon="4.50696">
        <ele>381.79998779297</ele>
        <time>2017-03-15T13:02:38.000Z</time>
      </trkpt>
      <trkpt lat="44.39549" lon="4.50696">
        <ele>382</ele>
        <time>2017-03-15T13:02:48.000Z</time>
      </trkpt>
      <trkpt lat="44.39546" lon="4.50693">
        <ele>382.20001220703</ele>
        <time>2017-03-15T13:02:58.000Z</time>
      </trkpt>
      <trkpt lat="44.39545" lon="4.5069">
        <ele>382.20001220703</ele>
        <time>2017-03-15T13:03:07.000Z</time>
      </trkpt>
      <trkpt lat="44.39543" lon="4.50683">
        <ele>382</ele>
        <time>2017-03-15T13:03:19.000Z</time>
      </trkpt>
      <trkpt lat="44.39534" lon="4.50677">
        <ele>382</ele>
        <time>2017-03-15T13:03:29.000Z</time>
      </trkpt>
      <trkpt lat="44.3953" lon="4.50671">
        <ele>382.20001220703</ele>
        <time>2017-03-15T13:03:37.000Z</time>
      </trkpt>
      <trkpt lat="44.3953" lon="4.50671">
        <ele>381</ele>
        <time>2017-03-15T13:03:47.000Z</time>
      </trkpt>
      <trkpt lat="44.3953" lon="4.50671">
        <ele>381.60000610352</ele>
        <time>2017-03-15T13:03:48.000Z</time>
      </trkpt>
      <trkpt lat="44.3953" lon="4.50671">
        <ele>382</ele>
        <time>2017-03-15T13:03:49.000Z</time>
      </trkpt>
      <trkpt lat="44.3953" lon="4.50671">
        <ele>381.79998779297</ele>
        <time>2017-03-15T13:04:00.000Z</time>
      </trkpt>
      <trkpt lat="44.39537" lon="4.50676">
        <ele>381.60000610352</ele>
        <time>2017-03-15T13:04:15.000Z</time>
      </trkpt>
      <trkpt lat="44.39537" lon="4.50676">
        <ele>381.79998779297</ele>
        <time>2017-03-15T13:04:17.000Z</time>
      </trkpt>
      <trkpt lat="44.39537" lon="4.50676">
        <ele>381.79998779297</ele>
        <time>2017-03-15T13:04:27.000Z</time>
      </trkpt>
      <trkpt lat="44.39538" lon="4.50678">
        <ele>382.60000610352</ele>
        <time>2017-03-15T13:04:43.000Z</time>
      </trkpt>
      <trkpt lat="44.39539" lon="4.5068">
        <ele>381</ele>
        <time>2017-03-15T13:04:51.000Z</time>
      </trkpt>
      <trkpt lat="44.3954" lon="4.50681">
        <ele>382.20001220703</ele>
        <time>2017-03-15T13:04:53.000Z</time>
      </trkpt>
      <trkpt lat="44.39543" lon="4.50682">
        <ele>381.79998779297</ele>
        <time>2017-03-15T13:04:56.000Z</time>
      </trkpt>
      <trkpt lat="44.39543" lon="4.50682">
        <ele>382</ele>
        <time>2017-03-15T13:05:05.000Z</time>
      </trkpt>
      <trkpt lat="44.39538" lon="4.50686">
        <ele>382</ele>
        <time>2017-03-15T13:05:16.000Z</time>
      </trkpt>
      <trkpt lat="44.39549" lon="4.50686">
        <ele>381.79998779297</ele>
        <time>2017-03-15T13:05:29.000Z</time>
      </trkpt>
      <trkpt lat="44.39557" lon="4.50684">
        <ele>381.79998779297</ele>
        <time>2017-03-15T13:05:36.000Z</time>
      </trkpt>
      <trkpt lat="44.39552" lon="4.5068">
        <ele>381.39999389648</ele>
        <time>2017-03-15T13:05:42.000Z</time>
      </trkpt>
      <trkpt lat="44.39552" lon="4.50679">
        <ele>381.20001220703</ele>
        <time>2017-03-15T13:05:43.000Z</time>
      </trkpt>
      <trkpt lat="44.39549" lon="4.50685">
        <ele>381.39999389648</ele>
        <time>2017-03-15T13:05:49.000Z</time>
      </trkpt>
      <trkpt lat="44.39546" lon="4.5069">
        <ele>381.39999389648</ele>
        <time>2017-03-15T13:05:54.000Z</time>
      </trkpt>
      <trkpt lat="44.39546" lon="4.5069">
        <ele>380.79998779297</ele>
        <time>2017-03-15T13:05:59.000Z</time>
      </trkpt>
      <trkpt lat="44.39546" lon="4.5069">
        <ele>382.20001220703</ele>
        <time>2017-03-15T13:06:03.000Z</time>
      </trkpt>
      <trkpt lat="44.39546" lon="4.5069">
        <ele>382.39999389648</ele>
        <time>2017-03-15T13:06:12.000Z</time>
      </trkpt>
      <trkpt lat="44.39546" lon="4.5069">
        <ele>381.60000610352</ele>
        <time>2017-03-15T13:06:25.000Z</time>
      </trkpt>
      <trkpt lat="44.39546" lon="4.5069">
        <ele>381.79998779297</ele>
        <time>2017-03-15T13:06:43.000Z</time>
      </trkpt>
      <trkpt lat="44.39546" lon="4.5069">
        <ele>381.79998779297</ele>
        <time>2017-03-15T13:06:58.000Z</time>
      </trkpt>
      <trkpt lat="44.39546" lon="4.5069">
        <ele>381.79998779297</ele>
        <time>2017-03-15T13:07:11.000Z</time>
      </trkpt>
      <trkpt lat="44.39546" lon="4.5069">
        <ele>382</ele>
        <time>2017-03-15T13:07:24.000Z</time>
      </trkpt>
      <trkpt lat="44.39546" lon="4.5069">
        <ele>382.39999389648</ele>
        <time>2017-03-15T13:07:39.000Z</time>
      </trkpt>
      <trkpt lat="44.39546" lon="4.5069">
        <ele>382.20001220703</ele>
        <time>2017-03-15T13:07:53.000Z</time>
      </trkpt>
      <trkpt lat="44.39546" lon="4.5069">
        <ele>382.20001220703</ele>
        <time>2017-03-15T13:08:07.000Z</time>
      </trkpt>
      <trkpt lat="44.39546" lon="4.5069">
        <ele>382.20001220703</ele>
        <time>2017-03-15T13:08:17.000Z</time>
      </trkpt>
      <trkpt lat="44.39546" lon="4.5069">
        <ele>382.60000610352</ele>
        <time>2017-03-15T13:08:27.000Z</time>
      </trkpt>
      <trkpt lat="44.39546" lon="4.5069">
        <ele>380.39999389648</ele>
        <time>2017-03-15T13:08:28.000Z</time>
      </trkpt>
      <trkpt lat="44.39546" lon="4.5069">
        <ele>381.60000610352</ele>
        <time>2017-03-15T13:08:29.000Z</time>
      </trkpt>
      <trkpt lat="44.39546" lon="4.5069">
        <ele>383.39999389648</ele>
        <time>2017-03-15T13:08:31.000Z</time>
      </trkpt>
      <trkpt lat="44.39546" lon="4.5069">
        <ele>382.39999389648</ele>
        <time>2017-03-15T13:08:32.000Z</time>
      </trkpt>
      <trkpt lat="44.39546" lon="4.5069">
        <ele>382.39999389648</ele>
        <time>2017-03-15T13:08:37.000Z</time>
      </trkpt>
      <trkpt lat="44.39546" lon="4.5069">
        <ele>382.60000610352</ele>
        <time>2017-03-15T13:08:50.000Z</time>
      </trkpt>
      <trkpt lat="44.39546" lon="4.5069">
        <ele>382</ele>
        <time>2017-03-15T13:09:00.000Z</time>
      </trkpt>
      <trkpt lat="44.39546" lon="4.5069">
        <ele>382.60000610352</ele>
        <time>2017-03-15T13:09:06.000Z</time>
      </trkpt>
      <trkpt lat="44.39546" lon="4.5069">
        <ele>382.60000610352</ele>
        <time>2017-03-15T13:09:14.000Z</time>
      </trkpt>
      <trkpt lat="44.39546" lon="4.5069">
        <ele>382.79998779297</ele>
        <time>2017-03-15T13:09:23.000Z</time>
      </trkpt>
      <trkpt lat="44.39546" lon="4.5069">
        <ele>382.20001220703</ele>
        <time>2017-03-15T13:09:34.000Z</time>
      </trkpt>
      <trkpt lat="44.39546" lon="4.5069">
        <ele>382.39999389648</ele>
        <time>2017-03-15T13:09:47.000Z</time>
      </trkpt>
      <trkpt lat="44.39546" lon="4.5069">
        <ele>382</ele>
        <time>2017-03-15T13:10:01.000Z</time>
      </trkpt>
      <trkpt lat="44.39546" lon="4.5069">
        <ele>382</ele>
        <time>2017-03-15T13:10:16.000Z</time>
      </trkpt>
      <trkpt lat="44.39546" lon="4.5069">
        <ele>382.39999389648</ele>
        <time>2017-03-15T13:10:34.000Z</time>
      </trkpt>
      <trkpt lat="44.39545" lon="4.5069">
        <ele>382.20001220703</ele>
        <time>2017-03-15T13:10:56.000Z</time>
      </trkpt>
      <trkpt lat="44.39545" lon="4.5069">
        <ele>381.79998779297</ele>
        <time>2017-03-15T13:11:15.000Z</time>
      </trkpt>
      <trkpt lat="44.39545" lon="4.5069">
        <ele>381.79998779297</ele>
        <time>2017-03-15T13:11:31.000Z</time>
      </trkpt>
      <trkpt lat="44.39544" lon="4.50689">
        <ele>382.20001220703</ele>
        <time>2017-03-15T13:11:40.000Z</time>
      </trkpt>
      <trkpt lat="44.39546" lon="4.50688">
        <ele>382.20001220703</ele>
        <time>2017-03-15T13:11:48.000Z</time>
      </trkpt>
      <trkpt lat="44.39552" lon="4.50681">
        <ele>381.79998779297</ele>
        <time>2017-03-15T13:11:53.000Z</time>
      </trkpt>
      <trkpt lat="44.39553" lon="4.5068">
        <ele>381.79998779297</ele>
        <time>2017-03-15T13:11:54.000Z</time>
      </trkpt>
      <trkpt lat="44.39555" lon="4.50679">
        <ele>381.79998779297</ele>
        <time>2017-03-15T13:11:56.000Z</time>
      </trkpt>
      <trkpt lat="44.39558" lon="4.50681">
        <ele>381.79998779297</ele>
        <time>2017-03-15T13:11:58.000Z</time>
      </trkpt>
      <trkpt lat="44.39565" lon="4.50678">
        <ele>381.79998779297</ele>
        <time>2017-03-15T13:12:02.000Z</time>
      </trkpt>
      <trkpt lat="44.39566" lon="4.50677">
        <ele>381.79998779297</ele>
        <time>2017-03-15T13:12:03.000Z</time>
      </trkpt>
      <trkpt lat="44.39569" lon="4.50674">
        <ele>381.20001220703</ele>
        <time>2017-03-15T13:12:05.000Z</time>
      </trkpt>
      <trkpt lat="44.39574" lon="4.50667">
        <ele>381.39999389648</ele>
        <time>2017-03-15T13:12:10.000Z</time>
      </trkpt>
      <trkpt lat="44.39574" lon="4.50667">
        <ele>381.39999389648</ele>
        <time>2017-03-15T13:12:15.000Z</time>
      </trkpt>
      <trkpt lat="44.39574" lon="4.50667">
        <ele>381.39999389648</ele>
        <time>2017-03-15T13:12:23.000Z</time>
      </trkpt>
      <trkpt lat="44.39579" lon="4.50667">
        <ele>381.60000610352</ele>
        <time>2017-03-15T13:12:30.000Z</time>
      </trkpt>
      <trkpt lat="44.39593" lon="4.50676">
        <ele>382.20001220703</ele>
        <time>2017-03-15T13:12:36.000Z</time>
      </trkpt>
      <trkpt lat="44.39598" lon="4.50681">
        <ele>382.39999389648</ele>
        <time>2017-03-15T13:12:38.000Z</time>
      </trkpt>
      <trkpt lat="44.39601" lon="4.50683">
        <ele>382.60000610352</ele>
        <time>2017-03-15T13:12:39.000Z</time>
      </trkpt>
      <trkpt lat="44.39612" lon="4.50692">
        <ele>382.39999389648</ele>
        <time>2017-03-15T13:12:43.000Z</time>
      </trkpt>
      <trkpt lat="44.39631" lon="4.50708">
        <ele>381.39999389648</ele>
        <time>2017-03-15T13:12:51.000Z</time>
      </trkpt>
      <trkpt lat="44.39633" lon="4.50711">
        <ele>381.20001220703</ele>
        <time>2017-03-15T13:12:52.000Z</time>
      </trkpt>
      <trkpt lat="44.39656" lon="4.50731">
        <ele>382</ele>
        <time>2017-03-15T13:13:01.000Z</time>
      </trkpt>
      <trkpt lat="44.39665" lon="4.50745">
        <ele>382.20001220703</ele>
        <time>2017-03-15T13:13:06.000Z</time>
      </trkpt>
      <trkpt lat="44.39668" lon="4.50751">
        <ele>382.60000610352</ele>
        <time>2017-03-15T13:13:08.000Z</time>
      </trkpt>
      <trkpt lat="44.39673" lon="4.50764">
        <ele>383.20001220703</ele>
        <time>2017-03-15T13:13:12.000Z</time>
      </trkpt>
      <trkpt lat="44.39679" lon="4.50777">
        <ele>383</ele>
        <time>2017-03-15T13:13:16.000Z</time>
      </trkpt>
      <trkpt lat="44.39692" lon="4.50804">
        <ele>384</ele>
        <time>2017-03-15T13:13:24.000Z</time>
      </trkpt>
      <trkpt lat="44.39714" lon="4.50843">
        <ele>383.39999389648</ele>
        <time>2017-03-15T13:13:36.000Z</time>
      </trkpt>
      <trkpt lat="44.39728" lon="4.50865">
        <ele>384.39999389648</ele>
        <time>2017-03-15T13:13:43.000Z</time>
      </trkpt>
      <trkpt lat="44.3973" lon="4.50869">
        <ele>384.39999389648</ele>
        <time>2017-03-15T13:13:44.000Z</time>
      </trkpt>
      <trkpt lat="44.39736" lon="4.50878">
        <ele>384</ele>
        <time>2017-03-15T13:13:47.000Z</time>
      </trkpt>
      <trkpt lat="44.39754" lon="4.50908">
        <ele>384.20001220703</ele>
        <time>2017-03-15T13:13:57.000Z</time>
      </trkpt>
      <trkpt lat="44.39774" lon="4.50942">
        <ele>385</ele>
        <time>2017-03-15T13:14:08.000Z</time>
      </trkpt>
      <trkpt lat="44.39778" lon="4.50949">
        <ele>385.39999389648</ele>
        <time>2017-03-15T13:14:10.000Z</time>
      </trkpt>
      <trkpt lat="44.39797" lon="4.50979">
        <ele>385.60000610352</ele>
        <time>2017-03-15T13:14:20.000Z</time>
      </trkpt>
      <trkpt lat="44.39815" lon="4.51002">
        <ele>386</ele>
        <time>2017-03-15T13:14:29.000Z</time>
      </trkpt>
      <trkpt lat="44.39817" lon="4.51005">
        <ele>386.20001220703</ele>
        <time>2017-03-15T13:14:30.000Z</time>
      </trkpt>
      <trkpt lat="44.3983" lon="4.5102">
        <ele>386.39999389648</ele>
        <time>2017-03-15T13:14:36.000Z</time>
      </trkpt>
      <trkpt lat="44.39842" lon="4.51035">
        <ele>386.79998779297</ele>
        <time>2017-03-15T13:14:42.000Z</time>
      </trkpt>
      <trkpt lat="44.39856" lon="4.51049">
        <ele>387.39999389648</ele>
        <time>2017-03-15T13:14:48.000Z</time>
      </trkpt>
      <trkpt lat="44.39862" lon="4.51056">
        <ele>387</ele>
        <time>2017-03-15T13:14:51.000Z</time>
      </trkpt>
      <trkpt lat="44.39882" lon="4.51085">
        <ele>387.60000610352</ele>
        <time>2017-03-15T13:15:01.000Z</time>
      </trkpt>
      <trkpt lat="44.39894" lon="4.51104">
        <ele>388.60000610352</ele>
        <time>2017-03-15T13:15:07.000Z</time>
      </trkpt>
      <trkpt lat="44.399" lon="4.51112">
        <ele>388.60000610352</ele>
        <time>2017-03-15T13:15:10.000Z</time>
      </trkpt>
      <trkpt lat="44.39909" lon="4.51125">
        <ele>388.60000610352</ele>
        <time>2017-03-15T13:15:14.000Z</time>
      </trkpt>
      <trkpt lat="44.39921" lon="4.51147">
        <ele>389.20001220703</ele>
        <time>2017-03-15T13:15:21.000Z</time>
      </trkpt>
      <trkpt lat="44.39938" lon="4.5118">
        <ele>388.60000610352</ele>
        <time>2017-03-15T13:15:31.000Z</time>
      </trkpt>
      <trkpt lat="44.39959" lon="4.51225">
        <ele>388.79998779297</ele>
        <time>2017-03-15T13:15:43.000Z</time>
      </trkpt>
      <trkpt lat="44.39973" lon="4.51259">
        <ele>389.20001220703</ele>
        <time>2017-03-15T13:15:52.000Z</time>
      </trkpt>
      <trkpt lat="44.39991" lon="4.51308">
        <ele>389</ele>
        <time>2017-03-15T13:16:04.000Z</time>
      </trkpt>
      <trkpt lat="44.40004" lon="4.51349">
        <ele>389</ele>
        <time>2017-03-15T13:16:13.000Z</time>
      </trkpt>
      <trkpt lat="44.40016" lon="4.51386">
        <ele>389</ele>
        <time>2017-03-15T13:16:21.000Z</time>
      </trkpt>
      <trkpt lat="44.40028" lon="4.51427">
        <ele>387.60000610352</ele>
        <time>2017-03-15T13:16:29.000Z</time>
      </trkpt>
      <trkpt lat="44.40032" lon="4.51438">
        <ele>387.60000610352</ele>
        <time>2017-03-15T13:16:31.000Z</time>
      </trkpt>
      <trkpt lat="44.40044" lon="4.51483">
        <ele>386.39999389648</ele>
        <time>2017-03-15T13:16:38.000Z</time>
      </trkpt>
      <trkpt lat="44.40046" lon="4.51489">
        <ele>386</ele>
        <time>2017-03-15T13:16:39.000Z</time>
      </trkpt>
      <trkpt lat="44.40058" lon="4.51528">
        <ele>385.20001220703</ele>
        <time>2017-03-15T13:16:45.000Z</time>
      </trkpt>
      <trkpt lat="44.40065" lon="4.51546">
        <ele>385</ele>
        <time>2017-03-15T13:16:48.000Z</time>
      </trkpt>
      <trkpt lat="44.40079" lon="4.51573">
        <ele>384.20001220703</ele>
        <time>2017-03-15T13:16:53.000Z</time>
      </trkpt>
      <trkpt lat="44.40083" lon="4.51583">
        <ele>384.39999389648</ele>
        <time>2017-03-15T13:16:55.000Z</time>
      </trkpt>
      <trkpt lat="44.40105" lon="4.51627">
        <ele>384.60000610352</ele>
        <time>2017-03-15T13:17:04.000Z</time>
      </trkpt>
      <trkpt lat="44.4011" lon="4.51638">
        <ele>384.60000610352</ele>
        <time>2017-03-15T13:17:06.000Z</time>
      </trkpt>
      <trkpt lat="44.4012" lon="4.5166">
        <ele>384.79998779297</ele>
        <time>2017-03-15T13:17:10.000Z</time>
      </trkpt>
      <trkpt lat="44.4014" lon="4.51701">
        <ele>384.20001220703</ele>
        <time>2017-03-15T13:17:18.000Z</time>
      </trkpt>
      <trkpt lat="44.40159" lon="4.51741">
        <ele>383</ele>
        <time>2017-03-15T13:17:25.000Z</time>
      </trkpt>
      <trkpt lat="44.40162" lon="4.51748">
        <ele>382.60000610352</ele>
        <time>2017-03-15T13:17:26.000Z</time>
      </trkpt>
      <trkpt lat="44.40182" lon="4.51802">
        <ele>382</ele>
        <time>2017-03-15T13:17:34.000Z</time>
      </trkpt>
      <trkpt lat="44.40187" lon="4.51815">
        <ele>381.79998779297</ele>
        <time>2017-03-15T13:17:36.000Z</time>
      </trkpt>
      <trkpt lat="44.40193" lon="4.51836">
        <ele>380.60000610352</ele>
        <time>2017-03-15T13:17:39.000Z</time>
      </trkpt>
      <trkpt lat="44.40199" lon="4.51856">
        <ele>380.20001220703</ele>
        <time>2017-03-15T13:17:42.000Z</time>
      </trkpt>
      <trkpt lat="44.40214" lon="4.51901">
        <ele>380</ele>
        <time>2017-03-15T13:17:49.000Z</time>
      </trkpt>
      <trkpt lat="44.4022" lon="4.51912">
        <ele>380</ele>
        <time>2017-03-15T13:17:51.000Z</time>
      </trkpt>
      <trkpt lat="44.40226" lon="4.51923">
        <ele>379.60000610352</ele>
        <time>2017-03-15T13:17:53.000Z</time>
      </trkpt>
      <trkpt lat="44.40242" lon="4.51958">
        <ele>380.60000610352</ele>
        <time>2017-03-15T13:17:59.000Z</time>
      </trkpt>
      <trkpt lat="44.40245" lon="4.51964">
        <ele>380.60000610352</ele>
        <time>2017-03-15T13:18:00.000Z</time>
      </trkpt>
      <trkpt lat="44.40254" lon="4.5198">
        <ele>379.39999389648</ele>
        <time>2017-03-15T13:18:03.000Z</time>
      </trkpt>
      <trkpt lat="44.40267" lon="4.51999">
        <ele>378.60000610352</ele>
        <time>2017-03-15T13:18:07.000Z</time>
      </trkpt>
      <trkpt lat="44.40271" lon="4.52003">
        <ele>378.39999389648</ele>
        <time>2017-03-15T13:18:08.000Z</time>
      </trkpt>
      <trkpt lat="44.40299" lon="4.52038">
        <ele>379.20001220703</ele>
        <time>2017-03-15T13:18:16.000Z</time>
      </trkpt>
      <trkpt lat="44.40324" lon="4.52077">
        <ele>379</ele>
        <time>2017-03-15T13:18:24.000Z</time>
      </trkpt>
      <trkpt lat="44.40357" lon="4.52132">
        <ele>379.20001220703</ele>
        <time>2017-03-15T13:18:35.000Z</time>
      </trkpt>
      <trkpt lat="44.40368" lon="4.52155">
        <ele>379.39999389648</ele>
        <time>2017-03-15T13:18:39.000Z</time>
      </trkpt>
      <trkpt lat="44.40379" lon="4.52179">
        <ele>378.79998779297</ele>
        <time>2017-03-15T13:18:43.000Z</time>
      </trkpt>
      <trkpt lat="44.40382" lon="4.52186">
        <ele>378.20001220703</ele>
        <time>2017-03-15T13:18:44.000Z</time>
      </trkpt>
      <trkpt lat="44.40384" lon="4.52193">
        <ele>377</ele>
        <time>2017-03-15T13:18:45.000Z</time>
      </trkpt>
      <trkpt lat="44.4039" lon="4.52207">
        <ele>376</ele>
        <time>2017-03-15T13:18:47.000Z</time>
      </trkpt>
      <trkpt lat="44.40397" lon="4.52231">
        <ele>375</ele>
        <time>2017-03-15T13:18:50.000Z</time>
      </trkpt>
      <trkpt lat="44.40399" lon="4.5224">
        <ele>374.39999389648</ele>
        <time>2017-03-15T13:18:51.000Z</time>
      </trkpt>
      <trkpt lat="44.40402" lon="4.52261">
        <ele>373.20001220703</ele>
        <time>2017-03-15T13:18:53.000Z</time>
      </trkpt>
      <trkpt lat="44.40404" lon="4.52272">
        <ele>372.20001220703</ele>
        <time>2017-03-15T13:18:54.000Z</time>
      </trkpt>
      <trkpt lat="44.40406" lon="4.52284">
        <ele>370.79998779297</ele>
        <time>2017-03-15T13:18:55.000Z</time>
      </trkpt>
      <trkpt lat="44.40414" lon="4.52307">
        <ele>369</ele>
        <time>2017-03-15T13:18:57.000Z</time>
      </trkpt>
      <trkpt lat="44.40419" lon="4.52318">
        <ele>368.20001220703</ele>
        <time>2017-03-15T13:18:58.000Z</time>
      </trkpt>
      <trkpt lat="44.40423" lon="4.5233">
        <ele>367.20001220703</ele>
        <time>2017-03-15T13:18:59.000Z</time>
      </trkpt>
      <trkpt lat="44.40432" lon="4.52354">
        <ele>365.20001220703</ele>
        <time>2017-03-15T13:19:01.000Z</time>
      </trkpt>
      <trkpt lat="44.40438" lon="4.52366">
        <ele>364.20001220703</ele>
        <time>2017-03-15T13:19:02.000Z</time>
      </trkpt>
      <trkpt lat="44.40442" lon="4.52378">
        <ele>363.20001220703</ele>
        <time>2017-03-15T13:19:03.000Z</time>
      </trkpt>
      <trkpt lat="44.40445" lon="4.5239">
        <ele>362</ele>
        <time>2017-03-15T13:19:04.000Z</time>
      </trkpt>
      <trkpt lat="44.40451" lon="4.52415">
        <ele>360.60000610352</ele>
        <time>2017-03-15T13:19:06.000Z</time>
      </trkpt>
      <trkpt lat="44.40455" lon="4.5244">
        <ele>359</ele>
        <time>2017-03-15T13:19:08.000Z</time>
      </trkpt>
      <trkpt lat="44.40457" lon="4.52451">
        <ele>357.79998779297</ele>
        <time>2017-03-15T13:19:09.000Z</time>
      </trkpt>
      <trkpt lat="44.4046" lon="4.52461">
        <ele>356.60000610352</ele>
        <time>2017-03-15T13:19:10.000Z</time>
      </trkpt>
      <trkpt lat="44.40463" lon="4.5247">
        <ele>354.79998779297</ele>
        <time>2017-03-15T13:19:11.000Z</time>
      </trkpt>
      <trkpt lat="44.4047" lon="4.52486">
        <ele>354.60000610352</ele>
        <time>2017-03-15T13:19:14.000Z</time>
      </trkpt>
      <trkpt lat="44.40472" lon="4.52497">
        <ele>355</ele>
        <time>2017-03-15T13:19:18.000Z</time>
      </trkpt>
      <trkpt lat="44.40473" lon="4.52498">
        <ele>355.20001220703</ele>
        <time>2017-03-15T13:19:19.000Z</time>
      </trkpt>
      <trkpt lat="44.40475" lon="4.52497">
        <ele>355.39999389648</ele>
        <time>2017-03-15T13:19:21.000Z</time>
      </trkpt>
      <trkpt lat="44.4048" lon="4.52495">
        <ele>355.79998779297</ele>
        <time>2017-03-15T13:19:24.000Z</time>
      </trkpt>
      <trkpt lat="44.40488" lon="4.52493">
        <ele>357</ele>
        <time>2017-03-15T13:19:29.000Z</time>
      </trkpt>
      <trkpt lat="44.40499" lon="4.52491">
        <ele>358</ele>
        <time>2017-03-15T13:19:36.000Z</time>
      </trkpt>
      <trkpt lat="44.405" lon="4.5249">
        <ele>358.20001220703</ele>
        <time>2017-03-15T13:19:37.000Z</time>
      </trkpt>
      <trkpt lat="44.40506" lon="4.52487">
        <ele>359.20001220703</ele>
        <time>2017-03-15T13:19:42.000Z</time>
      </trkpt>
      <trkpt lat="44.40512" lon="4.52484">
        <ele>359.79998779297</ele>
        <time>2017-03-15T13:19:46.000Z</time>
      </trkpt>
      <trkpt lat="44.40517" lon="4.52485">
        <ele>360.20001220703</ele>
        <time>2017-03-15T13:19:49.000Z</time>
      </trkpt>
      <trkpt lat="44.40525" lon="4.52483">
        <ele>361</ele>
        <time>2017-03-15T13:19:54.000Z</time>
      </trkpt>
      <trkpt lat="44.40526" lon="4.52482">
        <ele>361.20001220703</ele>
        <time>2017-03-15T13:19:55.000Z</time>
      </trkpt>
      <trkpt lat="44.40533" lon="4.5248">
        <ele>362.20001220703</ele>
        <time>2017-03-15T13:20:00.000Z</time>
      </trkpt>
      <trkpt lat="44.40535" lon="4.52479">
        <ele>362.39999389648</ele>
        <time>2017-03-15T13:20:01.000Z</time>
      </trkpt>
      <trkpt lat="44.40541" lon="4.52478">
        <ele>363.20001220703</ele>
        <time>2017-03-15T13:20:06.000Z</time>
      </trkpt>
      <trkpt lat="44.40544" lon="4.52477">
        <ele>363.60000610352</ele>
        <time>2017-03-15T13:20:08.000Z</time>
      </trkpt>
      <trkpt lat="44.40549" lon="4.52477">
        <ele>364.39999389648</ele>
        <time>2017-03-15T13:20:12.000Z</time>
      </trkpt>
      <trkpt lat="44.40555" lon="4.52478">
        <ele>365</ele>
        <time>2017-03-15T13:20:15.000Z</time>
      </trkpt>
      <trkpt lat="44.40558" lon="4.5248">
        <ele>365.60000610352</ele>
        <time>2017-03-15T13:20:18.000Z</time>
      </trkpt>
      <trkpt lat="44.40563" lon="4.52485">
        <ele>366.60000610352</ele>
        <time>2017-03-15T13:20:22.000Z</time>
      </trkpt>
      <trkpt lat="44.40564" lon="4.52486">
        <ele>367.20001220703</ele>
        <time>2017-03-15T13:20:23.000Z</time>
      </trkpt>
      <trkpt lat="44.40568" lon="4.52497">
        <ele>368.39999389648</ele>
        <time>2017-03-15T13:20:29.000Z</time>
      </trkpt>
      <trkpt lat="44.40569" lon="4.52499">
        <ele>368.60000610352</ele>
        <time>2017-03-15T13:20:30.000Z</time>
      </trkpt>
      <trkpt lat="44.40574" lon="4.52507">
        <ele>369.60000610352</ele>
        <time>2017-03-15T13:20:35.000Z</time>
      </trkpt>
      <trkpt lat="44.40577" lon="4.52509">
        <ele>369.79998779297</ele>
        <time>2017-03-15T13:20:37.000Z</time>
      </trkpt>
      <trkpt lat="44.40583" lon="4.52513">
        <ele>370.60000610352</ele>
        <time>2017-03-15T13:20:41.000Z</time>
      </trkpt>
      <trkpt lat="44.40589" lon="4.52517">
        <ele>371.60000610352</ele>
        <time>2017-03-15T13:20:45.000Z</time>
      </trkpt>
      <trkpt lat="44.40591" lon="4.52518">
        <ele>371.79998779297</ele>
        <time>2017-03-15T13:20:46.000Z</time>
      </trkpt>
      <trkpt lat="44.40602" lon="4.52522">
        <ele>372.20001220703</ele>
        <time>2017-03-15T13:20:52.000Z</time>
      </trkpt>
      <trkpt lat="44.40621" lon="4.52529">
        <ele>372.60000610352</ele>
        <time>2017-03-15T13:21:01.000Z</time>
      </trkpt>
      <trkpt lat="44.40636" lon="4.52526">
        <ele>372.79998779297</ele>
        <time>2017-03-15T13:21:08.000Z</time>
      </trkpt>
      <trkpt lat="44.40638" lon="4.52525">
        <ele>372.79998779297</ele>
        <time>2017-03-15T13:21:09.000Z</time>
      </trkpt>
      <trkpt lat="44.40648" lon="4.52513">
        <ele>373.39999389648</ele>
        <time>2017-03-15T13:21:14.000Z</time>
      </trkpt>
      <trkpt lat="44.40662" lon="4.52488">
        <ele>373.39999389648</ele>
        <time>2017-03-15T13:21:22.000Z</time>
      </trkpt>
      <trkpt lat="44.40667" lon="4.52479">
        <ele>374</ele>
        <time>2017-03-15T13:21:25.000Z</time>
      </trkpt>
      <trkpt lat="44.40677" lon="4.5246">
        <ele>374.60000610352</ele>
        <time>2017-03-15T13:21:31.000Z</time>
      </trkpt>
      <trkpt lat="44.40689" lon="4.52439">
        <ele>375.20001220703</ele>
        <time>2017-03-15T13:21:38.000Z</time>
      </trkpt>
      <trkpt lat="44.40694" lon="4.5243">
        <ele>375.60000610352</ele>
        <time>2017-03-15T13:21:41.000Z</time>
      </trkpt>
      <trkpt lat="44.40706" lon="4.52409">
        <ele>376</ele>
        <time>2017-03-15T13:21:48.000Z</time>
      </trkpt>
      <trkpt lat="44.40716" lon="4.52395">
        <ele>376.39999389648</ele>
        <time>2017-03-15T13:21:53.000Z</time>
      </trkpt>
      <trkpt lat="44.40719" lon="4.5239">
        <ele>376.39999389648</ele>
        <time>2017-03-15T13:21:55.000Z</time>
      </trkpt>
      <trkpt lat="44.40731" lon="4.52363">
        <ele>377.20001220703</ele>
        <time>2017-03-15T13:22:03.000Z</time>
      </trkpt>
      <trkpt lat="44.40734" lon="4.52356">
        <ele>377.39999389648</ele>
        <time>2017-03-15T13:22:05.000Z</time>
      </trkpt>
      <trkpt lat="44.40741" lon="4.52332">
        <ele>378.20001220703</ele>
        <time>2017-03-15T13:22:12.000Z</time>
      </trkpt>
      <trkpt lat="44.40744" lon="4.52321">
        <ele>378.39999389648</ele>
        <time>2017-03-15T13:22:15.000Z</time>
      </trkpt>
      <trkpt lat="44.40748" lon="4.52303">
        <ele>379</ele>
        <time>2017-03-15T13:22:20.000Z</time>
      </trkpt>
      <trkpt lat="44.40755" lon="4.5228">
        <ele>379.60000610352</ele>
        <time>2017-03-15T13:22:26.000Z</time>
      </trkpt>
      <trkpt lat="44.40758" lon="4.52273">
        <ele>379.20001220703</ele>
        <time>2017-03-15T13:22:28.000Z</time>
      </trkpt>
      <trkpt lat="44.40773" lon="4.52249">
        <ele>379.20001220703</ele>
        <time>2017-03-15T13:22:35.000Z</time>
      </trkpt>
      <trkpt lat="44.40787" lon="4.52223">
        <ele>380.60000610352</ele>
        <time>2017-03-15T13:22:43.000Z</time>
      </trkpt>
      <trkpt lat="44.40798" lon="4.52204">
        <ele>381.60000610352</ele>
        <time>2017-03-15T13:22:49.000Z</time>
      </trkpt>
      <trkpt lat="44.40802" lon="4.52199">
        <ele>382.20001220703</ele>
        <time>2017-03-15T13:22:51.000Z</time>
      </trkpt>
      <trkpt lat="44.40817" lon="4.52188">
        <ele>382.20001220703</ele>
        <time>2017-03-15T13:22:57.000Z</time>
      </trkpt>
      <trkpt lat="44.40824" lon="4.52181">
        <ele>382.79998779297</ele>
        <time>2017-03-15T13:23:00.000Z</time>
      </trkpt>
      <trkpt lat="44.40834" lon="4.52168">
        <ele>383.39999389648</ele>
        <time>2017-03-15T13:23:05.000Z</time>
      </trkpt>
      <trkpt lat="44.40833" lon="4.52151">
        <ele>383.60000610352</ele>
        <time>2017-03-15T13:23:09.000Z</time>
      </trkpt>
      <trkpt lat="44.40831" lon="4.52147">
        <ele>383.79998779297</ele>
        <time>2017-03-15T13:23:10.000Z</time>
      </trkpt>
      <trkpt lat="44.40819" lon="4.52133">
        <ele>384</ele>
        <time>2017-03-15T13:23:15.000Z</time>
      </trkpt>
      <trkpt lat="44.4081" lon="4.5211">
        <ele>383.60000610352</ele>
        <time>2017-03-15T13:23:21.000Z</time>
      </trkpt>
      <trkpt lat="44.40816" lon="4.52095">
        <ele>383.20001220703</ele>
        <time>2017-03-15T13:23:25.000Z</time>
      </trkpt>
      <trkpt lat="44.40834" lon="4.52074">
        <ele>383</ele>
        <time>2017-03-15T13:23:32.000Z</time>
      </trkpt>
      <trkpt lat="44.4086" lon="4.52046">
        <ele>383.79998779297</ele>
        <time>2017-03-15T13:23:42.000Z</time>
      </trkpt>
      <trkpt lat="44.40881" lon="4.52025">
        <ele>384.60000610352</ele>
        <time>2017-03-15T13:23:51.000Z</time>
      </trkpt>
      <trkpt lat="44.40885" lon="4.52022">
        <ele>384.79998779297</ele>
        <time>2017-03-15T13:23:53.000Z</time>
      </trkpt>
      <trkpt lat="44.4089" lon="4.52018">
        <ele>386</ele>
        <time>2017-03-15T13:23:56.000Z</time>
      </trkpt>
      <trkpt lat="44.40892" lon="4.52018">
        <ele>386.20001220703</ele>
        <time>2017-03-15T13:23:57.000Z</time>
      </trkpt>
      <trkpt lat="44.40893" lon="4.52018">
        <ele>386.39999389648</ele>
        <time>2017-03-15T13:23:58.000Z</time>
      </trkpt>
      <trkpt lat="44.40898" lon="4.52026">
        <ele>387.39999389648</ele>
        <time>2017-03-15T13:24:02.000Z</time>
      </trkpt>
      <trkpt lat="44.40909" lon="4.52046">
        <ele>388</ele>
        <time>2017-03-15T13:24:09.000Z</time>
      </trkpt>
      <trkpt lat="44.40914" lon="4.52058">
        <ele>388.39999389648</ele>
        <time>2017-03-15T13:24:13.000Z</time>
      </trkpt>
      <trkpt lat="44.4092" lon="4.52074">
        <ele>388.60000610352</ele>
        <time>2017-03-15T13:24:18.000Z</time>
      </trkpt>
      <trkpt lat="44.40934" lon="4.52091">
        <ele>389.39999389648</ele>
        <time>2017-03-15T13:24:25.000Z</time>
      </trkpt>
      <trkpt lat="44.40936" lon="4.52093">
        <ele>389.60000610352</ele>
        <time>2017-03-15T13:24:26.000Z</time>
      </trkpt>
      <trkpt lat="44.40958" lon="4.5211">
        <ele>390</ele>
        <time>2017-03-15T13:24:35.000Z</time>
      </trkpt>
      <trkpt lat="44.40979" lon="4.52126">
        <ele>389.20001220703</ele>
        <time>2017-03-15T13:24:43.000Z</time>
      </trkpt>
      <trkpt lat="44.40999" lon="4.52143">
        <ele>389.39999389648</ele>
        <time>2017-03-15T13:24:51.000Z</time>
      </trkpt>
      <trkpt lat="44.41015" lon="4.52164">
        <ele>389.39999389648</ele>
        <time>2017-03-15T13:24:58.000Z</time>
      </trkpt>
      <trkpt lat="44.41018" lon="4.52185">
        <ele>389.60000610352</ele>
        <time>2017-03-15T13:25:03.000Z</time>
      </trkpt>
      <trkpt lat="44.41013" lon="4.52204">
        <ele>390.20001220703</ele>
        <time>2017-03-15T13:25:08.000Z</time>
      </trkpt>
      <trkpt lat="44.41008" lon="4.52215">
        <ele>390.39999389648</ele>
        <time>2017-03-15T13:25:11.000Z</time>
      </trkpt>
      <trkpt lat="44.41004" lon="4.5223">
        <ele>390.79998779297</ele>
        <time>2017-03-15T13:25:15.000Z</time>
      </trkpt>
      <trkpt lat="44.41003" lon="4.5224">
        <ele>390</ele>
        <time>2017-03-15T13:25:21.000Z</time>
      </trkpt>
      <trkpt lat="44.41003" lon="4.52241">
        <ele>389.79998779297</ele>
        <time>2017-03-15T13:25:37.000Z</time>
      </trkpt>
      <trkpt lat="44.41003" lon="4.52241">
        <ele>389.39999389648</ele>
        <time>2017-03-15T13:25:54.000Z</time>
      </trkpt>
      <trkpt lat="44.41003" lon="4.52241">
        <ele>389.60000610352</ele>
        <time>2017-03-15T13:25:58.000Z</time>
      </trkpt>
      <trkpt lat="44.41003" lon="4.52241">
        <ele>389.79998779297</ele>
        <time>2017-03-15T13:26:12.000Z</time>
      </trkpt>
      <trkpt lat="44.41003" lon="4.52241">
        <ele>390</ele>
        <time>2017-03-15T13:26:34.000Z</time>
      </trkpt>
      <trkpt lat="44.41003" lon="4.52241">
        <ele>389.79998779297</ele>
        <time>2017-03-15T13:26:50.000Z</time>
      </trkpt>
      <trkpt lat="44.41003" lon="4.52241">
        <ele>389.79998779297</ele>
        <time>2017-03-15T13:27:06.000Z</time>
      </trkpt>
      <trkpt lat="44.41003" lon="4.52241">
        <ele>389.79998779297</ele>
        <time>2017-03-15T13:27:26.000Z</time>
      </trkpt>
      <trkpt lat="44.41003" lon="4.52241">
        <ele>389.79998779297</ele>
        <time>2017-03-15T13:27:40.000Z</time>
      </trkpt>
      <trkpt lat="44.41003" lon="4.52241">
        <ele>389.79998779297</ele>
        <time>2017-03-15T13:27:54.000Z</time>
      </trkpt>
      <trkpt lat="44.41003" lon="4.52241">
        <ele>389.60000610352</ele>
        <time>2017-03-15T13:27:59.000Z</time>
      </trkpt>
      <trkpt lat="44.41003" lon="4.52243">
        <ele>389.79998779297</ele>
        <time>2017-03-15T13:28:07.000Z</time>
      </trkpt>
      <trkpt lat="44.41005" lon="4.52258">
        <ele>390.20001220703</ele>
        <time>2017-03-15T13:28:12.000Z</time>
      </trkpt>
      <trkpt lat="44.41007" lon="4.52278">
        <ele>390.60000610352</ele>
        <time>2017-03-15T13:28:17.000Z</time>
      </trkpt>
      <trkpt lat="44.4101" lon="4.52289">
        <ele>390.79998779297</ele>
        <time>2017-03-15T13:28:20.000Z</time>
      </trkpt>
      <trkpt lat="44.41019" lon="4.52324">
        <ele>390.60000610352</ele>
        <time>2017-03-15T13:28:29.000Z</time>
      </trkpt>
      <trkpt lat="44.4103" lon="4.52361">
        <ele>391</ele>
        <time>2017-03-15T13:28:38.000Z</time>
      </trkpt>
      <trkpt lat="44.41041" lon="4.52401">
        <ele>390.79998779297</ele>
        <time>2017-03-15T13:28:47.000Z</time>
      </trkpt>
      <trkpt lat="44.41052" lon="4.52432">
        <ele>389.79998779297</ele>
        <time>2017-03-15T13:28:54.000Z</time>
      </trkpt>
      <trkpt lat="44.41054" lon="4.52437">
        <ele>389.39999389648</ele>
        <time>2017-03-15T13:28:55.000Z</time>
      </trkpt>
      <trkpt lat="44.41071" lon="4.52472">
        <ele>389.79998779297</ele>
        <time>2017-03-15T13:29:03.000Z</time>
      </trkpt>
      <trkpt lat="44.41082" lon="4.52508">
        <ele>389.60000610352</ele>
        <time>2017-03-15T13:29:10.000Z</time>
      </trkpt>
      <trkpt lat="44.41092" lon="4.52534">
        <ele>389</ele>
        <time>2017-03-15T13:29:15.000Z</time>
      </trkpt>
      <trkpt lat="44.41093" lon="4.52539">
        <ele>388.20001220703</ele>
        <time>2017-03-15T13:29:16.000Z</time>
      </trkpt>
      <trkpt lat="44.41095" lon="4.52545">
        <ele>387.60000610352</ele>
        <time>2017-03-15T13:29:17.000Z</time>
      </trkpt>
      <trkpt lat="44.41098" lon="4.52563">
        <ele>387</ele>
        <time>2017-03-15T13:29:20.000Z</time>
      </trkpt>
      <trkpt lat="44.41102" lon="4.52576">
        <ele>386.60000610352</ele>
        <time>2017-03-15T13:29:22.000Z</time>
      </trkpt>
      <trkpt lat="44.41105" lon="4.52582">
        <ele>386.20001220703</ele>
        <time>2017-03-15T13:29:23.000Z</time>
      </trkpt>
      <trkpt lat="44.41108" lon="4.52588">
        <ele>385.79998779297</ele>
        <time>2017-03-15T13:29:24.000Z</time>
      </trkpt>
      <trkpt lat="44.41114" lon="4.52601">
        <ele>384.79998779297</ele>
        <time>2017-03-15T13:29:26.000Z</time>
      </trkpt>
      <trkpt lat="44.41116" lon="4.52608">
        <ele>384.39999389648</ele>
        <time>2017-03-15T13:29:27.000Z</time>
      </trkpt>
      <trkpt lat="44.41117" lon="4.52615">
        <ele>384.20001220703</ele>
        <time>2017-03-15T13:29:28.000Z</time>
      </trkpt>
      <trkpt lat="44.41122" lon="4.52657">
        <ele>383.79998779297</ele>
        <time>2017-03-15T13:29:34.000Z</time>
      </trkpt>
      <trkpt lat="44.41139" lon="4.52701">
        <ele>383.79998779297</ele>
        <time>2017-03-15T13:29:42.000Z</time>
      </trkpt>
      <trkpt lat="44.41145" lon="4.52717">
        <ele>383.20001220703</ele>
        <time>2017-03-15T13:29:45.000Z</time>
      </trkpt>
      <trkpt lat="44.41151" lon="4.52742">
        <ele>383</ele>
        <time>2017-03-15T13:29:49.000Z</time>
      </trkpt>
      <trkpt lat="44.41151" lon="4.52749">
        <ele>383</ele>
        <time>2017-03-15T13:29:50.000Z</time>
      </trkpt>
      <trkpt lat="44.41152" lon="4.52766">
        <ele>382.39999389648</ele>
        <time>2017-03-15T13:29:54.000Z</time>
      </trkpt>
      <trkpt lat="44.41153" lon="4.52769">
        <ele>382.20001220703</ele>
        <time>2017-03-15T13:29:55.000Z</time>
      </trkpt>
      <trkpt lat="44.41153" lon="4.52772">
        <ele>381.79998779297</ele>
        <time>2017-03-15T13:29:58.000Z</time>
      </trkpt>
      <trkpt lat="44.41153" lon="4.52777">
        <ele>381.60000610352</ele>
        <time>2017-03-15T13:30:03.000Z</time>
      </trkpt>
      <trkpt lat="44.41153" lon="4.52793">
        <ele>382</ele>
        <time>2017-03-15T13:30:08.000Z</time>
      </trkpt>
      <trkpt lat="44.41156" lon="4.52812">
        <ele>381</ele>
        <time>2017-03-15T13:30:12.000Z</time>
      </trkpt>
      <trkpt lat="44.41158" lon="4.52822">
        <ele>381</ele>
        <time>2017-03-15T13:30:14.000Z</time>
      </trkpt>
      <trkpt lat="44.4116" lon="4.52838">
        <ele>380.20001220703</ele>
        <time>2017-03-15T13:30:17.000Z</time>
      </trkpt>
      <trkpt lat="44.4116" lon="4.52849">
        <ele>380</ele>
        <time>2017-03-15T13:30:19.000Z</time>
      </trkpt>
      <trkpt lat="44.4116" lon="4.52855">
        <ele>379.79998779297</ele>
        <time>2017-03-15T13:30:20.000Z</time>
      </trkpt>
      <trkpt lat="44.4116" lon="4.52868">
        <ele>379.20001220703</ele>
        <time>2017-03-15T13:30:22.000Z</time>
      </trkpt>
      <trkpt lat="44.41159" lon="4.52875">
        <ele>378.60000610352</ele>
        <time>2017-03-15T13:30:23.000Z</time>
      </trkpt>
      <trkpt lat="44.41159" lon="4.52881">
        <ele>377.39999389648</ele>
        <time>2017-03-15T13:30:24.000Z</time>
      </trkpt>
      <trkpt lat="44.41157" lon="4.52888">
        <ele>377.20001220703</ele>
        <time>2017-03-15T13:30:25.000Z</time>
      </trkpt>
      <trkpt lat="44.4115" lon="4.52899">
        <ele>376.39999389648</ele>
        <time>2017-03-15T13:30:27.000Z</time>
      </trkpt>
      <trkpt lat="44.41145" lon="4.52903">
        <ele>376</ele>
        <time>2017-03-15T13:30:28.000Z</time>
      </trkpt>
      <trkpt lat="44.4113" lon="4.52918">
        <ele>375.39999389648</ele>
        <time>2017-03-15T13:30:31.000Z</time>
      </trkpt>
      <trkpt lat="44.4111" lon="4.5294">
        <ele>374.39999389648</ele>
        <time>2017-03-15T13:30:35.000Z</time>
      </trkpt>
      <trkpt lat="44.41105" lon="4.52946">
        <ele>374.20001220703</ele>
        <time>2017-03-15T13:30:36.000Z</time>
      </trkpt>
      <trkpt lat="44.41083" lon="4.52975">
        <ele>373.20001220703</ele>
        <time>2017-03-15T13:30:41.000Z</time>
      </trkpt>
      <trkpt lat="44.4106" lon="4.53004">
        <ele>372.20001220703</ele>
        <time>2017-03-15T13:30:46.000Z</time>
      </trkpt>
      <trkpt lat="44.41055" lon="4.5301">
        <ele>372</ele>
        <time>2017-03-15T13:30:47.000Z</time>
      </trkpt>
      <trkpt lat="44.41046" lon="4.53033">
        <ele>371</ele>
        <time>2017-03-15T13:30:50.000Z</time>
      </trkpt>
      <trkpt lat="44.41045" lon="4.53041">
        <ele>370.60000610352</ele>
        <time>2017-03-15T13:30:51.000Z</time>
      </trkpt>
      <trkpt lat="44.41043" lon="4.53049">
        <ele>370.39999389648</ele>
        <time>2017-03-15T13:30:52.000Z</time>
      </trkpt>
      <trkpt lat="44.41041" lon="4.53058">
        <ele>369.79998779297</ele>
        <time>2017-03-15T13:30:53.000Z</time>
      </trkpt>
      <trkpt lat="44.41036" lon="4.53075">
        <ele>369.39999389648</ele>
        <time>2017-03-15T13:30:55.000Z</time>
      </trkpt>
      <trkpt lat="44.41033" lon="4.53082">
        <ele>369.20001220703</ele>
        <time>2017-03-15T13:30:56.000Z</time>
      </trkpt>
      <trkpt lat="44.41018" lon="4.53107">
        <ele>369.39999389648</ele>
        <time>2017-03-15T13:31:00.000Z</time>
      </trkpt>
      <trkpt lat="44.41013" lon="4.53112">
        <ele>369.60000610352</ele>
        <time>2017-03-15T13:31:01.000Z</time>
      </trkpt>
      <trkpt lat="44.4098" lon="4.53142">
        <ele>369</ele>
        <time>2017-03-15T13:31:08.000Z</time>
      </trkpt>
      <trkpt lat="44.40975" lon="4.53146">
        <ele>368.60000610352</ele>
        <time>2017-03-15T13:31:09.000Z</time>
      </trkpt>
      <trkpt lat="44.4097" lon="4.5315">
        <ele>368.39999389648</ele>
        <time>2017-03-15T13:31:10.000Z</time>
      </trkpt>
      <trkpt lat="44.40963" lon="4.53162">
        <ele>367.39999389648</ele>
        <time>2017-03-15T13:31:12.000Z</time>
      </trkpt>
      <trkpt lat="44.40957" lon="4.53176">
        <ele>366.60000610352</ele>
        <time>2017-03-15T13:31:14.000Z</time>
      </trkpt>
      <trkpt lat="44.40955" lon="4.53184">
        <ele>366.39999389648</ele>
        <time>2017-03-15T13:31:15.000Z</time>
      </trkpt>
      <trkpt lat="44.40953" lon="4.53192">
        <ele>366.20001220703</ele>
        <time>2017-03-15T13:31:16.000Z</time>
      </trkpt>
      <trkpt lat="44.40952" lon="4.532">
        <ele>366.20001220703</ele>
        <time>2017-03-15T13:31:17.000Z</time>
      </trkpt>
      <trkpt lat="44.4095" lon="4.53255">
        <ele>365</ele>
        <time>2017-03-15T13:31:23.000Z</time>
      </trkpt>
      <trkpt lat="44.40952" lon="4.53287">
        <ele>363.60000610352</ele>
        <time>2017-03-15T13:31:26.000Z</time>
      </trkpt>
      <trkpt lat="44.40953" lon="4.53297">
        <ele>362.39999389648</ele>
        <time>2017-03-15T13:31:27.000Z</time>
      </trkpt>
      <trkpt lat="44.40954" lon="4.53307">
        <ele>361.39999389648</ele>
        <time>2017-03-15T13:31:28.000Z</time>
      </trkpt>
      <trkpt lat="44.40961" lon="4.53353">
        <ele>360.39999389648</ele>
        <time>2017-03-15T13:31:33.000Z</time>
      </trkpt>
      <trkpt lat="44.40965" lon="4.53376">
        <ele>360.20001220703</ele>
        <time>2017-03-15T13:31:36.000Z</time>
      </trkpt>
      <trkpt lat="44.40967" lon="4.53392">
        <ele>361.20001220703</ele>
        <time>2017-03-15T13:31:38.000Z</time>
      </trkpt>
      <trkpt lat="44.40971" lon="4.53417">
        <ele>359.79998779297</ele>
        <time>2017-03-15T13:31:41.000Z</time>
      </trkpt>
      <trkpt lat="44.40973" lon="4.53458">
        <ele>358.79998779297</ele>
        <time>2017-03-15T13:31:46.000Z</time>
      </trkpt>
      <trkpt lat="44.40973" lon="4.53466">
        <ele>358.79998779297</ele>
        <time>2017-03-15T13:31:47.000Z</time>
      </trkpt>
      <trkpt lat="44.40965" lon="4.53487">
        <ele>357.79998779297</ele>
        <time>2017-03-15T13:31:50.000Z</time>
      </trkpt>
      <trkpt lat="44.40961" lon="4.53492">
        <ele>357.39999389648</ele>
        <time>2017-03-15T13:31:51.000Z</time>
      </trkpt>
      <trkpt lat="44.40956" lon="4.53498">
        <ele>356.79998779297</ele>
        <time>2017-03-15T13:31:52.000Z</time>
      </trkpt>
      <trkpt lat="44.40945" lon="4.53508">
        <ele>357</ele>
        <time>2017-03-15T13:31:54.000Z</time>
      </trkpt>
      <trkpt lat="44.40934" lon="4.53518">
        <ele>356.20001220703</ele>
        <time>2017-03-15T13:31:56.000Z</time>
      </trkpt>
      <trkpt lat="44.40908" lon="4.53544">
        <ele>355.39999389648</ele>
        <time>2017-03-15T13:32:01.000Z</time>
      </trkpt>
      <trkpt lat="44.40904" lon="4.5355">
        <ele>354.79998779297</ele>
        <time>2017-03-15T13:32:02.000Z</time>
      </trkpt>
      <trkpt lat="44.40889" lon="4.53569">
        <ele>353.60000610352</ele>
        <time>2017-03-15T13:32:05.000Z</time>
      </trkpt>
      <trkpt lat="44.4088" lon="4.53581">
        <ele>352.39999389648</ele>
        <time>2017-03-15T13:32:07.000Z</time>
      </trkpt>
      <trkpt lat="44.40875" lon="4.53587">
        <ele>352</ele>
        <time>2017-03-15T13:32:08.000Z</time>
      </trkpt>
      <trkpt lat="44.4087" lon="4.53593">
        <ele>351.39999389648</ele>
        <time>2017-03-15T13:32:09.000Z</time>
      </trkpt>
      <trkpt lat="44.40853" lon="4.53608">
        <ele>350.79998779297</ele>
        <time>2017-03-15T13:32:12.000Z</time>
      </trkpt>
      <trkpt lat="44.40847" lon="4.53612">
        <ele>350</ele>
        <time>2017-03-15T13:32:13.000Z</time>
      </trkpt>
      <trkpt lat="44.40834" lon="4.53623">
        <ele>348.79998779297</ele>
        <time>2017-03-15T13:32:15.000Z</time>
      </trkpt>
      <trkpt lat="44.40816" lon="4.53637">
        <ele>347.39999389648</ele>
        <time>2017-03-15T13:32:18.000Z</time>
      </trkpt>
      <trkpt lat="44.4081" lon="4.53641">
        <ele>347.20001220703</ele>
        <time>2017-03-15T13:32:19.000Z</time>
      </trkpt>
      <trkpt lat="44.40798" lon="4.53648">
        <ele>346.39999389648</ele>
        <time>2017-03-15T13:32:21.000Z</time>
      </trkpt>
      <trkpt lat="44.40791" lon="4.5365">
        <ele>345.79998779297</ele>
        <time>2017-03-15T13:32:22.000Z</time>
      </trkpt>
      <trkpt lat="44.40785" lon="4.53651">
        <ele>345.39999389648</ele>
        <time>2017-03-15T13:32:23.000Z</time>
      </trkpt>
      <trkpt lat="44.40778" lon="4.53651">
        <ele>345.20001220703</ele>
        <time>2017-03-15T13:32:24.000Z</time>
      </trkpt>
      <trkpt lat="44.40764" lon="4.5365">
        <ele>344.20001220703</ele>
        <time>2017-03-15T13:32:26.000Z</time>
      </trkpt>
      <trkpt lat="44.40758" lon="4.5365">
        <ele>343.39999389648</ele>
        <time>2017-03-15T13:32:27.000Z</time>
      </trkpt>
      <trkpt lat="44.40753" lon="4.53647">
        <ele>342.60000610352</ele>
        <time>2017-03-15T13:32:28.000Z</time>
      </trkpt>
      <trkpt lat="44.40743" lon="4.53638">
        <ele>341</ele>
        <time>2017-03-15T13:32:30.000Z</time>
      </trkpt>
      <trkpt lat="44.40735" lon="4.53623">
        <ele>340</ele>
        <time>2017-03-15T13:32:32.000Z</time>
      </trkpt>
      <trkpt lat="44.40731" lon="4.53614">
        <ele>339.60000610352</ele>
        <time>2017-03-15T13:32:33.000Z</time>
      </trkpt>
      <trkpt lat="44.40727" lon="4.53605">
        <ele>339</ele>
        <time>2017-03-15T13:32:34.000Z</time>
      </trkpt>
      <trkpt lat="44.40723" lon="4.53597">
        <ele>338.39999389648</ele>
        <time>2017-03-15T13:32:35.000Z</time>
      </trkpt>
      <trkpt lat="44.40717" lon="4.53585">
        <ele>337</ele>
        <time>2017-03-15T13:32:37.000Z</time>
      </trkpt>
      <trkpt lat="44.40711" lon="4.53589">
        <ele>336</ele>
        <time>2017-03-15T13:32:40.000Z</time>
      </trkpt>
      <trkpt lat="44.40714" lon="4.53605">
        <ele>335</ele>
        <time>2017-03-15T13:32:43.000Z</time>
      </trkpt>
      <trkpt lat="44.40717" lon="4.53619">
        <ele>334</ele>
        <time>2017-03-15T13:32:45.000Z</time>
      </trkpt>
      <trkpt lat="44.40719" lon="4.53631">
        <ele>333</ele>
        <time>2017-03-15T13:32:47.000Z</time>
      </trkpt>
      <trkpt lat="44.40721" lon="4.53648">
        <ele>332.39999389648</ele>
        <time>2017-03-15T13:32:52.000Z</time>
      </trkpt>
      <trkpt lat="44.40722" lon="4.53657">
        <ele>331.60000610352</ele>
        <time>2017-03-15T13:32:54.000Z</time>
      </trkpt>
      <trkpt lat="44.40727" lon="4.53681">
        <ele>330.39999389648</ele>
        <time>2017-03-15T13:32:59.000Z</time>
      </trkpt>
      <trkpt lat="44.40729" lon="4.53693">
        <ele>329.60000610352</ele>
        <time>2017-03-15T13:33:01.000Z</time>
      </trkpt>
      <trkpt lat="44.40731" lon="4.53699">
        <ele>329.20001220703</ele>
        <time>2017-03-15T13:33:02.000Z</time>
      </trkpt>
      <trkpt lat="44.40738" lon="4.53717">
        <ele>328.60000610352</ele>
        <time>2017-03-15T13:33:05.000Z</time>
      </trkpt>
      <trkpt lat="44.40741" lon="4.53723">
        <ele>328.20001220703</ele>
        <time>2017-03-15T13:33:06.000Z</time>
      </trkpt>
      <trkpt lat="44.40749" lon="4.53738">
        <ele>327.20001220703</ele>
        <time>2017-03-15T13:33:09.000Z</time>
      </trkpt>
      <trkpt lat="44.40753" lon="4.53746">
        <ele>326.60000610352</ele>
        <time>2017-03-15T13:33:11.000Z</time>
      </trkpt>
      <trkpt lat="44.40755" lon="4.53753">
        <ele>326.60000610352</ele>
        <time>2017-03-15T13:33:15.000Z</time>
      </trkpt>
      <trkpt lat="44.40755" lon="4.53753">
        <ele>326.60000610352</ele>
        <time>2017-03-15T13:33:20.000Z</time>
      </trkpt>
      <trkpt lat="44.40756" lon="4.53753">
        <ele>326.79998779297</ele>
        <time>2017-03-15T13:33:28.000Z</time>
      </trkpt>
      <trkpt lat="44.40756" lon="4.53756">
        <ele>326.79998779297</ele>
        <time>2017-03-15T13:33:30.000Z</time>
      </trkpt>
      <trkpt lat="44.40758" lon="4.53756">
        <ele>327</ele>
        <time>2017-03-15T13:33:33.000Z</time>
      </trkpt>
      <trkpt lat="44.40758" lon="4.53755">
        <ele>327.20001220703</ele>
        <time>2017-03-15T13:33:40.000Z</time>
      </trkpt>
      <trkpt lat="44.40758" lon="4.53755">
        <ele>326.20001220703</ele>
        <time>2017-03-15T13:33:44.000Z</time>
      </trkpt>
      <trkpt lat="44.40758" lon="4.53755">
        <ele>323.79998779297</ele>
        <time>2017-03-15T13:33:45.000Z</time>
      </trkpt>
      <trkpt lat="44.40758" lon="4.53755">
        <ele>326.39999389648</ele>
        <time>2017-03-15T13:33:46.000Z</time>
      </trkpt>
      <trkpt lat="44.40758" lon="4.53755">
        <ele>327.39999389648</ele>
        <time>2017-03-15T13:33:47.000Z</time>
      </trkpt>
      <trkpt lat="44.40758" lon="4.53755">
        <ele>329.79998779297</ele>
        <time>2017-03-15T13:33:48.000Z</time>
      </trkpt>
      <trkpt lat="44.40758" lon="4.53755">
        <ele>325</ele>
        <time>2017-03-15T13:33:49.000Z</time>
      </trkpt>
      <trkpt lat="44.40758" lon="4.53755">
        <ele>319.60000610352</ele>
        <time>2017-03-15T13:33:51.000Z</time>
      </trkpt>
      <trkpt lat="44.40758" lon="4.53755">
        <ele>325.79998779297</ele>
        <time>2017-03-15T13:33:52.000Z</time>
      </trkpt>
      <trkpt lat="44.40758" lon="4.53755">
        <ele>331.39999389648</ele>
        <time>2017-03-15T13:33:54.000Z</time>
      </trkpt>
      <trkpt lat="44.40758" lon="4.53755">
        <ele>327.60000610352</ele>
        <time>2017-03-15T13:33:55.000Z</time>
      </trkpt>
      <trkpt lat="44.40758" lon="4.53755">
        <ele>324</ele>
        <time>2017-03-15T13:33:57.000Z</time>
      </trkpt>
      <trkpt lat="44.40758" lon="4.53755">
        <ele>326.60000610352</ele>
        <time>2017-03-15T13:33:58.000Z</time>
      </trkpt>
      <trkpt lat="44.40758" lon="4.53755">
        <ele>324.60000610352</ele>
        <time>2017-03-15T13:33:59.000Z</time>
      </trkpt>
      <trkpt lat="44.40758" lon="4.53755">
        <ele>327</ele>
        <time>2017-03-15T13:34:00.000Z</time>
      </trkpt>
      <trkpt lat="44.40758" lon="4.53755">
        <ele>328.79998779297</ele>
        <time>2017-03-15T13:34:07.000Z</time>
      </trkpt>
      <trkpt lat="44.40758" lon="4.53755">
        <ele>327.20001220703</ele>
        <time>2017-03-15T13:34:08.000Z</time>
      </trkpt>
      <trkpt lat="44.40758" lon="4.53755">
        <ele>326.60000610352</ele>
        <time>2017-03-15T13:34:10.000Z</time>
      </trkpt>
      <trkpt lat="44.40758" lon="4.53755">
        <ele>325.60000610352</ele>
        <time>2017-03-15T13:34:12.000Z</time>
      </trkpt>
      <trkpt lat="44.40758" lon="4.53755">
        <ele>326.60000610352</ele>
        <time>2017-03-15T13:34:13.000Z</time>
      </trkpt>
      <trkpt lat="44.40758" lon="4.53755">
        <ele>328.20001220703</ele>
        <time>2017-03-15T13:34:15.000Z</time>
      </trkpt>
      <trkpt lat="44.40758" lon="4.53755">
        <ele>327</ele>
        <time>2017-03-15T13:34:17.000Z</time>
      </trkpt>
      <trkpt lat="44.40758" lon="4.53755">
        <ele>327</ele>
        <time>2017-03-15T13:34:21.000Z</time>
      </trkpt>
      <trkpt lat="44.40758" lon="4.53755">
        <ele>326.79998779297</ele>
        <time>2017-03-15T13:34:33.000Z</time>
      </trkpt>
      <trkpt lat="44.40758" lon="4.53755">
        <ele>326.79998779297</ele>
        <time>2017-03-15T13:34:48.000Z</time>
      </trkpt>
      <trkpt lat="44.40758" lon="4.53755">
        <ele>326.79998779297</ele>
        <time>2017-03-15T13:34:58.000Z</time>
      </trkpt>
      <trkpt lat="44.40758" lon="4.53755">
        <ele>326.79998779297</ele>
        <time>2017-03-15T13:35:05.000Z</time>
      </trkpt>
      <trkpt lat="44.40758" lon="4.53755">
        <ele>327</ele>
        <time>2017-03-15T13:35:19.000Z</time>
      </trkpt>
      <trkpt lat="44.40758" lon="4.53757">
        <ele>327</ele>
        <time>2017-03-15T13:35:28.000Z</time>
      </trkpt>
      <trkpt lat="44.40757" lon="4.53757">
        <ele>327.20001220703</ele>
        <time>2017-03-15T13:35:34.000Z</time>
      </trkpt>
      <trkpt lat="44.40757" lon="4.53758">
        <ele>324.20001220703</ele>
        <time>2017-03-15T13:35:43.000Z</time>
      </trkpt>
      <trkpt lat="44.40757" lon="4.53758">
        <ele>325.60000610352</ele>
        <time>2017-03-15T13:35:44.000Z</time>
      </trkpt>
      <trkpt lat="44.40757" lon="4.53758">
        <ele>328.20001220703</ele>
        <time>2017-03-15T13:35:46.000Z</time>
      </trkpt>
      <trkpt lat="44.40757" lon="4.53758">
        <ele>322.20001220703</ele>
        <time>2017-03-15T13:35:47.000Z</time>
      </trkpt>
      <trkpt lat="44.40757" lon="4.53758">
        <ele>323.79998779297</ele>
        <time>2017-03-15T13:35:48.000Z</time>
      </trkpt>
      <trkpt lat="44.40757" lon="4.53758">
        <ele>326.39999389648</ele>
        <time>2017-03-15T13:35:49.000Z</time>
      </trkpt>
      <trkpt lat="44.40757" lon="4.53758">
        <ele>330.20001220703</ele>
        <time>2017-03-15T13:35:50.000Z</time>
      </trkpt>
      <trkpt lat="44.40757" lon="4.53758">
        <ele>325</ele>
        <time>2017-03-15T13:35:52.000Z</time>
      </trkpt>
      <trkpt lat="44.40757" lon="4.53758">
        <ele>320</ele>
        <time>2017-03-15T13:35:54.000Z</time>
      </trkpt>
      <trkpt lat="44.40757" lon="4.53758">
        <ele>324.79998779297</ele>
        <time>2017-03-15T13:35:55.000Z</time>
      </trkpt>
      <trkpt lat="44.40757" lon="4.53758">
        <ele>328</ele>
        <time>2017-03-15T13:35:56.000Z</time>
      </trkpt>
      <trkpt lat="44.40757" lon="4.53758">
        <ele>330.39999389648</ele>
        <time>2017-03-15T13:35:57.000Z</time>
      </trkpt>
      <trkpt lat="44.40757" lon="4.53758">
        <ele>325.20001220703</ele>
        <time>2017-03-15T13:35:58.000Z</time>
      </trkpt>
      <trkpt lat="44.40757" lon="4.53758">
        <ele>326.79998779297</ele>
        <time>2017-03-15T13:35:59.000Z</time>
      </trkpt>
      <trkpt lat="44.40757" lon="4.53758">
        <ele>329.60000610352</ele>
        <time>2017-03-15T13:36:00.000Z</time>
      </trkpt>
      <trkpt lat="44.40757" lon="4.53758">
        <ele>327.20001220703</ele>
        <time>2017-03-15T13:36:01.000Z</time>
      </trkpt>
      <trkpt lat="44.40757" lon="4.53757">
        <ele>326.60000610352</ele>
        <time>2017-03-15T13:36:06.000Z</time>
      </trkpt>
      <trkpt lat="44.40754" lon="4.53755">
        <ele>326.39999389648</ele>
        <time>2017-03-15T13:36:08.000Z</time>
      </trkpt>
      <trkpt lat="44.40753" lon="4.53752">
        <ele>326.20001220703</ele>
        <time>2017-03-15T13:36:09.000Z</time>
      </trkpt>
      <trkpt lat="44.40752" lon="4.53747">
        <ele>326</ele>
        <time>2017-03-15T13:36:11.000Z</time>
      </trkpt>
      <trkpt lat="44.40751" lon="4.53744">
        <ele>325.79998779297</ele>
        <time>2017-03-15T13:36:12.000Z</time>
      </trkpt>
      <trkpt lat="44.4075" lon="4.53741">
        <ele>325.79998779297</ele>
        <time>2017-03-15T13:36:13.000Z</time>
      </trkpt>
      <trkpt lat="44.40739" lon="4.53717">
        <ele>326.39999389648</ele>
        <time>2017-03-15T13:36:20.000Z</time>
      </trkpt>
      <trkpt lat="44.40734" lon="4.53704">
        <ele>327.39999389648</ele>
        <time>2017-03-15T13:36:24.000Z</time>
      </trkpt>
      <trkpt lat="44.40731" lon="4.53694">
        <ele>328.39999389648</ele>
        <time>2017-03-15T13:36:27.000Z</time>
      </trkpt>
      <trkpt lat="44.4073" lon="4.53691">
        <ele>328.79998779297</ele>
        <time>2017-03-15T13:36:28.000Z</time>
      </trkpt>
      <trkpt lat="44.40728" lon="4.53682">
        <ele>329.79998779297</ele>
        <time>2017-03-15T13:36:31.000Z</time>
      </trkpt>
      <trkpt lat="44.40726" lon="4.53674">
        <ele>330.39999389648</ele>
        <time>2017-03-15T13:36:33.000Z</time>
      </trkpt>
      <trkpt lat="44.40724" lon="4.53666">
        <ele>330.79998779297</ele>
        <time>2017-03-15T13:36:35.000Z</time>
      </trkpt>
      <trkpt lat="44.40723" lon="4.5365">
        <ele>331.39999389648</ele>
        <time>2017-03-15T13:36:39.000Z</time>
      </trkpt>
      <trkpt lat="44.40721" lon="4.53635">
        <ele>331.79998779297</ele>
        <time>2017-03-15T13:36:43.000Z</time>
      </trkpt>
      <trkpt lat="44.40718" lon="4.5362">
        <ele>332.79998779297</ele>
        <time>2017-03-15T13:36:47.000Z</time>
      </trkpt>
      <trkpt lat="44.40718" lon="4.53617">
        <ele>333</ele>
        <time>2017-03-15T13:36:48.000Z</time>
      </trkpt>
      <trkpt lat="44.40716" lon="4.53604">
        <ele>334</ele>
        <time>2017-03-15T13:36:53.000Z</time>
      </trkpt>
      <trkpt lat="44.40715" lon="4.53601">
        <ele>334.20001220703</ele>
        <time>2017-03-15T13:36:54.000Z</time>
      </trkpt>
      <trkpt lat="44.40713" lon="4.5359">
        <ele>335.20001220703</ele>
        <time>2017-03-15T13:36:58.000Z</time>
      </trkpt>
      <trkpt lat="44.40706" lon="4.53562">
        <ele>336</ele>
        <time>2017-03-15T13:37:07.000Z</time>
      </trkpt>
      <trkpt lat="44.40698" lon="4.53534">
        <ele>336.20001220703</ele>
        <time>2017-03-15T13:37:14.000Z</time>
      </trkpt>
      <trkpt lat="44.40691" lon="4.53502">
        <ele>336</ele>
        <time>2017-03-15T13:37:21.000Z</time>
      </trkpt>
      <trkpt lat="44.40682" lon="4.53467">
        <ele>335.60000610352</ele>
        <time>2017-03-15T13:37:28.000Z</time>
      </trkpt>
      <trkpt lat="44.40669" lon="4.53438">
        <ele>334</ele>
        <time>2017-03-15T13:37:32.000Z</time>
      </trkpt>
      <trkpt lat="44.40666" lon="4.5343">
        <ele>333.79998779297</ele>
        <time>2017-03-15T13:37:33.000Z</time>
      </trkpt>
      <trkpt lat="44.40651" lon="4.53397">
        <ele>333.79998779297</ele>
        <time>2017-03-15T13:37:38.000Z</time>
      </trkpt>
      <trkpt lat="44.40642" lon="4.53381">
        <ele>335.39999389648</ele>
        <time>2017-03-15T13:37:42.000Z</time>
      </trkpt>
      <trkpt lat="44.4064" lon="4.53377">
        <ele>335.79998779297</ele>
        <time>2017-03-15T13:37:43.000Z</time>
      </trkpt>
      <trkpt lat="44.40635" lon="4.53364">
        <ele>336.60000610352</ele>
        <time>2017-03-15T13:37:46.000Z</time>
      </trkpt>
      <trkpt lat="44.40629" lon="4.53351">
        <ele>337</ele>
        <time>2017-03-15T13:37:49.000Z</time>
      </trkpt>
      <trkpt lat="44.40616" lon="4.5332">
        <ele>336.79998779297</ele>
        <time>2017-03-15T13:37:56.000Z</time>
      </trkpt>
      <trkpt lat="44.40599" lon="4.53287">
        <ele>336.79998779297</ele>
        <time>2017-03-15T13:38:05.000Z</time>
      </trkpt>
      <trkpt lat="44.40588" lon="4.5327">
        <ele>337.39999389648</ele>
        <time>2017-03-15T13:38:11.000Z</time>
      </trkpt>
      <trkpt lat="44.40586" lon="4.53268">
        <ele>337.60000610352</ele>
        <time>2017-03-15T13:38:12.000Z</time>
      </trkpt>
      <trkpt lat="44.40574" lon="4.53258">
        <ele>338</ele>
        <time>2017-03-15T13:38:17.000Z</time>
      </trkpt>
      <trkpt lat="44.40563" lon="4.53252">
        <ele>338.60000610352</ele>
        <time>2017-03-15T13:38:21.000Z</time>
      </trkpt>
      <trkpt lat="44.40551" lon="4.53242">
        <ele>338.79998779297</ele>
        <time>2017-03-15T13:38:25.000Z</time>
      </trkpt>
      <trkpt lat="44.40532" lon="4.53227">
        <ele>339.60000610352</ele>
        <time>2017-03-15T13:38:32.000Z</time>
      </trkpt>
      <trkpt lat="44.40529" lon="4.53225">
        <ele>339.60000610352</ele>
        <time>2017-03-15T13:38:33.000Z</time>
      </trkpt>
      <trkpt lat="44.40513" lon="4.53216">
        <ele>339.60000610352</ele>
        <time>2017-03-15T13:38:38.000Z</time>
      </trkpt>
      <trkpt lat="44.40491" lon="4.53198">
        <ele>339.39999389648</ele>
        <time>2017-03-15T13:38:44.000Z</time>
      </trkpt>
      <trkpt lat="44.40464" lon="4.53166">
        <ele>339.20001220703</ele>
        <time>2017-03-15T13:38:53.000Z</time>
      </trkpt>
      <trkpt lat="44.40459" lon="4.53156">
        <ele>339.20001220703</ele>
        <time>2017-03-15T13:38:55.000Z</time>
      </trkpt>
      <trkpt lat="44.40454" lon="4.53138">
        <ele>339.39999389648</ele>
        <time>2017-03-15T13:38:58.000Z</time>
      </trkpt>
      <trkpt lat="44.40454" lon="4.5312">
        <ele>339</ele>
        <time>2017-03-15T13:39:01.000Z</time>
      </trkpt>
      <trkpt lat="44.40455" lon="4.53104">
        <ele>338.60000610352</ele>
        <time>2017-03-15T13:39:04.000Z</time>
      </trkpt>
      <trkpt lat="44.40452" lon="4.53096">
        <ele>338.79998779297</ele>
        <time>2017-03-15T13:39:06.000Z</time>
      </trkpt>
      <trkpt lat="44.4045" lon="4.53093">
        <ele>339.20001220703</ele>
        <time>2017-03-15T13:39:08.000Z</time>
      </trkpt>
      <trkpt lat="44.40443" lon="4.53093">
        <ele>339.60000610352</ele>
        <time>2017-03-15T13:39:10.000Z</time>
      </trkpt>
      <trkpt lat="44.40439" lon="4.53094">
        <ele>339.79998779297</ele>
        <time>2017-03-15T13:39:11.000Z</time>
      </trkpt>
      <trkpt lat="44.40415" lon="4.53096">
        <ele>339.39999389648</ele>
        <time>2017-03-15T13:39:17.000Z</time>
      </trkpt>
      <trkpt lat="44.40411" lon="4.53096">
        <ele>339.60000610352</ele>
        <time>2017-03-15T13:39:18.000Z</time>
      </trkpt>
      <trkpt lat="44.40386" lon="4.53088">
        <ele>340.20001220703</ele>
        <time>2017-03-15T13:39:25.000Z</time>
      </trkpt>
      <trkpt lat="44.40367" lon="4.53079">
        <ele>340.79998779297</ele>
        <time>2017-03-15T13:39:31.000Z</time>
      </trkpt>
      <trkpt lat="44.40357" lon="4.53076">
        <ele>341</ele>
        <time>2017-03-15T13:39:34.000Z</time>
      </trkpt>
      <trkpt lat="44.40337" lon="4.53069">
        <ele>341.79998779297</ele>
        <time>2017-03-15T13:39:41.000Z</time>
      </trkpt>
      <trkpt lat="44.40314" lon="4.53064">
        <ele>342.20001220703</ele>
        <time>2017-03-15T13:39:48.000Z</time>
      </trkpt>
      <trkpt lat="44.40306" lon="4.53061">
        <ele>342.79998779297</ele>
        <time>2017-03-15T13:39:51.000Z</time>
      </trkpt>
      <trkpt lat="44.40288" lon="4.53056">
        <ele>343.20001220703</ele>
        <time>2017-03-15T13:39:56.000Z</time>
      </trkpt>
      <trkpt lat="44.40267" lon="4.53049">
        <ele>343.20001220703</ele>
        <time>2017-03-15T13:40:02.000Z</time>
      </trkpt>
      <trkpt lat="44.40241" lon="4.53045">
        <ele>343.60000610352</ele>
        <time>2017-03-15T13:40:09.000Z</time>
      </trkpt>
      <trkpt lat="44.40234" lon="4.53048">
        <ele>343.79998779297</ele>
        <time>2017-03-15T13:40:11.000Z</time>
      </trkpt>
      <trkpt lat="44.40218" lon="4.53057">
        <ele>344.79998779297</ele>
        <time>2017-03-15T13:40:16.000Z</time>
      </trkpt>
      <trkpt lat="44.40216" lon="4.53059">
        <ele>344.79998779297</ele>
        <time>2017-03-15T13:40:17.000Z</time>
      </trkpt>
      <trkpt lat="44.40206" lon="4.53064">
        <ele>346</ele>
        <time>2017-03-15T13:40:21.000Z</time>
      </trkpt>
      <trkpt lat="44.40201" lon="4.53067">
        <ele>346.60000610352</ele>
        <time>2017-03-15T13:40:23.000Z</time>
      </trkpt>
      <trkpt lat="44.40196" lon="4.5307">
        <ele>347</ele>
        <time>2017-03-15T13:40:25.000Z</time>
      </trkpt>
      <trkpt lat="44.40188" lon="4.53074">
        <ele>348.20001220703</ele>
        <time>2017-03-15T13:40:28.000Z</time>
      </trkpt>
      <trkpt lat="44.4018" lon="4.53076">
        <ele>348.79998779297</ele>
        <time>2017-03-15T13:40:31.000Z</time>
      </trkpt>
      <trkpt lat="44.40169" lon="4.53076">
        <ele>349.20001220703</ele>
        <time>2017-03-15T13:40:35.000Z</time>
      </trkpt>
      <trkpt lat="44.4016" lon="4.53077">
        <ele>349.79998779297</ele>
        <time>2017-03-15T13:40:38.000Z</time>
      </trkpt>
      <trkpt lat="44.40151" lon="4.53077">
        <ele>350.60000610352</ele>
        <time>2017-03-15T13:40:41.000Z</time>
      </trkpt>
      <trkpt lat="44.40145" lon="4.53077">
        <ele>351</ele>
        <time>2017-03-15T13:40:43.000Z</time>
      </trkpt>
      <trkpt lat="44.40136" lon="4.53075">
        <ele>351.79998779297</ele>
        <time>2017-03-15T13:40:46.000Z</time>
      </trkpt>
      <trkpt lat="44.4013" lon="4.53074">
        <ele>352.20001220703</ele>
        <time>2017-03-15T13:40:48.000Z</time>
      </trkpt>
      <trkpt lat="44.40123" lon="4.53073">
        <ele>352.79998779297</ele>
        <time>2017-03-15T13:40:50.000Z</time>
      </trkpt>
      <trkpt lat="44.40109" lon="4.53069">
        <ele>353.79998779297</ele>
        <time>2017-03-15T13:40:55.000Z</time>
      </trkpt>
      <trkpt lat="44.40107" lon="4.53069">
        <ele>354</ele>
        <time>2017-03-15T13:40:56.000Z</time>
      </trkpt>
      <trkpt lat="44.40099" lon="4.53075">
        <ele>355</ele>
        <time>2017-03-15T13:40:59.000Z</time>
      </trkpt>
      <trkpt lat="44.40098" lon="4.53078">
        <ele>355.39999389648</ele>
        <time>2017-03-15T13:41:00.000Z</time>
      </trkpt>
      <trkpt lat="44.40102" lon="4.5309">
        <ele>356</ele>
        <time>2017-03-15T13:41:04.000Z</time>
      </trkpt>
      <trkpt lat="44.40104" lon="4.53092">
        <ele>356.39999389648</ele>
        <time>2017-03-15T13:41:05.000Z</time>
      </trkpt>
      <trkpt lat="44.40106" lon="4.53094">
        <ele>357</ele>
        <time>2017-03-15T13:41:06.000Z</time>
      </trkpt>
      <trkpt lat="44.4011" lon="4.531">
        <ele>357.60000610352</ele>
        <time>2017-03-15T13:41:08.000Z</time>
      </trkpt>
      <trkpt lat="44.40116" lon="4.53111">
        <ele>358.39999389648</ele>
        <time>2017-03-15T13:41:11.000Z</time>
      </trkpt>
      <trkpt lat="44.40119" lon="4.53119">
        <ele>358.79998779297</ele>
        <time>2017-03-15T13:41:13.000Z</time>
      </trkpt>
      <trkpt lat="44.40128" lon="4.53134">
        <ele>359.79998779297</ele>
        <time>2017-03-15T13:41:17.000Z</time>
      </trkpt>
      <trkpt lat="44.4013" lon="4.53138">
        <ele>359.79998779297</ele>
        <time>2017-03-15T13:41:18.000Z</time>
      </trkpt>
      <trkpt lat="44.40149" lon="4.53165">
        <ele>360.79998779297</ele>
        <time>2017-03-15T13:41:26.000Z</time>
      </trkpt>
      <trkpt lat="44.40164" lon="4.53187">
        <ele>361.79998779297</ele>
        <time>2017-03-15T13:41:33.000Z</time>
      </trkpt>
      <trkpt lat="44.40164" lon="4.53196">
        <ele>362.20001220703</ele>
        <time>2017-03-15T13:41:35.000Z</time>
      </trkpt>
      <trkpt lat="44.40162" lon="4.532">
        <ele>362.20001220703</ele>
        <time>2017-03-15T13:41:36.000Z</time>
      </trkpt>
      <trkpt lat="44.40155" lon="4.53208">
        <ele>362.79998779297</ele>
        <time>2017-03-15T13:41:39.000Z</time>
      </trkpt>
      <trkpt lat="44.4015" lon="4.53213">
        <ele>363.20001220703</ele>
        <time>2017-03-15T13:41:41.000Z</time>
      </trkpt>
      <trkpt lat="44.40146" lon="4.53218">
        <ele>363.79998779297</ele>
        <time>2017-03-15T13:41:43.000Z</time>
      </trkpt>
      <trkpt lat="44.40133" lon="4.53232">
        <ele>364.60000610352</ele>
        <time>2017-03-15T13:41:48.000Z</time>
      </trkpt>
      <trkpt lat="44.40129" lon="4.53236">
        <ele>364.79998779297</ele>
        <time>2017-03-15T13:41:50.000Z</time>
      </trkpt>
      <trkpt lat="44.40118" lon="4.53248">
        <ele>365.79998779297</ele>
        <time>2017-03-15T13:41:55.000Z</time>
      </trkpt>
      <trkpt lat="44.40116" lon="4.5325">
        <ele>366</ele>
        <time>2017-03-15T13:41:56.000Z</time>
      </trkpt>
      <trkpt lat="44.40104" lon="4.53263">
        <ele>367.20001220703</ele>
        <time>2017-03-15T13:42:02.000Z</time>
      </trkpt>
      <trkpt lat="44.40102" lon="4.53263">
        <ele>367.39999389648</ele>
        <time>2017-03-15T13:42:03.000Z</time>
      </trkpt>
      <trkpt lat="44.40095" lon="4.53269">
        <ele>368.39999389648</ele>
        <time>2017-03-15T13:42:07.000Z</time>
      </trkpt>
      <trkpt lat="44.40094" lon="4.53272">
        <ele>368.39999389648</ele>
        <time>2017-03-15T13:42:08.000Z</time>
      </trkpt>
      <trkpt lat="44.40096" lon="4.53281">
        <ele>368.39999389648</ele>
        <time>2017-03-15T13:42:12.000Z</time>
      </trkpt>
      <trkpt lat="44.40099" lon="4.53286">
        <ele>368.39999389648</ele>
        <time>2017-03-15T13:42:18.000Z</time>
      </trkpt>
      <trkpt lat="44.40099" lon="4.53286">
        <ele>367</ele>
        <time>2017-03-15T13:42:23.000Z</time>
      </trkpt>
      <trkpt lat="44.40099" lon="4.53286">
        <ele>368</ele>
        <time>2017-03-15T13:42:25.000Z</time>
      </trkpt>
      <trkpt lat="44.40099" lon="4.53286">
        <ele>367</ele>
        <time>2017-03-15T13:42:26.000Z</time>
      </trkpt>
      <trkpt lat="44.40099" lon="4.53286">
        <ele>370.20001220703</ele>
        <time>2017-03-15T13:42:28.000Z</time>
      </trkpt>
      <trkpt lat="44.40099" lon="4.53286">
        <ele>365.39999389648</ele>
        <time>2017-03-15T13:42:29.000Z</time>
      </trkpt>
      <trkpt lat="44.40099" lon="4.53286">
        <ele>363</ele>
        <time>2017-03-15T13:42:30.000Z</time>
      </trkpt>
      <trkpt lat="44.40099" lon="4.53286">
        <ele>367.20001220703</ele>
        <time>2017-03-15T13:42:31.000Z</time>
      </trkpt>
      <trkpt lat="44.40099" lon="4.53286">
        <ele>364.79998779297</ele>
        <time>2017-03-15T13:42:32.000Z</time>
      </trkpt>
      <trkpt lat="44.40099" lon="4.53286">
        <ele>370.60000610352</ele>
        <time>2017-03-15T13:42:33.000Z</time>
      </trkpt>
      <trkpt lat="44.40099" lon="4.53286">
        <ele>360.39999389648</ele>
        <time>2017-03-15T13:42:34.000Z</time>
      </trkpt>
      <trkpt lat="44.40099" lon="4.53286">
        <ele>371</ele>
        <time>2017-03-15T13:42:35.000Z</time>
      </trkpt>
      <trkpt lat="44.40099" lon="4.53286">
        <ele>368</ele>
        <time>2017-03-15T13:42:36.000Z</time>
      </trkpt>
      <trkpt lat="44.40099" lon="4.53286">
        <ele>370.20001220703</ele>
        <time>2017-03-15T13:42:37.000Z</time>
      </trkpt>
      <trkpt lat="44.40099" lon="4.53286">
        <ele>374.79998779297</ele>
        <time>2017-03-15T13:42:40.000Z</time>
      </trkpt>
      <trkpt lat="44.40099" lon="4.53286">
        <ele>369.39999389648</ele>
        <time>2017-03-15T13:42:41.000Z</time>
      </trkpt>
      <trkpt lat="44.40099" lon="4.53286">
        <ele>368</ele>
        <time>2017-03-15T13:42:46.000Z</time>
      </trkpt>
      <trkpt lat="44.40099" lon="4.53286">
        <ele>368.39999389648</ele>
        <time>2017-03-15T13:42:50.000Z</time>
      </trkpt>
      <trkpt lat="44.40099" lon="4.53286">
        <ele>369.20001220703</ele>
        <time>2017-03-15T13:42:54.000Z</time>
      </trkpt>
      <trkpt lat="44.40099" lon="4.53286">
        <ele>368.39999389648</ele>
        <time>2017-03-15T13:43:06.000Z</time>
      </trkpt>
      <trkpt lat="44.40099" lon="4.53286">
        <ele>366.20001220703</ele>
        <time>2017-03-15T13:43:11.000Z</time>
      </trkpt>
      <trkpt lat="44.40099" lon="4.53286">
        <ele>367.60000610352</ele>
        <time>2017-03-15T13:43:12.000Z</time>
      </trkpt>
      <trkpt lat="44.40099" lon="4.53286">
        <ele>369</ele>
        <time>2017-03-15T13:43:14.000Z</time>
      </trkpt>
      <trkpt lat="44.40099" lon="4.53286">
        <ele>368.60000610352</ele>
        <time>2017-03-15T13:43:20.000Z</time>
      </trkpt>
      <trkpt lat="44.40099" lon="4.53286">
        <ele>368.60000610352</ele>
        <time>2017-03-15T13:43:37.000Z</time>
      </trkpt>
      <trkpt lat="44.40099" lon="4.53287">
        <ele>368.79998779297</ele>
        <time>2017-03-15T13:43:57.000Z</time>
      </trkpt>
      <trkpt lat="44.401" lon="4.53289">
        <ele>368.79998779297</ele>
        <time>2017-03-15T13:44:04.000Z</time>
      </trkpt>
      <trkpt lat="44.40102" lon="4.53293">
        <ele>368.60000610352</ele>
        <time>2017-03-15T13:44:06.000Z</time>
      </trkpt>
      <trkpt lat="44.40104" lon="4.53297">
        <ele>369</ele>
        <time>2017-03-15T13:44:08.000Z</time>
      </trkpt>
      <trkpt lat="44.40107" lon="4.53301">
        <ele>369</ele>
        <time>2017-03-15T13:44:11.000Z</time>
      </trkpt>
      <trkpt lat="44.40109" lon="4.53307">
        <ele>369</ele>
        <time>2017-03-15T13:44:14.000Z</time>
      </trkpt>
      <trkpt lat="44.40118" lon="4.53324">
        <ele>369.20001220703</ele>
        <time>2017-03-15T13:44:20.000Z</time>
      </trkpt>
      <trkpt lat="44.4013" lon="4.53343">
        <ele>369.20001220703</ele>
        <time>2017-03-15T13:44:26.000Z</time>
      </trkpt>
      <trkpt lat="44.40144" lon="4.53366">
        <ele>369.79998779297</ele>
        <time>2017-03-15T13:44:33.000Z</time>
      </trkpt>
      <trkpt lat="44.40152" lon="4.53379">
        <ele>370</ele>
        <time>2017-03-15T13:44:37.000Z</time>
      </trkpt>
      <trkpt lat="44.40156" lon="4.53388">
        <ele>369.79998779297</ele>
        <time>2017-03-15T13:44:40.000Z</time>
      </trkpt>
      <trkpt lat="44.40168" lon="4.5341">
        <ele>370.20001220703</ele>
        <time>2017-03-15T13:44:47.000Z</time>
      </trkpt>
      <trkpt lat="44.40185" lon="4.5344">
        <ele>370.39999389648</ele>
        <time>2017-03-15T13:44:56.000Z</time>
      </trkpt>
      <trkpt lat="44.40205" lon="4.53463">
        <ele>371.39999389648</ele>
        <time>2017-03-15T13:45:04.000Z</time>
      </trkpt>
      <trkpt lat="44.40207" lon="4.53466">
        <ele>371.60000610352</ele>
        <time>2017-03-15T13:45:05.000Z</time>
      </trkpt>
      <trkpt lat="44.40217" lon="4.53475">
        <ele>372.39999389648</ele>
        <time>2017-03-15T13:45:09.000Z</time>
      </trkpt>
      <trkpt lat="44.40229" lon="4.53489">
        <ele>372.79998779297</ele>
        <time>2017-03-15T13:45:14.000Z</time>
      </trkpt>
      <trkpt lat="44.40241" lon="4.53504">
        <ele>373.79998779297</ele>
        <time>2017-03-15T13:45:19.000Z</time>
      </trkpt>
      <trkpt lat="44.40247" lon="4.53512">
        <ele>373.39999389648</ele>
        <time>2017-03-15T13:45:22.000Z</time>
      </trkpt>
      <trkpt lat="44.40259" lon="4.53537">
        <ele>373</ele>
        <time>2017-03-15T13:45:29.000Z</time>
      </trkpt>
      <trkpt lat="44.40264" lon="4.53553">
        <ele>372.60000610352</ele>
        <time>2017-03-15T13:45:33.000Z</time>
      </trkpt>
      <trkpt lat="44.40268" lon="4.53566">
        <ele>372.79998779297</ele>
        <time>2017-03-15T13:45:36.000Z</time>
      </trkpt>
      <trkpt lat="44.40282" lon="4.53598">
        <ele>372.79998779297</ele>
        <time>2017-03-15T13:45:44.000Z</time>
      </trkpt>
      <trkpt lat="44.40296" lon="4.53624">
        <ele>371.60000610352</ele>
        <time>2017-03-15T13:45:51.000Z</time>
      </trkpt>
      <trkpt lat="44.40298" lon="4.53627">
        <ele>371.39999389648</ele>
        <time>2017-03-15T13:45:52.000Z</time>
      </trkpt>
      <trkpt lat="44.40312" lon="4.53649">
        <ele>371.79998779297</ele>
        <time>2017-03-15T13:45:58.000Z</time>
      </trkpt>
      <trkpt lat="44.40326" lon="4.53671">
        <ele>371.39999389648</ele>
        <time>2017-03-15T13:46:04.000Z</time>
      </trkpt>
      <trkpt lat="44.4034" lon="4.53695">
        <ele>371.20001220703</ele>
        <time>2017-03-15T13:46:11.000Z</time>
      </trkpt>
      <trkpt lat="44.40352" lon="4.53728">
        <ele>371</ele>
        <time>2017-03-15T13:46:19.000Z</time>
      </trkpt>
      <trkpt lat="44.40363" lon="4.53762">
        <ele>370.79998779297</ele>
        <time>2017-03-15T13:46:27.000Z</time>
      </trkpt>
      <trkpt lat="44.40366" lon="4.5377">
        <ele>370.60000610352</ele>
        <time>2017-03-15T13:46:29.000Z</time>
      </trkpt>
      <trkpt lat="44.40367" lon="4.53774">
        <ele>370.39999389648</ele>
        <time>2017-03-15T13:46:30.000Z</time>
      </trkpt>
      <trkpt lat="44.40373" lon="4.53792">
        <ele>370.20001220703</ele>
        <time>2017-03-15T13:46:34.000Z</time>
      </trkpt>
      <trkpt lat="44.40386" lon="4.53827">
        <ele>369.79998779297</ele>
        <time>2017-03-15T13:46:42.000Z</time>
      </trkpt>
      <trkpt lat="44.40389" lon="4.53835">
        <ele>369.39999389648</ele>
        <time>2017-03-15T13:46:44.000Z</time>
      </trkpt>
      <trkpt lat="44.40399" lon="4.53863">
        <ele>369.20001220703</ele>
        <time>2017-03-15T13:46:50.000Z</time>
      </trkpt>
      <trkpt lat="44.40412" lon="4.53893">
        <ele>369.20001220703</ele>
        <time>2017-03-15T13:46:57.000Z</time>
      </trkpt>
      <trkpt lat="44.40421" lon="4.53924">
        <ele>369.20001220703</ele>
        <time>2017-03-15T13:47:04.000Z</time>
      </trkpt>
      <trkpt lat="44.40433" lon="4.53963">
        <ele>369.79998779297</ele>
        <time>2017-03-15T13:47:13.000Z</time>
      </trkpt>
      <trkpt lat="44.40448" lon="4.54005">
        <ele>369</ele>
        <time>2017-03-15T13:47:23.000Z</time>
      </trkpt>
      <trkpt lat="44.4046" lon="4.54043">
        <ele>369.79998779297</ele>
        <time>2017-03-15T13:47:32.000Z</time>
      </trkpt>
      <trkpt lat="44.40465" lon="4.54066">
        <ele>370.79998779297</ele>
        <time>2017-03-15T13:47:37.000Z</time>
      </trkpt>
      <trkpt lat="44.40467" lon="4.54075">
        <ele>370.39999389648</ele>
        <time>2017-03-15T13:47:39.000Z</time>
      </trkpt>
      <trkpt lat="44.40475" lon="4.54109">
        <ele>370.20001220703</ele>
        <time>2017-03-15T13:47:47.000Z</time>
      </trkpt>
      <trkpt lat="44.40486" lon="4.5415">
        <ele>370.60000610352</ele>
        <time>2017-03-15T13:47:56.000Z</time>
      </trkpt>
      <trkpt lat="44.405" lon="4.5418">
        <ele>370.60000610352</ele>
        <time>2017-03-15T13:48:04.000Z</time>
      </trkpt>
      <trkpt lat="44.4052" lon="4.54216">
        <ele>370.79998779297</ele>
        <time>2017-03-15T13:48:14.000Z</time>
      </trkpt>
      <trkpt lat="44.40535" lon="4.54251">
        <ele>369.79998779297</ele>
        <time>2017-03-15T13:48:22.000Z</time>
      </trkpt>
      <trkpt lat="44.40537" lon="4.54255">
        <ele>369.79998779297</ele>
        <time>2017-03-15T13:48:23.000Z</time>
      </trkpt>
      <trkpt lat="44.40549" lon="4.54287">
        <ele>369.39999389648</ele>
        <time>2017-03-15T13:48:30.000Z</time>
      </trkpt>
      <trkpt lat="44.40562" lon="4.54324">
        <ele>369</ele>
        <time>2017-03-15T13:48:38.000Z</time>
      </trkpt>
      <trkpt lat="44.40568" lon="4.54338">
        <ele>368.79998779297</ele>
        <time>2017-03-15T13:48:41.000Z</time>
      </trkpt>
      <trkpt lat="44.40576" lon="4.54363">
        <ele>368.39999389648</ele>
        <time>2017-03-15T13:48:46.000Z</time>
      </trkpt>
      <trkpt lat="44.40586" lon="4.54406">
        <ele>367.39999389648</ele>
        <time>2017-03-15T13:48:54.000Z</time>
      </trkpt>
      <trkpt lat="44.4059" lon="4.54426">
        <ele>366.39999389648</ele>
        <time>2017-03-15T13:48:57.000Z</time>
      </trkpt>
      <trkpt lat="44.40594" lon="4.54439">
        <ele>365.39999389648</ele>
        <time>2017-03-15T13:48:59.000Z</time>
      </trkpt>
      <trkpt lat="44.40596" lon="4.54446">
        <ele>365.20001220703</ele>
        <time>2017-03-15T13:49:00.000Z</time>
      </trkpt>
      <trkpt lat="44.40615" lon="4.54489">
        <ele>364.39999389648</ele>
        <time>2017-03-15T13:49:07.000Z</time>
      </trkpt>
      <trkpt lat="44.40617" lon="4.54494">
        <ele>363.79998779297</ele>
        <time>2017-03-15T13:49:08.000Z</time>
      </trkpt>
      <trkpt lat="44.40629" lon="4.54517">
        <ele>362.60000610352</ele>
        <time>2017-03-15T13:49:12.000Z</time>
      </trkpt>
      <trkpt lat="44.40635" lon="4.5453">
        <ele>362</ele>
        <time>2017-03-15T13:49:14.000Z</time>
      </trkpt>
      <trkpt lat="44.40644" lon="4.54548">
        <ele>361.39999389648</ele>
        <time>2017-03-15T13:49:17.000Z</time>
      </trkpt>
      <trkpt lat="44.40659" lon="4.54579">
        <ele>361</ele>
        <time>2017-03-15T13:49:22.000Z</time>
      </trkpt>
      <trkpt lat="44.40667" lon="4.54595">
        <ele>360.20001220703</ele>
        <time>2017-03-15T13:49:25.000Z</time>
      </trkpt>
      <trkpt lat="44.4068" lon="4.54625">
        <ele>360.39999389648</ele>
        <time>2017-03-15T13:49:31.000Z</time>
      </trkpt>
      <trkpt lat="44.40695" lon="4.54659">
        <ele>359.79998779297</ele>
        <time>2017-03-15T13:49:38.000Z</time>
      </trkpt>
      <trkpt lat="44.40712" lon="4.54682">
        <ele>359.79998779297</ele>
        <time>2017-03-15T13:49:45.000Z</time>
      </trkpt>
      <trkpt lat="44.40737" lon="4.5471">
        <ele>360</ele>
        <time>2017-03-15T13:49:54.000Z</time>
      </trkpt>
      <trkpt lat="44.40757" lon="4.54728">
        <ele>360.20001220703</ele>
        <time>2017-03-15T13:50:01.000Z</time>
      </trkpt>
      <trkpt lat="44.40783" lon="4.54754">
        <ele>360.20001220703</ele>
        <time>2017-03-15T13:50:10.000Z</time>
      </trkpt>
      <trkpt lat="44.40794" lon="4.5478">
        <ele>360</ele>
        <time>2017-03-15T13:50:16.000Z</time>
      </trkpt>
      <trkpt lat="44.40798" lon="4.54789">
        <ele>359.39999389648</ele>
        <time>2017-03-15T13:50:18.000Z</time>
      </trkpt>
      <trkpt lat="44.40804" lon="4.54798">
        <ele>359.20001220703</ele>
        <time>2017-03-15T13:50:20.000Z</time>
      </trkpt>
      <trkpt lat="44.40811" lon="4.54805">
        <ele>358.79998779297</ele>
        <time>2017-03-15T13:50:22.000Z</time>
      </trkpt>
      <trkpt lat="44.40818" lon="4.54812">
        <ele>358</ele>
        <time>2017-03-15T13:50:24.000Z</time>
      </trkpt>
      <trkpt lat="44.40838" lon="4.54834">
        <ele>357.79998779297</ele>
        <time>2017-03-15T13:50:30.000Z</time>
      </trkpt>
      <trkpt lat="44.40851" lon="4.54849">
        <ele>356.79998779297</ele>
        <time>2017-03-15T13:50:34.000Z</time>
      </trkpt>
      <trkpt lat="44.40864" lon="4.54863">
        <ele>355.60000610352</ele>
        <time>2017-03-15T13:50:38.000Z</time>
      </trkpt>
      <trkpt lat="44.4088" lon="4.54881">
        <ele>354.60000610352</ele>
        <time>2017-03-15T13:50:43.000Z</time>
      </trkpt>
      <trkpt lat="44.40888" lon="4.54888">
        <ele>354.20001220703</ele>
        <time>2017-03-15T13:50:45.000Z</time>
      </trkpt>
      <trkpt lat="44.40899" lon="4.54899">
        <ele>353.39999389648</ele>
        <time>2017-03-15T13:50:48.000Z</time>
      </trkpt>
      <trkpt lat="44.40917" lon="4.54917">
        <ele>352.60000610352</ele>
        <time>2017-03-15T13:50:53.000Z</time>
      </trkpt>
      <trkpt lat="44.40921" lon="4.54922">
        <ele>352.20001220703</ele>
        <time>2017-03-15T13:50:54.000Z</time>
      </trkpt>
      <trkpt lat="44.40932" lon="4.54934">
        <ele>351.20001220703</ele>
        <time>2017-03-15T13:50:57.000Z</time>
      </trkpt>
      <trkpt lat="44.40935" lon="4.54938">
        <ele>351</ele>
        <time>2017-03-15T13:50:58.000Z</time>
      </trkpt>
      <trkpt lat="44.40939" lon="4.54944">
        <ele>350.79998779297</ele>
        <time>2017-03-15T13:50:59.000Z</time>
      </trkpt>
      <trkpt lat="44.40946" lon="4.54955">
        <ele>350.60000610352</ele>
        <time>2017-03-15T13:51:01.000Z</time>
      </trkpt>
      <trkpt lat="44.40952" lon="4.54968">
        <ele>349.60000610352</ele>
        <time>2017-03-15T13:51:03.000Z</time>
      </trkpt>
      <trkpt lat="44.40956" lon="4.54975">
        <ele>348.79998779297</ele>
        <time>2017-03-15T13:51:04.000Z</time>
      </trkpt>
      <trkpt lat="44.40959" lon="4.54982">
        <ele>347.79998779297</ele>
        <time>2017-03-15T13:51:05.000Z</time>
      </trkpt>
      <trkpt lat="44.40965" lon="4.54997">
        <ele>346.20001220703</ele>
        <time>2017-03-15T13:51:07.000Z</time>
      </trkpt>
      <trkpt lat="44.40971" lon="4.55011">
        <ele>344.39999389648</ele>
        <time>2017-03-15T13:51:09.000Z</time>
      </trkpt>
      <trkpt lat="44.40976" lon="4.55026">
        <ele>342.79998779297</ele>
        <time>2017-03-15T13:51:11.000Z</time>
      </trkpt>
      <trkpt lat="44.40981" lon="4.55042">
        <ele>341.39999389648</ele>
        <time>2017-03-15T13:51:13.000Z</time>
      </trkpt>
      <trkpt lat="44.40988" lon="4.55064">
        <ele>339.79998779297</ele>
        <time>2017-03-15T13:51:16.000Z</time>
      </trkpt>
      <trkpt lat="44.40989" lon="4.55072">
        <ele>338.79998779297</ele>
        <time>2017-03-15T13:51:17.000Z</time>
      </trkpt>
      <trkpt lat="44.4099" lon="4.55081">
        <ele>338.39999389648</ele>
        <time>2017-03-15T13:51:18.000Z</time>
      </trkpt>
      <trkpt lat="44.40992" lon="4.55099">
        <ele>337.20001220703</ele>
        <time>2017-03-15T13:51:20.000Z</time>
      </trkpt>
      <trkpt lat="44.40995" lon="4.55117">
        <ele>336.60000610352</ele>
        <time>2017-03-15T13:51:22.000Z</time>
      </trkpt>
      <trkpt lat="44.40997" lon="4.55126">
        <ele>336</ele>
        <time>2017-03-15T13:51:23.000Z</time>
      </trkpt>
      <trkpt lat="44.41001" lon="4.55141">
        <ele>335.60000610352</ele>
        <time>2017-03-15T13:51:25.000Z</time>
      </trkpt>
      <trkpt lat="44.41006" lon="4.55154">
        <ele>335</ele>
        <time>2017-03-15T13:51:27.000Z</time>
      </trkpt>
      <trkpt lat="44.4101" lon="4.55158">
        <ele>334.60000610352</ele>
        <time>2017-03-15T13:51:28.000Z</time>
      </trkpt>
      <trkpt lat="44.41021" lon="4.55171">
        <ele>334.20001220703</ele>
        <time>2017-03-15T13:51:31.000Z</time>
      </trkpt>
      <trkpt lat="44.41025" lon="4.55174">
        <ele>333.79998779297</ele>
        <time>2017-03-15T13:51:32.000Z</time>
      </trkpt>
      <trkpt lat="44.41028" lon="4.55177">
        <ele>333.39999389648</ele>
        <time>2017-03-15T13:51:33.000Z</time>
      </trkpt>
      <trkpt lat="44.41033" lon="4.55182">
        <ele>334</ele>
        <time>2017-03-15T13:51:36.000Z</time>
      </trkpt>
      <trkpt lat="44.41032" lon="4.55182">
        <ele>333.60000610352</ele>
        <time>2017-03-15T13:51:40.000Z</time>
      </trkpt>
      <trkpt lat="44.41032" lon="4.55182">
        <ele>333.60000610352</ele>
        <time>2017-03-15T13:51:54.000Z</time>
      </trkpt>
      <trkpt lat="44.41037" lon="4.55186">
        <ele>333.39999389648</ele>
        <time>2017-03-15T13:52:01.000Z</time>
      </trkpt>
      <trkpt lat="44.4104" lon="4.55191">
        <ele>332.79998779297</ele>
        <time>2017-03-15T13:52:03.000Z</time>
      </trkpt>
      <trkpt lat="44.41042" lon="4.55198">
        <ele>332.20001220703</ele>
        <time>2017-03-15T13:52:05.000Z</time>
      </trkpt>
      <trkpt lat="44.41043" lon="4.55202">
        <ele>331.39999389648</ele>
        <time>2017-03-15T13:52:06.000Z</time>
      </trkpt>
      <trkpt lat="44.41046" lon="4.55207">
        <ele>331</ele>
        <time>2017-03-15T13:52:07.000Z</time>
      </trkpt>
      <trkpt lat="44.4105" lon="4.55213">
        <ele>329.60000610352</ele>
        <time>2017-03-15T13:52:09.000Z</time>
      </trkpt>
      <trkpt lat="44.41055" lon="4.55218">
        <ele>327.60000610352</ele>
        <time>2017-03-15T13:52:11.000Z</time>
      </trkpt>
      <trkpt lat="44.41062" lon="4.55222">
        <ele>325.79998779297</ele>
        <time>2017-03-15T13:52:13.000Z</time>
      </trkpt>
      <trkpt lat="44.41069" lon="4.55226">
        <ele>324.79998779297</ele>
        <time>2017-03-15T13:52:15.000Z</time>
      </trkpt>
      <trkpt lat="44.41073" lon="4.55229">
        <ele>324</ele>
        <time>2017-03-15T13:52:16.000Z</time>
      </trkpt>
      <trkpt lat="44.41077" lon="4.55232">
        <ele>323</ele>
        <time>2017-03-15T13:52:17.000Z</time>
      </trkpt>
      <trkpt lat="44.41082" lon="4.55234">
        <ele>321.79998779297</ele>
        <time>2017-03-15T13:52:18.000Z</time>
      </trkpt>
      <trkpt lat="44.41086" lon="4.55237">
        <ele>320.39999389648</ele>
        <time>2017-03-15T13:52:19.000Z</time>
      </trkpt>
      <trkpt lat="44.41092" lon="4.55239">
        <ele>319.20001220703</ele>
        <time>2017-03-15T13:52:20.000Z</time>
      </trkpt>
      <trkpt lat="44.41102" lon="4.55244">
        <ele>317.79998779297</ele>
        <time>2017-03-15T13:52:22.000Z</time>
      </trkpt>
      <trkpt lat="44.41106" lon="4.55246">
        <ele>317.20001220703</ele>
        <time>2017-03-15T13:52:23.000Z</time>
      </trkpt>
      <trkpt lat="44.4111" lon="4.55249">
        <ele>316.60000610352</ele>
        <time>2017-03-15T13:52:24.000Z</time>
      </trkpt>
      <trkpt lat="44.41117" lon="4.55253">
        <ele>315</ele>
        <time>2017-03-15T13:52:26.000Z</time>
      </trkpt>
      <trkpt lat="44.41121" lon="4.55255">
        <ele>312.60000610352</ele>
        <time>2017-03-15T13:52:27.000Z</time>
      </trkpt>
      <trkpt lat="44.41127" lon="4.55258">
        <ele>311.39999389648</ele>
        <time>2017-03-15T13:52:29.000Z</time>
      </trkpt>
      <trkpt lat="44.41132" lon="4.55261">
        <ele>310.20001220703</ele>
        <time>2017-03-15T13:52:31.000Z</time>
      </trkpt>
      <trkpt lat="44.41134" lon="4.55264">
        <ele>309.39999389648</ele>
        <time>2017-03-15T13:52:32.000Z</time>
      </trkpt>
      <trkpt lat="44.41135" lon="4.55267">
        <ele>308.79998779297</ele>
        <time>2017-03-15T13:52:33.000Z</time>
      </trkpt>
      <trkpt lat="44.41135" lon="4.55276">
        <ele>307.60000610352</ele>
        <time>2017-03-15T13:52:35.000Z</time>
      </trkpt>
      <trkpt lat="44.41135" lon="4.55287">
        <ele>306.39999389648</ele>
        <time>2017-03-15T13:52:37.000Z</time>
      </trkpt>
      <trkpt lat="44.41135" lon="4.55298">
        <ele>305.20001220703</ele>
        <time>2017-03-15T13:52:39.000Z</time>
      </trkpt>
      <trkpt lat="44.41135" lon="4.55307">
        <ele>304.20001220703</ele>
        <time>2017-03-15T13:52:41.000Z</time>
      </trkpt>
      <trkpt lat="44.41136" lon="4.5531">
        <ele>303.79998779297</ele>
        <time>2017-03-15T13:52:42.000Z</time>
      </trkpt>
      <trkpt lat="44.41139" lon="4.55311">
        <ele>303.60000610352</ele>
        <time>2017-03-15T13:52:43.000Z</time>
      </trkpt>
      <trkpt lat="44.41142" lon="4.55311">
        <ele>303.20001220703</ele>
        <time>2017-03-15T13:52:44.000Z</time>
      </trkpt>
      <trkpt lat="44.41153" lon="4.55311">
        <ele>301.79998779297</ele>
        <time>2017-03-15T13:52:47.000Z</time>
      </trkpt>
      <trkpt lat="44.41157" lon="4.55316">
        <ele>300.60000610352</ele>
        <time>2017-03-15T13:52:50.000Z</time>
      </trkpt>
      <trkpt lat="44.41159" lon="4.55332">
        <ele>299.39999389648</ele>
        <time>2017-03-15T13:52:55.000Z</time>
      </trkpt>
      <trkpt lat="44.41159" lon="4.55335">
        <ele>299.39999389648</ele>
        <time>2017-03-15T13:52:56.000Z</time>
      </trkpt>
      <trkpt lat="44.41161" lon="4.55359">
        <ele>299</ele>
        <time>2017-03-15T13:53:03.000Z</time>
      </trkpt>
      <trkpt lat="44.41164" lon="4.55381">
        <ele>298.79998779297</ele>
        <time>2017-03-15T13:53:09.000Z</time>
      </trkpt>
      <trkpt lat="44.41166" lon="4.55397">
        <ele>298.79998779297</ele>
        <time>2017-03-15T13:53:13.000Z</time>
      </trkpt>
      <trkpt lat="44.41165" lon="4.55398">
        <ele>298.79998779297</ele>
        <time>2017-03-15T13:53:14.000Z</time>
      </trkpt>
      <trkpt lat="44.4116" lon="4.55402">
        <ele>298.39999389648</ele>
        <time>2017-03-15T13:53:17.000Z</time>
      </trkpt>
      <trkpt lat="44.41152" lon="4.55404">
        <ele>298.60000610352</ele>
        <time>2017-03-15T13:53:21.000Z</time>
      </trkpt>
      <trkpt lat="44.41146" lon="4.55405">
        <ele>298.79998779297</ele>
        <time>2017-03-15T13:53:24.000Z</time>
      </trkpt>
      <trkpt lat="44.41133" lon="4.55408">
        <ele>299.20001220703</ele>
        <time>2017-03-15T13:53:32.000Z</time>
      </trkpt>
      <trkpt lat="44.41121" lon="4.55412">
        <ele>299.60000610352</ele>
        <time>2017-03-15T13:53:39.000Z</time>
      </trkpt>
      <trkpt lat="44.41108" lon="4.55414">
        <ele>300</ele>
        <time>2017-03-15T13:53:46.000Z</time>
      </trkpt>
      <trkpt lat="44.41098" lon="4.55415">
        <ele>300</ele>
        <time>2017-03-15T13:53:52.000Z</time>
      </trkpt>
      <trkpt lat="44.41096" lon="4.55423">
        <ele>300.20001220703</ele>
        <time>2017-03-15T13:53:57.000Z</time>
      </trkpt>
      <trkpt lat="44.41099" lon="4.55426">
        <ele>300.20001220703</ele>
        <time>2017-03-15T13:54:02.000Z</time>
      </trkpt>
      <trkpt lat="44.41099" lon="4.55425">
        <ele>300</ele>
        <time>2017-03-15T13:54:09.000Z</time>
      </trkpt>
      <trkpt lat="44.41098" lon="4.5542">
        <ele>300</ele>
        <time>2017-03-15T13:54:11.000Z</time>
      </trkpt>
      <trkpt lat="44.41106" lon="4.55416">
        <ele>299.60000610352</ele>
        <time>2017-03-15T13:54:15.000Z</time>
      </trkpt>
      <trkpt lat="44.4112" lon="4.55415">
        <ele>299.60000610352</ele>
        <time>2017-03-15T13:54:20.000Z</time>
      </trkpt>
      <trkpt lat="44.41124" lon="4.55415">
        <ele>299.39999389648</ele>
        <time>2017-03-15T13:54:21.000Z</time>
      </trkpt>
      <trkpt lat="44.41146" lon="4.55407">
        <ele>298.39999389648</ele>
        <time>2017-03-15T13:54:27.000Z</time>
      </trkpt>
      <trkpt lat="44.41164" lon="4.554">
        <ele>298.20001220703</ele>
        <time>2017-03-15T13:54:33.000Z</time>
      </trkpt>
      <trkpt lat="44.41165" lon="4.55399">
        <ele>298.20001220703</ele>
        <time>2017-03-15T13:54:37.000Z</time>
      </trkpt>
      <trkpt lat="44.41164" lon="4.55399">
        <ele>297.39999389648</ele>
        <time>2017-03-15T13:54:43.000Z</time>
      </trkpt>
      <trkpt lat="44.41164" lon="4.55399">
        <ele>297.39999389648</ele>
        <time>2017-03-15T13:54:47.000Z</time>
      </trkpt>
      <trkpt lat="44.41164" lon="4.554">
        <ele>297.60000610352</ele>
        <time>2017-03-15T13:54:50.000Z</time>
      </trkpt>
      <trkpt lat="44.41163" lon="4.55401">
        <ele>298.39999389648</ele>
        <time>2017-03-15T13:54:52.000Z</time>
      </trkpt>
      <trkpt lat="44.41162" lon="4.55401">
        <ele>299</ele>
        <time>2017-03-15T13:54:55.000Z</time>
      </trkpt>
      <trkpt lat="44.4116" lon="4.55401">
        <ele>299</ele>
        <time>2017-03-15T13:55:00.000Z</time>
      </trkpt>
      <trkpt lat="44.41158" lon="4.55401">
        <ele>299.20001220703</ele>
        <time>2017-03-15T13:55:04.000Z</time>
      </trkpt>
      <trkpt lat="44.41157" lon="4.55401">
        <ele>299</ele>
        <time>2017-03-15T13:55:05.000Z</time>
      </trkpt>
      <trkpt lat="44.41156" lon="4.554">
        <ele>298.60000610352</ele>
        <time>2017-03-15T13:55:12.000Z</time>
      </trkpt>
      <trkpt lat="44.41156" lon="4.554">
        <ele>299.20001220703</ele>
        <time>2017-03-15T13:55:26.000Z</time>
      </trkpt>
      <trkpt lat="44.41156" lon="4.554">
        <ele>298.79998779297</ele>
        <time>2017-03-15T13:55:39.000Z</time>
      </trkpt>
      <trkpt lat="44.41156" lon="4.554">
        <ele>298.79998779297</ele>
        <time>2017-03-15T13:55:54.000Z</time>
      </trkpt>
      <trkpt lat="44.41156" lon="4.554">
        <ele>299</ele>
        <time>2017-03-15T13:56:09.000Z</time>
      </trkpt>
      <trkpt lat="44.41156" lon="4.554">
        <ele>298.79998779297</ele>
        <time>2017-03-15T13:56:20.000Z</time>
      </trkpt>
      <trkpt lat="44.41157" lon="4.554">
        <ele>298.79998779297</ele>
        <time>2017-03-15T13:56:33.000Z</time>
      </trkpt>
      <trkpt lat="44.41157" lon="4.554">
        <ele>298.79998779297</ele>
        <time>2017-03-15T13:56:51.000Z</time>
      </trkpt>
      <trkpt lat="44.41156" lon="4.554">
        <ele>298.79998779297</ele>
        <time>2017-03-15T13:57:07.000Z</time>
      </trkpt>
      <trkpt lat="44.41156" lon="4.554">
        <ele>299</ele>
        <time>2017-03-15T13:57:19.000Z</time>
      </trkpt>
      <trkpt lat="44.41156" lon="4.554">
        <ele>299</ele>
        <time>2017-03-15T13:57:37.000Z</time>
      </trkpt>
      <trkpt lat="44.41156" lon="4.554">
        <ele>299</ele>
        <time>2017-03-15T13:57:54.000Z</time>
      </trkpt>
      <trkpt lat="44.41156" lon="4.554">
        <ele>299.39999389648</ele>
        <time>2017-03-15T13:58:04.000Z</time>
      </trkpt>
      <trkpt lat="44.41156" lon="4.554">
        <ele>299.39999389648</ele>
        <time>2017-03-15T13:58:11.000Z</time>
      </trkpt>
      <trkpt lat="44.41156" lon="4.554">
        <ele>299.20001220703</ele>
        <time>2017-03-15T13:58:24.000Z</time>
      </trkpt>
      <trkpt lat="44.41156" lon="4.554">
        <ele>299.39999389648</ele>
        <time>2017-03-15T13:58:40.000Z</time>
      </trkpt>
      <trkpt lat="44.41156" lon="4.554">
        <ele>299.79998779297</ele>
        <time>2017-03-15T13:58:56.000Z</time>
      </trkpt>
      <trkpt lat="44.41156" lon="4.554">
        <ele>299.60000610352</ele>
        <time>2017-03-15T13:59:13.000Z</time>
      </trkpt>
      <trkpt lat="44.41156" lon="4.554">
        <ele>299.60000610352</ele>
        <time>2017-03-15T13:59:29.000Z</time>
      </trkpt>
      <trkpt lat="44.41156" lon="4.554">
        <ele>299</ele>
        <time>2017-03-15T13:59:46.000Z</time>
      </trkpt>
      <trkpt lat="44.41156" lon="4.554">
        <ele>299.39999389648</ele>
        <time>2017-03-15T14:00:01.000Z</time>
      </trkpt>
      <trkpt lat="44.41156" lon="4.554">
        <ele>299.60000610352</ele>
        <time>2017-03-15T14:00:17.000Z</time>
      </trkpt>
      <trkpt lat="44.41156" lon="4.554">
        <ele>299.79998779297</ele>
        <time>2017-03-15T14:00:31.000Z</time>
      </trkpt>
      <trkpt lat="44.41156" lon="4.554">
        <ele>300</ele>
        <time>2017-03-15T14:00:47.000Z</time>
      </trkpt>
      <trkpt lat="44.41156" lon="4.554">
        <ele>299.79998779297</ele>
        <time>2017-03-15T14:01:01.000Z</time>
      </trkpt>
      <trkpt lat="44.41156" lon="4.55401">
        <ele>300</ele>
        <time>2017-03-15T14:01:15.000Z</time>
      </trkpt>
      <trkpt lat="44.41156" lon="4.55401">
        <ele>299.79998779297</ele>
        <time>2017-03-15T14:01:29.000Z</time>
      </trkpt>
      <trkpt lat="44.41156" lon="4.55401">
        <ele>300.39999389648</ele>
        <time>2017-03-15T14:01:42.000Z</time>
      </trkpt>
      <trkpt lat="44.41156" lon="4.554">
        <ele>300.20001220703</ele>
        <time>2017-03-15T14:01:57.000Z</time>
      </trkpt>
      <trkpt lat="44.41156" lon="4.554">
        <ele>300.20001220703</ele>
        <time>2017-03-15T14:02:11.000Z</time>
      </trkpt>
      <trkpt lat="44.41156" lon="4.55401">
        <ele>299.79998779297</ele>
        <time>2017-03-15T14:02:31.000Z</time>
      </trkpt>
      <trkpt lat="44.41156" lon="4.55401">
        <ele>299.39999389648</ele>
        <time>2017-03-15T14:02:36.000Z</time>
      </trkpt>
      <trkpt lat="44.41156" lon="4.55401">
        <ele>299.39999389648</ele>
        <time>2017-03-15T14:02:45.000Z</time>
      </trkpt>
      <trkpt lat="44.41156" lon="4.55401">
        <ele>299.79998779297</ele>
        <time>2017-03-15T14:02:59.000Z</time>
      </trkpt>
      <trkpt lat="44.41156" lon="4.55401">
        <ele>299.20001220703</ele>
        <time>2017-03-15T14:03:11.000Z</time>
      </trkpt>
      <trkpt lat="44.41156" lon="4.55401">
        <ele>299.79998779297</ele>
        <time>2017-03-15T14:03:24.000Z</time>
      </trkpt>
      <trkpt lat="44.41156" lon="4.55401">
        <ele>299.60000610352</ele>
        <time>2017-03-15T14:03:44.000Z</time>
      </trkpt>
      <trkpt lat="44.41156" lon="4.55401">
        <ele>299.79998779297</ele>
        <time>2017-03-15T14:04:00.000Z</time>
      </trkpt>
      <trkpt lat="44.41156" lon="4.55401">
        <ele>299.79998779297</ele>
        <time>2017-03-15T14:04:12.000Z</time>
      </trkpt>
      <trkpt lat="44.41155" lon="4.55401">
        <ele>299.79998779297</ele>
        <time>2017-03-15T14:04:27.000Z</time>
      </trkpt>
      <trkpt lat="44.41155" lon="4.55401">
        <ele>299.79998779297</ele>
        <time>2017-03-15T14:04:42.000Z</time>
      </trkpt>
      <trkpt lat="44.41155" lon="4.55401">
        <ele>299.79998779297</ele>
        <time>2017-03-15T14:05:03.000Z</time>
      </trkpt>
      <trkpt lat="44.41156" lon="4.55401">
        <ele>300.39999389648</ele>
        <time>2017-03-15T14:05:16.000Z</time>
      </trkpt>
      <trkpt lat="44.41156" lon="4.55401">
        <ele>300</ele>
        <time>2017-03-15T14:05:29.000Z</time>
      </trkpt>
      <trkpt lat="44.41156" lon="4.55401">
        <ele>300</ele>
        <time>2017-03-15T14:05:41.000Z</time>
      </trkpt>
      <trkpt lat="44.41155" lon="4.55401">
        <ele>299.60000610352</ele>
        <time>2017-03-15T14:05:55.000Z</time>
      </trkpt>
      <trkpt lat="44.41155" lon="4.55401">
        <ele>300</ele>
        <time>2017-03-15T14:06:11.000Z</time>
      </trkpt>
      <trkpt lat="44.41155" lon="4.55401">
        <ele>299.79998779297</ele>
        <time>2017-03-15T14:06:24.000Z</time>
      </trkpt>
      <trkpt lat="44.41156" lon="4.55401">
        <ele>299.79998779297</ele>
        <time>2017-03-15T14:06:35.000Z</time>
      </trkpt>
      <trkpt lat="44.41156" lon="4.55401">
        <ele>299.60000610352</ele>
        <time>2017-03-15T14:06:52.000Z</time>
      </trkpt>
      <trkpt lat="44.41156" lon="4.55401">
        <ele>300</ele>
        <time>2017-03-15T14:07:05.000Z</time>
      </trkpt>
      <trkpt lat="44.41156" lon="4.55401">
        <ele>299.60000610352</ele>
        <time>2017-03-15T14:07:19.000Z</time>
      </trkpt>
      <trkpt lat="44.41156" lon="4.55401">
        <ele>299.60000610352</ele>
        <time>2017-03-15T14:07:36.000Z</time>
      </trkpt>
      <trkpt lat="44.41156" lon="4.55401">
        <ele>299.60000610352</ele>
        <time>2017-03-15T14:07:53.000Z</time>
      </trkpt>
      <trkpt lat="44.41156" lon="4.55401">
        <ele>299.79998779297</ele>
        <time>2017-03-15T14:08:09.000Z</time>
      </trkpt>
      <trkpt lat="44.41156" lon="4.55401">
        <ele>299.60000610352</ele>
        <time>2017-03-15T14:08:22.000Z</time>
      </trkpt>
      <trkpt lat="44.41156" lon="4.55401">
        <ele>299.60000610352</ele>
        <time>2017-03-15T14:08:39.000Z</time>
      </trkpt>
      <trkpt lat="44.41156" lon="4.55401">
        <ele>299.39999389648</ele>
        <time>2017-03-15T14:08:51.000Z</time>
      </trkpt>
      <trkpt lat="44.41156" lon="4.554">
        <ele>299.79998779297</ele>
        <time>2017-03-15T14:09:09.000Z</time>
      </trkpt>
      <trkpt lat="44.41156" lon="4.554">
        <ele>299.79998779297</ele>
        <time>2017-03-15T14:09:21.000Z</time>
      </trkpt>
      <trkpt lat="44.41155" lon="4.55401">
        <ele>299.39999389648</ele>
        <time>2017-03-15T14:09:33.000Z</time>
      </trkpt>
      <trkpt lat="44.41155" lon="4.55402">
        <ele>299.20001220703</ele>
        <time>2017-03-15T14:09:35.000Z</time>
      </trkpt>
      <trkpt lat="44.41151" lon="4.55404">
        <ele>299.20001220703</ele>
        <time>2017-03-15T14:09:38.000Z</time>
      </trkpt>
      <trkpt lat="44.41149" lon="4.55404">
        <ele>299.39999389648</ele>
        <time>2017-03-15T14:09:39.000Z</time>
      </trkpt>
      <trkpt lat="44.41137" lon="4.55407">
        <ele>300</ele>
        <time>2017-03-15T14:09:45.000Z</time>
      </trkpt>
      <trkpt lat="44.41122" lon="4.55411">
        <ele>300.39999389648</ele>
        <time>2017-03-15T14:09:52.000Z</time>
      </trkpt>
      <trkpt lat="44.41117" lon="4.55412">
        <ele>300.60000610352</ele>
        <time>2017-03-15T14:09:54.000Z</time>
      </trkpt>
      <trkpt lat="44.41106" lon="4.55413">
        <ele>300.79998779297</ele>
        <time>2017-03-15T14:09:59.000Z</time>
      </trkpt>
      <trkpt lat="44.41098" lon="4.55415">
        <ele>301</ele>
        <time>2017-03-15T14:10:02.000Z</time>
      </trkpt>
      <trkpt lat="44.41098" lon="4.5542">
        <ele>301.39999389648</ele>
        <time>2017-03-15T14:10:04.000Z</time>
      </trkpt>
      <trkpt lat="44.41098" lon="4.55423">
        <ele>301.60000610352</ele>
        <time>2017-03-15T14:10:05.000Z</time>
      </trkpt>
      <trkpt lat="44.41102" lon="4.5543">
        <ele>301.60000610352</ele>
        <time>2017-03-15T14:10:08.000Z</time>
      </trkpt>
      <trkpt lat="44.41111" lon="4.55438">
        <ele>302.60000610352</ele>
        <time>2017-03-15T14:10:13.000Z</time>
      </trkpt>
      <trkpt lat="44.41113" lon="4.5544">
        <ele>302.79998779297</ele>
        <time>2017-03-15T14:10:14.000Z</time>
      </trkpt>
      <trkpt lat="44.41114" lon="4.55442">
        <ele>303</ele>
        <time>2017-03-15T14:10:15.000Z</time>
      </trkpt>
      <trkpt lat="44.4112" lon="4.55448">
        <ele>304</ele>
        <time>2017-03-15T14:10:19.000Z</time>
      </trkpt>
      <trkpt lat="44.41123" lon="4.55453">
        <ele>304.39999389648</ele>
        <time>2017-03-15T14:10:21.000Z</time>
      </trkpt>
      <trkpt lat="44.41136" lon="4.55471">
        <ele>304.79998779297</ele>
        <time>2017-03-15T14:10:28.000Z</time>
      </trkpt>
      <trkpt lat="44.41151" lon="4.55488">
        <ele>305</ele>
        <time>2017-03-15T14:10:35.000Z</time>
      </trkpt>
      <trkpt lat="44.41153" lon="4.5549">
        <ele>305</ele>
        <time>2017-03-15T14:10:36.000Z</time>
      </trkpt>
      <trkpt lat="44.41161" lon="4.55505">
        <ele>305.60000610352</ele>
        <time>2017-03-15T14:10:42.000Z</time>
      </trkpt>
      <trkpt lat="44.41169" lon="4.55528">
        <ele>305.20001220703</ele>
        <time>2017-03-15T14:10:49.000Z</time>
      </trkpt>
      <trkpt lat="44.41174" lon="4.55538">
        <ele>304</ele>
        <time>2017-03-15T14:10:53.000Z</time>
      </trkpt>
      <trkpt lat="44.41175" lon="4.55539">
        <ele>303.79998779297</ele>
        <time>2017-03-15T14:10:54.000Z</time>
      </trkpt>
      <trkpt lat="44.41176" lon="4.5554">
        <ele>303.60000610352</ele>
        <time>2017-03-15T14:10:55.000Z</time>
      </trkpt>
      <trkpt lat="44.4118" lon="4.55541">
        <ele>302.60000610352</ele>
        <time>2017-03-15T14:10:58.000Z</time>
      </trkpt>
      <trkpt lat="44.41185" lon="4.55542">
        <ele>302</ele>
        <time>2017-03-15T14:11:01.000Z</time>
      </trkpt>
      <trkpt lat="44.41191" lon="4.55546">
        <ele>301.60000610352</ele>
        <time>2017-03-15T14:11:05.000Z</time>
      </trkpt>
      <trkpt lat="44.41192" lon="4.55548">
        <ele>301.39999389648</ele>
        <time>2017-03-15T14:11:06.000Z</time>
      </trkpt>
      <trkpt lat="44.41192" lon="4.55552">
        <ele>301.20001220703</ele>
        <time>2017-03-15T14:11:07.000Z</time>
      </trkpt>
      <trkpt lat="44.41194" lon="4.55563">
        <ele>300.39999389648</ele>
        <time>2017-03-15T14:11:10.000Z</time>
      </trkpt>
      <trkpt lat="44.41197" lon="4.55578">
        <ele>300</ele>
        <time>2017-03-15T14:11:14.000Z</time>
      </trkpt>
      <trkpt lat="44.41204" lon="4.55591">
        <ele>299.20001220703</ele>
        <time>2017-03-15T14:11:19.000Z</time>
      </trkpt>
      <trkpt lat="44.41206" lon="4.55593">
        <ele>299</ele>
        <time>2017-03-15T14:11:20.000Z</time>
      </trkpt>
      <trkpt lat="44.41208" lon="4.55596">
        <ele>299.20001220703</ele>
        <time>2017-03-15T14:11:22.000Z</time>
      </trkpt>
      <trkpt lat="44.4121" lon="4.55597">
        <ele>299.20001220703</ele>
        <time>2017-03-15T14:11:24.000Z</time>
      </trkpt>
      <trkpt lat="44.4121" lon="4.55599">
        <ele>299</ele>
        <time>2017-03-15T14:11:27.000Z</time>
      </trkpt>
      <trkpt lat="44.41209" lon="4.55601">
        <ele>299</ele>
        <time>2017-03-15T14:11:29.000Z</time>
      </trkpt>
      <trkpt lat="44.41208" lon="4.55608">
        <ele>298.79998779297</ele>
        <time>2017-03-15T14:11:34.000Z</time>
      </trkpt>
      <trkpt lat="44.41208" lon="4.55609">
        <ele>298.79998779297</ele>
        <time>2017-03-15T14:11:40.000Z</time>
      </trkpt>
      <trkpt lat="44.41209" lon="4.55613">
        <ele>298.79998779297</ele>
        <time>2017-03-15T14:11:50.000Z</time>
      </trkpt>
      <trkpt lat="44.4121" lon="4.55631">
        <ele>299</ele>
        <time>2017-03-15T14:11:56.000Z</time>
      </trkpt>
      <trkpt lat="44.41215" lon="4.5565">
        <ele>298.60000610352</ele>
        <time>2017-03-15T14:12:02.000Z</time>
      </trkpt>
      <trkpt lat="44.4122" lon="4.55667">
        <ele>298.20001220703</ele>
        <time>2017-03-15T14:12:07.000Z</time>
      </trkpt>
      <trkpt lat="44.41222" lon="4.55675">
        <ele>298.20001220703</ele>
        <time>2017-03-15T14:12:09.000Z</time>
      </trkpt>
      <trkpt lat="44.41228" lon="4.55695">
        <ele>297.79998779297</ele>
        <time>2017-03-15T14:12:15.000Z</time>
      </trkpt>
      <trkpt lat="44.41236" lon="4.55709">
        <ele>298</ele>
        <time>2017-03-15T14:12:21.000Z</time>
      </trkpt>
      <trkpt lat="44.41244" lon="4.55725">
        <ele>298.20001220703</ele>
        <time>2017-03-15T14:12:28.000Z</time>
      </trkpt>
      <trkpt lat="44.41248" lon="4.55735">
        <ele>298</ele>
        <time>2017-03-15T14:12:33.000Z</time>
      </trkpt>
      <trkpt lat="44.4125" lon="4.55745">
        <ele>298.39999389648</ele>
        <time>2017-03-15T14:12:37.000Z</time>
      </trkpt>
      <trkpt lat="44.41251" lon="4.55747">
        <ele>298.39999389648</ele>
        <time>2017-03-15T14:12:38.000Z</time>
      </trkpt>
      <trkpt lat="44.41257" lon="4.55754">
        <ele>297.39999389648</ele>
        <time>2017-03-15T14:12:42.000Z</time>
      </trkpt>
      <trkpt lat="44.41257" lon="4.55757">
        <ele>297.20001220703</ele>
        <time>2017-03-15T14:12:43.000Z</time>
      </trkpt>
      <trkpt lat="44.41256" lon="4.55765">
        <ele>297.60000610352</ele>
        <time>2017-03-15T14:12:46.000Z</time>
      </trkpt>
      <trkpt lat="44.41258" lon="4.55776">
        <ele>297.60000610352</ele>
        <time>2017-03-15T14:12:49.000Z</time>
      </trkpt>
      <trkpt lat="44.41259" lon="4.55786">
        <ele>297.39999389648</ele>
        <time>2017-03-15T14:12:52.000Z</time>
      </trkpt>
      <trkpt lat="44.4126" lon="4.55797">
        <ele>297.20001220703</ele>
        <time>2017-03-15T14:12:57.000Z</time>
      </trkpt>
      <trkpt lat="44.4126" lon="4.55797">
        <ele>297</ele>
        <time>2017-03-15T14:13:04.000Z</time>
      </trkpt>
      <trkpt lat="44.4126" lon="4.55798">
        <ele>297</ele>
        <time>2017-03-15T14:13:13.000Z</time>
      </trkpt>
      <trkpt lat="44.4126" lon="4.55798">
        <ele>297</ele>
        <time>2017-03-15T14:13:24.000Z</time>
      </trkpt>
      <trkpt lat="44.4126" lon="4.55798">
        <ele>297</ele>
        <time>2017-03-15T14:13:32.000Z</time>
      </trkpt>
      <trkpt lat="44.4126" lon="4.55798">
        <ele>297.20001220703</ele>
        <time>2017-03-15T14:13:46.000Z</time>
      </trkpt>
      <trkpt lat="44.41261" lon="4.55798">
        <ele>297.39999389648</ele>
        <time>2017-03-15T14:14:02.000Z</time>
      </trkpt>
      <trkpt lat="44.41261" lon="4.55798">
        <ele>297.39999389648</ele>
        <time>2017-03-15T14:14:14.000Z</time>
      </trkpt>
      <trkpt lat="44.41259" lon="4.55806">
        <ele>297.60000610352</ele>
        <time>2017-03-15T14:14:20.000Z</time>
      </trkpt>
      <trkpt lat="44.41259" lon="4.55808">
        <ele>297.79998779297</ele>
        <time>2017-03-15T14:14:21.000Z</time>
      </trkpt>
      <trkpt lat="44.41258" lon="4.55814">
        <ele>298.39999389648</ele>
        <time>2017-03-15T14:14:26.000Z</time>
      </trkpt>
      <trkpt lat="44.41257" lon="4.55819">
        <ele>299.39999389648</ele>
        <time>2017-03-15T14:14:31.000Z</time>
      </trkpt>
      <trkpt lat="44.41256" lon="4.55821">
        <ele>299.79998779297</ele>
        <time>2017-03-15T14:14:33.000Z</time>
      </trkpt>
      <trkpt lat="44.41255" lon="4.55822">
        <ele>300.20001220703</ele>
        <time>2017-03-15T14:14:39.000Z</time>
      </trkpt>
      <trkpt lat="44.41255" lon="4.55823">
        <ele>300.60000610352</ele>
        <time>2017-03-15T14:14:41.000Z</time>
      </trkpt>
      <trkpt lat="44.41255" lon="4.5583">
        <ele>301.39999389648</ele>
        <time>2017-03-15T14:14:47.000Z</time>
      </trkpt>
      <trkpt lat="44.41255" lon="4.55831">
        <ele>301.60000610352</ele>
        <time>2017-03-15T14:14:48.000Z</time>
      </trkpt>
      <trkpt lat="44.41256" lon="4.55835">
        <ele>302.79998779297</ele>
        <time>2017-03-15T14:14:53.000Z</time>
      </trkpt>
      <trkpt lat="44.41256" lon="4.55837">
        <ele>303</ele>
        <time>2017-03-15T14:14:55.000Z</time>
      </trkpt>
      <trkpt lat="44.41257" lon="4.55841">
        <ele>304</ele>
        <time>2017-03-15T14:14:59.000Z</time>
      </trkpt>
      <trkpt lat="44.41257" lon="4.55841">
        <ele>304.20001220703</ele>
        <time>2017-03-15T14:15:01.000Z</time>
      </trkpt>
      <trkpt lat="44.41259" lon="4.55844">
        <ele>304.39999389648</ele>
        <time>2017-03-15T14:15:08.000Z</time>
      </trkpt>
      <trkpt lat="44.41261" lon="4.55844">
        <ele>305</ele>
        <time>2017-03-15T14:15:12.000Z</time>
      </trkpt>
      <trkpt lat="44.41261" lon="4.55844">
        <ele>305</ele>
        <time>2017-03-15T14:15:14.000Z</time>
      </trkpt>
      <trkpt lat="44.41261" lon="4.55844">
        <ele>305.20001220703</ele>
        <time>2017-03-15T14:15:24.000Z</time>
      </trkpt>
      <trkpt lat="44.41261" lon="4.55844">
        <ele>305.20001220703</ele>
        <time>2017-03-15T14:15:32.000Z</time>
      </trkpt>
      <trkpt lat="44.41261" lon="4.55846">
        <ele>305.39999389648</ele>
        <time>2017-03-15T14:15:39.000Z</time>
      </trkpt>
      <trkpt lat="44.41261" lon="4.55846">
        <ele>305.39999389648</ele>
        <time>2017-03-15T14:15:46.000Z</time>
      </trkpt>
      <trkpt lat="44.41262" lon="4.55847">
        <ele>305.39999389648</ele>
        <time>2017-03-15T14:15:51.000Z</time>
      </trkpt>
      <trkpt lat="44.41262" lon="4.55848">
        <ele>305.39999389648</ele>
        <time>2017-03-15T14:16:04.000Z</time>
      </trkpt>
      <trkpt lat="44.41262" lon="4.55848">
        <ele>305.60000610352</ele>
        <time>2017-03-15T14:16:13.000Z</time>
      </trkpt>
      <trkpt lat="44.41262" lon="4.55848">
        <ele>305.60000610352</ele>
        <time>2017-03-15T14:16:24.000Z</time>
      </trkpt>
      <trkpt lat="44.41262" lon="4.55848">
        <ele>306</ele>
        <time>2017-03-15T14:16:29.000Z</time>
      </trkpt>
      <trkpt lat="44.41262" lon="4.55848">
        <ele>306</ele>
        <time>2017-03-15T14:16:31.000Z</time>
      </trkpt>
      <trkpt lat="44.41262" lon="4.55848">
        <ele>305.79998779297</ele>
        <time>2017-03-15T14:16:36.000Z</time>
      </trkpt>
      <trkpt lat="44.41262" lon="4.55849">
        <ele>305.79998779297</ele>
        <time>2017-03-15T14:16:43.000Z</time>
      </trkpt>
      <trkpt lat="44.41263" lon="4.5585">
        <ele>305.79998779297</ele>
        <time>2017-03-15T14:16:50.000Z</time>
      </trkpt>
      <trkpt lat="44.41264" lon="4.55852">
        <ele>305.60000610352</ele>
        <time>2017-03-15T14:16:55.000Z</time>
      </trkpt>
      <trkpt lat="44.41265" lon="4.55853">
        <ele>305.39999389648</ele>
        <time>2017-03-15T14:16:57.000Z</time>
      </trkpt>
      <trkpt lat="44.41266" lon="4.55855">
        <ele>304.79998779297</ele>
        <time>2017-03-15T14:16:59.000Z</time>
      </trkpt>
      <trkpt lat="44.41269" lon="4.55858">
        <ele>304.60000610352</ele>
        <time>2017-03-15T14:17:04.000Z</time>
      </trkpt>
      <trkpt lat="44.4127" lon="4.5586">
        <ele>304</ele>
        <time>2017-03-15T14:17:10.000Z</time>
      </trkpt>
      <trkpt lat="44.41271" lon="4.55862">
        <ele>304.39999389648</ele>
        <time>2017-03-15T14:17:18.000Z</time>
      </trkpt>
      <trkpt lat="44.41271" lon="4.55862">
        <ele>304.39999389648</ele>
        <time>2017-03-15T14:17:28.000Z</time>
      </trkpt>
      <trkpt lat="44.41271" lon="4.55862">
        <ele>304.39999389648</ele>
        <time>2017-03-15T14:17:40.000Z</time>
      </trkpt>
      <trkpt lat="44.41272" lon="4.55864">
        <ele>304.39999389648</ele>
        <time>2017-03-15T14:17:48.000Z</time>
      </trkpt>
      <trkpt lat="44.41272" lon="4.55866">
        <ele>304.39999389648</ele>
        <time>2017-03-15T14:17:55.000Z</time>
      </trkpt>
      <trkpt lat="44.41272" lon="4.55867">
        <ele>304.20001220703</ele>
        <time>2017-03-15T14:18:04.000Z</time>
      </trkpt>
      <trkpt lat="44.41272" lon="4.55867">
        <ele>304</ele>
        <time>2017-03-15T14:18:17.000Z</time>
      </trkpt>
      <trkpt lat="44.41272" lon="4.55867">
        <ele>303.79998779297</ele>
        <time>2017-03-15T14:18:24.000Z</time>
      </trkpt>
      <trkpt lat="44.41272" lon="4.55867">
        <ele>304</ele>
        <time>2017-03-15T14:18:28.000Z</time>
      </trkpt>
      <trkpt lat="44.41272" lon="4.55867">
        <ele>304.39999389648</ele>
        <time>2017-03-15T14:18:43.000Z</time>
      </trkpt>
      <trkpt lat="44.41272" lon="4.55867">
        <ele>304.20001220703</ele>
        <time>2017-03-15T14:19:02.000Z</time>
      </trkpt>
      <trkpt lat="44.41272" lon="4.55867">
        <ele>304.20001220703</ele>
        <time>2017-03-15T14:19:18.000Z</time>
      </trkpt>
      <trkpt lat="44.41272" lon="4.55867">
        <ele>304.20001220703</ele>
        <time>2017-03-15T14:19:33.000Z</time>
      </trkpt>
      <trkpt lat="44.41274" lon="4.55868">
        <ele>303.60000610352</ele>
        <time>2017-03-15T14:19:45.000Z</time>
      </trkpt>
      <trkpt lat="44.41274" lon="4.55869">
        <ele>303.60000610352</ele>
        <time>2017-03-15T14:19:51.000Z</time>
      </trkpt>
      <trkpt lat="44.41281" lon="4.55883">
        <ele>303</ele>
        <time>2017-03-15T14:19:56.000Z</time>
      </trkpt>
      <trkpt lat="44.41282" lon="4.55884">
        <ele>302.60000610352</ele>
        <time>2017-03-15T14:19:57.000Z</time>
      </trkpt>
      <trkpt lat="44.41283" lon="4.55888">
        <ele>302.39999389648</ele>
        <time>2017-03-15T14:19:59.000Z</time>
      </trkpt>
      <trkpt lat="44.41285" lon="4.55889">
        <ele>302.39999389648</ele>
        <time>2017-03-15T14:20:01.000Z</time>
      </trkpt>
      <trkpt lat="44.41288" lon="4.55896">
        <ele>301.39999389648</ele>
        <time>2017-03-15T14:20:05.000Z</time>
      </trkpt>
      <trkpt lat="44.41289" lon="4.55899">
        <ele>301.20001220703</ele>
        <time>2017-03-15T14:20:06.000Z</time>
      </trkpt>
      <trkpt lat="44.4129" lon="4.55911">
        <ele>300.20001220703</ele>
        <time>2017-03-15T14:20:11.000Z</time>
      </trkpt>
      <trkpt lat="44.4129" lon="4.55914">
        <ele>299.79998779297</ele>
        <time>2017-03-15T14:20:12.000Z</time>
      </trkpt>
      <trkpt lat="44.4129" lon="4.55921">
        <ele>299</ele>
        <time>2017-03-15T14:20:14.000Z</time>
      </trkpt>
      <trkpt lat="44.41291" lon="4.55926">
        <ele>298.60000610352</ele>
        <time>2017-03-15T14:20:16.000Z</time>
      </trkpt>
      <trkpt lat="44.41295" lon="4.55943">
        <ele>298.20001220703</ele>
        <time>2017-03-15T14:20:21.000Z</time>
      </trkpt>
      <trkpt lat="44.41295" lon="4.55947">
        <ele>297.79998779297</ele>
        <time>2017-03-15T14:20:22.000Z</time>
      </trkpt>
      <trkpt lat="44.41297" lon="4.55956">
        <ele>297.60000610352</ele>
        <time>2017-03-15T14:20:25.000Z</time>
      </trkpt>
      <trkpt lat="44.41299" lon="4.55957">
        <ele>297.60000610352</ele>
        <time>2017-03-15T14:20:26.000Z</time>
      </trkpt>
      <trkpt lat="44.41304" lon="4.55959">
        <ele>298.20001220703</ele>
        <time>2017-03-15T14:20:29.000Z</time>
      </trkpt>
      <trkpt lat="44.41311" lon="4.55959">
        <ele>299</ele>
        <time>2017-03-15T14:20:33.000Z</time>
      </trkpt>
      <trkpt lat="44.41315" lon="4.55958">
        <ele>299.39999389648</ele>
        <time>2017-03-15T14:20:36.000Z</time>
      </trkpt>
      <trkpt lat="44.41317" lon="4.55961">
        <ele>300</ele>
        <time>2017-03-15T14:20:38.000Z</time>
      </trkpt>
      <trkpt lat="44.41322" lon="4.55963">
        <ele>301.39999389648</ele>
        <time>2017-03-15T14:20:41.000Z</time>
      </trkpt>
      <trkpt lat="44.41326" lon="4.55967">
        <ele>302.60000610352</ele>
        <time>2017-03-15T14:20:44.000Z</time>
      </trkpt>
      <trkpt lat="44.41326" lon="4.55968">
        <ele>302.79998779297</ele>
        <time>2017-03-15T14:20:45.000Z</time>
      </trkpt>
      <trkpt lat="44.41327" lon="4.55969">
        <ele>303.39999389648</ele>
        <time>2017-03-15T14:20:47.000Z</time>
      </trkpt>
      <trkpt lat="44.41327" lon="4.55969">
        <ele>303.60000610352</ele>
        <time>2017-03-15T14:20:49.000Z</time>
      </trkpt>
      <trkpt lat="44.41328" lon="4.5597">
        <ele>303.60000610352</ele>
        <time>2017-03-15T14:20:52.000Z</time>
      </trkpt>
      <trkpt lat="44.4133" lon="4.5597">
        <ele>303.79998779297</ele>
        <time>2017-03-15T14:20:54.000Z</time>
      </trkpt>
      <trkpt lat="44.41335" lon="4.55973">
        <ele>304.60000610352</ele>
        <time>2017-03-15T14:21:00.000Z</time>
      </trkpt>
      <trkpt lat="44.41335" lon="4.55973">
        <ele>304.79998779297</ele>
        <time>2017-03-15T14:21:01.000Z</time>
      </trkpt>
      <trkpt lat="44.41339" lon="4.55974">
        <ele>305.60000610352</ele>
        <time>2017-03-15T14:21:09.000Z</time>
      </trkpt>
      <trkpt lat="44.41339" lon="4.55974">
        <ele>305.79998779297</ele>
        <time>2017-03-15T14:21:12.000Z</time>
      </trkpt>
      <trkpt lat="44.41343" lon="4.55975">
        <ele>306.20001220703</ele>
        <time>2017-03-15T14:21:18.000Z</time>
      </trkpt>
      <trkpt lat="44.41346" lon="4.55979">
        <ele>306.60000610352</ele>
        <time>2017-03-15T14:21:20.000Z</time>
      </trkpt>
      <trkpt lat="44.41349" lon="4.55982">
        <ele>307.20001220703</ele>
        <time>2017-03-15T14:21:22.000Z</time>
      </trkpt>
      <trkpt lat="44.41351" lon="4.55985">
        <ele>308</ele>
        <time>2017-03-15T14:21:24.000Z</time>
      </trkpt>
      <trkpt lat="44.41353" lon="4.55987">
        <ele>308.39999389648</ele>
        <time>2017-03-15T14:21:26.000Z</time>
      </trkpt>
      <trkpt lat="44.41359" lon="4.55996">
        <ele>309.60000610352</ele>
        <time>2017-03-15T14:21:31.000Z</time>
      </trkpt>
      <trkpt lat="44.41363" lon="4.56002">
        <ele>310.79998779297</ele>
        <time>2017-03-15T14:21:36.000Z</time>
      </trkpt>
      <trkpt lat="44.41364" lon="4.56004">
        <ele>311</ele>
        <time>2017-03-15T14:21:37.000Z</time>
      </trkpt>
      <trkpt lat="44.41368" lon="4.5601">
        <ele>312.20001220703</ele>
        <time>2017-03-15T14:21:41.000Z</time>
      </trkpt>
      <trkpt lat="44.41371" lon="4.56013">
        <ele>313</ele>
        <time>2017-03-15T14:21:44.000Z</time>
      </trkpt>
      <trkpt lat="44.41372" lon="4.56015">
        <ele>313.20001220703</ele>
        <time>2017-03-15T14:21:45.000Z</time>
      </trkpt>
      <trkpt lat="44.41373" lon="4.56022">
        <ele>314.39999389648</ele>
        <time>2017-03-15T14:21:50.000Z</time>
      </trkpt>
      <trkpt lat="44.41374" lon="4.56024">
        <ele>314.39999389648</ele>
        <time>2017-03-15T14:21:51.000Z</time>
      </trkpt>
      <trkpt lat="44.41378" lon="4.56035">
        <ele>315.39999389648</ele>
        <time>2017-03-15T14:21:57.000Z</time>
      </trkpt>
      <trkpt lat="44.41379" lon="4.56038">
        <ele>316</ele>
        <time>2017-03-15T14:21:59.000Z</time>
      </trkpt>
      <trkpt lat="44.41379" lon="4.5604">
        <ele>316.39999389648</ele>
        <time>2017-03-15T14:22:00.000Z</time>
      </trkpt>
      <trkpt lat="44.41384" lon="4.56052">
        <ele>317.20001220703</ele>
        <time>2017-03-15T14:22:07.000Z</time>
      </trkpt>
      <trkpt lat="44.41384" lon="4.56054">
        <ele>317.39999389648</ele>
        <time>2017-03-15T14:22:08.000Z</time>
      </trkpt>
      <trkpt lat="44.41389" lon="4.56069">
        <ele>318.20001220703</ele>
        <time>2017-03-15T14:22:16.000Z</time>
      </trkpt>
      <trkpt lat="44.4139" lon="4.56076">
        <ele>318.60000610352</ele>
        <time>2017-03-15T14:22:20.000Z</time>
      </trkpt>
      <trkpt lat="44.41392" lon="4.56082">
        <ele>319</ele>
        <time>2017-03-15T14:22:23.000Z</time>
      </trkpt>
      <trkpt lat="44.41393" lon="4.56089">
        <ele>319.60000610352</ele>
        <time>2017-03-15T14:22:27.000Z</time>
      </trkpt>
      <trkpt lat="44.41394" lon="4.56094">
        <ele>319.79998779297</ele>
        <time>2017-03-15T14:22:30.000Z</time>
      </trkpt>
      <trkpt lat="44.41399" lon="4.56109">
        <ele>320.60000610352</ele>
        <time>2017-03-15T14:22:38.000Z</time>
      </trkpt>
      <trkpt lat="44.41398" lon="4.56117">
        <ele>321.39999389648</ele>
        <time>2017-03-15T14:22:42.000Z</time>
      </trkpt>
      <trkpt lat="44.41399" lon="4.56119">
        <ele>321.79998779297</ele>
        <time>2017-03-15T14:22:43.000Z</time>
      </trkpt>
      <trkpt lat="44.41401" lon="4.56125">
        <ele>322.39999389648</ele>
        <time>2017-03-15T14:22:46.000Z</time>
      </trkpt>
      <trkpt lat="44.41403" lon="4.56132">
        <ele>322.39999389648</ele>
        <time>2017-03-15T14:22:50.000Z</time>
      </trkpt>
      <trkpt lat="44.41406" lon="4.56141">
        <ele>322.79998779297</ele>
        <time>2017-03-15T14:22:55.000Z</time>
      </trkpt>
      <trkpt lat="44.41408" lon="4.56143">
        <ele>323</ele>
        <time>2017-03-15T14:22:57.000Z</time>
      </trkpt>
      <trkpt lat="44.41411" lon="4.56148">
        <ele>323</ele>
        <time>2017-03-15T14:23:00.000Z</time>
      </trkpt>
      <trkpt lat="44.41412" lon="4.56153">
        <ele>323.39999389648</ele>
        <time>2017-03-15T14:23:03.000Z</time>
      </trkpt>
      <trkpt lat="44.41412" lon="4.5616">
        <ele>323.79998779297</ele>
        <time>2017-03-15T14:23:07.000Z</time>
      </trkpt>
      <trkpt lat="44.41412" lon="4.56166">
        <ele>324.20001220703</ele>
        <time>2017-03-15T14:23:10.000Z</time>
      </trkpt>
      <trkpt lat="44.41413" lon="4.56171">
        <ele>324.79998779297</ele>
        <time>2017-03-15T14:23:13.000Z</time>
      </trkpt>
      <trkpt lat="44.41417" lon="4.56174">
        <ele>325.20001220703</ele>
        <time>2017-03-15T14:23:16.000Z</time>
      </trkpt>
      <trkpt lat="44.41421" lon="4.56183">
        <ele>326</ele>
        <time>2017-03-15T14:23:21.000Z</time>
      </trkpt>
      <trkpt lat="44.41423" lon="4.56184">
        <ele>326.39999389648</ele>
        <time>2017-03-15T14:23:22.000Z</time>
      </trkpt>
      <trkpt lat="44.41425" lon="4.56186">
        <ele>327.20001220703</ele>
        <time>2017-03-15T14:23:24.000Z</time>
      </trkpt>
      <trkpt lat="44.4143" lon="4.56189">
        <ele>327.60000610352</ele>
        <time>2017-03-15T14:23:28.000Z</time>
      </trkpt>
      <trkpt lat="44.41436" lon="4.56192">
        <ele>328.20001220703</ele>
        <time>2017-03-15T14:23:32.000Z</time>
      </trkpt>
      <trkpt lat="44.41437" lon="4.56192">
        <ele>328.39999389648</ele>
        <time>2017-03-15T14:23:34.000Z</time>
      </trkpt>
      <trkpt lat="44.41438" lon="4.56192">
        <ele>328.20001220703</ele>
        <time>2017-03-15T14:23:43.000Z</time>
      </trkpt>
      <trkpt lat="44.41438" lon="4.56192">
        <ele>328.20001220703</ele>
        <time>2017-03-15T14:23:59.000Z</time>
      </trkpt>
      <trkpt lat="44.41438" lon="4.56192">
        <ele>328.60000610352</ele>
        <time>2017-03-15T14:24:13.000Z</time>
      </trkpt>
      <trkpt lat="44.41438" lon="4.56192">
        <ele>328.60000610352</ele>
        <time>2017-03-15T14:24:22.000Z</time>
      </trkpt>
      <trkpt lat="44.41438" lon="4.56192">
        <ele>328.79998779297</ele>
        <time>2017-03-15T14:24:32.000Z</time>
      </trkpt>
      <trkpt lat="44.41439" lon="4.56194">
        <ele>328.79998779297</ele>
        <time>2017-03-15T14:24:38.000Z</time>
      </trkpt>
      <trkpt lat="44.4144" lon="4.56197">
        <ele>329.20001220703</ele>
        <time>2017-03-15T14:24:40.000Z</time>
      </trkpt>
      <trkpt lat="44.41442" lon="4.56206">
        <ele>330.39999389648</ele>
        <time>2017-03-15T14:24:44.000Z</time>
      </trkpt>
      <trkpt lat="44.41442" lon="4.56208">
        <ele>331.20001220703</ele>
        <time>2017-03-15T14:24:46.000Z</time>
      </trkpt>
      <trkpt lat="44.41442" lon="4.56209">
        <ele>331.39999389648</ele>
        <time>2017-03-15T14:24:49.000Z</time>
      </trkpt>
      <trkpt lat="44.41442" lon="4.56211">
        <ele>331.60000610352</ele>
        <time>2017-03-15T14:24:51.000Z</time>
      </trkpt>
      <trkpt lat="44.4144" lon="4.56214">
        <ele>332.60000610352</ele>
        <time>2017-03-15T14:24:56.000Z</time>
      </trkpt>
      <trkpt lat="44.4144" lon="4.56216">
        <ele>332.79998779297</ele>
        <time>2017-03-15T14:24:59.000Z</time>
      </trkpt>
      <trkpt lat="44.4144" lon="4.56216">
        <ele>333.20001220703</ele>
        <time>2017-03-15T14:25:08.000Z</time>
      </trkpt>
      <trkpt lat="44.41441" lon="4.56219">
        <ele>333.60000610352</ele>
        <time>2017-03-15T14:25:12.000Z</time>
      </trkpt>
      <trkpt lat="44.41441" lon="4.5622">
        <ele>333.79998779297</ele>
        <time>2017-03-15T14:25:13.000Z</time>
      </trkpt>
      <trkpt lat="44.41441" lon="4.56225">
        <ele>334.39999389648</ele>
        <time>2017-03-15T14:25:19.000Z</time>
      </trkpt>
      <trkpt lat="44.41441" lon="4.56226">
        <ele>334.60000610352</ele>
        <time>2017-03-15T14:25:21.000Z</time>
      </trkpt>
      <trkpt lat="44.41442" lon="4.56227">
        <ele>334.60000610352</ele>
        <time>2017-03-15T14:25:24.000Z</time>
      </trkpt>
      <trkpt lat="44.41442" lon="4.56232">
        <ele>335.79998779297</ele>
        <time>2017-03-15T14:25:31.000Z</time>
      </trkpt>
      <trkpt lat="44.41442" lon="4.56233">
        <ele>336</ele>
        <time>2017-03-15T14:25:32.000Z</time>
      </trkpt>
      <trkpt lat="44.41441" lon="4.56235">
        <ele>336.60000610352</ele>
        <time>2017-03-15T14:25:38.000Z</time>
      </trkpt>
      <trkpt lat="44.41442" lon="4.56235">
        <ele>336.79998779297</ele>
        <time>2017-03-15T14:25:39.000Z</time>
      </trkpt>
      <trkpt lat="44.41441" lon="4.56235">
        <ele>336.79998779297</ele>
        <time>2017-03-15T14:25:45.000Z</time>
      </trkpt>
      <trkpt lat="44.41441" lon="4.56241">
        <ele>337.39999389648</ele>
        <time>2017-03-15T14:25:51.000Z</time>
      </trkpt>
      <trkpt lat="44.41442" lon="4.56243">
        <ele>338</ele>
        <time>2017-03-15T14:25:53.000Z</time>
      </trkpt>
      <trkpt lat="44.41442" lon="4.56244">
        <ele>338.60000610352</ele>
        <time>2017-03-15T14:25:56.000Z</time>
      </trkpt>
      <trkpt lat="44.4144" lon="4.56251">
        <ele>339</ele>
        <time>2017-03-15T14:26:02.000Z</time>
      </trkpt>
      <trkpt lat="44.4144" lon="4.56258">
        <ele>340</ele>
        <time>2017-03-15T14:26:09.000Z</time>
      </trkpt>
      <trkpt lat="44.4144" lon="4.56258">
        <ele>340.20001220703</ele>
        <time>2017-03-15T14:26:11.000Z</time>
      </trkpt>
      <trkpt lat="44.41439" lon="4.56262">
        <ele>341</ele>
        <time>2017-03-15T14:26:16.000Z</time>
      </trkpt>
      <trkpt lat="44.41439" lon="4.56263">
        <ele>341.20001220703</ele>
        <time>2017-03-15T14:26:17.000Z</time>
      </trkpt>
      <trkpt lat="44.41438" lon="4.56263">
        <ele>341.39999389648</ele>
        <time>2017-03-15T14:26:18.000Z</time>
      </trkpt>
      <trkpt lat="44.41436" lon="4.56267">
        <ele>342.39999389648</ele>
        <time>2017-03-15T14:26:24.000Z</time>
      </trkpt>
      <trkpt lat="44.41436" lon="4.56268">
        <ele>342.79998779297</ele>
        <time>2017-03-15T14:26:26.000Z</time>
      </trkpt>
      <trkpt lat="44.41435" lon="4.5627">
        <ele>343.60000610352</ele>
        <time>2017-03-15T14:26:31.000Z</time>
      </trkpt>
      <trkpt lat="44.41435" lon="4.5627">
        <ele>343.60000610352</ele>
        <time>2017-03-15T14:26:32.000Z</time>
      </trkpt>
      <trkpt lat="44.41434" lon="4.56275">
        <ele>344.60000610352</ele>
        <time>2017-03-15T14:26:37.000Z</time>
      </trkpt>
      <trkpt lat="44.41434" lon="4.56278">
        <ele>345.20001220703</ele>
        <time>2017-03-15T14:26:41.000Z</time>
      </trkpt>
      <trkpt lat="44.41433" lon="4.56281">
        <ele>345.79998779297</ele>
        <time>2017-03-15T14:26:45.000Z</time>
      </trkpt>
      <trkpt lat="44.41434" lon="4.56284">
        <ele>346</ele>
        <time>2017-03-15T14:26:48.000Z</time>
      </trkpt>
      <trkpt lat="44.41433" lon="4.56288">
        <ele>346.79998779297</ele>
        <time>2017-03-15T14:26:52.000Z</time>
      </trkpt>
      <trkpt lat="44.41432" lon="4.56291">
        <ele>347.20001220703</ele>
        <time>2017-03-15T14:26:55.000Z</time>
      </trkpt>
      <trkpt lat="44.41432" lon="4.56298">
        <ele>347.60000610352</ele>
        <time>2017-03-15T14:27:03.000Z</time>
      </trkpt>
      <trkpt lat="44.41432" lon="4.56301">
        <ele>347.60000610352</ele>
        <time>2017-03-15T14:27:11.000Z</time>
      </trkpt>
      <trkpt lat="44.41433" lon="4.56302">
        <ele>347.20001220703</ele>
        <time>2017-03-15T14:27:17.000Z</time>
      </trkpt>
      <trkpt lat="44.41433" lon="4.56302">
        <ele>347.79998779297</ele>
        <time>2017-03-15T14:27:34.000Z</time>
      </trkpt>
      <trkpt lat="44.41433" lon="4.56302">
        <ele>348</ele>
        <time>2017-03-15T14:27:41.000Z</time>
      </trkpt>
      <trkpt lat="44.41433" lon="4.56302">
        <ele>345.79998779297</ele>
        <time>2017-03-15T14:27:45.000Z</time>
      </trkpt>
      <trkpt lat="44.41433" lon="4.56302">
        <ele>347.60000610352</ele>
        <time>2017-03-15T14:27:46.000Z</time>
      </trkpt>
      <trkpt lat="44.41433" lon="4.56302">
        <ele>349.39999389648</ele>
        <time>2017-03-15T14:27:48.000Z</time>
      </trkpt>
      <trkpt lat="44.41433" lon="4.56302">
        <ele>346.79998779297</ele>
        <time>2017-03-15T14:27:49.000Z</time>
      </trkpt>
      <trkpt lat="44.41433" lon="4.56302">
        <ele>348.20001220703</ele>
        <time>2017-03-15T14:27:50.000Z</time>
      </trkpt>
      <trkpt lat="44.41433" lon="4.56302">
        <ele>346.79998779297</ele>
        <time>2017-03-15T14:27:53.000Z</time>
      </trkpt>
      <trkpt lat="44.41433" lon="4.56302">
        <ele>348.39999389648</ele>
        <time>2017-03-15T14:27:55.000Z</time>
      </trkpt>
      <trkpt lat="44.41433" lon="4.56302">
        <ele>347.60000610352</ele>
        <time>2017-03-15T14:28:04.000Z</time>
      </trkpt>
      <trkpt lat="44.41433" lon="4.56302">
        <ele>347.39999389648</ele>
        <time>2017-03-15T14:28:15.000Z</time>
      </trkpt>
      <trkpt lat="44.41433" lon="4.56302">
        <ele>347</ele>
        <time>2017-03-15T14:28:22.000Z</time>
      </trkpt>
      <trkpt lat="44.41433" lon="4.56302">
        <ele>344.79998779297</ele>
        <time>2017-03-15T14:28:23.000Z</time>
      </trkpt>
      <trkpt lat="44.41433" lon="4.56302">
        <ele>346.20001220703</ele>
        <time>2017-03-15T14:28:24.000Z</time>
      </trkpt>
      <trkpt lat="44.41433" lon="4.56302">
        <ele>347.79998779297</ele>
        <time>2017-03-15T14:28:25.000Z</time>
      </trkpt>
      <trkpt lat="44.41433" lon="4.56302">
        <ele>351</ele>
        <time>2017-03-15T14:28:26.000Z</time>
      </trkpt>
      <trkpt lat="44.41433" lon="4.56302">
        <ele>349.39999389648</ele>
        <time>2017-03-15T14:28:28.000Z</time>
      </trkpt>
      <trkpt lat="44.41433" lon="4.56302">
        <ele>348</ele>
        <time>2017-03-15T14:28:30.000Z</time>
      </trkpt>
      <trkpt lat="44.41433" lon="4.56302">
        <ele>344.60000610352</ele>
        <time>2017-03-15T14:28:31.000Z</time>
      </trkpt>
      <trkpt lat="44.41433" lon="4.56302">
        <ele>341.20001220703</ele>
        <time>2017-03-15T14:28:32.000Z</time>
      </trkpt>
      <trkpt lat="44.41433" lon="4.56302">
        <ele>345.79998779297</ele>
        <time>2017-03-15T14:28:33.000Z</time>
      </trkpt>
      <trkpt lat="44.41433" lon="4.56302">
        <ele>349</ele>
        <time>2017-03-15T14:28:34.000Z</time>
      </trkpt>
      <trkpt lat="44.41433" lon="4.56302">
        <ele>352.60000610352</ele>
        <time>2017-03-15T14:28:35.000Z</time>
      </trkpt>
      <trkpt lat="44.41433" lon="4.56302">
        <ele>347.20001220703</ele>
        <time>2017-03-15T14:28:36.000Z</time>
      </trkpt>
      <trkpt lat="44.41433" lon="4.56302">
        <ele>350.39999389648</ele>
        <time>2017-03-15T14:28:38.000Z</time>
      </trkpt>
      <trkpt lat="44.41433" lon="4.56302">
        <ele>353</ele>
        <time>2017-03-15T14:28:39.000Z</time>
      </trkpt>
      <trkpt lat="44.41433" lon="4.56302">
        <ele>350.60000610352</ele>
        <time>2017-03-15T14:28:40.000Z</time>
      </trkpt>
      <trkpt lat="44.41433" lon="4.56302">
        <ele>345</ele>
        <time>2017-03-15T14:28:41.000Z</time>
      </trkpt>
      <trkpt lat="44.41433" lon="4.56302">
        <ele>342.79998779297</ele>
        <time>2017-03-15T14:28:42.000Z</time>
      </trkpt>
      <trkpt lat="44.41433" lon="4.56302">
        <ele>348</ele>
        <time>2017-03-15T14:28:43.000Z</time>
      </trkpt>
      <trkpt lat="44.41433" lon="4.56302">
        <ele>350</ele>
        <time>2017-03-15T14:28:44.000Z</time>
      </trkpt>
      <trkpt lat="44.41433" lon="4.56302">
        <ele>353.39999389648</ele>
        <time>2017-03-15T14:28:45.000Z</time>
      </trkpt>
      <trkpt lat="44.41433" lon="4.56302">
        <ele>351</ele>
        <time>2017-03-15T14:28:46.000Z</time>
      </trkpt>
      <trkpt lat="44.41433" lon="4.56302">
        <ele>352.79998779297</ele>
        <time>2017-03-15T14:28:47.000Z</time>
      </trkpt>
      <trkpt lat="44.41433" lon="4.56302">
        <ele>354.79998779297</ele>
        <time>2017-03-15T14:28:48.000Z</time>
      </trkpt>
      <trkpt lat="44.41433" lon="4.56302">
        <ele>351.79998779297</ele>
        <time>2017-03-15T14:28:49.000Z</time>
      </trkpt>
      <trkpt lat="44.41433" lon="4.56302">
        <ele>357</ele>
        <time>2017-03-15T14:28:50.000Z</time>
      </trkpt>
      <trkpt lat="44.41433" lon="4.56302">
        <ele>352.79998779297</ele>
        <time>2017-03-15T14:28:51.000Z</time>
      </trkpt>
      <trkpt lat="44.41433" lon="4.56302">
        <ele>354.20001220703</ele>
        <time>2017-03-15T14:28:52.000Z</time>
      </trkpt>
      <trkpt lat="44.41433" lon="4.56302">
        <ele>348.39999389648</ele>
        <time>2017-03-15T14:28:53.000Z</time>
      </trkpt>
      <trkpt lat="44.41433" lon="4.56302">
        <ele>348.20001220703</ele>
        <time>2017-03-15T14:28:57.000Z</time>
      </trkpt>
      <trkpt lat="44.41433" lon="4.56302">
        <ele>346.20001220703</ele>
        <time>2017-03-15T14:29:07.000Z</time>
      </trkpt>
      <trkpt lat="44.41433" lon="4.56302">
        <ele>347.39999389648</ele>
        <time>2017-03-15T14:29:08.000Z</time>
      </trkpt>
      <trkpt lat="44.41433" lon="4.56302">
        <ele>345.20001220703</ele>
        <time>2017-03-15T14:29:09.000Z</time>
      </trkpt>
      <trkpt lat="44.41433" lon="4.56302">
        <ele>348.20001220703</ele>
        <time>2017-03-15T14:29:10.000Z</time>
      </trkpt>
      <trkpt lat="44.41433" lon="4.56302">
        <ele>347.20001220703</ele>
        <time>2017-03-15T14:29:11.000Z</time>
      </trkpt>
      <trkpt lat="44.41433" lon="4.56302">
        <ele>349.20001220703</ele>
        <time>2017-03-15T14:29:12.000Z</time>
      </trkpt>
      <trkpt lat="44.41433" lon="4.56302">
        <ele>348.20001220703</ele>
        <time>2017-03-15T14:29:13.000Z</time>
      </trkpt>
      <trkpt lat="44.41433" lon="4.56302">
        <ele>348.20001220703</ele>
        <time>2017-03-15T14:29:27.000Z</time>
      </trkpt>
      <trkpt lat="44.41433" lon="4.56302">
        <ele>347.20001220703</ele>
        <time>2017-03-15T14:29:32.000Z</time>
      </trkpt>
      <trkpt lat="44.41433" lon="4.56302">
        <ele>348.20001220703</ele>
        <time>2017-03-15T14:29:35.000Z</time>
      </trkpt>
      <trkpt lat="44.41433" lon="4.56302">
        <ele>348</ele>
        <time>2017-03-15T14:29:42.000Z</time>
      </trkpt>
      <trkpt lat="44.41432" lon="4.56302">
        <ele>348</ele>
        <time>2017-03-15T14:29:58.000Z</time>
      </trkpt>
      <trkpt lat="44.41432" lon="4.56302">
        <ele>349.60000610352</ele>
        <time>2017-03-15T14:30:08.000Z</time>
      </trkpt>
      <trkpt lat="44.41432" lon="4.56302">
        <ele>348.20001220703</ele>
        <time>2017-03-15T14:30:11.000Z</time>
      </trkpt>
      <trkpt lat="44.41432" lon="4.56302">
        <ele>346.79998779297</ele>
        <time>2017-03-15T14:30:16.000Z</time>
      </trkpt>
      <trkpt lat="44.41432" lon="4.56302">
        <ele>348</ele>
        <time>2017-03-15T14:30:18.000Z</time>
      </trkpt>
      <trkpt lat="44.41432" lon="4.56302">
        <ele>348.39999389648</ele>
        <time>2017-03-15T14:30:28.000Z</time>
      </trkpt>
      <trkpt lat="44.41432" lon="4.56303">
        <ele>347.79998779297</ele>
        <time>2017-03-15T14:30:42.000Z</time>
      </trkpt>
      <trkpt lat="44.41432" lon="4.56303">
        <ele>347.79998779297</ele>
        <time>2017-03-15T14:30:46.000Z</time>
      </trkpt>
      <trkpt lat="44.41432" lon="4.56303">
        <ele>347.39999389648</ele>
        <time>2017-03-15T14:30:56.000Z</time>
      </trkpt>
      <trkpt lat="44.41432" lon="4.56303">
        <ele>347.60000610352</ele>
        <time>2017-03-15T14:31:03.000Z</time>
      </trkpt>
      <trkpt lat="44.41432" lon="4.56305">
        <ele>347.60000610352</ele>
        <time>2017-03-15T14:31:04.000Z</time>
      </trkpt>
      <trkpt lat="44.41432" lon="4.56319">
        <ele>347.20001220703</ele>
        <time>2017-03-15T14:31:09.000Z</time>
      </trkpt>
      <trkpt lat="44.41432" lon="4.56329">
        <ele>347.20001220703</ele>
        <time>2017-03-15T14:31:12.000Z</time>
      </trkpt>
      <trkpt lat="44.41431" lon="4.56333">
        <ele>347.20001220703</ele>
        <time>2017-03-15T14:31:13.000Z</time>
      </trkpt>
      <trkpt lat="44.41426" lon="4.56344">
        <ele>347</ele>
        <time>2017-03-15T14:31:16.000Z</time>
      </trkpt>
      <trkpt lat="44.41421" lon="4.56351">
        <ele>346.39999389648</ele>
        <time>2017-03-15T14:31:18.000Z</time>
      </trkpt>
      <trkpt lat="44.41412" lon="4.56371">
        <ele>345.79998779297</ele>
        <time>2017-03-15T14:31:24.000Z</time>
      </trkpt>
      <trkpt lat="44.41409" lon="4.56388">
        <ele>346</ele>
        <time>2017-03-15T14:31:30.000Z</time>
      </trkpt>
      <trkpt lat="44.41408" lon="4.5641">
        <ele>346.79998779297</ele>
        <time>2017-03-15T14:31:38.000Z</time>
      </trkpt>
      <trkpt lat="44.41403" lon="4.56427">
        <ele>347.39999389648</ele>
        <time>2017-03-15T14:31:45.000Z</time>
      </trkpt>
      <trkpt lat="44.41401" lon="4.56437">
        <ele>348</ele>
        <time>2017-03-15T14:31:49.000Z</time>
      </trkpt>
      <trkpt lat="44.41398" lon="4.56446">
        <ele>348.20001220703</ele>
        <time>2017-03-15T14:31:53.000Z</time>
      </trkpt>
      <trkpt lat="44.41392" lon="4.56469">
        <ele>347.79998779297</ele>
        <time>2017-03-15T14:32:01.000Z</time>
      </trkpt>
      <trkpt lat="44.41388" lon="4.56486">
        <ele>347</ele>
        <time>2017-03-15T14:32:06.000Z</time>
      </trkpt>
      <trkpt lat="44.41387" lon="4.56495">
        <ele>346.60000610352</ele>
        <time>2017-03-15T14:32:08.000Z</time>
      </trkpt>
      <trkpt lat="44.41385" lon="4.56511">
        <ele>345.79998779297</ele>
        <time>2017-03-15T14:32:11.000Z</time>
      </trkpt>
      <trkpt lat="44.41384" lon="4.56534">
        <ele>344.60000610352</ele>
        <time>2017-03-15T14:32:15.000Z</time>
      </trkpt>
      <trkpt lat="44.41387" lon="4.56547">
        <ele>344.39999389648</ele>
        <time>2017-03-15T14:32:19.000Z</time>
      </trkpt>
      <trkpt lat="44.41387" lon="4.56547">
        <ele>344.20001220703</ele>
        <time>2017-03-15T14:32:23.000Z</time>
      </trkpt>
      <trkpt lat="44.41387" lon="4.56547">
        <ele>343</ele>
        <time>2017-03-15T14:32:38.000Z</time>
      </trkpt>
      <trkpt lat="44.41387" lon="4.56547">
        <ele>343.60000610352</ele>
        <time>2017-03-15T14:32:39.000Z</time>
      </trkpt>
      <trkpt lat="44.41387" lon="4.56547">
        <ele>338.60000610352</ele>
        <time>2017-03-15T14:32:40.000Z</time>
      </trkpt>
      <trkpt lat="44.41387" lon="4.56547">
        <ele>343.20001220703</ele>
        <time>2017-03-15T14:32:41.000Z</time>
      </trkpt>
      <trkpt lat="44.41388" lon="4.56548">
        <ele>348</ele>
        <time>2017-03-15T14:32:43.000Z</time>
      </trkpt>
      <trkpt lat="44.41389" lon="4.5655">
        <ele>345</ele>
        <time>2017-03-15T14:32:44.000Z</time>
      </trkpt>
      <trkpt lat="44.4139" lon="4.56553">
        <ele>344.60000610352</ele>
        <time>2017-03-15T14:32:45.000Z</time>
      </trkpt>
      <trkpt lat="44.414" lon="4.56561">
        <ele>344.20001220703</ele>
        <time>2017-03-15T14:32:49.000Z</time>
      </trkpt>
      <trkpt lat="44.41422" lon="4.56573">
        <ele>345.39999389648</ele>
        <time>2017-03-15T14:32:57.000Z</time>
      </trkpt>
      <trkpt lat="44.41438" lon="4.56584">
        <ele>345.60000610352</ele>
        <time>2017-03-15T14:33:04.000Z</time>
      </trkpt>
      <trkpt lat="44.41446" lon="4.56593">
        <ele>346.20001220703</ele>
        <time>2017-03-15T14:33:08.000Z</time>
      </trkpt>
      <trkpt lat="44.41453" lon="4.56605">
        <ele>345.79998779297</ele>
        <time>2017-03-15T14:33:12.000Z</time>
      </trkpt>
      <trkpt lat="44.41465" lon="4.56621">
        <ele>345.79998779297</ele>
        <time>2017-03-15T14:33:18.000Z</time>
      </trkpt>
      <trkpt lat="44.41482" lon="4.56638">
        <ele>347</ele>
        <time>2017-03-15T14:33:26.000Z</time>
      </trkpt>
      <trkpt lat="44.41494" lon="4.5665">
        <ele>347.39999389648</ele>
        <time>2017-03-15T14:33:31.000Z</time>
      </trkpt>
      <trkpt lat="44.41498" lon="4.56655">
        <ele>347.60000610352</ele>
        <time>2017-03-15T14:33:33.000Z</time>
      </trkpt>
      <trkpt lat="44.41508" lon="4.56674">
        <ele>348.20001220703</ele>
        <time>2017-03-15T14:33:39.000Z</time>
      </trkpt>
      <trkpt lat="44.41511" lon="4.5668">
        <ele>348.39999389648</ele>
        <time>2017-03-15T14:33:41.000Z</time>
      </trkpt>
      <trkpt lat="44.41519" lon="4.56695">
        <ele>349.20001220703</ele>
        <time>2017-03-15T14:33:46.000Z</time>
      </trkpt>
      <trkpt lat="44.41526" lon="4.56711">
        <ele>349.39999389648</ele>
        <time>2017-03-15T14:33:51.000Z</time>
      </trkpt>
      <trkpt lat="44.41527" lon="4.56722">
        <ele>349.60000610352</ele>
        <time>2017-03-15T14:33:54.000Z</time>
      </trkpt>
      <trkpt lat="44.41523" lon="4.56744">
        <ele>350.39999389648</ele>
        <time>2017-03-15T14:34:00.000Z</time>
      </trkpt>
      <trkpt lat="44.41522" lon="4.56748">
        <ele>350.60000610352</ele>
        <time>2017-03-15T14:34:01.000Z</time>
      </trkpt>
      <trkpt lat="44.41513" lon="4.5677">
        <ele>351.60000610352</ele>
        <time>2017-03-15T14:34:08.000Z</time>
      </trkpt>
      <trkpt lat="44.41512" lon="4.56773">
        <ele>351.79998779297</ele>
        <time>2017-03-15T14:34:09.000Z</time>
      </trkpt>
      <trkpt lat="44.41505" lon="4.56797">
        <ele>352.39999389648</ele>
        <time>2017-03-15T14:34:16.000Z</time>
      </trkpt>
      <trkpt lat="44.41504" lon="4.56804">
        <ele>352.60000610352</ele>
        <time>2017-03-15T14:34:18.000Z</time>
      </trkpt>
      <trkpt lat="44.41505" lon="4.56818">
        <ele>352.79998779297</ele>
        <time>2017-03-15T14:34:22.000Z</time>
      </trkpt>
      <trkpt lat="44.41508" lon="4.56849">
        <ele>352.39999389648</ele>
        <time>2017-03-15T14:34:29.000Z</time>
      </trkpt>
      <trkpt lat="44.41514" lon="4.5688">
        <ele>352.20001220703</ele>
        <time>2017-03-15T14:34:36.000Z</time>
      </trkpt>
      <trkpt lat="44.41525" lon="4.56914">
        <ele>353.20001220703</ele>
        <time>2017-03-15T14:34:45.000Z</time>
      </trkpt>
      <trkpt lat="44.41533" lon="4.56939">
        <ele>353.79998779297</ele>
        <time>2017-03-15T14:34:52.000Z</time>
      </trkpt>
      <trkpt lat="44.41534" lon="4.56943">
        <ele>353.79998779297</ele>
        <time>2017-03-15T14:34:53.000Z</time>
      </trkpt>
      <trkpt lat="44.41538" lon="4.56973">
        <ele>354.79998779297</ele>
        <time>2017-03-15T14:35:01.000Z</time>
      </trkpt>
      <trkpt lat="44.41538" lon="4.57">
        <ele>354.79998779297</ele>
        <time>2017-03-15T14:35:08.000Z</time>
      </trkpt>
      <trkpt lat="44.41536" lon="4.57025">
        <ele>354.79998779297</ele>
        <time>2017-03-15T14:35:14.000Z</time>
      </trkpt>
      <trkpt lat="44.41538" lon="4.57056">
        <ele>355</ele>
        <time>2017-03-15T14:35:21.000Z</time>
      </trkpt>
      <trkpt lat="44.41541" lon="4.5708">
        <ele>355.79998779297</ele>
        <time>2017-03-15T14:35:27.000Z</time>
      </trkpt>
      <trkpt lat="44.41543" lon="4.57091">
        <ele>355.79998779297</ele>
        <time>2017-03-15T14:35:30.000Z</time>
      </trkpt>
      <trkpt lat="44.41546" lon="4.57122">
        <ele>356.60000610352</ele>
        <time>2017-03-15T14:35:38.000Z</time>
      </trkpt>
      <trkpt lat="44.41547" lon="4.57136">
        <ele>357</ele>
        <time>2017-03-15T14:35:42.000Z</time>
      </trkpt>
      <trkpt lat="44.41548" lon="4.57147">
        <ele>357.20001220703</ele>
        <time>2017-03-15T14:35:45.000Z</time>
      </trkpt>
      <trkpt lat="44.41552" lon="4.57174">
        <ele>357.39999389648</ele>
        <time>2017-03-15T14:35:51.000Z</time>
      </trkpt>
      <trkpt lat="44.41552" lon="4.57202">
        <ele>357.60000610352</ele>
        <time>2017-03-15T14:35:57.000Z</time>
      </trkpt>
      <trkpt lat="44.41544" lon="4.57217">
        <ele>358.20001220703</ele>
        <time>2017-03-15T14:36:01.000Z</time>
      </trkpt>
      <trkpt lat="44.41542" lon="4.57219">
        <ele>358.39999389648</ele>
        <time>2017-03-15T14:36:02.000Z</time>
      </trkpt>
      <trkpt lat="44.41532" lon="4.57232">
        <ele>359.20001220703</ele>
        <time>2017-03-15T14:36:07.000Z</time>
      </trkpt>
      <trkpt lat="44.41529" lon="4.57238">
        <ele>359.39999389648</ele>
        <time>2017-03-15T14:36:09.000Z</time>
      </trkpt>
      <trkpt lat="44.41516" lon="4.57268">
        <ele>360.20001220703</ele>
        <time>2017-03-15T14:36:18.000Z</time>
      </trkpt>
      <trkpt lat="44.41511" lon="4.57278">
        <ele>360.39999389648</ele>
        <time>2017-03-15T14:36:21.000Z</time>
      </trkpt>
      <trkpt lat="44.41503" lon="4.57288">
        <ele>361.20001220703</ele>
        <time>2017-03-15T14:36:25.000Z</time>
      </trkpt>
      <trkpt lat="44.41497" lon="4.57302">
        <ele>361.60000610352</ele>
        <time>2017-03-15T14:36:29.000Z</time>
      </trkpt>
      <trkpt lat="44.41494" lon="4.57313">
        <ele>361.79998779297</ele>
        <time>2017-03-15T14:36:32.000Z</time>
      </trkpt>
      <trkpt lat="44.41481" lon="4.57338">
        <ele>362.60000610352</ele>
        <time>2017-03-15T14:36:40.000Z</time>
      </trkpt>
      <trkpt lat="44.41479" lon="4.57341">
        <ele>362.79998779297</ele>
        <time>2017-03-15T14:36:41.000Z</time>
      </trkpt>
      <trkpt lat="44.41469" lon="4.57356">
        <ele>363</ele>
        <time>2017-03-15T14:36:46.000Z</time>
      </trkpt>
      <trkpt lat="44.4146" lon="4.57381">
        <ele>363.20001220703</ele>
        <time>2017-03-15T14:36:53.000Z</time>
      </trkpt>
      <trkpt lat="44.4146" lon="4.57385">
        <ele>363.20001220703</ele>
        <time>2017-03-15T14:36:54.000Z</time>
      </trkpt>
      <trkpt lat="44.41459" lon="4.574">
        <ele>363.20001220703</ele>
        <time>2017-03-15T14:36:58.000Z</time>
      </trkpt>
      <trkpt lat="44.41463" lon="4.57423">
        <ele>363</ele>
        <time>2017-03-15T14:37:04.000Z</time>
      </trkpt>
      <trkpt lat="44.41471" lon="4.57444">
        <ele>363</ele>
        <time>2017-03-15T14:37:10.000Z</time>
      </trkpt>
      <trkpt lat="44.41467" lon="4.57465">
        <ele>363</ele>
        <time>2017-03-15T14:37:15.000Z</time>
      </trkpt>
      <trkpt lat="44.41458" lon="4.57484">
        <ele>362</ele>
        <time>2017-03-15T14:37:20.000Z</time>
      </trkpt>
      <trkpt lat="44.41461" lon="4.57507">
        <ele>361.79998779297</ele>
        <time>2017-03-15T14:37:25.000Z</time>
      </trkpt>
      <trkpt lat="44.41463" lon="4.57511">
        <ele>361.39999389648</ele>
        <time>2017-03-15T14:37:26.000Z</time>
      </trkpt>
      <trkpt lat="44.41472" lon="4.57534">
        <ele>361.20001220703</ele>
        <time>2017-03-15T14:37:31.000Z</time>
      </trkpt>
      <trkpt lat="44.41478" lon="4.57564">
        <ele>361</ele>
        <time>2017-03-15T14:37:37.000Z</time>
      </trkpt>
      <trkpt lat="44.41492" lon="4.57579">
        <ele>360</ele>
        <time>2017-03-15T14:37:42.000Z</time>
      </trkpt>
      <trkpt lat="44.41506" lon="4.576">
        <ele>360.60000610352</ele>
        <time>2017-03-15T14:37:48.000Z</time>
      </trkpt>
      <trkpt lat="44.41507" lon="4.57624">
        <ele>360</ele>
        <time>2017-03-15T14:37:53.000Z</time>
      </trkpt>
      <trkpt lat="44.41504" lon="4.57658">
        <ele>359</ele>
        <time>2017-03-15T14:38:00.000Z</time>
      </trkpt>
      <trkpt lat="44.41504" lon="4.57686">
        <ele>358.60000610352</ele>
        <time>2017-03-15T14:38:05.000Z</time>
      </trkpt>
      <trkpt lat="44.41499" lon="4.57701">
        <ele>358.20001220703</ele>
        <time>2017-03-15T14:38:08.000Z</time>
      </trkpt>
      <trkpt lat="44.41497" lon="4.57706">
        <ele>357.60000610352</ele>
        <time>2017-03-15T14:38:09.000Z</time>
      </trkpt>
      <trkpt lat="44.41485" lon="4.57726">
        <ele>356.79998779297</ele>
        <time>2017-03-15T14:38:14.000Z</time>
      </trkpt>
      <trkpt lat="44.41482" lon="4.57735">
        <ele>356.60000610352</ele>
        <time>2017-03-15T14:38:16.000Z</time>
      </trkpt>
      <trkpt lat="44.41476" lon="4.57756">
        <ele>355.39999389648</ele>
        <time>2017-03-15T14:38:20.000Z</time>
      </trkpt>
      <trkpt lat="44.41475" lon="4.57761">
        <ele>355.20001220703</ele>
        <time>2017-03-15T14:38:21.000Z</time>
      </trkpt>
      <trkpt lat="44.41472" lon="4.57766">
        <ele>355</ele>
        <time>2017-03-15T14:38:22.000Z</time>
      </trkpt>
      <trkpt lat="44.41459" lon="4.57786">
        <ele>354.39999389648</ele>
        <time>2017-03-15T14:38:26.000Z</time>
      </trkpt>
      <trkpt lat="44.41445" lon="4.57797">
        <ele>353.60000610352</ele>
        <time>2017-03-15T14:38:29.000Z</time>
      </trkpt>
      <trkpt lat="44.41441" lon="4.57801">
        <ele>353.39999389648</ele>
        <time>2017-03-15T14:38:30.000Z</time>
      </trkpt>
      <trkpt lat="44.41434" lon="4.57809">
        <ele>352</ele>
        <time>2017-03-15T14:38:32.000Z</time>
      </trkpt>
      <trkpt lat="44.4142" lon="4.57832">
        <ele>351</ele>
        <time>2017-03-15T14:38:36.000Z</time>
      </trkpt>
      <trkpt lat="44.41417" lon="4.57838">
        <ele>350.20001220703</ele>
        <time>2017-03-15T14:38:37.000Z</time>
      </trkpt>
      <trkpt lat="44.41414" lon="4.57845">
        <ele>349.79998779297</ele>
        <time>2017-03-15T14:38:38.000Z</time>
      </trkpt>
      <trkpt lat="44.41406" lon="4.57865">
        <ele>348.39999389648</ele>
        <time>2017-03-15T14:38:41.000Z</time>
      </trkpt>
      <trkpt lat="44.414" lon="4.57879">
        <ele>347.79998779297</ele>
        <time>2017-03-15T14:38:43.000Z</time>
      </trkpt>
      <trkpt lat="44.41397" lon="4.57886">
        <ele>347</ele>
        <time>2017-03-15T14:38:44.000Z</time>
      </trkpt>
      <trkpt lat="44.41394" lon="4.57891">
        <ele>346.60000610352</ele>
        <time>2017-03-15T14:38:45.000Z</time>
      </trkpt>
      <trkpt lat="44.4139" lon="4.57896">
        <ele>346</ele>
        <time>2017-03-15T14:38:46.000Z</time>
      </trkpt>
      <trkpt lat="44.41386" lon="4.57899">
        <ele>345.79998779297</ele>
        <time>2017-03-15T14:38:47.000Z</time>
      </trkpt>
      <trkpt lat="44.41377" lon="4.57905">
        <ele>345</ele>
        <time>2017-03-15T14:38:49.000Z</time>
      </trkpt>
      <trkpt lat="44.41366" lon="4.57909">
        <ele>344.20001220703</ele>
        <time>2017-03-15T14:38:51.000Z</time>
      </trkpt>
      <trkpt lat="44.41361" lon="4.5791">
        <ele>344</ele>
        <time>2017-03-15T14:38:52.000Z</time>
      </trkpt>
      <trkpt lat="44.41356" lon="4.5791">
        <ele>343.79998779297</ele>
        <time>2017-03-15T14:38:53.000Z</time>
      </trkpt>
      <trkpt lat="44.41342" lon="4.57906">
        <ele>343.39999389648</ele>
        <time>2017-03-15T14:38:56.000Z</time>
      </trkpt>
      <trkpt lat="44.41318" lon="4.57903">
        <ele>343.60000610352</ele>
        <time>2017-03-15T14:39:02.000Z</time>
      </trkpt>
      <trkpt lat="44.41288" lon="4.57899">
        <ele>344.20001220703</ele>
        <time>2017-03-15T14:39:10.000Z</time>
      </trkpt>
      <trkpt lat="44.41261" lon="4.57901">
        <ele>344.60000610352</ele>
        <time>2017-03-15T14:39:18.000Z</time>
      </trkpt>
      <trkpt lat="44.41258" lon="4.57901">
        <ele>344.79998779297</ele>
        <time>2017-03-15T14:39:19.000Z</time>
      </trkpt>
      <trkpt lat="44.41238" lon="4.57899">
        <ele>345.20001220703</ele>
        <time>2017-03-15T14:39:25.000Z</time>
      </trkpt>
      <trkpt lat="44.41218" lon="4.57897">
        <ele>346</ele>
        <time>2017-03-15T14:39:31.000Z</time>
      </trkpt>
      <trkpt lat="44.41215" lon="4.57897">
        <ele>346</ele>
        <time>2017-03-15T14:39:32.000Z</time>
      </trkpt>
      <trkpt lat="44.412" lon="4.57893">
        <ele>347.20001220703</ele>
        <time>2017-03-15T14:39:37.000Z</time>
      </trkpt>
      <trkpt lat="44.4119" lon="4.57891">
        <ele>347.39999389648</ele>
        <time>2017-03-15T14:39:40.000Z</time>
      </trkpt>
      <trkpt lat="44.41178" lon="4.57887">
        <ele>348.20001220703</ele>
        <time>2017-03-15T14:39:44.000Z</time>
      </trkpt>
      <trkpt lat="44.41163" lon="4.57885">
        <ele>348.79998779297</ele>
        <time>2017-03-15T14:39:49.000Z</time>
      </trkpt>
      <trkpt lat="44.41142" lon="4.57884">
        <ele>349</ele>
        <time>2017-03-15T14:39:56.000Z</time>
      </trkpt>
      <trkpt lat="44.41133" lon="4.57883">
        <ele>349.39999389648</ele>
        <time>2017-03-15T14:39:59.000Z</time>
      </trkpt>
      <trkpt lat="44.41124" lon="4.57882">
        <ele>349.79998779297</ele>
        <time>2017-03-15T14:40:02.000Z</time>
      </trkpt>
      <trkpt lat="44.41103" lon="4.57878">
        <ele>350.39999389648</ele>
        <time>2017-03-15T14:40:09.000Z</time>
      </trkpt>
      <trkpt lat="44.411" lon="4.57877">
        <ele>350.39999389648</ele>
        <time>2017-03-15T14:40:10.000Z</time>
      </trkpt>
      <trkpt lat="44.41083" lon="4.57872">
        <ele>351.20001220703</ele>
        <time>2017-03-15T14:40:16.000Z</time>
      </trkpt>
      <trkpt lat="44.41066" lon="4.57867">
        <ele>351.60000610352</ele>
        <time>2017-03-15T14:40:21.000Z</time>
      </trkpt>
      <trkpt lat="44.41057" lon="4.57864">
        <ele>352</ele>
        <time>2017-03-15T14:40:24.000Z</time>
      </trkpt>
      <trkpt lat="44.4103" lon="4.57856">
        <ele>352.60000610352</ele>
        <time>2017-03-15T14:40:32.000Z</time>
      </trkpt>
      <trkpt lat="44.41027" lon="4.57856">
        <ele>352.79998779297</ele>
        <time>2017-03-15T14:40:33.000Z</time>
      </trkpt>
      <trkpt lat="44.41002" lon="4.57849">
        <ele>353.60000610352</ele>
        <time>2017-03-15T14:40:41.000Z</time>
      </trkpt>
      <trkpt lat="44.40998" lon="4.57848">
        <ele>353.60000610352</ele>
        <time>2017-03-15T14:40:42.000Z</time>
      </trkpt>
      <trkpt lat="44.40974" lon="4.57841">
        <ele>354.20001220703</ele>
        <time>2017-03-15T14:40:50.000Z</time>
      </trkpt>
      <trkpt lat="44.40946" lon="4.57832">
        <ele>354.39999389648</ele>
        <time>2017-03-15T14:40:59.000Z</time>
      </trkpt>
      <trkpt lat="44.40943" lon="4.57831">
        <ele>354.60000610352</ele>
        <time>2017-03-15T14:41:00.000Z</time>
      </trkpt>
      <trkpt lat="44.4092" lon="4.57823">
        <ele>355.60000610352</ele>
        <time>2017-03-15T14:41:08.000Z</time>
      </trkpt>
      <trkpt lat="44.40895" lon="4.57821">
        <ele>356.39999389648</ele>
        <time>2017-03-15T14:41:16.000Z</time>
      </trkpt>
      <trkpt lat="44.40892" lon="4.57821">
        <ele>356.60000610352</ele>
        <time>2017-03-15T14:41:17.000Z</time>
      </trkpt>
      <trkpt lat="44.40877" lon="4.5782">
        <ele>357.39999389648</ele>
        <time>2017-03-15T14:41:22.000Z</time>
      </trkpt>
      <trkpt lat="44.40868" lon="4.5782">
        <ele>357.60000610352</ele>
        <time>2017-03-15T14:41:25.000Z</time>
      </trkpt>
      <trkpt lat="44.4085" lon="4.57823">
        <ele>358.39999389648</ele>
        <time>2017-03-15T14:41:31.000Z</time>
      </trkpt>
      <trkpt lat="44.40844" lon="4.57823">
        <ele>358.79998779297</ele>
        <time>2017-03-15T14:41:33.000Z</time>
      </trkpt>
      <trkpt lat="44.40821" lon="4.57825">
        <ele>359.79998779297</ele>
        <time>2017-03-15T14:41:41.000Z</time>
      </trkpt>
      <trkpt lat="44.40802" lon="4.57826">
        <ele>360.60000610352</ele>
        <time>2017-03-15T14:41:48.000Z</time>
      </trkpt>
      <trkpt lat="44.40799" lon="4.57826">
        <ele>360.79998779297</ele>
        <time>2017-03-15T14:41:49.000Z</time>
      </trkpt>
      <trkpt lat="44.40788" lon="4.57826">
        <ele>361.39999389648</ele>
        <time>2017-03-15T14:41:53.000Z</time>
      </trkpt>
      <trkpt lat="44.40773" lon="4.57826">
        <ele>361.79998779297</ele>
        <time>2017-03-15T14:41:58.000Z</time>
      </trkpt>
      <trkpt lat="44.4077" lon="4.57827">
        <ele>362</ele>
        <time>2017-03-15T14:41:59.000Z</time>
      </trkpt>
      <trkpt lat="44.40751" lon="4.57828">
        <ele>363</ele>
        <time>2017-03-15T14:42:06.000Z</time>
      </trkpt>
      <trkpt lat="44.40728" lon="4.57829">
        <ele>363.79998779297</ele>
        <time>2017-03-15T14:42:14.000Z</time>
      </trkpt>
      <trkpt lat="44.40723" lon="4.5783">
        <ele>364.20001220703</ele>
        <time>2017-03-15T14:42:16.000Z</time>
      </trkpt>
      <trkpt lat="44.40707" lon="4.57831">
        <ele>364.79998779297</ele>
        <time>2017-03-15T14:42:22.000Z</time>
      </trkpt>
      <trkpt lat="44.40696" lon="4.5783">
        <ele>365.20001220703</ele>
        <time>2017-03-15T14:42:26.000Z</time>
      </trkpt>
      <trkpt lat="44.40685" lon="4.57832">
        <ele>365.79998779297</ele>
        <time>2017-03-15T14:42:30.000Z</time>
      </trkpt>
      <trkpt lat="44.4068" lon="4.57832">
        <ele>366.39999389648</ele>
        <time>2017-03-15T14:42:32.000Z</time>
      </trkpt>
      <trkpt lat="44.40664" lon="4.57832">
        <ele>367</ele>
        <time>2017-03-15T14:42:38.000Z</time>
      </trkpt>
      <trkpt lat="44.40652" lon="4.57833">
        <ele>367.60000610352</ele>
        <time>2017-03-15T14:42:43.000Z</time>
      </trkpt>
      <trkpt lat="44.40646" lon="4.57835">
        <ele>367.79998779297</ele>
        <time>2017-03-15T14:42:45.000Z</time>
      </trkpt>
      <trkpt lat="44.40629" lon="4.57834">
        <ele>368.39999389648</ele>
        <time>2017-03-15T14:42:51.000Z</time>
      </trkpt>
      <trkpt lat="44.4062" lon="4.57834">
        <ele>368.60000610352</ele>
        <time>2017-03-15T14:42:54.000Z</time>
      </trkpt>
      <trkpt lat="44.40609" lon="4.57837">
        <ele>368.79998779297</ele>
        <time>2017-03-15T14:42:58.000Z</time>
      </trkpt>
      <trkpt lat="44.40589" lon="4.5785">
        <ele>369.60000610352</ele>
        <time>2017-03-15T14:43:06.000Z</time>
      </trkpt>
      <trkpt lat="44.40584" lon="4.57853">
        <ele>369.60000610352</ele>
        <time>2017-03-15T14:43:08.000Z</time>
      </trkpt>
      <trkpt lat="44.40572" lon="4.57861">
        <ele>370</ele>
        <time>2017-03-15T14:43:13.000Z</time>
      </trkpt>
      <trkpt lat="44.40565" lon="4.57865">
        <ele>370.60000610352</ele>
        <time>2017-03-15T14:43:16.000Z</time>
      </trkpt>
      <trkpt lat="44.40555" lon="4.57872">
        <ele>371.20001220703</ele>
        <time>2017-03-15T14:43:20.000Z</time>
      </trkpt>
      <trkpt lat="44.40541" lon="4.57883">
        <ele>371.79998779297</ele>
        <time>2017-03-15T14:43:26.000Z</time>
      </trkpt>
      <trkpt lat="44.40539" lon="4.57884">
        <ele>371.79998779297</ele>
        <time>2017-03-15T14:43:27.000Z</time>
      </trkpt>
      <trkpt lat="44.40522" lon="4.57896">
        <ele>372.79998779297</ele>
        <time>2017-03-15T14:43:34.000Z</time>
      </trkpt>
      <trkpt lat="44.4052" lon="4.57898">
        <ele>373</ele>
        <time>2017-03-15T14:43:35.000Z</time>
      </trkpt>
      <trkpt lat="44.40505" lon="4.57908">
        <ele>373.79998779297</ele>
        <time>2017-03-15T14:43:41.000Z</time>
      </trkpt>
      <trkpt lat="44.40503" lon="4.57909">
        <ele>374</ele>
        <time>2017-03-15T14:43:42.000Z</time>
      </trkpt>
      <trkpt lat="44.40486" lon="4.57922">
        <ele>374.60000610352</ele>
        <time>2017-03-15T14:43:49.000Z</time>
      </trkpt>
      <trkpt lat="44.40484" lon="4.57924">
        <ele>374.79998779297</ele>
        <time>2017-03-15T14:43:50.000Z</time>
      </trkpt>
      <trkpt lat="44.40464" lon="4.57936">
        <ele>375.79998779297</ele>
        <time>2017-03-15T14:43:57.000Z</time>
      </trkpt>
      <trkpt lat="44.40456" lon="4.57941">
        <ele>375.79998779297</ele>
        <time>2017-03-15T14:44:00.000Z</time>
      </trkpt>
      <trkpt lat="44.40444" lon="4.5795">
        <ele>376</ele>
        <time>2017-03-15T14:44:04.000Z</time>
      </trkpt>
      <trkpt lat="44.4043" lon="4.5796">
        <ele>377</ele>
        <time>2017-03-15T14:44:10.000Z</time>
      </trkpt>
      <trkpt lat="44.40412" lon="4.57972">
        <ele>377.79998779297</ele>
        <time>2017-03-15T14:44:17.000Z</time>
      </trkpt>
      <trkpt lat="44.40404" lon="4.57977">
        <ele>378</ele>
        <time>2017-03-15T14:44:20.000Z</time>
      </trkpt>
      <trkpt lat="44.40394" lon="4.57983">
        <ele>378.60000610352</ele>
        <time>2017-03-15T14:44:24.000Z</time>
      </trkpt>
      <trkpt lat="44.40377" lon="4.57994">
        <ele>379.20001220703</ele>
        <time>2017-03-15T14:44:31.000Z</time>
      </trkpt>
      <trkpt lat="44.40371" lon="4.58004">
        <ele>380</ele>
        <time>2017-03-15T14:44:37.000Z</time>
      </trkpt>
      <trkpt lat="44.40369" lon="4.58009">
        <ele>380.20001220703</ele>
        <time>2017-03-15T14:44:40.000Z</time>
      </trkpt>
      <trkpt lat="44.40368" lon="4.58014">
        <ele>380.60000610352</ele>
        <time>2017-03-15T14:44:44.000Z</time>
      </trkpt>
      <trkpt lat="44.40364" lon="4.58027">
        <ele>381.39999389648</ele>
        <time>2017-03-15T14:44:50.000Z</time>
      </trkpt>
      <trkpt lat="44.40358" lon="4.58046">
        <ele>382.20001220703</ele>
        <time>2017-03-15T14:44:57.000Z</time>
      </trkpt>
      <trkpt lat="44.40357" lon="4.58052">
        <ele>382.39999389648</ele>
        <time>2017-03-15T14:44:59.000Z</time>
      </trkpt>
      <trkpt lat="44.40352" lon="4.58069">
        <ele>383</ele>
        <time>2017-03-15T14:45:05.000Z</time>
      </trkpt>
      <trkpt lat="44.40348" lon="4.58081">
        <ele>383.39999389648</ele>
        <time>2017-03-15T14:45:10.000Z</time>
      </trkpt>
      <trkpt lat="44.40347" lon="4.58084">
        <ele>383.39999389648</ele>
        <time>2017-03-15T14:45:12.000Z</time>
      </trkpt>
      <trkpt lat="44.40347" lon="4.58086">
        <ele>383.60000610352</ele>
        <time>2017-03-15T14:45:18.000Z</time>
      </trkpt>
      <trkpt lat="44.40347" lon="4.58086">
        <ele>383.79998779297</ele>
        <time>2017-03-15T14:45:29.000Z</time>
      </trkpt>
      <trkpt lat="44.40347" lon="4.58086">
        <ele>383.39999389648</ele>
        <time>2017-03-15T14:45:39.000Z</time>
      </trkpt>
      <trkpt lat="44.40347" lon="4.58086">
        <ele>383.20001220703</ele>
        <time>2017-03-15T14:45:43.000Z</time>
      </trkpt>
      <trkpt lat="44.40347" lon="4.58086">
        <ele>383.60000610352</ele>
        <time>2017-03-15T14:45:58.000Z</time>
      </trkpt>
      <trkpt lat="44.40347" lon="4.58086">
        <ele>383.79998779297</ele>
        <time>2017-03-15T14:46:13.000Z</time>
      </trkpt>
      <trkpt lat="44.40347" lon="4.58086">
        <ele>383.79998779297</ele>
        <time>2017-03-15T14:46:28.000Z</time>
      </trkpt>
      <trkpt lat="44.40347" lon="4.58086">
        <ele>384</ele>
        <time>2017-03-15T14:46:41.000Z</time>
      </trkpt>
      <trkpt lat="44.40347" lon="4.58086">
        <ele>383.79998779297</ele>
        <time>2017-03-15T14:47:01.000Z</time>
      </trkpt>
      <trkpt lat="44.40346" lon="4.58086">
        <ele>383.79998779297</ele>
        <time>2017-03-15T14:47:16.000Z</time>
      </trkpt>
      <trkpt lat="44.40346" lon="4.58086">
        <ele>383.60000610352</ele>
        <time>2017-03-15T14:47:34.000Z</time>
      </trkpt>
      <trkpt lat="44.40346" lon="4.58086">
        <ele>383.79998779297</ele>
        <time>2017-03-15T14:47:44.000Z</time>
      </trkpt>
      <trkpt lat="44.40346" lon="4.58086">
        <ele>384</ele>
        <time>2017-03-15T14:47:57.000Z</time>
      </trkpt>
      <trkpt lat="44.40346" lon="4.58086">
        <ele>383.79998779297</ele>
        <time>2017-03-15T14:48:08.000Z</time>
      </trkpt>
      <trkpt lat="44.40346" lon="4.58086">
        <ele>384</ele>
        <time>2017-03-15T14:48:18.000Z</time>
      </trkpt>
      <trkpt lat="44.40346" lon="4.58086">
        <ele>384</ele>
        <time>2017-03-15T14:48:31.000Z</time>
      </trkpt>
      <trkpt lat="44.40346" lon="4.58086">
        <ele>383.79998779297</ele>
        <time>2017-03-15T14:48:38.000Z</time>
      </trkpt>
      <trkpt lat="44.40346" lon="4.58086">
        <ele>383.79998779297</ele>
        <time>2017-03-15T14:48:46.000Z</time>
      </trkpt>
      <trkpt lat="44.40346" lon="4.58086">
        <ele>384</ele>
        <time>2017-03-15T14:49:00.000Z</time>
      </trkpt>
      <trkpt lat="44.40346" lon="4.58086">
        <ele>383.60000610352</ele>
        <time>2017-03-15T14:49:12.000Z</time>
      </trkpt>
      <trkpt lat="44.40346" lon="4.58086">
        <ele>383.79998779297</ele>
        <time>2017-03-15T14:49:27.000Z</time>
      </trkpt>
      <trkpt lat="44.40346" lon="4.58086">
        <ele>384</ele>
        <time>2017-03-15T14:49:39.000Z</time>
      </trkpt>
      <trkpt lat="44.40346" lon="4.58086">
        <ele>384.39999389648</ele>
        <time>2017-03-15T14:49:46.000Z</time>
      </trkpt>
      <trkpt lat="44.40346" lon="4.58086">
        <ele>384</ele>
        <time>2017-03-15T14:49:52.000Z</time>
      </trkpt>
      <trkpt lat="44.40346" lon="4.58085">
        <ele>384</ele>
        <time>2017-03-15T14:50:06.000Z</time>
      </trkpt>
      <trkpt lat="44.40346" lon="4.58085">
        <ele>384.60000610352</ele>
        <time>2017-03-15T14:50:16.000Z</time>
      </trkpt>
      <trkpt lat="44.40346" lon="4.58085">
        <ele>384.20001220703</ele>
        <time>2017-03-15T14:50:34.000Z</time>
      </trkpt>
      <trkpt lat="44.40345" lon="4.58085">
        <ele>384.39999389648</ele>
        <time>2017-03-15T14:50:48.000Z</time>
      </trkpt>
      <trkpt lat="44.40345" lon="4.58085">
        <ele>384.39999389648</ele>
        <time>2017-03-15T14:51:00.000Z</time>
      </trkpt>
      <trkpt lat="44.40345" lon="4.58085">
        <ele>384.20001220703</ele>
        <time>2017-03-15T14:51:13.000Z</time>
      </trkpt>
      <trkpt lat="44.40345" lon="4.58085">
        <ele>384.20001220703</ele>
        <time>2017-03-15T14:51:28.000Z</time>
      </trkpt>
      <trkpt lat="44.40345" lon="4.58085">
        <ele>384.20001220703</ele>
        <time>2017-03-15T14:51:45.000Z</time>
      </trkpt>
      <trkpt lat="44.40345" lon="4.58085">
        <ele>384.20001220703</ele>
        <time>2017-03-15T14:51:56.000Z</time>
      </trkpt>
      <trkpt lat="44.40345" lon="4.58085">
        <ele>384.20001220703</ele>
        <time>2017-03-15T14:52:18.000Z</time>
      </trkpt>
      <trkpt lat="44.40346" lon="4.58085">
        <ele>384.60000610352</ele>
        <time>2017-03-15T14:52:35.000Z</time>
      </trkpt>
      <trkpt lat="44.40346" lon="4.58085">
        <ele>384.39999389648</ele>
        <time>2017-03-15T14:52:51.000Z</time>
      </trkpt>
      <trkpt lat="44.40346" lon="4.58085">
        <ele>384.60000610352</ele>
        <time>2017-03-15T14:53:07.000Z</time>
      </trkpt>
      <trkpt lat="44.40346" lon="4.58085">
        <ele>384.39999389648</ele>
        <time>2017-03-15T14:53:17.000Z</time>
      </trkpt>
      <trkpt lat="44.40346" lon="4.58085">
        <ele>384.39999389648</ele>
        <time>2017-03-15T14:53:31.000Z</time>
      </trkpt>
      <trkpt lat="44.40346" lon="4.58085">
        <ele>384</ele>
        <time>2017-03-15T14:53:46.000Z</time>
      </trkpt>
      <trkpt lat="44.40345" lon="4.58086">
        <ele>384.39999389648</ele>
        <time>2017-03-15T14:54:01.000Z</time>
      </trkpt>
      <trkpt lat="44.40345" lon="4.58086">
        <ele>384.39999389648</ele>
        <time>2017-03-15T14:54:09.000Z</time>
      </trkpt>
      <trkpt lat="44.40345" lon="4.58087">
        <ele>384.20001220703</ele>
        <time>2017-03-15T14:54:19.000Z</time>
      </trkpt>
      <trkpt lat="44.40344" lon="4.58096">
        <ele>384.20001220703</ele>
        <time>2017-03-15T14:54:23.000Z</time>
      </trkpt>
      <trkpt lat="44.4034" lon="4.58102">
        <ele>384.20001220703</ele>
        <time>2017-03-15T14:54:25.000Z</time>
      </trkpt>
      <trkpt lat="44.40336" lon="4.58113">
        <ele>384</ele>
        <time>2017-03-15T14:54:28.000Z</time>
      </trkpt>
      <trkpt lat="44.40333" lon="4.58123">
        <ele>384</ele>
        <time>2017-03-15T14:54:31.000Z</time>
      </trkpt>
      <trkpt lat="44.40328" lon="4.58139">
        <ele>383.39999389648</ele>
        <time>2017-03-15T14:54:35.000Z</time>
      </trkpt>
      <trkpt lat="44.40323" lon="4.58153">
        <ele>382.60000610352</ele>
        <time>2017-03-15T14:54:38.000Z</time>
      </trkpt>
      <trkpt lat="44.40321" lon="4.58165">
        <ele>382.39999389648</ele>
        <time>2017-03-15T14:54:40.000Z</time>
      </trkpt>
      <trkpt lat="44.40316" lon="4.58182">
        <ele>382</ele>
        <time>2017-03-15T14:54:43.000Z</time>
      </trkpt>
      <trkpt lat="44.40311" lon="4.58195">
        <ele>381.20001220703</ele>
        <time>2017-03-15T14:54:45.000Z</time>
      </trkpt>
      <trkpt lat="44.40299" lon="4.58231">
        <ele>380</ele>
        <time>2017-03-15T14:54:50.000Z</time>
      </trkpt>
      <trkpt lat="44.40297" lon="4.58239">
        <ele>379.79998779297</ele>
        <time>2017-03-15T14:54:51.000Z</time>
      </trkpt>
      <trkpt lat="44.40287" lon="4.5827">
        <ele>379</ele>
        <time>2017-03-15T14:54:55.000Z</time>
      </trkpt>
      <trkpt lat="44.40282" lon="4.58287">
        <ele>378</ele>
        <time>2017-03-15T14:54:57.000Z</time>
      </trkpt>
      <trkpt lat="44.4028" lon="4.58295">
        <ele>377.60000610352</ele>
        <time>2017-03-15T14:54:58.000Z</time>
      </trkpt>
      <trkpt lat="44.40268" lon="4.58337">
        <ele>376.39999389648</ele>
        <time>2017-03-15T14:55:03.000Z</time>
      </trkpt>
      <trkpt lat="44.40262" lon="4.58353">
        <ele>375.39999389648</ele>
        <time>2017-03-15T14:55:05.000Z</time>
      </trkpt>
      <trkpt lat="44.40249" lon="4.58395">
        <ele>375.39999389648</ele>
        <time>2017-03-15T14:55:11.000Z</time>
      </trkpt>
      <trkpt lat="44.4024" lon="4.58433">
        <ele>376.20001220703</ele>
        <time>2017-03-15T14:55:18.000Z</time>
      </trkpt>
      <trkpt lat="44.40238" lon="4.58442">
        <ele>376.60000610352</ele>
        <time>2017-03-15T14:55:20.000Z</time>
      </trkpt>
      <trkpt lat="44.40231" lon="4.58464">
        <ele>377.20001220703</ele>
        <time>2017-03-15T14:55:25.000Z</time>
      </trkpt>
      <trkpt lat="44.40224" lon="4.58488">
        <ele>377.60000610352</ele>
        <time>2017-03-15T14:55:31.000Z</time>
      </trkpt>
      <trkpt lat="44.40223" lon="4.58492">
        <ele>378</ele>
        <time>2017-03-15T14:55:32.000Z</time>
      </trkpt>
      <trkpt lat="44.40214" lon="4.58524">
        <ele>378</ele>
        <time>2017-03-15T14:55:40.000Z</time>
      </trkpt>
      <trkpt lat="44.40204" lon="4.58558">
        <ele>377</ele>
        <time>2017-03-15T14:55:47.000Z</time>
      </trkpt>
      <trkpt lat="44.402" lon="4.58569">
        <ele>376.60000610352</ele>
        <time>2017-03-15T14:55:49.000Z</time>
      </trkpt>
      <trkpt lat="44.4019" lon="4.58595">
        <ele>376.20001220703</ele>
        <time>2017-03-15T14:55:54.000Z</time>
      </trkpt>
      <trkpt lat="44.40187" lon="4.58606">
        <ele>376.39999389648</ele>
        <time>2017-03-15T14:55:56.000Z</time>
      </trkpt>
      <trkpt lat="44.40179" lon="4.58631">
        <ele>376.20001220703</ele>
        <time>2017-03-15T14:56:01.000Z</time>
      </trkpt>
      <trkpt lat="44.40166" lon="4.5867">
        <ele>376.20001220703</ele>
        <time>2017-03-15T14:56:09.000Z</time>
      </trkpt>
      <trkpt lat="44.4016" lon="4.58681">
        <ele>378</ele>
        <time>2017-03-15T14:56:12.000Z</time>
      </trkpt>
      <trkpt lat="44.40157" lon="4.58688">
        <ele>377.79998779297</ele>
        <time>2017-03-15T14:56:14.000Z</time>
      </trkpt>
      <trkpt lat="44.4014" lon="4.58705">
        <ele>378.60000610352</ele>
        <time>2017-03-15T14:56:20.000Z</time>
      </trkpt>
      <trkpt lat="44.40132" lon="4.5871">
        <ele>379.20001220703</ele>
        <time>2017-03-15T14:56:23.000Z</time>
      </trkpt>
      <trkpt lat="44.40123" lon="4.58718">
        <ele>379.60000610352</ele>
        <time>2017-03-15T14:56:27.000Z</time>
      </trkpt>
      <trkpt lat="44.40115" lon="4.58723">
        <ele>380.20001220703</ele>
        <time>2017-03-15T14:56:30.000Z</time>
      </trkpt>
      <trkpt lat="44.40103" lon="4.5873">
        <ele>381</ele>
        <time>2017-03-15T14:56:35.000Z</time>
      </trkpt>
      <trkpt lat="44.40095" lon="4.58734">
        <ele>381.39999389648</ele>
        <time>2017-03-15T14:56:38.000Z</time>
      </trkpt>
      <trkpt lat="44.40085" lon="4.58738">
        <ele>382</ele>
        <time>2017-03-15T14:56:42.000Z</time>
      </trkpt>
      <trkpt lat="44.4008" lon="4.5874">
        <ele>382.39999389648</ele>
        <time>2017-03-15T14:56:44.000Z</time>
      </trkpt>
      <trkpt lat="44.40067" lon="4.58746">
        <ele>383</ele>
        <time>2017-03-15T14:56:49.000Z</time>
      </trkpt>
      <trkpt lat="44.40057" lon="4.58753">
        <ele>383.39999389648</ele>
        <time>2017-03-15T14:56:53.000Z</time>
      </trkpt>
      <trkpt lat="44.40048" lon="4.58757">
        <ele>384.20001220703</ele>
        <time>2017-03-15T14:56:57.000Z</time>
      </trkpt>
      <trkpt lat="44.40043" lon="4.58759">
        <ele>384.39999389648</ele>
        <time>2017-03-15T14:56:59.000Z</time>
      </trkpt>
      <trkpt lat="44.40034" lon="4.58762">
        <ele>385</ele>
        <time>2017-03-15T14:57:03.000Z</time>
      </trkpt>
      <trkpt lat="44.40018" lon="4.58772">
        <ele>385.39999389648</ele>
        <time>2017-03-15T14:57:10.000Z</time>
      </trkpt>
      <trkpt lat="44.39999" lon="4.58782">
        <ele>386.20001220703</ele>
        <time>2017-03-15T14:57:18.000Z</time>
      </trkpt>
      <trkpt lat="44.39992" lon="4.58786">
        <ele>386.60000610352</ele>
        <time>2017-03-15T14:57:21.000Z</time>
      </trkpt>
      <trkpt lat="44.39977" lon="4.58793">
        <ele>387.20001220703</ele>
        <time>2017-03-15T14:57:27.000Z</time>
      </trkpt>
      <trkpt lat="44.39968" lon="4.58798">
        <ele>387.79998779297</ele>
        <time>2017-03-15T14:57:31.000Z</time>
      </trkpt>
      <trkpt lat="44.39966" lon="4.58799">
        <ele>387.79998779297</ele>
        <time>2017-03-15T14:57:32.000Z</time>
      </trkpt>
      <trkpt lat="44.39951" lon="4.58808">
        <ele>388.60000610352</ele>
        <time>2017-03-15T14:57:38.000Z</time>
      </trkpt>
      <trkpt lat="44.39946" lon="4.58811">
        <ele>388.79998779297</ele>
        <time>2017-03-15T14:57:40.000Z</time>
      </trkpt>
      <trkpt lat="44.39931" lon="4.58817">
        <ele>389.39999389648</ele>
        <time>2017-03-15T14:57:46.000Z</time>
      </trkpt>
      <trkpt lat="44.39918" lon="4.58824">
        <ele>389.60000610352</ele>
        <time>2017-03-15T14:57:52.000Z</time>
      </trkpt>
      <trkpt lat="44.39906" lon="4.58831">
        <ele>389.79998779297</ele>
        <time>2017-03-15T14:57:57.000Z</time>
      </trkpt>
      <trkpt lat="44.39901" lon="4.58834">
        <ele>390</ele>
        <time>2017-03-15T14:57:59.000Z</time>
      </trkpt>
      <trkpt lat="44.39888" lon="4.5884">
        <ele>391</ele>
        <time>2017-03-15T14:58:04.000Z</time>
      </trkpt>
      <trkpt lat="44.39884" lon="4.58842">
        <ele>391.60000610352</ele>
        <time>2017-03-15T14:58:06.000Z</time>
      </trkpt>
      <trkpt lat="44.39869" lon="4.58851">
        <ele>392.20001220703</ele>
        <time>2017-03-15T14:58:12.000Z</time>
      </trkpt>
      <trkpt lat="44.39865" lon="4.58853">
        <ele>392.39999389648</ele>
        <time>2017-03-15T14:58:14.000Z</time>
      </trkpt>
      <trkpt lat="44.39846" lon="4.58863">
        <ele>393.20001220703</ele>
        <time>2017-03-15T14:58:22.000Z</time>
      </trkpt>
      <trkpt lat="44.39843" lon="4.58864">
        <ele>393.39999389648</ele>
        <time>2017-03-15T14:58:23.000Z</time>
      </trkpt>
      <trkpt lat="44.3983" lon="4.58871">
        <ele>394.20001220703</ele>
        <time>2017-03-15T14:58:29.000Z</time>
      </trkpt>
      <trkpt lat="44.39827" lon="4.58872">
        <ele>394.39999389648</ele>
        <time>2017-03-15T14:58:30.000Z</time>
      </trkpt>
      <trkpt lat="44.39823" lon="4.58874">
        <ele>394.60000610352</ele>
        <time>2017-03-15T14:58:32.000Z</time>
      </trkpt>
      <trkpt lat="44.3982" lon="4.58875">
        <ele>395.39999389648</ele>
        <time>2017-03-15T14:58:33.000Z</time>
      </trkpt>
      <trkpt lat="44.3981" lon="4.58878">
        <ele>395.60000610352</ele>
        <time>2017-03-15T14:58:37.000Z</time>
      </trkpt>
      <trkpt lat="44.39798" lon="4.58885">
        <ele>396.39999389648</ele>
        <time>2017-03-15T14:58:42.000Z</time>
      </trkpt>
      <trkpt lat="44.39796" lon="4.58886">
        <ele>396.60000610352</ele>
        <time>2017-03-15T14:58:43.000Z</time>
      </trkpt>
      <trkpt lat="44.39782" lon="4.58894">
        <ele>397</ele>
        <time>2017-03-15T14:58:49.000Z</time>
      </trkpt>
      <trkpt lat="44.3977" lon="4.58901">
        <ele>397.39999389648</ele>
        <time>2017-03-15T14:58:54.000Z</time>
      </trkpt>
      <trkpt lat="44.39766" lon="4.58903">
        <ele>398</ele>
        <time>2017-03-15T14:58:56.000Z</time>
      </trkpt>
      <trkpt lat="44.39754" lon="4.58907">
        <ele>398.60000610352</ele>
        <time>2017-03-15T14:59:01.000Z</time>
      </trkpt>
      <trkpt lat="44.3975" lon="4.58909">
        <ele>399</ele>
        <time>2017-03-15T14:59:03.000Z</time>
      </trkpt>
      <trkpt lat="44.39731" lon="4.58919">
        <ele>399.39999389648</ele>
        <time>2017-03-15T14:59:11.000Z</time>
      </trkpt>
      <trkpt lat="44.39718" lon="4.58922">
        <ele>399.60000610352</ele>
        <time>2017-03-15T14:59:16.000Z</time>
      </trkpt>
      <trkpt lat="44.39714" lon="4.5892">
        <ele>399.79998779297</ele>
        <time>2017-03-15T14:59:18.000Z</time>
      </trkpt>
      <trkpt lat="44.39701" lon="4.58913">
        <ele>400.20001220703</ele>
        <time>2017-03-15T14:59:24.000Z</time>
      </trkpt>
      <trkpt lat="44.39695" lon="4.58905">
        <ele>400.79998779297</ele>
        <time>2017-03-15T14:59:27.000Z</time>
      </trkpt>
      <trkpt lat="44.39687" lon="4.58899">
        <ele>401.20001220703</ele>
        <time>2017-03-15T14:59:31.000Z</time>
      </trkpt>
      <trkpt lat="44.39686" lon="4.58896">
        <ele>401.20001220703</ele>
        <time>2017-03-15T14:59:32.000Z</time>
      </trkpt>
      <trkpt lat="44.39685" lon="4.58885">
        <ele>401</ele>
        <time>2017-03-15T14:59:35.000Z</time>
      </trkpt>
      <trkpt lat="44.39683" lon="4.58865">
        <ele>399.60000610352</ele>
        <time>2017-03-15T14:59:40.000Z</time>
      </trkpt>
      <trkpt lat="44.39683" lon="4.58858">
        <ele>399.79998779297</ele>
        <time>2017-03-15T14:59:42.000Z</time>
      </trkpt>
      <trkpt lat="44.39683" lon="4.58855">
        <ele>400.79998779297</ele>
        <time>2017-03-15T14:59:43.000Z</time>
      </trkpt>
      <trkpt lat="44.39682" lon="4.58851">
        <ele>398.60000610352</ele>
        <time>2017-03-15T14:59:47.000Z</time>
      </trkpt>
      <trkpt lat="44.39682" lon="4.58851">
        <ele>400.79998779297</ele>
        <time>2017-03-15T14:59:50.000Z</time>
      </trkpt>
      <trkpt lat="44.39682" lon="4.58851">
        <ele>399.79998779297</ele>
        <time>2017-03-15T14:59:53.000Z</time>
      </trkpt>
      <trkpt lat="44.39682" lon="4.58851">
        <ele>399.60000610352</ele>
        <time>2017-03-15T14:59:56.000Z</time>
      </trkpt>
      <trkpt lat="44.39682" lon="4.58851">
        <ele>399.79998779297</ele>
        <time>2017-03-15T15:00:03.000Z</time>
      </trkpt>
      <trkpt lat="44.39682" lon="4.58851">
        <ele>398.79998779297</ele>
        <time>2017-03-15T15:00:08.000Z</time>
      </trkpt>
      <trkpt lat="44.39682" lon="4.58851">
        <ele>400.20001220703</ele>
        <time>2017-03-15T15:00:10.000Z</time>
      </trkpt>
      <trkpt lat="44.39682" lon="4.58851">
        <ele>401.20001220703</ele>
        <time>2017-03-15T15:00:13.000Z</time>
      </trkpt>
      <trkpt lat="44.39682" lon="4.58851">
        <ele>400.20001220703</ele>
        <time>2017-03-15T15:00:15.000Z</time>
      </trkpt>
      <trkpt lat="44.39682" lon="4.58851">
        <ele>399</ele>
        <time>2017-03-15T15:00:23.000Z</time>
      </trkpt>
      <trkpt lat="44.39682" lon="4.58851">
        <ele>400.39999389648</ele>
        <time>2017-03-15T15:00:26.000Z</time>
      </trkpt>
      <trkpt lat="44.39682" lon="4.58851">
        <ele>399.79998779297</ele>
        <time>2017-03-15T15:00:27.000Z</time>
      </trkpt>
    </trkseg>
  </trk>
</gpx>